<?xml version="1.0" encoding="UTF-8" standalone="no" ?>
<gpx xmlns="http://www.topografix.com/GPX/1/1" xmlns:xsi="http://www.w3.org/2001/XMLSchema-instance" xsi:schemaLocation="http://www.topografix.com/GPX/1/1 http://www.topografix.com/GPX/1/1/gpx.xsd" version="1.1" creator="VisuGPX - https://www.visugpx.com">
  <metadata>
    <name>Eternoz-ASCD</name>
  </metadata>
  <trk>
    <name><![CDATA[Eternoz-ASCD_1]]></name>
    <extensions>
      <line xmlns="http://www.topografix.com/GPX/gpx_style/0/2">
        <color>0000FF</color>
        <width>4</width>
      </line>
    </extensions>
    <trkseg>
      <trkpt lat="47.00894" lon="6.0216">
        <ele>509.5</ele>
        <time>2022-05-15T08:04:48Z</time>
      </trkpt>
      <trkpt lat="47.00898" lon="6.02158">
        <ele>509</ele>
        <time>2022-05-15T08:05:09Z</time>
      </trkpt>
      <trkpt lat="47.00898" lon="6.02166">
        <ele>508.8</ele>
        <time>2022-05-15T08:05:30Z</time>
      </trkpt>
      <trkpt lat="47.00893" lon="6.02168">
        <ele>510.6</ele>
        <time>2022-05-15T08:09:03Z</time>
      </trkpt>
      <trkpt lat="47.00898" lon="6.02171">
        <ele>514.6</ele>
        <time>2022-05-15T08:09:32Z</time>
      </trkpt>
      <trkpt lat="47.00893" lon="6.02173">
        <ele>511.4</ele>
        <time>2022-05-15T08:11:25Z</time>
      </trkpt>
      <trkpt lat="47.00888" lon="6.02176">
        <ele>511.5</ele>
        <time>2022-05-15T08:11:29Z</time>
      </trkpt>
      <trkpt lat="47.00883" lon="6.02177">
        <ele>511.8</ele>
        <time>2022-05-15T08:11:33Z</time>
      </trkpt>
      <trkpt lat="47.00878" lon="6.02178">
        <ele>511.8</ele>
        <time>2022-05-15T08:11:37Z</time>
      </trkpt>
      <trkpt lat="47.00873" lon="6.02181">
        <ele>511.8</ele>
        <time>2022-05-15T08:11:42Z</time>
      </trkpt>
      <trkpt lat="47.00869" lon="6.02184">
        <ele>512.5</ele>
        <time>2022-05-15T08:11:45Z</time>
      </trkpt>
      <trkpt lat="47.00865" lon="6.02187">
        <ele>513.3</ele>
        <time>2022-05-15T08:11:48Z</time>
      </trkpt>
      <trkpt lat="47.00861" lon="6.02191">
        <ele>514.4</ele>
        <time>2022-05-15T08:11:52Z</time>
      </trkpt>
      <trkpt lat="47.00856" lon="6.02194">
        <ele>515.6</ele>
        <time>2022-05-15T08:11:56Z</time>
      </trkpt>
      <trkpt lat="47.00851" lon="6.02194">
        <ele>516.6</ele>
        <time>2022-05-15T08:12:00Z</time>
      </trkpt>
      <trkpt lat="47.00846" lon="6.02194">
        <ele>517.5</ele>
        <time>2022-05-15T08:12:05Z</time>
      </trkpt>
      <trkpt lat="47.00841" lon="6.02194">
        <ele>517.7</ele>
        <time>2022-05-15T08:12:10Z</time>
      </trkpt>
      <trkpt lat="47.00836" lon="6.02191">
        <ele>517.8</ele>
        <time>2022-05-15T08:12:16Z</time>
      </trkpt>
      <trkpt lat="47.00833" lon="6.02185">
        <ele>517.6</ele>
        <time>2022-05-15T08:12:21Z</time>
      </trkpt>
      <trkpt lat="47.0083" lon="6.02179">
        <ele>517.7</ele>
        <time>2022-05-15T08:12:26Z</time>
      </trkpt>
      <trkpt lat="47.00827" lon="6.02172">
        <ele>518</ele>
        <time>2022-05-15T08:12:31Z</time>
      </trkpt>
      <trkpt lat="47.00825" lon="6.02165">
        <ele>518.4</ele>
        <time>2022-05-15T08:12:36Z</time>
      </trkpt>
      <trkpt lat="47.00822" lon="6.02158">
        <ele>518.7</ele>
        <time>2022-05-15T08:12:41Z</time>
      </trkpt>
      <trkpt lat="47.0082" lon="6.02151">
        <ele>518.9</ele>
        <time>2022-05-15T08:12:46Z</time>
      </trkpt>
      <trkpt lat="47.00819" lon="6.02143">
        <ele>518.9</ele>
        <time>2022-05-15T08:12:51Z</time>
      </trkpt>
      <trkpt lat="47.00818" lon="6.02137">
        <ele>518.6</ele>
        <time>2022-05-15T08:12:56Z</time>
      </trkpt>
      <trkpt lat="47.00816" lon="6.02129">
        <ele>518.3</ele>
        <time>2022-05-15T08:13:01Z</time>
      </trkpt>
      <trkpt lat="47.00815" lon="6.02122">
        <ele>518.3</ele>
        <time>2022-05-15T08:13:06Z</time>
      </trkpt>
      <trkpt lat="47.00814" lon="6.02115">
        <ele>518.3</ele>
        <time>2022-05-15T08:13:10Z</time>
      </trkpt>
      <trkpt lat="47.00812" lon="6.02108">
        <ele>518.1</ele>
        <time>2022-05-15T08:13:14Z</time>
      </trkpt>
      <trkpt lat="47.0081" lon="6.02102">
        <ele>517.7</ele>
        <time>2022-05-15T08:13:18Z</time>
      </trkpt>
      <trkpt lat="47.00807" lon="6.02096">
        <ele>517</ele>
        <time>2022-05-15T08:13:22Z</time>
      </trkpt>
      <trkpt lat="47.00805" lon="6.0209">
        <ele>516.2</ele>
        <time>2022-05-15T08:13:26Z</time>
      </trkpt>
      <trkpt lat="47.00802" lon="6.02083">
        <ele>515.3</ele>
        <time>2022-05-15T08:13:31Z</time>
      </trkpt>
      <trkpt lat="47.00799" lon="6.02076">
        <ele>514.6</ele>
        <time>2022-05-15T08:13:36Z</time>
      </trkpt>
      <trkpt lat="47.00797" lon="6.0207">
        <ele>514.3</ele>
        <time>2022-05-15T08:13:41Z</time>
      </trkpt>
      <trkpt lat="47.00793" lon="6.02065">
        <ele>513.8</ele>
        <time>2022-05-15T08:13:46Z</time>
      </trkpt>
      <trkpt lat="47.00789" lon="6.02061">
        <ele>513.4</ele>
        <time>2022-05-15T08:13:50Z</time>
      </trkpt>
      <trkpt lat="47.00785" lon="6.02056">
        <ele>513.1</ele>
        <time>2022-05-15T08:13:54Z</time>
      </trkpt>
      <trkpt lat="47.00781" lon="6.02052">
        <ele>512.8</ele>
        <time>2022-05-15T08:13:58Z</time>
      </trkpt>
      <trkpt lat="47.00776" lon="6.02047">
        <ele>512.5</ele>
        <time>2022-05-15T08:14:02Z</time>
      </trkpt>
      <trkpt lat="47.00772" lon="6.02044">
        <ele>512</ele>
        <time>2022-05-15T08:14:06Z</time>
      </trkpt>
      <trkpt lat="47.00768" lon="6.0204">
        <ele>511.7</ele>
        <time>2022-05-15T08:14:11Z</time>
      </trkpt>
      <trkpt lat="47.00764" lon="6.02036">
        <ele>511.5</ele>
        <time>2022-05-15T08:14:15Z</time>
      </trkpt>
      <trkpt lat="47.0076" lon="6.0203">
        <ele>511.4</ele>
        <time>2022-05-15T08:14:19Z</time>
      </trkpt>
      <trkpt lat="47.00757" lon="6.02025">
        <ele>511.3</ele>
        <time>2022-05-15T08:14:23Z</time>
      </trkpt>
      <trkpt lat="47.00754" lon="6.02021">
        <ele>511.2</ele>
        <time>2022-05-15T08:14:27Z</time>
      </trkpt>
      <trkpt lat="47.0075" lon="6.02014">
        <ele>511.4</ele>
        <time>2022-05-15T08:14:32Z</time>
      </trkpt>
      <trkpt lat="47.00746" lon="6.02009">
        <ele>511.6</ele>
        <time>2022-05-15T08:14:37Z</time>
      </trkpt>
      <trkpt lat="47.00742" lon="6.02006">
        <ele>511.5</ele>
        <time>2022-05-15T08:14:41Z</time>
      </trkpt>
      <trkpt lat="47.00738" lon="6.02003">
        <ele>511.6</ele>
        <time>2022-05-15T08:14:46Z</time>
      </trkpt>
      <trkpt lat="47.00733" lon="6.02001">
        <ele>511.6</ele>
        <time>2022-05-15T08:14:50Z</time>
      </trkpt>
      <trkpt lat="47.00728" lon="6.01999">
        <ele>511.4</ele>
        <time>2022-05-15T08:14:54Z</time>
      </trkpt>
      <trkpt lat="47.00722" lon="6.02">
        <ele>511.3</ele>
        <time>2022-05-15T08:14:59Z</time>
      </trkpt>
      <trkpt lat="47.00717" lon="6.02001">
        <ele>511.4</ele>
        <time>2022-05-15T08:15:04Z</time>
      </trkpt>
      <trkpt lat="47.00712" lon="6.02">
        <ele>511.3</ele>
        <time>2022-05-15T08:15:08Z</time>
      </trkpt>
      <trkpt lat="47.00707" lon="6.01997">
        <ele>511.2</ele>
        <time>2022-05-15T08:15:13Z</time>
      </trkpt>
      <trkpt lat="47.00703" lon="6.01994">
        <ele>511.3</ele>
        <time>2022-05-15T08:15:17Z</time>
      </trkpt>
      <trkpt lat="47.00699" lon="6.01989">
        <ele>511.9</ele>
        <time>2022-05-15T08:15:22Z</time>
      </trkpt>
      <trkpt lat="47.00694" lon="6.01985">
        <ele>512.4</ele>
        <time>2022-05-15T08:15:27Z</time>
      </trkpt>
      <trkpt lat="47.00689" lon="6.01982">
        <ele>512.7</ele>
        <time>2022-05-15T08:15:32Z</time>
      </trkpt>
      <trkpt lat="47.00684" lon="6.01979">
        <ele>513.2</ele>
        <time>2022-05-15T08:15:37Z</time>
      </trkpt>
      <trkpt lat="47.00678" lon="6.01977">
        <ele>513.6</ele>
        <time>2022-05-15T08:15:41Z</time>
      </trkpt>
      <trkpt lat="47.00673" lon="6.01975">
        <ele>514.1</ele>
        <time>2022-05-15T08:15:45Z</time>
      </trkpt>
      <trkpt lat="47.00669" lon="6.01973">
        <ele>514.2</ele>
        <time>2022-05-15T08:15:48Z</time>
      </trkpt>
      <trkpt lat="47.00664" lon="6.01972">
        <ele>514.4</ele>
        <time>2022-05-15T08:15:53Z</time>
      </trkpt>
      <trkpt lat="47.00659" lon="6.01972">
        <ele>514.7</ele>
        <time>2022-05-15T08:15:58Z</time>
      </trkpt>
      <trkpt lat="47.00654" lon="6.01972">
        <ele>515.1</ele>
        <time>2022-05-15T08:16:03Z</time>
      </trkpt>
      <trkpt lat="47.00649" lon="6.01969">
        <ele>515.5</ele>
        <time>2022-05-15T08:16:09Z</time>
      </trkpt>
      <trkpt lat="47.00644" lon="6.01966">
        <ele>515.3</ele>
        <time>2022-05-15T08:16:13Z</time>
      </trkpt>
      <trkpt lat="47.00639" lon="6.01964">
        <ele>515.5</ele>
        <time>2022-05-15T08:16:18Z</time>
      </trkpt>
      <trkpt lat="47.00634" lon="6.01962">
        <ele>516</ele>
        <time>2022-05-15T08:16:24Z</time>
      </trkpt>
      <trkpt lat="47.00629" lon="6.0196">
        <ele>516.6</ele>
        <time>2022-05-15T08:16:29Z</time>
      </trkpt>
      <trkpt lat="47.00624" lon="6.01961">
        <ele>516.9</ele>
        <time>2022-05-15T08:16:33Z</time>
      </trkpt>
      <trkpt lat="47.00619" lon="6.01961">
        <ele>517.3</ele>
        <time>2022-05-15T08:16:37Z</time>
      </trkpt>
      <trkpt lat="47.00613" lon="6.01959">
        <ele>517.8</ele>
        <time>2022-05-15T08:16:41Z</time>
      </trkpt>
      <trkpt lat="47.00609" lon="6.01956">
        <ele>518.4</ele>
        <time>2022-05-15T08:16:45Z</time>
      </trkpt>
      <trkpt lat="47.00603" lon="6.01955">
        <ele>518.8</ele>
        <time>2022-05-15T08:16:50Z</time>
      </trkpt>
      <trkpt lat="47.00597" lon="6.01953">
        <ele>519.2</ele>
        <time>2022-05-15T08:16:54Z</time>
      </trkpt>
      <trkpt lat="47.00592" lon="6.01952">
        <ele>519.2</ele>
        <time>2022-05-15T08:17:02Z</time>
      </trkpt>
      <trkpt lat="47.00586" lon="6.01954">
        <ele>518.8</ele>
        <time>2022-05-15T08:17:07Z</time>
      </trkpt>
      <trkpt lat="47.00581" lon="6.01953">
        <ele>518.1</ele>
        <time>2022-05-15T08:17:12Z</time>
      </trkpt>
      <trkpt lat="47.00576" lon="6.01952">
        <ele>517.5</ele>
        <time>2022-05-15T08:17:16Z</time>
      </trkpt>
      <trkpt lat="47.00572" lon="6.01952">
        <ele>517.2</ele>
        <time>2022-05-15T08:17:20Z</time>
      </trkpt>
      <trkpt lat="47.00567" lon="6.01953">
        <ele>517.1</ele>
        <time>2022-05-15T08:17:24Z</time>
      </trkpt>
      <trkpt lat="47.00562" lon="6.01951">
        <ele>516.9</ele>
        <time>2022-05-15T08:17:29Z</time>
      </trkpt>
      <trkpt lat="47.00557" lon="6.01952">
        <ele>516.8</ele>
        <time>2022-05-15T08:17:35Z</time>
      </trkpt>
      <trkpt lat="47.00552" lon="6.01952">
        <ele>516.9</ele>
        <time>2022-05-15T08:17:39Z</time>
      </trkpt>
      <trkpt lat="47.00546" lon="6.01952">
        <ele>517</ele>
        <time>2022-05-15T08:17:43Z</time>
      </trkpt>
      <trkpt lat="47.00541" lon="6.0195">
        <ele>517.1</ele>
        <time>2022-05-15T08:17:47Z</time>
      </trkpt>
      <trkpt lat="47.00536" lon="6.01948">
        <ele>517.5</ele>
        <time>2022-05-15T08:17:51Z</time>
      </trkpt>
      <trkpt lat="47.00531" lon="6.01945">
        <ele>517.8</ele>
        <time>2022-05-15T08:17:55Z</time>
      </trkpt>
      <trkpt lat="47.00528" lon="6.01941">
        <ele>518.2</ele>
        <time>2022-05-15T08:18:00Z</time>
      </trkpt>
      <trkpt lat="47.00524" lon="6.01936">
        <ele>518.4</ele>
        <time>2022-05-15T08:18:05Z</time>
      </trkpt>
      <trkpt lat="47.0052" lon="6.01932">
        <ele>518.3</ele>
        <time>2022-05-15T08:18:09Z</time>
      </trkpt>
      <trkpt lat="47.00515" lon="6.01929">
        <ele>518</ele>
        <time>2022-05-15T08:18:13Z</time>
      </trkpt>
      <trkpt lat="47.00511" lon="6.01923">
        <ele>517.4</ele>
        <time>2022-05-15T08:18:18Z</time>
      </trkpt>
      <trkpt lat="47.00506" lon="6.01919">
        <ele>516.5</ele>
        <time>2022-05-15T08:18:22Z</time>
      </trkpt>
      <trkpt lat="47.00502" lon="6.01916">
        <ele>515.7</ele>
        <time>2022-05-15T08:18:25Z</time>
      </trkpt>
      <trkpt lat="47.00499" lon="6.01911">
        <ele>514.9</ele>
        <time>2022-05-15T08:18:30Z</time>
      </trkpt>
      <trkpt lat="47.00496" lon="6.01905">
        <ele>514</ele>
        <time>2022-05-15T08:18:35Z</time>
      </trkpt>
      <trkpt lat="47.00493" lon="6.01899">
        <ele>513.1</ele>
        <time>2022-05-15T08:18:41Z</time>
      </trkpt>
      <trkpt lat="47.00491" lon="6.01893">
        <ele>512.4</ele>
        <time>2022-05-15T08:18:46Z</time>
      </trkpt>
      <trkpt lat="47.00487" lon="6.01886">
        <ele>511.7</ele>
        <time>2022-05-15T08:18:50Z</time>
      </trkpt>
      <trkpt lat="47.00484" lon="6.0188">
        <ele>510.9</ele>
        <time>2022-05-15T08:18:54Z</time>
      </trkpt>
      <trkpt lat="47.00482" lon="6.01874">
        <ele>510</ele>
        <time>2022-05-15T08:18:58Z</time>
      </trkpt>
      <trkpt lat="47.00479" lon="6.01867">
        <ele>508.4</ele>
        <time>2022-05-15T08:19:04Z</time>
      </trkpt>
      <trkpt lat="47.00477" lon="6.01861">
        <ele>507.3</ele>
        <time>2022-05-15T08:19:09Z</time>
      </trkpt>
      <trkpt lat="47.00474" lon="6.01854">
        <ele>506.2</ele>
        <time>2022-05-15T08:19:14Z</time>
      </trkpt>
      <trkpt lat="47.00471" lon="6.01848">
        <ele>505.5</ele>
        <time>2022-05-15T08:19:18Z</time>
      </trkpt>
      <trkpt lat="47.00467" lon="6.01845">
        <ele>504.9</ele>
        <time>2022-05-15T08:19:23Z</time>
      </trkpt>
      <trkpt lat="47.00462" lon="6.01841">
        <ele>504</ele>
        <time>2022-05-15T08:19:28Z</time>
      </trkpt>
      <trkpt lat="47.00457" lon="6.01836">
        <ele>503</ele>
        <time>2022-05-15T08:19:32Z</time>
      </trkpt>
      <trkpt lat="47.00453" lon="6.01832">
        <ele>502.1</ele>
        <time>2022-05-15T08:19:35Z</time>
      </trkpt>
      <trkpt lat="47.00449" lon="6.01826">
        <ele>501</ele>
        <time>2022-05-15T08:19:39Z</time>
      </trkpt>
      <trkpt lat="47.00445" lon="6.01821">
        <ele>500.1</ele>
        <time>2022-05-15T08:19:42Z</time>
      </trkpt>
      <trkpt lat="47.00442" lon="6.01815">
        <ele>499</ele>
        <time>2022-05-15T08:19:46Z</time>
      </trkpt>
      <trkpt lat="47.00438" lon="6.0181">
        <ele>497.6</ele>
        <time>2022-05-15T08:19:52Z</time>
      </trkpt>
      <trkpt lat="47.00434" lon="6.01806">
        <ele>496.1</ele>
        <time>2022-05-15T08:19:58Z</time>
      </trkpt>
      <trkpt lat="47.0043" lon="6.01803">
        <ele>495.1</ele>
        <time>2022-05-15T08:20:03Z</time>
      </trkpt>
      <trkpt lat="47.00426" lon="6.01799">
        <ele>494.4</ele>
        <time>2022-05-15T08:20:07Z</time>
      </trkpt>
      <trkpt lat="47.00423" lon="6.01794">
        <ele>493.8</ele>
        <time>2022-05-15T08:20:11Z</time>
      </trkpt>
      <trkpt lat="47.00421" lon="6.01788">
        <ele>493</ele>
        <time>2022-05-15T08:20:15Z</time>
      </trkpt>
      <trkpt lat="47.00418" lon="6.01782">
        <ele>492.2</ele>
        <time>2022-05-15T08:20:19Z</time>
      </trkpt>
      <trkpt lat="47.00414" lon="6.01778">
        <ele>491.4</ele>
        <time>2022-05-15T08:20:24Z</time>
      </trkpt>
      <trkpt lat="47.00411" lon="6.01772">
        <ele>490.6</ele>
        <time>2022-05-15T08:20:29Z</time>
      </trkpt>
      <trkpt lat="47.00409" lon="6.01766">
        <ele>490</ele>
        <time>2022-05-15T08:20:34Z</time>
      </trkpt>
      <trkpt lat="47.00405" lon="6.01762">
        <ele>489.4</ele>
        <time>2022-05-15T08:20:38Z</time>
      </trkpt>
      <trkpt lat="47.00401" lon="6.01756">
        <ele>488.7</ele>
        <time>2022-05-15T08:20:43Z</time>
      </trkpt>
      <trkpt lat="47.00399" lon="6.01751">
        <ele>488.2</ele>
        <time>2022-05-15T08:20:47Z</time>
      </trkpt>
      <trkpt lat="47.00397" lon="6.01743">
        <ele>487.9</ele>
        <time>2022-05-15T08:20:52Z</time>
      </trkpt>
      <trkpt lat="47.00396" lon="6.01736">
        <ele>487.9</ele>
        <time>2022-05-15T08:20:57Z</time>
      </trkpt>
      <trkpt lat="47.00395" lon="6.01729">
        <ele>487.9</ele>
        <time>2022-05-15T08:21:02Z</time>
      </trkpt>
      <trkpt lat="47.00396" lon="6.01722">
        <ele>488.1</ele>
        <time>2022-05-15T08:21:08Z</time>
      </trkpt>
      <trkpt lat="47.00394" lon="6.01715">
        <ele>488</ele>
        <time>2022-05-15T08:21:13Z</time>
      </trkpt>
      <trkpt lat="47.00394" lon="6.01709">
        <ele>488</ele>
        <time>2022-05-15T08:21:17Z</time>
      </trkpt>
      <trkpt lat="47.00393" lon="6.017">
        <ele>487.9</ele>
        <time>2022-05-15T08:21:22Z</time>
      </trkpt>
      <trkpt lat="47.00391" lon="6.01693">
        <ele>487.4</ele>
        <time>2022-05-15T08:21:27Z</time>
      </trkpt>
      <trkpt lat="47.00388" lon="6.01687">
        <ele>487.3</ele>
        <time>2022-05-15T08:21:31Z</time>
      </trkpt>
      <trkpt lat="47.00385" lon="6.0168">
        <ele>487.2</ele>
        <time>2022-05-15T08:21:35Z</time>
      </trkpt>
      <trkpt lat="47.00382" lon="6.01675">
        <ele>487</ele>
        <time>2022-05-15T08:21:38Z</time>
      </trkpt>
      <trkpt lat="47.00379" lon="6.0167">
        <ele>486.7</ele>
        <time>2022-05-15T08:21:41Z</time>
      </trkpt>
      <trkpt lat="47.00376" lon="6.01664">
        <ele>486.2</ele>
        <time>2022-05-15T08:21:44Z</time>
      </trkpt>
      <trkpt lat="47.00374" lon="6.01657">
        <ele>485.4</ele>
        <time>2022-05-15T08:21:50Z</time>
      </trkpt>
      <trkpt lat="47.00371" lon="6.01651">
        <ele>484.5</ele>
        <time>2022-05-15T08:21:56Z</time>
      </trkpt>
      <trkpt lat="47.0037" lon="6.01643">
        <ele>484.1</ele>
        <time>2022-05-15T08:22:02Z</time>
      </trkpt>
      <trkpt lat="47.00368" lon="6.01637">
        <ele>483.9</ele>
        <time>2022-05-15T08:22:06Z</time>
      </trkpt>
      <trkpt lat="47.00368" lon="6.01631">
        <ele>483.5</ele>
        <time>2022-05-15T08:22:11Z</time>
      </trkpt>
      <trkpt lat="47.00371" lon="6.01625">
        <ele>483.1</ele>
        <time>2022-05-15T08:22:15Z</time>
      </trkpt>
      <trkpt lat="47.00371" lon="6.01618">
        <ele>482.7</ele>
        <time>2022-05-15T08:22:21Z</time>
      </trkpt>
      <trkpt lat="47.00369" lon="6.01611">
        <ele>482.4</ele>
        <time>2022-05-15T08:22:26Z</time>
      </trkpt>
      <trkpt lat="47.00368" lon="6.01604">
        <ele>482.3</ele>
        <time>2022-05-15T08:22:30Z</time>
      </trkpt>
      <trkpt lat="47.00364" lon="6.01598">
        <ele>482.3</ele>
        <time>2022-05-15T08:22:33Z</time>
      </trkpt>
      <trkpt lat="47.0036" lon="6.01593">
        <ele>482.1</ele>
        <time>2022-05-15T08:22:36Z</time>
      </trkpt>
      <trkpt lat="47.00357" lon="6.01587">
        <ele>481.7</ele>
        <time>2022-05-15T08:22:39Z</time>
      </trkpt>
      <trkpt lat="47.00356" lon="6.01579">
        <ele>481.3</ele>
        <time>2022-05-15T08:22:43Z</time>
      </trkpt>
      <trkpt lat="47.00358" lon="6.01573">
        <ele>481.3</ele>
        <time>2022-05-15T08:22:48Z</time>
      </trkpt>
      <trkpt lat="47.00357" lon="6.01565">
        <ele>480.8</ele>
        <time>2022-05-15T08:22:55Z</time>
      </trkpt>
      <trkpt lat="47.00355" lon="6.01559">
        <ele>480</ele>
        <time>2022-05-15T08:23:00Z</time>
      </trkpt>
      <trkpt lat="47.00354" lon="6.01553">
        <ele>479.1</ele>
        <time>2022-05-15T08:23:05Z</time>
      </trkpt>
      <trkpt lat="47.00352" lon="6.01545">
        <ele>478.3</ele>
        <time>2022-05-15T08:23:11Z</time>
      </trkpt>
      <trkpt lat="47.0035" lon="6.01539">
        <ele>477.5</ele>
        <time>2022-05-15T08:23:15Z</time>
      </trkpt>
      <trkpt lat="47.00348" lon="6.01533">
        <ele>476.9</ele>
        <time>2022-05-15T08:23:21Z</time>
      </trkpt>
      <trkpt lat="47.00347" lon="6.01526">
        <ele>476.7</ele>
        <time>2022-05-15T08:23:26Z</time>
      </trkpt>
      <trkpt lat="47.00344" lon="6.0152">
        <ele>476.7</ele>
        <time>2022-05-15T08:23:31Z</time>
      </trkpt>
      <trkpt lat="47.0034" lon="6.01517">
        <ele>476.7</ele>
        <time>2022-05-15T08:23:34Z</time>
      </trkpt>
      <trkpt lat="47.00337" lon="6.01509">
        <ele>477.1</ele>
        <time>2022-05-15T08:23:38Z</time>
      </trkpt>
      <trkpt lat="47.00334" lon="6.01504">
        <ele>477.5</ele>
        <time>2022-05-15T08:23:41Z</time>
      </trkpt>
      <trkpt lat="47.00331" lon="6.01498">
        <ele>478.2</ele>
        <time>2022-05-15T08:23:46Z</time>
      </trkpt>
      <trkpt lat="47.00329" lon="6.01491">
        <ele>478.6</ele>
        <time>2022-05-15T08:23:51Z</time>
      </trkpt>
      <trkpt lat="47.00327" lon="6.01484">
        <ele>478.7</ele>
        <time>2022-05-15T08:23:55Z</time>
      </trkpt>
      <trkpt lat="47.00328" lon="6.01477">
        <ele>479.1</ele>
        <time>2022-05-15T08:24:00Z</time>
      </trkpt>
      <trkpt lat="47.00329" lon="6.01469">
        <ele>479.4</ele>
        <time>2022-05-15T08:24:05Z</time>
      </trkpt>
      <trkpt lat="47.00328" lon="6.01462">
        <ele>479.3</ele>
        <time>2022-05-15T08:24:09Z</time>
      </trkpt>
      <trkpt lat="47.00326" lon="6.01455">
        <ele>478.8</ele>
        <time>2022-05-15T08:24:13Z</time>
      </trkpt>
      <trkpt lat="47.00324" lon="6.0145">
        <ele>478.4</ele>
        <time>2022-05-15T08:24:17Z</time>
      </trkpt>
      <trkpt lat="47.00321" lon="6.01444">
        <ele>477.9</ele>
        <time>2022-05-15T08:24:21Z</time>
      </trkpt>
      <trkpt lat="47.00319" lon="6.01437">
        <ele>477.2</ele>
        <time>2022-05-15T08:24:25Z</time>
      </trkpt>
      <trkpt lat="47.00318" lon="6.0143">
        <ele>476.7</ele>
        <time>2022-05-15T08:24:29Z</time>
      </trkpt>
      <trkpt lat="47.00317" lon="6.01423">
        <ele>475.9</ele>
        <time>2022-05-15T08:24:34Z</time>
      </trkpt>
      <trkpt lat="47.00316" lon="6.01416">
        <ele>474.2</ele>
        <time>2022-05-15T08:24:39Z</time>
      </trkpt>
      <trkpt lat="47.00313" lon="6.0141">
        <ele>472.3</ele>
        <time>2022-05-15T08:24:44Z</time>
      </trkpt>
      <trkpt lat="47.00309" lon="6.01406">
        <ele>471</ele>
        <time>2022-05-15T08:24:49Z</time>
      </trkpt>
      <trkpt lat="47.00306" lon="6.014">
        <ele>469.8</ele>
        <time>2022-05-15T08:24:55Z</time>
      </trkpt>
      <trkpt lat="47.00303" lon="6.01395">
        <ele>469.2</ele>
        <time>2022-05-15T08:24:59Z</time>
      </trkpt>
      <trkpt lat="47.003" lon="6.01388">
        <ele>468.4</ele>
        <time>2022-05-15T08:25:04Z</time>
      </trkpt>
      <trkpt lat="47.00299" lon="6.01381">
        <ele>467.6</ele>
        <time>2022-05-15T08:25:09Z</time>
      </trkpt>
      <trkpt lat="47.00298" lon="6.01374">
        <ele>467.1</ele>
        <time>2022-05-15T08:25:14Z</time>
      </trkpt>
      <trkpt lat="47.00296" lon="6.01367">
        <ele>466.8</ele>
        <time>2022-05-15T08:25:19Z</time>
      </trkpt>
      <trkpt lat="47.00296" lon="6.0136">
        <ele>466.5</ele>
        <time>2022-05-15T08:25:24Z</time>
      </trkpt>
      <trkpt lat="47.00294" lon="6.01353">
        <ele>466</ele>
        <time>2022-05-15T08:25:29Z</time>
      </trkpt>
      <trkpt lat="47.00293" lon="6.01345">
        <ele>465.3</ele>
        <time>2022-05-15T08:25:34Z</time>
      </trkpt>
      <trkpt lat="47.00289" lon="6.01341">
        <ele>463.8</ele>
        <time>2022-05-15T08:25:41Z</time>
      </trkpt>
      <trkpt lat="47.00288" lon="6.01347">
        <ele>460</ele>
        <time>2022-05-15T08:26:08Z</time>
      </trkpt>
      <trkpt lat="47.00292" lon="6.01353">
        <ele>459</ele>
        <time>2022-05-15T08:26:14Z</time>
      </trkpt>
      <trkpt lat="47.00294" lon="6.01359">
        <ele>458.4</ele>
        <time>2022-05-15T08:26:18Z</time>
      </trkpt>
      <trkpt lat="47.00295" lon="6.01367">
        <ele>457.5</ele>
        <time>2022-05-15T08:26:22Z</time>
      </trkpt>
      <trkpt lat="47.00297" lon="6.01375">
        <ele>456.2</ele>
        <time>2022-05-15T08:26:26Z</time>
      </trkpt>
      <trkpt lat="47.00298" lon="6.01382">
        <ele>454.6</ele>
        <time>2022-05-15T08:26:31Z</time>
      </trkpt>
      <trkpt lat="47.00297" lon="6.01389">
        <ele>453.2</ele>
        <time>2022-05-15T08:26:35Z</time>
      </trkpt>
      <trkpt lat="47.00295" lon="6.01395">
        <ele>452</ele>
        <time>2022-05-15T08:26:38Z</time>
      </trkpt>
      <trkpt lat="47.00294" lon="6.01402">
        <ele>449.9</ele>
        <time>2022-05-15T08:26:43Z</time>
      </trkpt>
      <trkpt lat="47.00297" lon="6.01408">
        <ele>448</ele>
        <time>2022-05-15T08:26:48Z</time>
      </trkpt>
      <trkpt lat="47.00298" lon="6.01415">
        <ele>446.4</ele>
        <time>2022-05-15T08:26:53Z</time>
      </trkpt>
      <trkpt lat="47.00297" lon="6.01422">
        <ele>444.9</ele>
        <time>2022-05-15T08:26:58Z</time>
      </trkpt>
      <trkpt lat="47.00297" lon="6.01428">
        <ele>443.3</ele>
        <time>2022-05-15T08:27:04Z</time>
      </trkpt>
      <trkpt lat="47.00296" lon="6.01436">
        <ele>441.8</ele>
        <time>2022-05-15T08:27:09Z</time>
      </trkpt>
      <trkpt lat="47.00299" lon="6.01441">
        <ele>440.6</ele>
        <time>2022-05-15T08:27:14Z</time>
      </trkpt>
      <trkpt lat="47.00301" lon="6.01449">
        <ele>440.1</ele>
        <time>2022-05-15T08:27:21Z</time>
      </trkpt>
      <trkpt lat="47.00303" lon="6.01457">
        <ele>439.5</ele>
        <time>2022-05-15T08:27:26Z</time>
      </trkpt>
      <trkpt lat="47.00303" lon="6.01464">
        <ele>439.2</ele>
        <time>2022-05-15T08:27:30Z</time>
      </trkpt>
      <trkpt lat="47.00304" lon="6.01471">
        <ele>439.5</ele>
        <time>2022-05-15T08:27:35Z</time>
      </trkpt>
      <trkpt lat="47.00303" lon="6.01478">
        <ele>438.8</ele>
        <time>2022-05-15T08:27:42Z</time>
      </trkpt>
      <trkpt lat="47.00302" lon="6.01485">
        <ele>438.3</ele>
        <time>2022-05-15T08:27:45Z</time>
      </trkpt>
      <trkpt lat="47.00301" lon="6.01493">
        <ele>437.7</ele>
        <time>2022-05-15T08:27:50Z</time>
      </trkpt>
      <trkpt lat="47.003" lon="6.015">
        <ele>436.9</ele>
        <time>2022-05-15T08:27:55Z</time>
      </trkpt>
      <trkpt lat="47.00301" lon="6.01506">
        <ele>435.9</ele>
        <time>2022-05-15T08:28:03Z</time>
      </trkpt>
      <trkpt lat="47.00301" lon="6.01515">
        <ele>435.6</ele>
        <time>2022-05-15T08:28:09Z</time>
      </trkpt>
      <trkpt lat="47.00302" lon="6.01523">
        <ele>435.3</ele>
        <time>2022-05-15T08:28:12Z</time>
      </trkpt>
      <trkpt lat="47.00302" lon="6.0153">
        <ele>434.9</ele>
        <time>2022-05-15T08:28:17Z</time>
      </trkpt>
      <trkpt lat="47.00302" lon="6.01538">
        <ele>434.2</ele>
        <time>2022-05-15T08:28:22Z</time>
      </trkpt>
      <trkpt lat="47.00303" lon="6.01544">
        <ele>433.5</ele>
        <time>2022-05-15T08:28:25Z</time>
      </trkpt>
      <trkpt lat="47.00302" lon="6.01551">
        <ele>432.6</ele>
        <time>2022-05-15T08:28:29Z</time>
      </trkpt>
      <trkpt lat="47.00304" lon="6.01558">
        <ele>431.8</ele>
        <time>2022-05-15T08:28:34Z</time>
      </trkpt>
      <trkpt lat="47.00306" lon="6.01564">
        <ele>431.4</ele>
        <time>2022-05-15T08:28:40Z</time>
      </trkpt>
      <trkpt lat="47.00308" lon="6.0157">
        <ele>429.8</ele>
        <time>2022-05-15T08:28:46Z</time>
      </trkpt>
      <trkpt lat="47.00311" lon="6.01576">
        <ele>428.5</ele>
        <time>2022-05-15T08:28:50Z</time>
      </trkpt>
      <trkpt lat="47.00311" lon="6.01584">
        <ele>427.2</ele>
        <time>2022-05-15T08:28:56Z</time>
      </trkpt>
      <trkpt lat="47.0031" lon="6.0159">
        <ele>427</ele>
        <time>2022-05-15T08:29:01Z</time>
      </trkpt>
      <trkpt lat="47.00309" lon="6.01596">
        <ele>427</ele>
        <time>2022-05-15T08:29:06Z</time>
      </trkpt>
      <trkpt lat="47.00307" lon="6.01606">
        <ele>426.9</ele>
        <time>2022-05-15T08:29:09Z</time>
      </trkpt>
      <trkpt lat="47.00307" lon="6.01614">
        <ele>426.8</ele>
        <time>2022-05-15T08:29:12Z</time>
      </trkpt>
      <trkpt lat="47.00306" lon="6.01621">
        <ele>426.7</ele>
        <time>2022-05-15T08:29:15Z</time>
      </trkpt>
      <trkpt lat="47.00306" lon="6.01628">
        <ele>426.6</ele>
        <time>2022-05-15T08:29:18Z</time>
      </trkpt>
      <trkpt lat="47.00306" lon="6.01635">
        <ele>426.7</ele>
        <time>2022-05-15T08:29:23Z</time>
      </trkpt>
      <trkpt lat="47.00306" lon="6.01642">
        <ele>426</ele>
        <time>2022-05-15T08:29:28Z</time>
      </trkpt>
      <trkpt lat="47.00309" lon="6.01648">
        <ele>425</ele>
        <time>2022-05-15T08:29:34Z</time>
      </trkpt>
      <trkpt lat="47.00311" lon="6.01654">
        <ele>424.2</ele>
        <time>2022-05-15T08:29:43Z</time>
      </trkpt>
      <trkpt lat="47.00313" lon="6.01661">
        <ele>423.9</ele>
        <time>2022-05-15T08:29:48Z</time>
      </trkpt>
      <trkpt lat="47.00313" lon="6.01669">
        <ele>423.8</ele>
        <time>2022-05-15T08:29:52Z</time>
      </trkpt>
      <trkpt lat="47.00311" lon="6.01676">
        <ele>423.7</ele>
        <time>2022-05-15T08:29:56Z</time>
      </trkpt>
      <trkpt lat="47.00311" lon="6.01685">
        <ele>423.6</ele>
        <time>2022-05-15T08:29:59Z</time>
      </trkpt>
      <trkpt lat="47.0031" lon="6.01694">
        <ele>423.7</ele>
        <time>2022-05-15T08:30:02Z</time>
      </trkpt>
      <trkpt lat="47.0031" lon="6.01703">
        <ele>424</ele>
        <time>2022-05-15T08:30:05Z</time>
      </trkpt>
      <trkpt lat="47.00312" lon="6.0171">
        <ele>423.5</ele>
        <time>2022-05-15T08:30:08Z</time>
      </trkpt>
      <trkpt lat="47.00313" lon="6.01718">
        <ele>422.8</ele>
        <time>2022-05-15T08:30:12Z</time>
      </trkpt>
      <trkpt lat="47.00313" lon="6.01725">
        <ele>422.4</ele>
        <time>2022-05-15T08:30:16Z</time>
      </trkpt>
      <trkpt lat="47.00312" lon="6.01733">
        <ele>422.4</ele>
        <time>2022-05-15T08:30:20Z</time>
      </trkpt>
      <trkpt lat="47.0031" lon="6.0174">
        <ele>423.2</ele>
        <time>2022-05-15T08:30:26Z</time>
      </trkpt>
      <trkpt lat="47.00314" lon="6.01745">
        <ele>424</ele>
        <time>2022-05-15T08:30:31Z</time>
      </trkpt>
      <trkpt lat="47.00318" lon="6.01749">
        <ele>424.3</ele>
        <time>2022-05-15T08:30:35Z</time>
      </trkpt>
      <trkpt lat="47.00319" lon="6.01756">
        <ele>424.9</ele>
        <time>2022-05-15T08:30:42Z</time>
      </trkpt>
      <trkpt lat="47.00319" lon="6.01764">
        <ele>425.5</ele>
        <time>2022-05-15T08:30:46Z</time>
      </trkpt>
      <trkpt lat="47.00319" lon="6.01772">
        <ele>426.6</ele>
        <time>2022-05-15T08:30:50Z</time>
      </trkpt>
      <trkpt lat="47.0032" lon="6.01779">
        <ele>428.3</ele>
        <time>2022-05-15T08:30:55Z</time>
      </trkpt>
      <trkpt lat="47.0032" lon="6.01786">
        <ele>429.7</ele>
        <time>2022-05-15T08:31:00Z</time>
      </trkpt>
      <trkpt lat="47.00322" lon="6.01792">
        <ele>430.8</ele>
        <time>2022-05-15T08:31:07Z</time>
      </trkpt>
      <trkpt lat="47.00322" lon="6.01799">
        <ele>431.4</ele>
        <time>2022-05-15T08:31:14Z</time>
      </trkpt>
      <trkpt lat="47.00322" lon="6.01807">
        <ele>430.9</ele>
        <time>2022-05-15T08:31:21Z</time>
      </trkpt>
      <trkpt lat="47.00322" lon="6.01814">
        <ele>430.3</ele>
        <time>2022-05-15T08:31:25Z</time>
      </trkpt>
      <trkpt lat="47.00321" lon="6.01821">
        <ele>429.9</ele>
        <time>2022-05-15T08:31:29Z</time>
      </trkpt>
      <trkpt lat="47.00322" lon="6.01829">
        <ele>429.7</ele>
        <time>2022-05-15T08:31:34Z</time>
      </trkpt>
      <trkpt lat="47.00324" lon="6.01836">
        <ele>429.9</ele>
        <time>2022-05-15T08:31:40Z</time>
      </trkpt>
      <trkpt lat="47.00324" lon="6.01844">
        <ele>430.5</ele>
        <time>2022-05-15T08:31:44Z</time>
      </trkpt>
      <trkpt lat="47.00326" lon="6.01852">
        <ele>431</ele>
        <time>2022-05-15T08:31:48Z</time>
      </trkpt>
      <trkpt lat="47.00324" lon="6.01861">
        <ele>432.4</ele>
        <time>2022-05-15T08:31:55Z</time>
      </trkpt>
      <trkpt lat="47.00321" lon="6.01866">
        <ele>432.4</ele>
        <time>2022-05-15T08:31:58Z</time>
      </trkpt>
      <trkpt lat="47.00322" lon="6.01873">
        <ele>431.5</ele>
        <time>2022-05-15T08:32:03Z</time>
      </trkpt>
      <trkpt lat="47.00327" lon="6.01873">
        <ele>430</ele>
        <time>2022-05-15T08:32:07Z</time>
      </trkpt>
      <trkpt lat="47.00331" lon="6.01878">
        <ele>428.3</ele>
        <time>2022-05-15T08:32:12Z</time>
      </trkpt>
      <trkpt lat="47.00335" lon="6.01884">
        <ele>426.5</ele>
        <time>2022-05-15T08:32:17Z</time>
      </trkpt>
      <trkpt lat="47.00337" lon="6.0189">
        <ele>425.8</ele>
        <time>2022-05-15T08:32:20Z</time>
      </trkpt>
      <trkpt lat="47.0034" lon="6.01898">
        <ele>425.6</ele>
        <time>2022-05-15T08:32:23Z</time>
      </trkpt>
      <trkpt lat="47.00341" lon="6.01905">
        <ele>425.5</ele>
        <time>2022-05-15T08:32:27Z</time>
      </trkpt>
      <trkpt lat="47.00343" lon="6.01913">
        <ele>425.1</ele>
        <time>2022-05-15T08:32:32Z</time>
      </trkpt>
      <trkpt lat="47.00342" lon="6.0192">
        <ele>424.9</ele>
        <time>2022-05-15T08:32:37Z</time>
      </trkpt>
      <trkpt lat="47.00344" lon="6.01928">
        <ele>424.9</ele>
        <time>2022-05-15T08:32:43Z</time>
      </trkpt>
      <trkpt lat="47.00348" lon="6.01932">
        <ele>424</ele>
        <time>2022-05-15T08:32:53Z</time>
      </trkpt>
      <trkpt lat="47.00351" lon="6.01937">
        <ele>424</ele>
        <time>2022-05-15T08:32:56Z</time>
      </trkpt>
      <trkpt lat="47.00353" lon="6.01943">
        <ele>424</ele>
        <time>2022-05-15T08:32:59Z</time>
      </trkpt>
      <trkpt lat="47.00354" lon="6.0195">
        <ele>424</ele>
        <time>2022-05-15T08:33:03Z</time>
      </trkpt>
      <trkpt lat="47.00357" lon="6.01955">
        <ele>423.9</ele>
        <time>2022-05-15T08:33:08Z</time>
      </trkpt>
      <trkpt lat="47.00359" lon="6.01961">
        <ele>423.8</ele>
        <time>2022-05-15T08:33:12Z</time>
      </trkpt>
      <trkpt lat="47.00365" lon="6.01964">
        <ele>424.1</ele>
        <time>2022-05-15T08:33:17Z</time>
      </trkpt>
      <trkpt lat="47.00369" lon="6.01967">
        <ele>424.2</ele>
        <time>2022-05-15T08:33:22Z</time>
      </trkpt>
      <trkpt lat="47.00369" lon="6.01975">
        <ele>424.3</ele>
        <time>2022-05-15T08:33:28Z</time>
      </trkpt>
      <trkpt lat="47.00369" lon="6.01982">
        <ele>424.2</ele>
        <time>2022-05-15T08:33:32Z</time>
      </trkpt>
      <trkpt lat="47.0037" lon="6.01988">
        <ele>423.8</ele>
        <time>2022-05-15T08:33:37Z</time>
      </trkpt>
      <trkpt lat="47.00374" lon="6.01992">
        <ele>423.5</ele>
        <time>2022-05-15T08:33:41Z</time>
      </trkpt>
      <trkpt lat="47.00379" lon="6.01995">
        <ele>423</ele>
        <time>2022-05-15T08:33:46Z</time>
      </trkpt>
      <trkpt lat="47.00382" lon="6.02001">
        <ele>422.1</ele>
        <time>2022-05-15T08:33:52Z</time>
      </trkpt>
      <trkpt lat="47.00383" lon="6.02008">
        <ele>421.5</ele>
        <time>2022-05-15T08:33:56Z</time>
      </trkpt>
      <trkpt lat="47.00383" lon="6.02017">
        <ele>421.3</ele>
        <time>2022-05-15T08:33:59Z</time>
      </trkpt>
      <trkpt lat="47.00383" lon="6.02025">
        <ele>421.6</ele>
        <time>2022-05-15T08:34:03Z</time>
      </trkpt>
      <trkpt lat="47.00382" lon="6.02032">
        <ele>422.5</ele>
        <time>2022-05-15T08:34:09Z</time>
      </trkpt>
      <trkpt lat="47.00386" lon="6.02036">
        <ele>424.4</ele>
        <time>2022-05-15T08:34:16Z</time>
      </trkpt>
      <trkpt lat="47.0039" lon="6.02039">
        <ele>425.7</ele>
        <time>2022-05-15T08:34:23Z</time>
      </trkpt>
      <trkpt lat="47.00385" lon="6.02041">
        <ele>426.3</ele>
        <time>2022-05-15T08:34:29Z</time>
      </trkpt>
      <trkpt lat="47.00388" lon="6.02029">
        <ele>426.8</ele>
        <time>2022-05-15T08:34:44Z</time>
      </trkpt>
      <trkpt lat="47.00394" lon="6.02031">
        <ele>426.5</ele>
        <time>2022-05-15T08:34:50Z</time>
      </trkpt>
      <trkpt lat="47.00399" lon="6.02038">
        <ele>426.2</ele>
        <time>2022-05-15T08:34:53Z</time>
      </trkpt>
      <trkpt lat="47.00403" lon="6.02043">
        <ele>426.2</ele>
        <time>2022-05-15T08:34:57Z</time>
      </trkpt>
      <trkpt lat="47.00406" lon="6.02049">
        <ele>426.7</ele>
        <time>2022-05-15T08:35:00Z</time>
      </trkpt>
      <trkpt lat="47.00409" lon="6.02055">
        <ele>427.5</ele>
        <time>2022-05-15T08:35:06Z</time>
      </trkpt>
      <trkpt lat="47.00409" lon="6.02063">
        <ele>428</ele>
        <time>2022-05-15T08:35:10Z</time>
      </trkpt>
      <trkpt lat="47.00406" lon="6.0207">
        <ele>428.2</ele>
        <time>2022-05-15T08:35:13Z</time>
      </trkpt>
      <trkpt lat="47.00403" lon="6.02077">
        <ele>428.1</ele>
        <time>2022-05-15T08:35:16Z</time>
      </trkpt>
      <trkpt lat="47.00399" lon="6.02084">
        <ele>427.5</ele>
        <time>2022-05-15T08:35:19Z</time>
      </trkpt>
      <trkpt lat="47.004" lon="6.02092">
        <ele>426.5</ele>
        <time>2022-05-15T08:35:23Z</time>
      </trkpt>
      <trkpt lat="47.00403" lon="6.02098">
        <ele>425.8</ele>
        <time>2022-05-15T08:35:27Z</time>
      </trkpt>
      <trkpt lat="47.00405" lon="6.02105">
        <ele>425.5</ele>
        <time>2022-05-15T08:35:33Z</time>
      </trkpt>
      <trkpt lat="47.00409" lon="6.02111">
        <ele>425.5</ele>
        <time>2022-05-15T08:35:38Z</time>
      </trkpt>
      <trkpt lat="47.00413" lon="6.02113">
        <ele>425.7</ele>
        <time>2022-05-15T08:35:43Z</time>
      </trkpt>
      <trkpt lat="47.00417" lon="6.02117">
        <ele>425.8</ele>
        <time>2022-05-15T08:35:46Z</time>
      </trkpt>
      <trkpt lat="47.00421" lon="6.02121">
        <ele>426</ele>
        <time>2022-05-15T08:35:50Z</time>
      </trkpt>
      <trkpt lat="47.00424" lon="6.02128">
        <ele>426.1</ele>
        <time>2022-05-15T08:35:54Z</time>
      </trkpt>
      <trkpt lat="47.00425" lon="6.02135">
        <ele>426.4</ele>
        <time>2022-05-15T08:35:58Z</time>
      </trkpt>
      <trkpt lat="47.00429" lon="6.02132">
        <ele>425.8</ele>
        <time>2022-05-15T08:36:05Z</time>
      </trkpt>
      <trkpt lat="47.00431" lon="6.02139">
        <ele>424.7</ele>
        <time>2022-05-15T08:36:10Z</time>
      </trkpt>
      <trkpt lat="47.00431" lon="6.02148">
        <ele>423.5</ele>
        <time>2022-05-15T08:36:15Z</time>
      </trkpt>
      <trkpt lat="47.00431" lon="6.02157">
        <ele>422.7</ele>
        <time>2022-05-15T08:36:18Z</time>
      </trkpt>
      <trkpt lat="47.0043" lon="6.02165">
        <ele>422.1</ele>
        <time>2022-05-15T08:36:21Z</time>
      </trkpt>
      <trkpt lat="47.0043" lon="6.02174">
        <ele>421.6</ele>
        <time>2022-05-15T08:36:24Z</time>
      </trkpt>
      <trkpt lat="47.0043" lon="6.02181">
        <ele>421.3</ele>
        <time>2022-05-15T08:36:27Z</time>
      </trkpt>
      <trkpt lat="47.00431" lon="6.02188">
        <ele>421.3</ele>
        <time>2022-05-15T08:36:31Z</time>
      </trkpt>
      <trkpt lat="47.00437" lon="6.02189">
        <ele>420.9</ele>
        <time>2022-05-15T08:36:35Z</time>
      </trkpt>
      <trkpt lat="47.00441" lon="6.0219">
        <ele>420.6</ele>
        <time>2022-05-15T08:36:39Z</time>
      </trkpt>
      <trkpt lat="47.00446" lon="6.02192">
        <ele>420.4</ele>
        <time>2022-05-15T08:36:43Z</time>
      </trkpt>
      <trkpt lat="47.00451" lon="6.02193">
        <ele>417.9</ele>
        <time>2022-05-15T08:36:50Z</time>
      </trkpt>
      <trkpt lat="47.00453" lon="6.02199">
        <ele>416.1</ele>
        <time>2022-05-15T08:36:57Z</time>
      </trkpt>
      <trkpt lat="47.00456" lon="6.02205">
        <ele>415.6</ele>
        <time>2022-05-15T08:37:01Z</time>
      </trkpt>
      <trkpt lat="47.0046" lon="6.02211">
        <ele>415.3</ele>
        <time>2022-05-15T08:37:05Z</time>
      </trkpt>
      <trkpt lat="47.0046" lon="6.02217">
        <ele>415.3</ele>
        <time>2022-05-15T08:37:09Z</time>
      </trkpt>
      <trkpt lat="47.00462" lon="6.02223">
        <ele>415.4</ele>
        <time>2022-05-15T08:37:17Z</time>
      </trkpt>
      <trkpt lat="47.00452" lon="6.02231">
        <ele>417</ele>
        <time>2022-05-15T08:37:35Z</time>
      </trkpt>
      <trkpt lat="47.00448" lon="6.02239">
        <ele>417.3</ele>
        <time>2022-05-15T08:37:38Z</time>
      </trkpt>
      <trkpt lat="47.00445" lon="6.02247">
        <ele>417.4</ele>
        <time>2022-05-15T08:37:42Z</time>
      </trkpt>
      <trkpt lat="47.00442" lon="6.02252">
        <ele>417.2</ele>
        <time>2022-05-15T08:37:47Z</time>
      </trkpt>
      <trkpt lat="47.00437" lon="6.02251">
        <ele>416.3</ele>
        <time>2022-05-15T08:37:52Z</time>
      </trkpt>
      <trkpt lat="47.00437" lon="6.02245">
        <ele>415.2</ele>
        <time>2022-05-15T08:37:58Z</time>
      </trkpt>
      <trkpt lat="47.00434" lon="6.02249">
        <ele>413.8</ele>
        <time>2022-05-15T08:38:07Z</time>
      </trkpt>
      <trkpt lat="47.00443" lon="6.02234">
        <ele>415.2</ele>
        <time>2022-05-15T08:38:38Z</time>
      </trkpt>
      <trkpt lat="47.00447" lon="6.02227">
        <ele>415</ele>
        <time>2022-05-15T08:38:41Z</time>
      </trkpt>
      <trkpt lat="47.00435" lon="6.02216">
        <ele>414.4</ele>
        <time>2022-05-15T08:38:54Z</time>
      </trkpt>
      <trkpt lat="47.00431" lon="6.02214">
        <ele>413.8</ele>
        <time>2022-05-15T08:38:59Z</time>
      </trkpt>
      <trkpt lat="47.00425" lon="6.02217">
        <ele>413</ele>
        <time>2022-05-15T08:39:02Z</time>
      </trkpt>
      <trkpt lat="47.00421" lon="6.02218">
        <ele>411.9</ele>
        <time>2022-05-15T08:39:08Z</time>
      </trkpt>
      <trkpt lat="47.0042" lon="6.02211">
        <ele>409</ele>
        <time>2022-05-15T08:39:24Z</time>
      </trkpt>
      <trkpt lat="47.00416" lon="6.02207">
        <ele>407</ele>
        <time>2022-05-15T08:39:29Z</time>
      </trkpt>
      <trkpt lat="47.00415" lon="6.02201">
        <ele>405.3</ele>
        <time>2022-05-15T08:39:34Z</time>
      </trkpt>
      <trkpt lat="47.00411" lon="6.02196">
        <ele>403.3</ele>
        <time>2022-05-15T08:39:40Z</time>
      </trkpt>
      <trkpt lat="47.00412" lon="6.02189">
        <ele>401.7</ele>
        <time>2022-05-15T08:39:45Z</time>
      </trkpt>
      <trkpt lat="47.00414" lon="6.02182">
        <ele>400.6</ele>
        <time>2022-05-15T08:39:49Z</time>
      </trkpt>
      <trkpt lat="47.00414" lon="6.02174">
        <ele>399</ele>
        <time>2022-05-15T08:39:56Z</time>
      </trkpt>
      <trkpt lat="47.00411" lon="6.02167">
        <ele>398</ele>
        <time>2022-05-15T08:40:01Z</time>
      </trkpt>
      <trkpt lat="47.00407" lon="6.02162">
        <ele>397.7</ele>
        <time>2022-05-15T08:40:06Z</time>
      </trkpt>
      <trkpt lat="47.00404" lon="6.02157">
        <ele>398</ele>
        <time>2022-05-15T08:40:11Z</time>
      </trkpt>
      <trkpt lat="47.004" lon="6.02152">
        <ele>398.5</ele>
        <time>2022-05-15T08:40:15Z</time>
      </trkpt>
      <trkpt lat="47.004" lon="6.02144">
        <ele>398.8</ele>
        <time>2022-05-15T08:40:19Z</time>
      </trkpt>
      <trkpt lat="47.004" lon="6.02136">
        <ele>399</ele>
        <time>2022-05-15T08:40:24Z</time>
      </trkpt>
      <trkpt lat="47.00397" lon="6.0213">
        <ele>399.1</ele>
        <time>2022-05-15T08:40:28Z</time>
      </trkpt>
      <trkpt lat="47.00395" lon="6.02122">
        <ele>399.4</ele>
        <time>2022-05-15T08:40:33Z</time>
      </trkpt>
      <trkpt lat="47.00395" lon="6.02115">
        <ele>399.6</ele>
        <time>2022-05-15T08:40:38Z</time>
      </trkpt>
      <trkpt lat="47.00391" lon="6.02109">
        <ele>399.9</ele>
        <time>2022-05-15T08:40:44Z</time>
      </trkpt>
      <trkpt lat="47.00386" lon="6.02105">
        <ele>400</ele>
        <time>2022-05-15T08:40:50Z</time>
      </trkpt>
      <trkpt lat="47.00382" lon="6.02101">
        <ele>399.9</ele>
        <time>2022-05-15T08:40:55Z</time>
      </trkpt>
      <trkpt lat="47.00378" lon="6.02096">
        <ele>400.5</ele>
        <time>2022-05-15T08:41:01Z</time>
      </trkpt>
      <trkpt lat="47.00377" lon="6.02089">
        <ele>402.6</ele>
        <time>2022-05-15T08:41:06Z</time>
      </trkpt>
      <trkpt lat="47.00375" lon="6.02083">
        <ele>405.1</ele>
        <time>2022-05-15T08:41:12Z</time>
      </trkpt>
      <trkpt lat="47.00374" lon="6.02076">
        <ele>406.3</ele>
        <time>2022-05-15T08:41:16Z</time>
      </trkpt>
      <trkpt lat="47.00374" lon="6.02068">
        <ele>407</ele>
        <time>2022-05-15T08:41:20Z</time>
      </trkpt>
      <trkpt lat="47.00372" lon="6.02061">
        <ele>407.1</ele>
        <time>2022-05-15T08:41:24Z</time>
      </trkpt>
      <trkpt lat="47.00371" lon="6.02054">
        <ele>406.8</ele>
        <time>2022-05-15T08:41:31Z</time>
      </trkpt>
      <trkpt lat="47.00368" lon="6.02048">
        <ele>406.8</ele>
        <time>2022-05-15T08:41:42Z</time>
      </trkpt>
      <trkpt lat="47.00368" lon="6.02042">
        <ele>407.6</ele>
        <time>2022-05-15T08:41:48Z</time>
      </trkpt>
      <trkpt lat="47.00372" lon="6.02037">
        <ele>408.4</ele>
        <time>2022-05-15T08:41:52Z</time>
      </trkpt>
      <trkpt lat="47.00375" lon="6.02031">
        <ele>409.7</ele>
        <time>2022-05-15T08:41:57Z</time>
      </trkpt>
      <trkpt lat="47.00371" lon="6.02026">
        <ele>410.8</ele>
        <time>2022-05-15T08:42:02Z</time>
      </trkpt>
      <trkpt lat="47.00366" lon="6.02031">
        <ele>411.5</ele>
        <time>2022-05-15T08:42:06Z</time>
      </trkpt>
      <trkpt lat="47.00362" lon="6.02034">
        <ele>412.6</ele>
        <time>2022-05-15T08:42:11Z</time>
      </trkpt>
      <trkpt lat="47.00357" lon="6.02034">
        <ele>413.4</ele>
        <time>2022-05-15T08:42:15Z</time>
      </trkpt>
      <trkpt lat="47.00353" lon="6.02032">
        <ele>413.6</ele>
        <time>2022-05-15T08:42:19Z</time>
      </trkpt>
      <trkpt lat="47.00349" lon="6.02027">
        <ele>413.5</ele>
        <time>2022-05-15T08:42:26Z</time>
      </trkpt>
      <trkpt lat="47.00351" lon="6.0202">
        <ele>413.1</ele>
        <time>2022-05-15T08:42:30Z</time>
      </trkpt>
      <trkpt lat="47.00353" lon="6.02013">
        <ele>412.4</ele>
        <time>2022-05-15T08:42:34Z</time>
      </trkpt>
      <trkpt lat="47.00351" lon="6.02006">
        <ele>411.3</ele>
        <time>2022-05-15T08:42:39Z</time>
      </trkpt>
      <trkpt lat="47.00348" lon="6.02">
        <ele>410.4</ele>
        <time>2022-05-15T08:42:43Z</time>
      </trkpt>
      <trkpt lat="47.00344" lon="6.01997">
        <ele>409.9</ele>
        <time>2022-05-15T08:42:47Z</time>
      </trkpt>
      <trkpt lat="47.00339" lon="6.01996">
        <ele>409.6</ele>
        <time>2022-05-15T08:42:51Z</time>
      </trkpt>
      <trkpt lat="47.00334" lon="6.0199">
        <ele>406.9</ele>
        <time>2022-05-15T08:42:59Z</time>
      </trkpt>
      <trkpt lat="47.00331" lon="6.01986">
        <ele>405</ele>
        <time>2022-05-15T08:43:04Z</time>
      </trkpt>
      <trkpt lat="47.0033" lon="6.01978">
        <ele>403.4</ele>
        <time>2022-05-15T08:43:09Z</time>
      </trkpt>
      <trkpt lat="47.00325" lon="6.01974">
        <ele>402.1</ele>
        <time>2022-05-15T08:43:12Z</time>
      </trkpt>
      <trkpt lat="47.00319" lon="6.01974">
        <ele>400.7</ele>
        <time>2022-05-15T08:43:15Z</time>
      </trkpt>
      <trkpt lat="47.00313" lon="6.01975">
        <ele>399.6</ele>
        <time>2022-05-15T08:43:18Z</time>
      </trkpt>
      <trkpt lat="47.00309" lon="6.0197">
        <ele>397.8</ele>
        <time>2022-05-15T08:43:25Z</time>
      </trkpt>
      <trkpt lat="47.00306" lon="6.01965">
        <ele>396.9</ele>
        <time>2022-05-15T08:43:28Z</time>
      </trkpt>
      <trkpt lat="47.00301" lon="6.01963">
        <ele>395.7</ele>
        <time>2022-05-15T08:43:32Z</time>
      </trkpt>
      <trkpt lat="47.00298" lon="6.01957">
        <ele>394</ele>
        <time>2022-05-15T08:43:39Z</time>
      </trkpt>
      <trkpt lat="47.00296" lon="6.01951">
        <ele>392.8</ele>
        <time>2022-05-15T08:43:43Z</time>
      </trkpt>
      <trkpt lat="47.00296" lon="6.01944">
        <ele>391.6</ele>
        <time>2022-05-15T08:43:46Z</time>
      </trkpt>
      <trkpt lat="47.00298" lon="6.01938">
        <ele>390.7</ele>
        <time>2022-05-15T08:43:49Z</time>
      </trkpt>
      <trkpt lat="47.00298" lon="6.01931">
        <ele>389.8</ele>
        <time>2022-05-15T08:43:54Z</time>
      </trkpt>
      <trkpt lat="47.00295" lon="6.01924">
        <ele>389.5</ele>
        <time>2022-05-15T08:43:59Z</time>
      </trkpt>
      <trkpt lat="47.00291" lon="6.01919">
        <ele>389.7</ele>
        <time>2022-05-15T08:44:03Z</time>
      </trkpt>
      <trkpt lat="47.00288" lon="6.01915">
        <ele>389.9</ele>
        <time>2022-05-15T08:44:07Z</time>
      </trkpt>
      <trkpt lat="47.00283" lon="6.01913">
        <ele>390.1</ele>
        <time>2022-05-15T08:44:12Z</time>
      </trkpt>
      <trkpt lat="47.00284" lon="6.01906">
        <ele>391</ele>
        <time>2022-05-15T08:44:18Z</time>
      </trkpt>
      <trkpt lat="47.00285" lon="6.01899">
        <ele>391.9</ele>
        <time>2022-05-15T08:44:21Z</time>
      </trkpt>
      <trkpt lat="47.00285" lon="6.01892">
        <ele>392.6</ele>
        <time>2022-05-15T08:44:24Z</time>
      </trkpt>
      <trkpt lat="47.00284" lon="6.01885">
        <ele>393.5</ele>
        <time>2022-05-15T08:44:27Z</time>
      </trkpt>
      <trkpt lat="47.0028" lon="6.0188">
        <ele>394.6</ele>
        <time>2022-05-15T08:44:32Z</time>
      </trkpt>
      <trkpt lat="47.00276" lon="6.01876">
        <ele>395.3</ele>
        <time>2022-05-15T08:44:36Z</time>
      </trkpt>
      <trkpt lat="47.00271" lon="6.01873">
        <ele>395.6</ele>
        <time>2022-05-15T08:44:40Z</time>
      </trkpt>
      <trkpt lat="47.00267" lon="6.01869">
        <ele>396.1</ele>
        <time>2022-05-15T08:44:44Z</time>
      </trkpt>
      <trkpt lat="47.00263" lon="6.01865">
        <ele>396.4</ele>
        <time>2022-05-15T08:44:48Z</time>
      </trkpt>
      <trkpt lat="47.00263" lon="6.01859">
        <ele>396.8</ele>
        <time>2022-05-15T08:44:52Z</time>
      </trkpt>
      <trkpt lat="47.00259" lon="6.01854">
        <ele>396.9</ele>
        <time>2022-05-15T08:44:59Z</time>
      </trkpt>
      <trkpt lat="47.00257" lon="6.01847">
        <ele>396.7</ele>
        <time>2022-05-15T08:45:05Z</time>
      </trkpt>
      <trkpt lat="47.00255" lon="6.01841">
        <ele>395.7</ele>
        <time>2022-05-15T08:45:11Z</time>
      </trkpt>
      <trkpt lat="47.00251" lon="6.01836">
        <ele>394.7</ele>
        <time>2022-05-15T08:45:16Z</time>
      </trkpt>
      <trkpt lat="47.00253" lon="6.0183">
        <ele>394.1</ele>
        <time>2022-05-15T08:45:21Z</time>
      </trkpt>
      <trkpt lat="47.00255" lon="6.01824">
        <ele>393.9</ele>
        <time>2022-05-15T08:45:24Z</time>
      </trkpt>
      <trkpt lat="47.00255" lon="6.01817">
        <ele>393.5</ele>
        <time>2022-05-15T08:45:28Z</time>
      </trkpt>
      <trkpt lat="47.00252" lon="6.01811">
        <ele>393.1</ele>
        <time>2022-05-15T08:45:32Z</time>
      </trkpt>
      <trkpt lat="47.0025" lon="6.01804">
        <ele>392.8</ele>
        <time>2022-05-15T08:45:37Z</time>
      </trkpt>
      <trkpt lat="47.00248" lon="6.01797">
        <ele>392.8</ele>
        <time>2022-05-15T08:45:42Z</time>
      </trkpt>
      <trkpt lat="47.00244" lon="6.01794">
        <ele>393.1</ele>
        <time>2022-05-15T08:45:46Z</time>
      </trkpt>
      <trkpt lat="47.00242" lon="6.01788">
        <ele>393.4</ele>
        <time>2022-05-15T08:45:51Z</time>
      </trkpt>
      <trkpt lat="47.00243" lon="6.01782">
        <ele>393.9</ele>
        <time>2022-05-15T08:45:57Z</time>
      </trkpt>
      <trkpt lat="47.00242" lon="6.01775">
        <ele>394.6</ele>
        <time>2022-05-15T08:46:01Z</time>
      </trkpt>
      <trkpt lat="47.00245" lon="6.01769">
        <ele>395.2</ele>
        <time>2022-05-15T08:46:07Z</time>
      </trkpt>
      <trkpt lat="47.00244" lon="6.01762">
        <ele>395.5</ele>
        <time>2022-05-15T08:46:14Z</time>
      </trkpt>
      <trkpt lat="47.00242" lon="6.01754">
        <ele>395.4</ele>
        <time>2022-05-15T08:46:19Z</time>
      </trkpt>
      <trkpt lat="47.0024" lon="6.01748">
        <ele>395.1</ele>
        <time>2022-05-15T08:46:23Z</time>
      </trkpt>
      <trkpt lat="47.00239" lon="6.0174">
        <ele>394.6</ele>
        <time>2022-05-15T08:46:27Z</time>
      </trkpt>
      <trkpt lat="47.00237" lon="6.01733">
        <ele>394.1</ele>
        <time>2022-05-15T08:46:30Z</time>
      </trkpt>
      <trkpt lat="47.00237" lon="6.01725">
        <ele>394.1</ele>
        <time>2022-05-15T08:46:33Z</time>
      </trkpt>
      <trkpt lat="47.00235" lon="6.01719">
        <ele>393.7</ele>
        <time>2022-05-15T08:46:38Z</time>
      </trkpt>
      <trkpt lat="47.00236" lon="6.01712">
        <ele>392.4</ele>
        <time>2022-05-15T08:46:47Z</time>
      </trkpt>
      <trkpt lat="47.00241" lon="6.01708">
        <ele>391.9</ele>
        <time>2022-05-15T08:46:51Z</time>
      </trkpt>
      <trkpt lat="47.00242" lon="6.01701">
        <ele>391.5</ele>
        <time>2022-05-15T08:46:56Z</time>
      </trkpt>
      <trkpt lat="47.00242" lon="6.01694">
        <ele>390.3</ele>
        <time>2022-05-15T08:47:05Z</time>
      </trkpt>
      <trkpt lat="47.00243" lon="6.01686">
        <ele>389.2</ele>
        <time>2022-05-15T08:47:13Z</time>
      </trkpt>
      <trkpt lat="47.0024" lon="6.0168">
        <ele>389</ele>
        <time>2022-05-15T08:47:17Z</time>
      </trkpt>
      <trkpt lat="47.00237" lon="6.01671">
        <ele>388.9</ele>
        <time>2022-05-15T08:47:20Z</time>
      </trkpt>
      <trkpt lat="47.00237" lon="6.01664">
        <ele>388.8</ele>
        <time>2022-05-15T08:47:23Z</time>
      </trkpt>
      <trkpt lat="47.00237" lon="6.01656">
        <ele>388.8</ele>
        <time>2022-05-15T08:47:27Z</time>
      </trkpt>
      <trkpt lat="47.00237" lon="6.0165">
        <ele>388.7</ele>
        <time>2022-05-15T08:47:33Z</time>
      </trkpt>
      <trkpt lat="47.00235" lon="6.01644">
        <ele>388.6</ele>
        <time>2022-05-15T08:47:37Z</time>
      </trkpt>
      <trkpt lat="47.00231" lon="6.01638">
        <ele>388.3</ele>
        <time>2022-05-15T08:47:42Z</time>
      </trkpt>
      <trkpt lat="47.00226" lon="6.01636">
        <ele>388.3</ele>
        <time>2022-05-15T08:47:45Z</time>
      </trkpt>
      <trkpt lat="47.00221" lon="6.01633">
        <ele>388.3</ele>
        <time>2022-05-15T08:47:48Z</time>
      </trkpt>
      <trkpt lat="47.00219" lon="6.01627">
        <ele>388.4</ele>
        <time>2022-05-15T08:47:52Z</time>
      </trkpt>
      <trkpt lat="47.00217" lon="6.01619">
        <ele>388.9</ele>
        <time>2022-05-15T08:47:57Z</time>
      </trkpt>
      <trkpt lat="47.00216" lon="6.01612">
        <ele>389.4</ele>
        <time>2022-05-15T08:48:03Z</time>
      </trkpt>
      <trkpt lat="47.00212" lon="6.01608">
        <ele>389.6</ele>
        <time>2022-05-15T08:48:09Z</time>
      </trkpt>
      <trkpt lat="47.00209" lon="6.01602">
        <ele>389.8</ele>
        <time>2022-05-15T08:48:13Z</time>
      </trkpt>
      <trkpt lat="47.00206" lon="6.01597">
        <ele>389.8</ele>
        <time>2022-05-15T08:48:17Z</time>
      </trkpt>
      <trkpt lat="47.00206" lon="6.0159">
        <ele>390</ele>
        <time>2022-05-15T08:48:22Z</time>
      </trkpt>
      <trkpt lat="47.00205" lon="6.01583">
        <ele>389.8</ele>
        <time>2022-05-15T08:48:30Z</time>
      </trkpt>
      <trkpt lat="47.00204" lon="6.01576">
        <ele>389.5</ele>
        <time>2022-05-15T08:48:35Z</time>
      </trkpt>
      <trkpt lat="47.00203" lon="6.01568">
        <ele>389.3</ele>
        <time>2022-05-15T08:48:40Z</time>
      </trkpt>
      <trkpt lat="47.00203" lon="6.0156">
        <ele>389.5</ele>
        <time>2022-05-15T08:48:44Z</time>
      </trkpt>
      <trkpt lat="47.00202" lon="6.01552">
        <ele>390.2</ele>
        <time>2022-05-15T08:48:48Z</time>
      </trkpt>
      <trkpt lat="47.00199" lon="6.01545">
        <ele>391.2</ele>
        <time>2022-05-15T08:48:51Z</time>
      </trkpt>
      <trkpt lat="47.00193" lon="6.01538">
        <ele>391.4</ele>
        <time>2022-05-15T08:48:54Z</time>
      </trkpt>
      <trkpt lat="47.00188" lon="6.01532">
        <ele>391.1</ele>
        <time>2022-05-15T08:48:57Z</time>
      </trkpt>
      <trkpt lat="47.00186" lon="6.01526">
        <ele>390.7</ele>
        <time>2022-05-15T08:49:01Z</time>
      </trkpt>
      <trkpt lat="47.00185" lon="6.01518">
        <ele>390.6</ele>
        <time>2022-05-15T08:49:11Z</time>
      </trkpt>
      <trkpt lat="47.00187" lon="6.01512">
        <ele>390.4</ele>
        <time>2022-05-15T08:49:15Z</time>
      </trkpt>
      <trkpt lat="47.0019" lon="6.01508">
        <ele>391</ele>
        <time>2022-05-15T08:49:20Z</time>
      </trkpt>
      <trkpt lat="47.00193" lon="6.01501">
        <ele>391.6</ele>
        <time>2022-05-15T08:49:26Z</time>
      </trkpt>
      <trkpt lat="47.00193" lon="6.01494">
        <ele>391.5</ele>
        <time>2022-05-15T08:49:30Z</time>
      </trkpt>
      <trkpt lat="47.00192" lon="6.01487">
        <ele>391</ele>
        <time>2022-05-15T08:49:34Z</time>
      </trkpt>
      <trkpt lat="47.00191" lon="6.01479">
        <ele>390.7</ele>
        <time>2022-05-15T08:49:38Z</time>
      </trkpt>
      <trkpt lat="47.00187" lon="6.01472">
        <ele>390.6</ele>
        <time>2022-05-15T08:49:41Z</time>
      </trkpt>
      <trkpt lat="47.00184" lon="6.01467">
        <ele>390.7</ele>
        <time>2022-05-15T08:49:44Z</time>
      </trkpt>
      <trkpt lat="47.00185" lon="6.01459">
        <ele>391.3</ele>
        <time>2022-05-15T08:49:50Z</time>
      </trkpt>
      <trkpt lat="47.00188" lon="6.01453">
        <ele>391.5</ele>
        <time>2022-05-15T08:49:54Z</time>
      </trkpt>
      <trkpt lat="47.00189" lon="6.01447">
        <ele>391.4</ele>
        <time>2022-05-15T08:50:00Z</time>
      </trkpt>
      <trkpt lat="47.0019" lon="6.0144">
        <ele>391.3</ele>
        <time>2022-05-15T08:50:07Z</time>
      </trkpt>
      <trkpt lat="47.00188" lon="6.01433">
        <ele>391</ele>
        <time>2022-05-15T08:50:11Z</time>
      </trkpt>
      <trkpt lat="47.00185" lon="6.01427">
        <ele>390.7</ele>
        <time>2022-05-15T08:50:14Z</time>
      </trkpt>
      <trkpt lat="47.00181" lon="6.01421">
        <ele>390.5</ele>
        <time>2022-05-15T08:50:18Z</time>
      </trkpt>
      <trkpt lat="47.00178" lon="6.01414">
        <ele>390.1</ele>
        <time>2022-05-15T08:50:22Z</time>
      </trkpt>
      <trkpt lat="47.00176" lon="6.01407">
        <ele>389.4</ele>
        <time>2022-05-15T08:50:27Z</time>
      </trkpt>
      <trkpt lat="47.00178" lon="6.01401">
        <ele>388.9</ele>
        <time>2022-05-15T08:50:31Z</time>
      </trkpt>
      <trkpt lat="47.00178" lon="6.01394">
        <ele>388.1</ele>
        <time>2022-05-15T08:50:36Z</time>
      </trkpt>
      <trkpt lat="47.00177" lon="6.01387">
        <ele>387.5</ele>
        <time>2022-05-15T08:50:41Z</time>
      </trkpt>
      <trkpt lat="47.00173" lon="6.01383">
        <ele>386</ele>
        <time>2022-05-15T08:50:47Z</time>
      </trkpt>
      <trkpt lat="47.00173" lon="6.01376">
        <ele>385.1</ele>
        <time>2022-05-15T08:50:53Z</time>
      </trkpt>
      <trkpt lat="47.00169" lon="6.01371">
        <ele>383.6</ele>
        <time>2022-05-15T08:51:06Z</time>
      </trkpt>
      <trkpt lat="47.00163" lon="6.01367">
        <ele>383.4</ele>
        <time>2022-05-15T08:51:11Z</time>
      </trkpt>
      <trkpt lat="47.00159" lon="6.01364">
        <ele>383.5</ele>
        <time>2022-05-15T08:51:14Z</time>
      </trkpt>
      <trkpt lat="47.00155" lon="6.01358">
        <ele>383.6</ele>
        <time>2022-05-15T08:51:17Z</time>
      </trkpt>
      <trkpt lat="47.00152" lon="6.01353">
        <ele>383.5</ele>
        <time>2022-05-15T08:51:20Z</time>
      </trkpt>
      <trkpt lat="47.00148" lon="6.01347">
        <ele>383.2</ele>
        <time>2022-05-15T08:51:23Z</time>
      </trkpt>
      <trkpt lat="47.00146" lon="6.0134">
        <ele>383.1</ele>
        <time>2022-05-15T08:51:27Z</time>
      </trkpt>
      <trkpt lat="47.00147" lon="6.01333">
        <ele>383.3</ele>
        <time>2022-05-15T08:51:32Z</time>
      </trkpt>
      <trkpt lat="47.00146" lon="6.01326">
        <ele>383.3</ele>
        <time>2022-05-15T08:51:39Z</time>
      </trkpt>
      <trkpt lat="47.00147" lon="6.01319">
        <ele>380.9</ele>
        <time>2022-05-15T08:51:54Z</time>
      </trkpt>
      <trkpt lat="47.00138" lon="6.01311">
        <ele>377.7</ele>
        <time>2022-05-15T08:52:06Z</time>
      </trkpt>
      <trkpt lat="47.00136" lon="6.01305">
        <ele>377.4</ele>
        <time>2022-05-15T08:52:09Z</time>
      </trkpt>
      <trkpt lat="47.00135" lon="6.01298">
        <ele>376.9</ele>
        <time>2022-05-15T08:52:12Z</time>
      </trkpt>
      <trkpt lat="47.00134" lon="6.0129">
        <ele>376.4</ele>
        <time>2022-05-15T08:52:15Z</time>
      </trkpt>
      <trkpt lat="47.00141" lon="6.0128">
        <ele>375.7</ele>
        <time>2022-05-15T08:52:18Z</time>
      </trkpt>
      <trkpt lat="47.00149" lon="6.01269">
        <ele>374.8</ele>
        <time>2022-05-15T08:52:21Z</time>
      </trkpt>
      <trkpt lat="47.00152" lon="6.01263">
        <ele>373.9</ele>
        <time>2022-05-15T08:52:24Z</time>
      </trkpt>
      <trkpt lat="47.00154" lon="6.01255">
        <ele>373.4</ele>
        <time>2022-05-15T08:52:27Z</time>
      </trkpt>
      <trkpt lat="47.00154" lon="6.01248">
        <ele>373</ele>
        <time>2022-05-15T08:52:30Z</time>
      </trkpt>
      <trkpt lat="47.00155" lon="6.01235">
        <ele>371.8</ele>
        <time>2022-05-15T08:52:33Z</time>
      </trkpt>
      <trkpt lat="47.00154" lon="6.01228">
        <ele>369.2</ele>
        <time>2022-05-15T08:52:41Z</time>
      </trkpt>
      <trkpt lat="47.00153" lon="6.01221">
        <ele>368.4</ele>
        <time>2022-05-15T08:52:46Z</time>
      </trkpt>
      <trkpt lat="47.00151" lon="6.01214">
        <ele>367.8</ele>
        <time>2022-05-15T08:52:51Z</time>
      </trkpt>
      <trkpt lat="47.00148" lon="6.01206">
        <ele>367.4</ele>
        <time>2022-05-15T08:52:55Z</time>
      </trkpt>
      <trkpt lat="47.00144" lon="6.012">
        <ele>367.2</ele>
        <time>2022-05-15T08:52:59Z</time>
      </trkpt>
      <trkpt lat="47.00142" lon="6.01193">
        <ele>367.2</ele>
        <time>2022-05-15T08:53:03Z</time>
      </trkpt>
      <trkpt lat="47.00139" lon="6.01187">
        <ele>367.3</ele>
        <time>2022-05-15T08:53:07Z</time>
      </trkpt>
      <trkpt lat="47.00138" lon="6.01181">
        <ele>367.1</ele>
        <time>2022-05-15T08:53:14Z</time>
      </trkpt>
      <trkpt lat="47.0014" lon="6.01174">
        <ele>367</ele>
        <time>2022-05-15T08:53:19Z</time>
      </trkpt>
      <trkpt lat="47.00144" lon="6.01169">
        <ele>366.7</ele>
        <time>2022-05-15T08:53:24Z</time>
      </trkpt>
      <trkpt lat="47.00145" lon="6.01162">
        <ele>366.3</ele>
        <time>2022-05-15T08:53:28Z</time>
      </trkpt>
      <trkpt lat="47.00148" lon="6.01155">
        <ele>365.9</ele>
        <time>2022-05-15T08:53:33Z</time>
      </trkpt>
      <trkpt lat="47.00151" lon="6.01149">
        <ele>365.5</ele>
        <time>2022-05-15T08:53:38Z</time>
      </trkpt>
      <trkpt lat="47.00155" lon="6.01144">
        <ele>363.5</ele>
        <time>2022-05-15T08:53:47Z</time>
      </trkpt>
      <trkpt lat="47.00155" lon="6.01136">
        <ele>362.9</ele>
        <time>2022-05-15T08:53:52Z</time>
      </trkpt>
      <trkpt lat="47.00156" lon="6.01128">
        <ele>362.2</ele>
        <time>2022-05-15T08:53:57Z</time>
      </trkpt>
      <trkpt lat="47.00157" lon="6.01121">
        <ele>362</ele>
        <time>2022-05-15T08:54:00Z</time>
      </trkpt>
      <trkpt lat="47.00158" lon="6.01115">
        <ele>362</ele>
        <time>2022-05-15T08:54:03Z</time>
      </trkpt>
      <trkpt lat="47.00155" lon="6.01103">
        <ele>361.8</ele>
        <time>2022-05-15T08:54:19Z</time>
      </trkpt>
      <trkpt lat="47.00152" lon="6.01095">
        <ele>362.1</ele>
        <time>2022-05-15T08:54:22Z</time>
      </trkpt>
      <trkpt lat="47.00152" lon="6.01088">
        <ele>362.6</ele>
        <time>2022-05-15T08:54:25Z</time>
      </trkpt>
      <trkpt lat="47.00155" lon="6.01083">
        <ele>363.3</ele>
        <time>2022-05-15T08:54:29Z</time>
      </trkpt>
      <trkpt lat="47.00154" lon="6.01074">
        <ele>363.8</ele>
        <time>2022-05-15T08:54:33Z</time>
      </trkpt>
      <trkpt lat="47.00153" lon="6.01066">
        <ele>364</ele>
        <time>2022-05-15T08:54:36Z</time>
      </trkpt>
      <trkpt lat="47.00152" lon="6.01059">
        <ele>364.1</ele>
        <time>2022-05-15T08:54:39Z</time>
      </trkpt>
      <trkpt lat="47.00152" lon="6.01051">
        <ele>363.9</ele>
        <time>2022-05-15T08:54:43Z</time>
      </trkpt>
      <trkpt lat="47.00153" lon="6.01044">
        <ele>363.8</ele>
        <time>2022-05-15T08:54:46Z</time>
      </trkpt>
      <trkpt lat="47.00153" lon="6.01036">
        <ele>363.8</ele>
        <time>2022-05-15T08:54:51Z</time>
      </trkpt>
      <trkpt lat="47.00151" lon="6.01029">
        <ele>363.9</ele>
        <time>2022-05-15T08:54:55Z</time>
      </trkpt>
      <trkpt lat="47.0014" lon="6.00968">
        <ele>361.6</ele>
        <time>2022-05-15T08:55:40Z</time>
      </trkpt>
      <trkpt lat="47.0014" lon="6.00961">
        <ele>361.4</ele>
        <time>2022-05-15T08:55:43Z</time>
      </trkpt>
      <trkpt lat="47.00142" lon="6.00955">
        <ele>361.2</ele>
        <time>2022-05-15T08:55:46Z</time>
      </trkpt>
      <trkpt lat="47.00145" lon="6.00948">
        <ele>361.2</ele>
        <time>2022-05-15T08:55:50Z</time>
      </trkpt>
      <trkpt lat="47.0015" lon="6.00945">
        <ele>361.1</ele>
        <time>2022-05-15T08:55:54Z</time>
      </trkpt>
      <trkpt lat="47.00154" lon="6.00941">
        <ele>361</ele>
        <time>2022-05-15T08:56:00Z</time>
      </trkpt>
      <trkpt lat="47.00154" lon="6.00932">
        <ele>361.3</ele>
        <time>2022-05-15T08:56:06Z</time>
      </trkpt>
      <trkpt lat="47.00155" lon="6.00924">
        <ele>362.2</ele>
        <time>2022-05-15T08:56:11Z</time>
      </trkpt>
      <trkpt lat="47.0016" lon="6.00883">
        <ele>363.7</ele>
        <time>2022-05-15T08:56:39Z</time>
      </trkpt>
      <trkpt lat="47.00156" lon="6.00877">
        <ele>363.5</ele>
        <time>2022-05-15T08:56:44Z</time>
      </trkpt>
      <trkpt lat="47.00156" lon="6.0087">
        <ele>363.4</ele>
        <time>2022-05-15T08:56:51Z</time>
      </trkpt>
      <trkpt lat="47.00158" lon="6.00863">
        <ele>363</ele>
        <time>2022-05-15T08:56:56Z</time>
      </trkpt>
      <trkpt lat="47.00156" lon="6.00856">
        <ele>362.5</ele>
        <time>2022-05-15T08:57:01Z</time>
      </trkpt>
      <trkpt lat="47.00152" lon="6.00852">
        <ele>362.4</ele>
        <time>2022-05-15T08:57:04Z</time>
      </trkpt>
      <trkpt lat="47.00148" lon="6.00846">
        <ele>362.2</ele>
        <time>2022-05-15T08:57:07Z</time>
      </trkpt>
      <trkpt lat="47.00147" lon="6.00838">
        <ele>362.1</ele>
        <time>2022-05-15T08:57:11Z</time>
      </trkpt>
      <trkpt lat="47.00146" lon="6.00831">
        <ele>362.1</ele>
        <time>2022-05-15T08:57:14Z</time>
      </trkpt>
      <trkpt lat="47.00147" lon="6.00824">
        <ele>362.4</ele>
        <time>2022-05-15T08:57:19Z</time>
      </trkpt>
      <trkpt lat="47.00144" lon="6.00818">
        <ele>362.4</ele>
        <time>2022-05-15T08:57:23Z</time>
      </trkpt>
      <trkpt lat="47.00141" lon="6.00811">
        <ele>361.9</ele>
        <time>2022-05-15T08:57:27Z</time>
      </trkpt>
      <trkpt lat="47.00138" lon="6.00806">
        <ele>361.2</ele>
        <time>2022-05-15T08:57:31Z</time>
      </trkpt>
      <trkpt lat="47.00135" lon="6.008">
        <ele>360.1</ele>
        <time>2022-05-15T08:57:36Z</time>
      </trkpt>
      <trkpt lat="47.00136" lon="6.00792">
        <ele>359.3</ele>
        <time>2022-05-15T08:57:41Z</time>
      </trkpt>
      <trkpt lat="47.00138" lon="6.00785">
        <ele>358.8</ele>
        <time>2022-05-15T08:57:45Z</time>
      </trkpt>
      <trkpt lat="47.00136" lon="6.00778">
        <ele>358.4</ele>
        <time>2022-05-15T08:57:50Z</time>
      </trkpt>
      <trkpt lat="47.00135" lon="6.00772">
        <ele>358.2</ele>
        <time>2022-05-15T08:57:54Z</time>
      </trkpt>
      <trkpt lat="47.00131" lon="6.00766">
        <ele>358.3</ele>
        <time>2022-05-15T08:57:58Z</time>
      </trkpt>
      <trkpt lat="47.00129" lon="6.0076">
        <ele>358.4</ele>
        <time>2022-05-15T08:58:02Z</time>
      </trkpt>
      <trkpt lat="47.00124" lon="6.00755">
        <ele>358.6</ele>
        <time>2022-05-15T08:58:06Z</time>
      </trkpt>
      <trkpt lat="47.00121" lon="6.0075">
        <ele>358.8</ele>
        <time>2022-05-15T08:58:09Z</time>
      </trkpt>
      <trkpt lat="47.00116" lon="6.00747">
        <ele>359.2</ele>
        <time>2022-05-15T08:58:14Z</time>
      </trkpt>
      <trkpt lat="47.00114" lon="6.0074">
        <ele>359.9</ele>
        <time>2022-05-15T08:58:20Z</time>
      </trkpt>
      <trkpt lat="47.00112" lon="6.00733">
        <ele>360.8</ele>
        <time>2022-05-15T08:58:24Z</time>
      </trkpt>
      <trkpt lat="47.00111" lon="6.00726">
        <ele>361.9</ele>
        <time>2022-05-15T08:58:27Z</time>
      </trkpt>
      <trkpt lat="47.0011" lon="6.0072">
        <ele>363.1</ele>
        <time>2022-05-15T08:58:31Z</time>
      </trkpt>
      <trkpt lat="47.00107" lon="6.00713">
        <ele>364</ele>
        <time>2022-05-15T08:58:36Z</time>
      </trkpt>
      <trkpt lat="47.00104" lon="6.00708">
        <ele>364.3</ele>
        <time>2022-05-15T08:58:40Z</time>
      </trkpt>
      <trkpt lat="47.00102" lon="6.00703">
        <ele>364.1</ele>
        <time>2022-05-15T08:58:45Z</time>
      </trkpt>
      <trkpt lat="47.00101" lon="6.00696">
        <ele>364.4</ele>
        <time>2022-05-15T08:58:53Z</time>
      </trkpt>
      <trkpt lat="47.00099" lon="6.0069">
        <ele>369.5</ele>
        <time>2022-05-15T08:59:06Z</time>
      </trkpt>
      <trkpt lat="47.00084" lon="6.00705">
        <ele>368.4</ele>
        <time>2022-05-15T08:59:45Z</time>
      </trkpt>
      <trkpt lat="47.0008" lon="6.00702">
        <ele>368.4</ele>
        <time>2022-05-15T08:59:50Z</time>
      </trkpt>
      <trkpt lat="47.0008" lon="6.00694">
        <ele>368.4</ele>
        <time>2022-05-15T08:59:53Z</time>
      </trkpt>
      <trkpt lat="47.0008" lon="6.00687">
        <ele>368.6</ele>
        <time>2022-05-15T08:59:57Z</time>
      </trkpt>
      <trkpt lat="47.00081" lon="6.00679">
        <ele>369.4</ele>
        <time>2022-05-15T09:00:02Z</time>
      </trkpt>
      <trkpt lat="47.00085" lon="6.00674">
        <ele>370.7</ele>
        <time>2022-05-15T09:00:06Z</time>
      </trkpt>
      <trkpt lat="47.00089" lon="6.00666">
        <ele>371.5</ele>
        <time>2022-05-15T09:00:09Z</time>
      </trkpt>
      <trkpt lat="47.00093" lon="6.0066">
        <ele>372.4</ele>
        <time>2022-05-15T09:00:12Z</time>
      </trkpt>
      <trkpt lat="47.00096" lon="6.00654">
        <ele>373</ele>
        <time>2022-05-15T09:00:16Z</time>
      </trkpt>
      <trkpt lat="47.00096" lon="6.00647">
        <ele>373.7</ele>
        <time>2022-05-15T09:00:21Z</time>
      </trkpt>
      <trkpt lat="47.00092" lon="6.00642">
        <ele>374.5</ele>
        <time>2022-05-15T09:00:26Z</time>
      </trkpt>
      <trkpt lat="47.0009" lon="6.00636">
        <ele>375.5</ele>
        <time>2022-05-15T09:00:34Z</time>
      </trkpt>
      <trkpt lat="47.00087" lon="6.00631">
        <ele>375.7</ele>
        <time>2022-05-15T09:00:40Z</time>
      </trkpt>
      <trkpt lat="47.00085" lon="6.00624">
        <ele>375.1</ele>
        <time>2022-05-15T09:00:46Z</time>
      </trkpt>
      <trkpt lat="47.00083" lon="6.00617">
        <ele>374.4</ele>
        <time>2022-05-15T09:00:51Z</time>
      </trkpt>
      <trkpt lat="47.00083" lon="6.0061">
        <ele>373.8</ele>
        <time>2022-05-15T09:00:55Z</time>
      </trkpt>
      <trkpt lat="47.00085" lon="6.00602">
        <ele>373.5</ele>
        <time>2022-05-15T09:00:59Z</time>
      </trkpt>
      <trkpt lat="47.00087" lon="6.00595">
        <ele>373.4</ele>
        <time>2022-05-15T09:01:02Z</time>
      </trkpt>
      <trkpt lat="47.00086" lon="6.00588">
        <ele>373.2</ele>
        <time>2022-05-15T09:01:06Z</time>
      </trkpt>
      <trkpt lat="47.00086" lon="6.00581">
        <ele>373.2</ele>
        <time>2022-05-15T09:01:10Z</time>
      </trkpt>
      <trkpt lat="47.00084" lon="6.00575">
        <ele>373.1</ele>
        <time>2022-05-15T09:01:14Z</time>
      </trkpt>
      <trkpt lat="47.00078" lon="6.00572">
        <ele>372.8</ele>
        <time>2022-05-15T09:01:17Z</time>
      </trkpt>
      <trkpt lat="47.00083" lon="6.00564">
        <ele>372.3</ele>
        <time>2022-05-15T09:01:20Z</time>
      </trkpt>
      <trkpt lat="47.00095" lon="6.00553">
        <ele>371.8</ele>
        <time>2022-05-15T09:01:23Z</time>
      </trkpt>
      <trkpt lat="47.00098" lon="6.00548">
        <ele>371</ele>
        <time>2022-05-15T09:01:28Z</time>
      </trkpt>
      <trkpt lat="47.00094" lon="6.00544">
        <ele>369.2</ele>
        <time>2022-05-15T09:01:39Z</time>
      </trkpt>
      <trkpt lat="47.00091" lon="6.00538">
        <ele>368.8</ele>
        <time>2022-05-15T09:01:45Z</time>
      </trkpt>
      <trkpt lat="47.00087" lon="6.00533">
        <ele>368.7</ele>
        <time>2022-05-15T09:01:49Z</time>
      </trkpt>
      <trkpt lat="47.00081" lon="6.00529">
        <ele>368.6</ele>
        <time>2022-05-15T09:01:52Z</time>
      </trkpt>
      <trkpt lat="47.00076" lon="6.00529">
        <ele>368.3</ele>
        <time>2022-05-15T09:01:55Z</time>
      </trkpt>
      <trkpt lat="47.00071" lon="6.00526">
        <ele>367.7</ele>
        <time>2022-05-15T09:01:59Z</time>
      </trkpt>
      <trkpt lat="47.00069" lon="6.0052">
        <ele>367</ele>
        <time>2022-05-15T09:02:04Z</time>
      </trkpt>
      <trkpt lat="47.00067" lon="6.00512">
        <ele>366.4</ele>
        <time>2022-05-15T09:02:08Z</time>
      </trkpt>
      <trkpt lat="47.00066" lon="6.00505">
        <ele>366.2</ele>
        <time>2022-05-15T09:02:11Z</time>
      </trkpt>
      <trkpt lat="47.00062" lon="6.00499">
        <ele>366.1</ele>
        <time>2022-05-15T09:02:14Z</time>
      </trkpt>
      <trkpt lat="47.00058" lon="6.00494">
        <ele>366</ele>
        <time>2022-05-15T09:02:17Z</time>
      </trkpt>
      <trkpt lat="47.00058" lon="6.00486">
        <ele>365.6</ele>
        <time>2022-05-15T09:02:22Z</time>
      </trkpt>
      <trkpt lat="47.00058" lon="6.00478">
        <ele>365.3</ele>
        <time>2022-05-15T09:02:27Z</time>
      </trkpt>
      <trkpt lat="47.00056" lon="6.00471">
        <ele>364.9</ele>
        <time>2022-05-15T09:02:32Z</time>
      </trkpt>
      <trkpt lat="47.00051" lon="6.00466">
        <ele>364.2</ele>
        <time>2022-05-15T09:02:37Z</time>
      </trkpt>
      <trkpt lat="47.0005" lon="6.00458">
        <ele>363.1</ele>
        <time>2022-05-15T09:02:44Z</time>
      </trkpt>
      <trkpt lat="47.00052" lon="6.0045">
        <ele>362.6</ele>
        <time>2022-05-15T09:02:48Z</time>
      </trkpt>
      <trkpt lat="47.00052" lon="6.00441">
        <ele>362.5</ele>
        <time>2022-05-15T09:02:52Z</time>
      </trkpt>
      <trkpt lat="47.0005" lon="6.00433">
        <ele>362.5</ele>
        <time>2022-05-15T09:02:56Z</time>
      </trkpt>
      <trkpt lat="47.0005" lon="6.00426">
        <ele>362.3</ele>
        <time>2022-05-15T09:03:01Z</time>
      </trkpt>
      <trkpt lat="47.00049" lon="6.00418">
        <ele>362.3</ele>
        <time>2022-05-15T09:03:06Z</time>
      </trkpt>
      <trkpt lat="47.00048" lon="6.00411">
        <ele>362.6</ele>
        <time>2022-05-15T09:03:11Z</time>
      </trkpt>
      <trkpt lat="47.00043" lon="6.0041">
        <ele>360.5</ele>
        <time>2022-05-15T09:03:18Z</time>
      </trkpt>
      <trkpt lat="47.00038" lon="6.00407">
        <ele>359.5</ele>
        <time>2022-05-15T09:03:22Z</time>
      </trkpt>
      <trkpt lat="47.00033" lon="6.00407">
        <ele>358.8</ele>
        <time>2022-05-15T09:03:26Z</time>
      </trkpt>
      <trkpt lat="47.00031" lon="6.004">
        <ele>358.2</ele>
        <time>2022-05-15T09:03:31Z</time>
      </trkpt>
      <trkpt lat="47.00031" lon="6.00393">
        <ele>357.8</ele>
        <time>2022-05-15T09:03:35Z</time>
      </trkpt>
      <trkpt lat="47.00027" lon="6.00388">
        <ele>357.5</ele>
        <time>2022-05-15T09:03:40Z</time>
      </trkpt>
      <trkpt lat="47.00023" lon="6.00385">
        <ele>357.1</ele>
        <time>2022-05-15T09:03:44Z</time>
      </trkpt>
      <trkpt lat="47.00019" lon="6.00384">
        <ele>357.2</ele>
        <time>2022-05-15T09:03:53Z</time>
      </trkpt>
      <trkpt lat="47.00014" lon="6.0038">
        <ele>358.1</ele>
        <time>2022-05-15T09:03:58Z</time>
      </trkpt>
      <trkpt lat="47.00013" lon="6.00372">
        <ele>359.1</ele>
        <time>2022-05-15T09:04:05Z</time>
      </trkpt>
      <trkpt lat="47.00008" lon="6.00368">
        <ele>359.5</ele>
        <time>2022-05-15T09:04:10Z</time>
      </trkpt>
      <trkpt lat="47.00003" lon="6.00365">
        <ele>359.5</ele>
        <time>2022-05-15T09:04:16Z</time>
      </trkpt>
      <trkpt lat="47.00001" lon="6.00356">
        <ele>359.2</ele>
        <time>2022-05-15T09:04:20Z</time>
      </trkpt>
      <trkpt lat="47.00003" lon="6.0035">
        <ele>359</ele>
        <time>2022-05-15T09:04:23Z</time>
      </trkpt>
      <trkpt lat="47.00004" lon="6.00343">
        <ele>359.1</ele>
        <time>2022-05-15T09:04:29Z</time>
      </trkpt>
      <trkpt lat="47" lon="6.00346">
        <ele>361.1</ele>
        <time>2022-05-15T09:04:42Z</time>
      </trkpt>
      <trkpt lat="47" lon="6.00354">
        <ele>362.2</ele>
        <time>2022-05-15T09:04:54Z</time>
      </trkpt>
      <trkpt lat="47.00002" lon="6.00348">
        <ele>360.9</ele>
        <time>2022-05-15T09:05:03Z</time>
      </trkpt>
      <trkpt lat="46.99997" lon="6.0035">
        <ele>355.2</ele>
        <time>2022-05-15T09:05:31Z</time>
      </trkpt>
      <trkpt lat="46.99992" lon="6.00353">
        <ele>353.3</ele>
        <time>2022-05-15T09:05:50Z</time>
      </trkpt>
      <trkpt lat="46.99989" lon="6.0035">
        <ele>349.9</ele>
        <time>2022-05-15T09:06:01Z</time>
      </trkpt>
      <trkpt lat="46.99995" lon="6.00346">
        <ele>347.9</ele>
        <time>2022-05-15T09:06:04Z</time>
      </trkpt>
      <trkpt lat="46.99995" lon="6.00342">
        <ele>344.8</ele>
        <time>2022-05-15T09:06:22Z</time>
      </trkpt>
      <trkpt lat="46.99995" lon="6.00334">
        <ele>344.6</ele>
        <time>2022-05-15T09:06:40Z</time>
      </trkpt>
      <trkpt lat="46.9999" lon="6.00332">
        <ele>344.1</ele>
        <time>2022-05-15T09:06:49Z</time>
      </trkpt>
      <trkpt lat="46.99975" lon="6.00335">
        <ele>344.5</ele>
        <time>2022-05-15T09:09:02Z</time>
      </trkpt>
      <trkpt lat="46.99984" lon="6.00333">
        <ele>344.4</ele>
        <time>2022-05-15T09:09:05Z</time>
      </trkpt>
      <trkpt lat="46.99991" lon="6.00332">
        <ele>344.3</ele>
        <time>2022-05-15T09:09:08Z</time>
      </trkpt>
      <trkpt lat="46.99997" lon="6.00331">
        <ele>344.3</ele>
        <time>2022-05-15T09:09:11Z</time>
      </trkpt>
      <trkpt lat="46.99999" lon="6.00324">
        <ele>345.1</ele>
        <time>2022-05-15T09:09:28Z</time>
      </trkpt>
      <trkpt lat="46.99996" lon="6.00318">
        <ele>345.3</ele>
        <time>2022-05-15T09:09:31Z</time>
      </trkpt>
      <trkpt lat="46.99994" lon="6.00312">
        <ele>345.5</ele>
        <time>2022-05-15T09:09:35Z</time>
      </trkpt>
      <trkpt lat="46.99994" lon="6.00306">
        <ele>346.2</ele>
        <time>2022-05-15T09:09:42Z</time>
      </trkpt>
      <trkpt lat="46.99991" lon="6.003">
        <ele>347.2</ele>
        <time>2022-05-15T09:09:57Z</time>
      </trkpt>
      <trkpt lat="46.99987" lon="6.00296">
        <ele>349</ele>
        <time>2022-05-15T09:10:04Z</time>
      </trkpt>
      <trkpt lat="46.9999" lon="6.0029">
        <ele>351.5</ele>
        <time>2022-05-15T09:10:08Z</time>
      </trkpt>
      <trkpt lat="46.99994" lon="6.00284">
        <ele>353.7</ele>
        <time>2022-05-15T09:10:11Z</time>
      </trkpt>
      <trkpt lat="46.99995" lon="6.00277">
        <ele>362.3</ele>
        <time>2022-05-15T09:10:26Z</time>
      </trkpt>
      <trkpt lat="46.99997" lon="6.0027">
        <ele>364.4</ele>
        <time>2022-05-15T09:10:31Z</time>
      </trkpt>
      <trkpt lat="46.99995" lon="6.00264">
        <ele>365.6</ele>
        <time>2022-05-15T09:10:35Z</time>
      </trkpt>
      <trkpt lat="46.99998" lon="6.00258">
        <ele>366.7</ele>
        <time>2022-05-15T09:10:39Z</time>
      </trkpt>
      <trkpt lat="46.99997" lon="6.00251">
        <ele>367.7</ele>
        <time>2022-05-15T09:10:44Z</time>
      </trkpt>
      <trkpt lat="47" lon="6.00246">
        <ele>369</ele>
        <time>2022-05-15T09:10:49Z</time>
      </trkpt>
      <trkpt lat="47.00001" lon="6.00239">
        <ele>369.9</ele>
        <time>2022-05-15T09:10:53Z</time>
      </trkpt>
      <trkpt lat="47.00002" lon="6.00232">
        <ele>370.5</ele>
        <time>2022-05-15T09:10:58Z</time>
      </trkpt>
      <trkpt lat="47.00003" lon="6.00224">
        <ele>369.9</ele>
        <time>2022-05-15T09:11:05Z</time>
      </trkpt>
      <trkpt lat="47.00006" lon="6.0022">
        <ele>369.3</ele>
        <time>2022-05-15T09:11:11Z</time>
      </trkpt>
      <trkpt lat="47.00007" lon="6.00212">
        <ele>369.9</ele>
        <time>2022-05-15T09:11:15Z</time>
      </trkpt>
      <trkpt lat="47.00012" lon="6.00209">
        <ele>370.4</ele>
        <time>2022-05-15T09:11:18Z</time>
      </trkpt>
      <trkpt lat="47.00015" lon="6.00204">
        <ele>370.8</ele>
        <time>2022-05-15T09:11:22Z</time>
      </trkpt>
      <trkpt lat="47.00018" lon="6.00199">
        <ele>371.5</ele>
        <time>2022-05-15T09:11:27Z</time>
      </trkpt>
      <trkpt lat="47.00023" lon="6.00195">
        <ele>371.7</ele>
        <time>2022-05-15T09:11:31Z</time>
      </trkpt>
      <trkpt lat="47.00023" lon="6.00188">
        <ele>372.1</ele>
        <time>2022-05-15T09:11:38Z</time>
      </trkpt>
      <trkpt lat="47.00028" lon="6.00181">
        <ele>372.8</ele>
        <time>2022-05-15T09:11:43Z</time>
      </trkpt>
      <trkpt lat="47.00035" lon="6.00176">
        <ele>373.8</ele>
        <time>2022-05-15T09:11:46Z</time>
      </trkpt>
      <trkpt lat="47.00041" lon="6.0017">
        <ele>375.3</ele>
        <time>2022-05-15T09:11:49Z</time>
      </trkpt>
      <trkpt lat="47.00044" lon="6.00166">
        <ele>376.6</ele>
        <time>2022-05-15T09:11:52Z</time>
      </trkpt>
      <trkpt lat="47.00044" lon="6.00158">
        <ele>378.9</ele>
        <time>2022-05-15T09:11:58Z</time>
      </trkpt>
      <trkpt lat="47.00048" lon="6.00155">
        <ele>380.3</ele>
        <time>2022-05-15T09:12:01Z</time>
      </trkpt>
      <trkpt lat="47.00051" lon="6.00151">
        <ele>384.3</ele>
        <time>2022-05-15T09:12:11Z</time>
      </trkpt>
      <trkpt lat="47.00051" lon="6.00143">
        <ele>385.4</ele>
        <time>2022-05-15T09:12:19Z</time>
      </trkpt>
      <trkpt lat="47.0005" lon="6.00135">
        <ele>386.5</ele>
        <time>2022-05-15T09:12:27Z</time>
      </trkpt>
      <trkpt lat="47.00072" lon="6.00128">
        <ele>385.9</ele>
        <time>2022-05-15T09:12:54Z</time>
      </trkpt>
      <trkpt lat="47.0008" lon="6.00135">
        <ele>385.5</ele>
        <time>2022-05-15T09:12:57Z</time>
      </trkpt>
      <trkpt lat="47.00087" lon="6.0014">
        <ele>385.4</ele>
        <time>2022-05-15T09:13:00Z</time>
      </trkpt>
      <trkpt lat="47.00104" lon="6.00084">
        <ele>382.3</ele>
        <time>2022-05-15T09:13:59Z</time>
      </trkpt>
      <trkpt lat="47.00112" lon="6.00086">
        <ele>382.2</ele>
        <time>2022-05-15T09:14:02Z</time>
      </trkpt>
      <trkpt lat="47.00117" lon="6.00087">
        <ele>382.1</ele>
        <time>2022-05-15T09:14:05Z</time>
      </trkpt>
      <trkpt lat="47.00123" lon="6.00086">
        <ele>381.8</ele>
        <time>2022-05-15T09:14:10Z</time>
      </trkpt>
      <trkpt lat="47.00129" lon="6.00089">
        <ele>381.7</ele>
        <time>2022-05-15T09:14:14Z</time>
      </trkpt>
      <trkpt lat="47.00183" lon="6.00072">
        <ele>381.4</ele>
        <time>2022-05-15T09:14:56Z</time>
      </trkpt>
      <trkpt lat="47.00189" lon="6.0007">
        <ele>382.1</ele>
        <time>2022-05-15T09:14:59Z</time>
      </trkpt>
      <trkpt lat="47.00196" lon="6.00067">
        <ele>383</ele>
        <time>2022-05-15T09:15:03Z</time>
      </trkpt>
      <trkpt lat="47.00203" lon="6.00066">
        <ele>383.9</ele>
        <time>2022-05-15T09:15:06Z</time>
      </trkpt>
      <trkpt lat="47.00209" lon="6.00064">
        <ele>384.7</ele>
        <time>2022-05-15T09:15:09Z</time>
      </trkpt>
      <trkpt lat="47.00213" lon="6.00061">
        <ele>385.2</ele>
        <time>2022-05-15T09:15:12Z</time>
      </trkpt>
      <trkpt lat="47.00216" lon="6.00055">
        <ele>384.6</ele>
        <time>2022-05-15T09:15:27Z</time>
      </trkpt>
      <trkpt lat="47.00216" lon="6.00049">
        <ele>384.2</ele>
        <time>2022-05-15T09:15:32Z</time>
      </trkpt>
      <trkpt lat="47.00215" lon="6.00042">
        <ele>383.4</ele>
        <time>2022-05-15T09:15:39Z</time>
      </trkpt>
      <trkpt lat="47.0022" lon="6.00041">
        <ele>382.4</ele>
        <time>2022-05-15T09:15:46Z</time>
      </trkpt>
      <trkpt lat="47.00225" lon="6.00043">
        <ele>381.9</ele>
        <time>2022-05-15T09:15:49Z</time>
      </trkpt>
      <trkpt lat="47.0023" lon="6.00043">
        <ele>381.5</ele>
        <time>2022-05-15T09:15:52Z</time>
      </trkpt>
      <trkpt lat="47.00235" lon="6.00041">
        <ele>381.1</ele>
        <time>2022-05-15T09:15:55Z</time>
      </trkpt>
      <trkpt lat="47.00241" lon="6.00041">
        <ele>380.8</ele>
        <time>2022-05-15T09:15:58Z</time>
      </trkpt>
      <trkpt lat="47.00245" lon="6.0004">
        <ele>380.4</ele>
        <time>2022-05-15T09:16:01Z</time>
      </trkpt>
      <trkpt lat="47.0025" lon="6.00039">
        <ele>380.1</ele>
        <time>2022-05-15T09:16:04Z</time>
      </trkpt>
      <trkpt lat="47.00256" lon="6.00038">
        <ele>379.6</ele>
        <time>2022-05-15T09:16:07Z</time>
      </trkpt>
      <trkpt lat="47.00261" lon="6.00036">
        <ele>379.3</ele>
        <time>2022-05-15T09:16:11Z</time>
      </trkpt>
      <trkpt lat="47.00263" lon="6.0003">
        <ele>379</ele>
        <time>2022-05-15T09:16:17Z</time>
      </trkpt>
      <trkpt lat="47.00265" lon="6.00024">
        <ele>379.2</ele>
        <time>2022-05-15T09:16:24Z</time>
      </trkpt>
      <trkpt lat="47.00264" lon="6.00016">
        <ele>379.1</ele>
        <time>2022-05-15T09:16:31Z</time>
      </trkpt>
      <trkpt lat="47.00265" lon="6.0001">
        <ele>378.6</ele>
        <time>2022-05-15T09:16:36Z</time>
      </trkpt>
      <trkpt lat="47.00269" lon="6.00004">
        <ele>377.7</ele>
        <time>2022-05-15T09:16:41Z</time>
      </trkpt>
      <trkpt lat="47.00273" lon="5.99998">
        <ele>375.9</ele>
        <time>2022-05-15T09:16:45Z</time>
      </trkpt>
      <trkpt lat="47.00273" lon="5.99991">
        <ele>372.8</ele>
        <time>2022-05-15T09:16:52Z</time>
      </trkpt>
      <trkpt lat="47.00278" lon="5.99989">
        <ele>370.5</ele>
        <time>2022-05-15T09:17:03Z</time>
      </trkpt>
      <trkpt lat="47.00292" lon="5.99957">
        <ele>368.7</ele>
        <time>2022-05-15T09:17:27Z</time>
      </trkpt>
      <trkpt lat="47.00296" lon="5.99952">
        <ele>368.9</ele>
        <time>2022-05-15T09:17:34Z</time>
      </trkpt>
      <trkpt lat="47.00303" lon="5.99952">
        <ele>368.9</ele>
        <time>2022-05-15T09:17:37Z</time>
      </trkpt>
      <trkpt lat="47.00315" lon="5.99953">
        <ele>368.8</ele>
        <time>2022-05-15T09:17:40Z</time>
      </trkpt>
      <trkpt lat="47.00324" lon="5.99955">
        <ele>368.5</ele>
        <time>2022-05-15T09:17:43Z</time>
      </trkpt>
      <trkpt lat="47.00322" lon="5.99948">
        <ele>368</ele>
        <time>2022-05-15T09:17:49Z</time>
      </trkpt>
      <trkpt lat="47.00292" lon="5.9992">
        <ele>367.4</ele>
        <time>2022-05-15T09:18:04Z</time>
      </trkpt>
      <trkpt lat="47.00289" lon="5.99914">
        <ele>367.3</ele>
        <time>2022-05-15T09:18:07Z</time>
      </trkpt>
      <trkpt lat="47.00284" lon="5.99905">
        <ele>367.3</ele>
        <time>2022-05-15T09:18:10Z</time>
      </trkpt>
      <trkpt lat="47.0028" lon="5.99898">
        <ele>367.3</ele>
        <time>2022-05-15T09:18:13Z</time>
      </trkpt>
      <trkpt lat="47.00276" lon="5.99891">
        <ele>367.3</ele>
        <time>2022-05-15T09:18:16Z</time>
      </trkpt>
      <trkpt lat="47.00272" lon="5.99888">
        <ele>367.1</ele>
        <time>2022-05-15T09:18:20Z</time>
      </trkpt>
      <trkpt lat="47.00268" lon="5.99883">
        <ele>367</ele>
        <time>2022-05-15T09:18:23Z</time>
      </trkpt>
      <trkpt lat="47.00265" lon="5.99878">
        <ele>366.8</ele>
        <time>2022-05-15T09:18:27Z</time>
      </trkpt>
      <trkpt lat="47.0026" lon="5.99874">
        <ele>366.8</ele>
        <time>2022-05-15T09:18:31Z</time>
      </trkpt>
      <trkpt lat="47.00256" lon="5.99871">
        <ele>366.8</ele>
        <time>2022-05-15T09:18:35Z</time>
      </trkpt>
      <trkpt lat="47.00252" lon="5.99868">
        <ele>366.7</ele>
        <time>2022-05-15T09:18:40Z</time>
      </trkpt>
      <trkpt lat="47.00247" lon="5.99866">
        <ele>366.3</ele>
        <time>2022-05-15T09:18:45Z</time>
      </trkpt>
      <trkpt lat="47.00243" lon="5.9986">
        <ele>365.9</ele>
        <time>2022-05-15T09:18:50Z</time>
      </trkpt>
      <trkpt lat="47.00239" lon="5.99856">
        <ele>365.2</ele>
        <time>2022-05-15T09:18:56Z</time>
      </trkpt>
      <trkpt lat="47.00235" lon="5.99851">
        <ele>364.4</ele>
        <time>2022-05-15T09:19:01Z</time>
      </trkpt>
      <trkpt lat="47.00231" lon="5.99846">
        <ele>363.8</ele>
        <time>2022-05-15T09:19:06Z</time>
      </trkpt>
      <trkpt lat="47.00229" lon="5.9984">
        <ele>363.3</ele>
        <time>2022-05-15T09:19:10Z</time>
      </trkpt>
      <trkpt lat="47.00226" lon="5.99833">
        <ele>362.8</ele>
        <time>2022-05-15T09:19:15Z</time>
      </trkpt>
      <trkpt lat="47.00222" lon="5.99828">
        <ele>362.5</ele>
        <time>2022-05-15T09:19:18Z</time>
      </trkpt>
      <trkpt lat="47.00216" lon="5.99827">
        <ele>362.3</ele>
        <time>2022-05-15T09:19:21Z</time>
      </trkpt>
      <trkpt lat="47.00211" lon="5.9983">
        <ele>362</ele>
        <time>2022-05-15T09:19:24Z</time>
      </trkpt>
      <trkpt lat="47.00209" lon="5.99835">
        <ele>361.8</ele>
        <time>2022-05-15T09:19:27Z</time>
      </trkpt>
      <trkpt lat="47.00203" lon="5.99832">
        <ele>361.9</ele>
        <time>2022-05-15T09:19:33Z</time>
      </trkpt>
      <trkpt lat="47.002" lon="5.99825">
        <ele>362.2</ele>
        <time>2022-05-15T09:19:37Z</time>
      </trkpt>
      <trkpt lat="47.00197" lon="5.99816">
        <ele>362.9</ele>
        <time>2022-05-15T09:19:40Z</time>
      </trkpt>
      <trkpt lat="47.00193" lon="5.99811">
        <ele>363.6</ele>
        <time>2022-05-15T09:19:43Z</time>
      </trkpt>
      <trkpt lat="47.00189" lon="5.9981">
        <ele>364.4</ele>
        <time>2022-05-15T09:19:46Z</time>
      </trkpt>
      <trkpt lat="47.00184" lon="5.99808">
        <ele>365.1</ele>
        <time>2022-05-15T09:19:49Z</time>
      </trkpt>
      <trkpt lat="47.00179" lon="5.99809">
        <ele>365.4</ele>
        <time>2022-05-15T09:19:53Z</time>
      </trkpt>
      <trkpt lat="47.00175" lon="5.99805">
        <ele>365.1</ele>
        <time>2022-05-15T09:19:57Z</time>
      </trkpt>
      <trkpt lat="47.00172" lon="5.998">
        <ele>363.8</ele>
        <time>2022-05-15T09:20:01Z</time>
      </trkpt>
      <trkpt lat="47.0017" lon="5.99794">
        <ele>362.2</ele>
        <time>2022-05-15T09:20:06Z</time>
      </trkpt>
      <trkpt lat="47.00172" lon="5.998">
        <ele>358.8</ele>
        <time>2022-05-15T09:20:36Z</time>
      </trkpt>
      <trkpt lat="47.00166" lon="5.99801">
        <ele>358.3</ele>
        <time>2022-05-15T09:20:44Z</time>
      </trkpt>
      <trkpt lat="47.00161" lon="5.99796">
        <ele>358.3</ele>
        <time>2022-05-15T09:20:58Z</time>
      </trkpt>
      <trkpt lat="47.00164" lon="5.9979">
        <ele>357.6</ele>
        <time>2022-05-15T09:21:07Z</time>
      </trkpt>
      <trkpt lat="47.00168" lon="5.99786">
        <ele>357.3</ele>
        <time>2022-05-15T09:21:10Z</time>
      </trkpt>
      <trkpt lat="47.00172" lon="5.99783">
        <ele>356.9</ele>
        <time>2022-05-15T09:21:18Z</time>
      </trkpt>
      <trkpt lat="47.0017" lon="5.99777">
        <ele>357.5</ele>
        <time>2022-05-15T09:21:27Z</time>
      </trkpt>
      <trkpt lat="47.00166" lon="5.99772">
        <ele>356.7</ele>
        <time>2022-05-15T09:21:42Z</time>
      </trkpt>
      <trkpt lat="47.00161" lon="5.99772">
        <ele>357.1</ele>
        <time>2022-05-15T09:21:48Z</time>
      </trkpt>
      <trkpt lat="47.00157" lon="5.99768">
        <ele>357.9</ele>
        <time>2022-05-15T09:21:54Z</time>
      </trkpt>
      <trkpt lat="47.00153" lon="5.99763">
        <ele>358.8</ele>
        <time>2022-05-15T09:22:00Z</time>
      </trkpt>
      <trkpt lat="47.00148" lon="5.99762">
        <ele>359.1</ele>
        <time>2022-05-15T09:22:05Z</time>
      </trkpt>
      <trkpt lat="47.00143" lon="5.99765">
        <ele>359.2</ele>
        <time>2022-05-15T09:22:10Z</time>
      </trkpt>
      <trkpt lat="47.00139" lon="5.99769">
        <ele>359.3</ele>
        <time>2022-05-15T09:22:14Z</time>
      </trkpt>
      <trkpt lat="47.00135" lon="5.99771">
        <ele>359.8</ele>
        <time>2022-05-15T09:22:19Z</time>
      </trkpt>
      <trkpt lat="47.0013" lon="5.99774">
        <ele>360.5</ele>
        <time>2022-05-15T09:22:23Z</time>
      </trkpt>
      <trkpt lat="47.00125" lon="5.99772">
        <ele>361.9</ele>
        <time>2022-05-15T09:22:29Z</time>
      </trkpt>
      <trkpt lat="47.00121" lon="5.99768">
        <ele>362.7</ele>
        <time>2022-05-15T09:22:34Z</time>
      </trkpt>
      <trkpt lat="47.00116" lon="5.99768">
        <ele>363.4</ele>
        <time>2022-05-15T09:22:43Z</time>
      </trkpt>
      <trkpt lat="47.00113" lon="5.99762">
        <ele>364.2</ele>
        <time>2022-05-15T09:22:51Z</time>
      </trkpt>
      <trkpt lat="47.00107" lon="5.99766">
        <ele>364.9</ele>
        <time>2022-05-15T09:22:55Z</time>
      </trkpt>
      <trkpt lat="47.00099" lon="5.99771">
        <ele>365.9</ele>
        <time>2022-05-15T09:22:58Z</time>
      </trkpt>
      <trkpt lat="47.00094" lon="5.99775">
        <ele>366.8</ele>
        <time>2022-05-15T09:23:01Z</time>
      </trkpt>
      <trkpt lat="47.0009" lon="5.9978">
        <ele>367.7</ele>
        <time>2022-05-15T09:23:05Z</time>
      </trkpt>
      <trkpt lat="47.00084" lon="5.9978">
        <ele>368.2</ele>
        <time>2022-05-15T09:23:11Z</time>
      </trkpt>
      <trkpt lat="47.00079" lon="5.99777">
        <ele>368</ele>
        <time>2022-05-15T09:23:17Z</time>
      </trkpt>
      <trkpt lat="47.00077" lon="5.9977">
        <ele>367.6</ele>
        <time>2022-05-15T09:23:20Z</time>
      </trkpt>
      <trkpt lat="47.00075" lon="5.99764">
        <ele>366.6</ele>
        <time>2022-05-15T09:23:25Z</time>
      </trkpt>
      <trkpt lat="47.0007" lon="5.99765">
        <ele>364.4</ele>
        <time>2022-05-15T09:23:32Z</time>
      </trkpt>
      <trkpt lat="47.00065" lon="5.99765">
        <ele>362.7</ele>
        <time>2022-05-15T09:23:37Z</time>
      </trkpt>
      <trkpt lat="47.0006" lon="5.99768">
        <ele>362.1</ele>
        <time>2022-05-15T09:23:45Z</time>
      </trkpt>
      <trkpt lat="47.00055" lon="5.99769">
        <ele>362.3</ele>
        <time>2022-05-15T09:23:49Z</time>
      </trkpt>
      <trkpt lat="47.0005" lon="5.9977">
        <ele>362.2</ele>
        <time>2022-05-15T09:23:53Z</time>
      </trkpt>
      <trkpt lat="47.00046" lon="5.9977">
        <ele>362.1</ele>
        <time>2022-05-15T09:23:57Z</time>
      </trkpt>
      <trkpt lat="47.00042" lon="5.99764">
        <ele>362</ele>
        <time>2022-05-15T09:24:01Z</time>
      </trkpt>
      <trkpt lat="47.00039" lon="5.99757">
        <ele>361.7</ele>
        <time>2022-05-15T09:24:05Z</time>
      </trkpt>
      <trkpt lat="47.00035" lon="5.99754">
        <ele>361.2</ele>
        <time>2022-05-15T09:24:09Z</time>
      </trkpt>
      <trkpt lat="47.0003" lon="5.99753">
        <ele>360.6</ele>
        <time>2022-05-15T09:24:13Z</time>
      </trkpt>
      <trkpt lat="47.00026" lon="5.99756">
        <ele>360.4</ele>
        <time>2022-05-15T09:24:16Z</time>
      </trkpt>
      <trkpt lat="47.00021" lon="5.99759">
        <ele>360.2</ele>
        <time>2022-05-15T09:24:21Z</time>
      </trkpt>
      <trkpt lat="47.00016" lon="5.9976">
        <ele>360</ele>
        <time>2022-05-15T09:24:27Z</time>
      </trkpt>
      <trkpt lat="47.00011" lon="5.99758">
        <ele>360.3</ele>
        <time>2022-05-15T09:24:31Z</time>
      </trkpt>
      <trkpt lat="47.00006" lon="5.99756">
        <ele>361</ele>
        <time>2022-05-15T09:24:35Z</time>
      </trkpt>
      <trkpt lat="47.00003" lon="5.9975">
        <ele>361.4</ele>
        <time>2022-05-15T09:24:38Z</time>
      </trkpt>
      <trkpt lat="47" lon="5.99744">
        <ele>361</ele>
        <time>2022-05-15T09:24:41Z</time>
      </trkpt>
      <trkpt lat="46.99996" lon="5.99741">
        <ele>360.2</ele>
        <time>2022-05-15T09:24:46Z</time>
      </trkpt>
      <trkpt lat="46.99991" lon="5.99741">
        <ele>359.7</ele>
        <time>2022-05-15T09:24:51Z</time>
      </trkpt>
      <trkpt lat="46.99986" lon="5.99743">
        <ele>359.6</ele>
        <time>2022-05-15T09:24:58Z</time>
      </trkpt>
      <trkpt lat="46.99981" lon="5.99746">
        <ele>360.3</ele>
        <time>2022-05-15T09:25:02Z</time>
      </trkpt>
      <trkpt lat="46.99976" lon="5.99743">
        <ele>361.3</ele>
        <time>2022-05-15T09:25:06Z</time>
      </trkpt>
      <trkpt lat="46.9997" lon="5.99741">
        <ele>362.1</ele>
        <time>2022-05-15T09:25:10Z</time>
      </trkpt>
      <trkpt lat="46.99965" lon="5.99739">
        <ele>363.3</ele>
        <time>2022-05-15T09:25:15Z</time>
      </trkpt>
      <trkpt lat="46.9996" lon="5.99734">
        <ele>363.8</ele>
        <time>2022-05-15T09:25:18Z</time>
      </trkpt>
      <trkpt lat="46.99955" lon="5.99729">
        <ele>364.5</ele>
        <time>2022-05-15T09:25:21Z</time>
      </trkpt>
      <trkpt lat="46.99951" lon="5.99725">
        <ele>365.6</ele>
        <time>2022-05-15T09:25:25Z</time>
      </trkpt>
      <trkpt lat="46.99946" lon="5.99723">
        <ele>367.2</ele>
        <time>2022-05-15T09:25:30Z</time>
      </trkpt>
      <trkpt lat="46.99941" lon="5.99722">
        <ele>369.5</ele>
        <time>2022-05-15T09:25:36Z</time>
      </trkpt>
      <trkpt lat="46.99939" lon="5.99715">
        <ele>370.7</ele>
        <time>2022-05-15T09:25:42Z</time>
      </trkpt>
      <trkpt lat="46.99939" lon="5.99708">
        <ele>369.8</ele>
        <time>2022-05-15T09:25:49Z</time>
      </trkpt>
      <trkpt lat="46.99937" lon="5.99702">
        <ele>369.3</ele>
        <time>2022-05-15T09:25:53Z</time>
      </trkpt>
      <trkpt lat="46.99933" lon="5.99699">
        <ele>368.8</ele>
        <time>2022-05-15T09:26:02Z</time>
      </trkpt>
      <trkpt lat="46.99931" lon="5.99693">
        <ele>369</ele>
        <time>2022-05-15T09:26:06Z</time>
      </trkpt>
      <trkpt lat="46.99927" lon="5.99686">
        <ele>369.3</ele>
        <time>2022-05-15T09:26:09Z</time>
      </trkpt>
      <trkpt lat="46.99923" lon="5.9968">
        <ele>369.8</ele>
        <time>2022-05-15T09:26:12Z</time>
      </trkpt>
      <trkpt lat="46.99919" lon="5.99673">
        <ele>370.1</ele>
        <time>2022-05-15T09:26:15Z</time>
      </trkpt>
      <trkpt lat="46.99917" lon="5.99667">
        <ele>370.4</ele>
        <time>2022-05-15T09:26:19Z</time>
      </trkpt>
      <trkpt lat="46.99916" lon="5.9966">
        <ele>370.6</ele>
        <time>2022-05-15T09:26:22Z</time>
      </trkpt>
      <trkpt lat="46.9992" lon="5.99655">
        <ele>371.6</ele>
        <time>2022-05-15T09:26:30Z</time>
      </trkpt>
      <trkpt lat="46.99921" lon="5.99647">
        <ele>372.3</ele>
        <time>2022-05-15T09:26:36Z</time>
      </trkpt>
      <trkpt lat="46.99924" lon="5.9964">
        <ele>372.2</ele>
        <time>2022-05-15T09:26:40Z</time>
      </trkpt>
      <trkpt lat="46.99924" lon="5.99632">
        <ele>372.3</ele>
        <time>2022-05-15T09:26:44Z</time>
      </trkpt>
      <trkpt lat="46.99922" lon="5.99624">
        <ele>372.4</ele>
        <time>2022-05-15T09:26:48Z</time>
      </trkpt>
      <trkpt lat="46.9992" lon="5.99618">
        <ele>373</ele>
        <time>2022-05-15T09:26:52Z</time>
      </trkpt>
      <trkpt lat="46.99923" lon="5.99611">
        <ele>372.9</ele>
        <time>2022-05-15T09:26:56Z</time>
      </trkpt>
      <trkpt lat="46.99926" lon="5.99608">
        <ele>372</ele>
        <time>2022-05-15T09:27:01Z</time>
      </trkpt>
      <trkpt lat="46.99926" lon="5.996">
        <ele>370.3</ele>
        <time>2022-05-15T09:27:07Z</time>
      </trkpt>
      <trkpt lat="46.99924" lon="5.99593">
        <ele>369</ele>
        <time>2022-05-15T09:27:11Z</time>
      </trkpt>
      <trkpt lat="46.99936" lon="5.99566">
        <ele>359.1</ele>
        <time>2022-05-15T09:27:24Z</time>
      </trkpt>
      <trkpt lat="46.99938" lon="5.99559">
        <ele>356.3</ele>
        <time>2022-05-15T09:27:31Z</time>
      </trkpt>
      <trkpt lat="46.99939" lon="5.99551">
        <ele>355</ele>
        <time>2022-05-15T09:27:36Z</time>
      </trkpt>
      <trkpt lat="46.99944" lon="5.99549">
        <ele>354.1</ele>
        <time>2022-05-15T09:27:39Z</time>
      </trkpt>
      <trkpt lat="46.99947" lon="5.99543">
        <ele>352.8</ele>
        <time>2022-05-15T09:27:46Z</time>
      </trkpt>
      <trkpt lat="46.99953" lon="5.99543">
        <ele>352</ele>
        <time>2022-05-15T09:27:51Z</time>
      </trkpt>
      <trkpt lat="46.99961" lon="5.99547">
        <ele>351.2</ele>
        <time>2022-05-15T09:27:54Z</time>
      </trkpt>
      <trkpt lat="46.99965" lon="5.9955">
        <ele>350.1</ele>
        <time>2022-05-15T09:27:58Z</time>
      </trkpt>
      <trkpt lat="46.9997" lon="5.9955">
        <ele>347.8</ele>
        <time>2022-05-15T09:28:06Z</time>
      </trkpt>
      <trkpt lat="46.99975" lon="5.9954">
        <ele>345.1</ele>
        <time>2022-05-15T09:28:15Z</time>
      </trkpt>
      <trkpt lat="46.99975" lon="5.99533">
        <ele>344.5</ele>
        <time>2022-05-15T09:28:20Z</time>
      </trkpt>
      <trkpt lat="46.99979" lon="5.99529">
        <ele>344.7</ele>
        <time>2022-05-15T09:28:26Z</time>
      </trkpt>
      <trkpt lat="46.9998" lon="5.99522">
        <ele>345.2</ele>
        <time>2022-05-15T09:28:31Z</time>
      </trkpt>
      <trkpt lat="46.99985" lon="5.99523">
        <ele>345.5</ele>
        <time>2022-05-15T09:28:34Z</time>
      </trkpt>
      <trkpt lat="46.99989" lon="5.99528">
        <ele>345.5</ele>
        <time>2022-05-15T09:28:39Z</time>
      </trkpt>
      <trkpt lat="46.99994" lon="5.99528">
        <ele>345.6</ele>
        <time>2022-05-15T09:28:44Z</time>
      </trkpt>
      <trkpt lat="46.99999" lon="5.99529">
        <ele>345.7</ele>
        <time>2022-05-15T09:28:49Z</time>
      </trkpt>
      <trkpt lat="47.00004" lon="5.99525">
        <ele>345.9</ele>
        <time>2022-05-15T09:28:54Z</time>
      </trkpt>
      <trkpt lat="47.00008" lon="5.99523">
        <ele>346.2</ele>
        <time>2022-05-15T09:29:00Z</time>
      </trkpt>
      <trkpt lat="47.00016" lon="5.99522">
        <ele>344.4</ele>
        <time>2022-05-15T09:29:03Z</time>
      </trkpt>
      <trkpt lat="47.00024" lon="5.99522">
        <ele>343.1</ele>
        <time>2022-05-15T09:29:06Z</time>
      </trkpt>
      <trkpt lat="47.00027" lon="5.99517">
        <ele>340.8</ele>
        <time>2022-05-15T09:29:15Z</time>
      </trkpt>
      <trkpt lat="47.00031" lon="5.99518">
        <ele>340</ele>
        <time>2022-05-15T09:29:23Z</time>
      </trkpt>
      <trkpt lat="47.00037" lon="5.99519">
        <ele>339.8</ele>
        <time>2022-05-15T09:29:27Z</time>
      </trkpt>
      <trkpt lat="47.00053" lon="5.99528">
        <ele>338.4</ele>
        <time>2022-05-15T09:29:52Z</time>
      </trkpt>
      <trkpt lat="47.00059" lon="5.99533">
        <ele>338.5</ele>
        <time>2022-05-15T09:29:55Z</time>
      </trkpt>
      <trkpt lat="47.00064" lon="5.99538">
        <ele>338.5</ele>
        <time>2022-05-15T09:29:59Z</time>
      </trkpt>
      <trkpt lat="47.00069" lon="5.99538">
        <ele>338.3</ele>
        <time>2022-05-15T09:30:02Z</time>
      </trkpt>
      <trkpt lat="47.00073" lon="5.99535">
        <ele>337.7</ele>
        <time>2022-05-15T09:30:16Z</time>
      </trkpt>
      <trkpt lat="47.00078" lon="5.99538">
        <ele>337.6</ele>
        <time>2022-05-15T09:30:23Z</time>
      </trkpt>
      <trkpt lat="47.00082" lon="5.99538">
        <ele>338</ele>
        <time>2022-05-15T09:30:30Z</time>
      </trkpt>
      <trkpt lat="47.00086" lon="5.99543">
        <ele>338.3</ele>
        <time>2022-05-15T09:30:34Z</time>
      </trkpt>
      <trkpt lat="47.00089" lon="5.99548">
        <ele>338.5</ele>
        <time>2022-05-15T09:30:41Z</time>
      </trkpt>
      <trkpt lat="47.00093" lon="5.99552">
        <ele>338.5</ele>
        <time>2022-05-15T09:30:44Z</time>
      </trkpt>
      <trkpt lat="47.00098" lon="5.99553">
        <ele>338.5</ele>
        <time>2022-05-15T09:30:49Z</time>
      </trkpt>
      <trkpt lat="47.00103" lon="5.99555">
        <ele>338.3</ele>
        <time>2022-05-15T09:30:53Z</time>
      </trkpt>
      <trkpt lat="47.00108" lon="5.99557">
        <ele>338.1</ele>
        <time>2022-05-15T09:30:57Z</time>
      </trkpt>
      <trkpt lat="47.00113" lon="5.99561">
        <ele>337.6</ele>
        <time>2022-05-15T09:31:01Z</time>
      </trkpt>
      <trkpt lat="47.00116" lon="5.99566">
        <ele>337</ele>
        <time>2022-05-15T09:31:05Z</time>
      </trkpt>
      <trkpt lat="47.0014" lon="5.99578">
        <ele>333.9</ele>
        <time>2022-05-15T09:31:58Z</time>
      </trkpt>
      <trkpt lat="47.0014" lon="5.99571">
        <ele>334.1</ele>
        <time>2022-05-15T09:32:02Z</time>
      </trkpt>
      <trkpt lat="47.00141" lon="5.99563">
        <ele>334.4</ele>
        <time>2022-05-15T09:32:08Z</time>
      </trkpt>
      <trkpt lat="47.00145" lon="5.9956">
        <ele>334.7</ele>
        <time>2022-05-15T09:32:13Z</time>
      </trkpt>
      <trkpt lat="47.0015" lon="5.9956">
        <ele>335</ele>
        <time>2022-05-15T09:32:17Z</time>
      </trkpt>
      <trkpt lat="47.00155" lon="5.99562">
        <ele>335.8</ele>
        <time>2022-05-15T09:32:21Z</time>
      </trkpt>
      <trkpt lat="47.0016" lon="5.99565">
        <ele>336.6</ele>
        <time>2022-05-15T09:32:26Z</time>
      </trkpt>
      <trkpt lat="47.00165" lon="5.99569">
        <ele>337.7</ele>
        <time>2022-05-15T09:32:32Z</time>
      </trkpt>
      <trkpt lat="47.00171" lon="5.9957">
        <ele>338.4</ele>
        <time>2022-05-15T09:32:36Z</time>
      </trkpt>
      <trkpt lat="47.00176" lon="5.99573">
        <ele>339.4</ele>
        <time>2022-05-15T09:32:41Z</time>
      </trkpt>
      <trkpt lat="47.00181" lon="5.99576">
        <ele>340.3</ele>
        <time>2022-05-15T09:32:45Z</time>
      </trkpt>
      <trkpt lat="47.00186" lon="5.99578">
        <ele>341</ele>
        <time>2022-05-15T09:32:49Z</time>
      </trkpt>
      <trkpt lat="47.00191" lon="5.99579">
        <ele>341.6</ele>
        <time>2022-05-15T09:32:53Z</time>
      </trkpt>
      <trkpt lat="47.00196" lon="5.99577">
        <ele>342.1</ele>
        <time>2022-05-15T09:32:58Z</time>
      </trkpt>
      <trkpt lat="47.002" lon="5.99574">
        <ele>342.7</ele>
        <time>2022-05-15T09:33:02Z</time>
      </trkpt>
      <trkpt lat="47.00205" lon="5.99571">
        <ele>343.4</ele>
        <time>2022-05-15T09:33:06Z</time>
      </trkpt>
      <trkpt lat="47.00209" lon="5.99566">
        <ele>344.1</ele>
        <time>2022-05-15T09:33:10Z</time>
      </trkpt>
      <trkpt lat="47.00213" lon="5.99563">
        <ele>344.6</ele>
        <time>2022-05-15T09:33:13Z</time>
      </trkpt>
      <trkpt lat="47.00218" lon="5.9956">
        <ele>345.2</ele>
        <time>2022-05-15T09:33:16Z</time>
      </trkpt>
      <trkpt lat="47.00222" lon="5.99554">
        <ele>345.7</ele>
        <time>2022-05-15T09:33:19Z</time>
      </trkpt>
      <trkpt lat="47.00225" lon="5.9955">
        <ele>346</ele>
        <time>2022-05-15T09:33:22Z</time>
      </trkpt>
      <trkpt lat="47.00231" lon="5.99548">
        <ele>346.3</ele>
        <time>2022-05-15T09:33:26Z</time>
      </trkpt>
      <trkpt lat="47.00236" lon="5.99546">
        <ele>346.5</ele>
        <time>2022-05-15T09:33:30Z</time>
      </trkpt>
      <trkpt lat="47.00238" lon="5.99538">
        <ele>346.8</ele>
        <time>2022-05-15T09:33:34Z</time>
      </trkpt>
      <trkpt lat="47.00241" lon="5.99531">
        <ele>347.2</ele>
        <time>2022-05-15T09:33:37Z</time>
      </trkpt>
      <trkpt lat="47.00244" lon="5.99526">
        <ele>347.4</ele>
        <time>2022-05-15T09:33:40Z</time>
      </trkpt>
      <trkpt lat="47.00249" lon="5.99522">
        <ele>347.6</ele>
        <time>2022-05-15T09:33:44Z</time>
      </trkpt>
      <trkpt lat="47.00252" lon="5.99517">
        <ele>347.8</ele>
        <time>2022-05-15T09:33:48Z</time>
      </trkpt>
      <trkpt lat="47.0025" lon="5.99511">
        <ele>348.3</ele>
        <time>2022-05-15T09:33:55Z</time>
      </trkpt>
      <trkpt lat="47.00248" lon="5.99503">
        <ele>348.5</ele>
        <time>2022-05-15T09:33:58Z</time>
      </trkpt>
      <trkpt lat="47.00251" lon="5.99495">
        <ele>348.6</ele>
        <time>2022-05-15T09:34:02Z</time>
      </trkpt>
      <trkpt lat="47.00253" lon="5.99488">
        <ele>348.6</ele>
        <time>2022-05-15T09:34:05Z</time>
      </trkpt>
      <trkpt lat="47.00255" lon="5.99481">
        <ele>348.7</ele>
        <time>2022-05-15T09:34:08Z</time>
      </trkpt>
      <trkpt lat="47.00257" lon="5.99475">
        <ele>348.8</ele>
        <time>2022-05-15T09:34:12Z</time>
      </trkpt>
      <trkpt lat="47.0026" lon="5.99468">
        <ele>349</ele>
        <time>2022-05-15T09:34:16Z</time>
      </trkpt>
      <trkpt lat="47.00261" lon="5.99461">
        <ele>350.4</ele>
        <time>2022-05-15T09:34:22Z</time>
      </trkpt>
      <trkpt lat="47.00264" lon="5.99455">
        <ele>353.9</ele>
        <time>2022-05-15T09:34:33Z</time>
      </trkpt>
      <trkpt lat="47.00267" lon="5.9945">
        <ele>356.9</ele>
        <time>2022-05-15T09:34:45Z</time>
      </trkpt>
      <trkpt lat="47.00272" lon="5.99451">
        <ele>358.2</ele>
        <time>2022-05-15T09:34:50Z</time>
      </trkpt>
      <trkpt lat="47.00276" lon="5.99448">
        <ele>360.6</ele>
        <time>2022-05-15T09:35:00Z</time>
      </trkpt>
      <trkpt lat="47.00273" lon="5.99442">
        <ele>362</ele>
        <time>2022-05-15T09:35:06Z</time>
      </trkpt>
      <trkpt lat="47.0027" lon="5.99437">
        <ele>362.8</ele>
        <time>2022-05-15T09:35:09Z</time>
      </trkpt>
      <trkpt lat="47.00267" lon="5.99431">
        <ele>363.9</ele>
        <time>2022-05-15T09:35:15Z</time>
      </trkpt>
      <trkpt lat="47.00265" lon="5.99425">
        <ele>364.5</ele>
        <time>2022-05-15T09:35:19Z</time>
      </trkpt>
      <trkpt lat="47.00265" lon="5.99416">
        <ele>365.4</ele>
        <time>2022-05-15T09:35:26Z</time>
      </trkpt>
      <trkpt lat="47.00264" lon="5.99409">
        <ele>365.6</ele>
        <time>2022-05-15T09:35:30Z</time>
      </trkpt>
      <trkpt lat="47.00262" lon="5.99403">
        <ele>365.3</ele>
        <time>2022-05-15T09:35:35Z</time>
      </trkpt>
      <trkpt lat="47.0026" lon="5.99395">
        <ele>364.6</ele>
        <time>2022-05-15T09:35:39Z</time>
      </trkpt>
      <trkpt lat="47.00259" lon="5.99388">
        <ele>364</ele>
        <time>2022-05-15T09:35:42Z</time>
      </trkpt>
      <trkpt lat="47.00258" lon="5.99381">
        <ele>363.6</ele>
        <time>2022-05-15T09:35:46Z</time>
      </trkpt>
      <trkpt lat="47.00262" lon="5.99376">
        <ele>364.2</ele>
        <time>2022-05-15T09:35:52Z</time>
      </trkpt>
      <trkpt lat="47.0026" lon="5.9937">
        <ele>364.8</ele>
        <time>2022-05-15T09:35:58Z</time>
      </trkpt>
      <trkpt lat="47.00259" lon="5.99364">
        <ele>365.6</ele>
        <time>2022-05-15T09:36:04Z</time>
      </trkpt>
      <trkpt lat="47.00257" lon="5.99357">
        <ele>366.2</ele>
        <time>2022-05-15T09:36:09Z</time>
      </trkpt>
      <trkpt lat="47.00254" lon="5.9935">
        <ele>366.7</ele>
        <time>2022-05-15T09:36:14Z</time>
      </trkpt>
      <trkpt lat="47.00254" lon="5.99343">
        <ele>367.1</ele>
        <time>2022-05-15T09:36:18Z</time>
      </trkpt>
      <trkpt lat="47.00253" lon="5.99337">
        <ele>367.3</ele>
        <time>2022-05-15T09:36:22Z</time>
      </trkpt>
      <trkpt lat="47.00244" lon="5.99319">
        <ele>368.3</ele>
        <time>2022-05-15T09:36:34Z</time>
      </trkpt>
      <trkpt lat="47.00239" lon="5.99316">
        <ele>368.7</ele>
        <time>2022-05-15T09:36:40Z</time>
      </trkpt>
      <trkpt lat="47.00236" lon="5.99311">
        <ele>369.2</ele>
        <time>2022-05-15T09:36:46Z</time>
      </trkpt>
      <trkpt lat="47.00234" lon="5.99303">
        <ele>369.5</ele>
        <time>2022-05-15T09:36:52Z</time>
      </trkpt>
      <trkpt lat="47.00231" lon="5.99297">
        <ele>369.6</ele>
        <time>2022-05-15T09:36:57Z</time>
      </trkpt>
      <trkpt lat="47.00227" lon="5.99292">
        <ele>369.7</ele>
        <time>2022-05-15T09:37:00Z</time>
      </trkpt>
      <trkpt lat="47.00216" lon="5.99282">
        <ele>370.3</ele>
        <time>2022-05-15T09:37:12Z</time>
      </trkpt>
      <trkpt lat="47.00211" lon="5.99278">
        <ele>370.4</ele>
        <time>2022-05-15T09:37:17Z</time>
      </trkpt>
      <trkpt lat="47.00207" lon="5.99275">
        <ele>370.4</ele>
        <time>2022-05-15T09:37:22Z</time>
      </trkpt>
      <trkpt lat="47.00206" lon="5.99267">
        <ele>370.2</ele>
        <time>2022-05-15T09:37:29Z</time>
      </trkpt>
      <trkpt lat="47.00202" lon="5.99263">
        <ele>370.1</ele>
        <time>2022-05-15T09:37:33Z</time>
      </trkpt>
      <trkpt lat="47.00196" lon="5.9926">
        <ele>370.3</ele>
        <time>2022-05-15T09:37:36Z</time>
      </trkpt>
      <trkpt lat="47.00194" lon="5.9925">
        <ele>370.4</ele>
        <time>2022-05-15T09:37:39Z</time>
      </trkpt>
      <trkpt lat="47.00192" lon="5.99243">
        <ele>370.7</ele>
        <time>2022-05-15T09:37:43Z</time>
      </trkpt>
      <trkpt lat="47.0019" lon="5.99236">
        <ele>370.8</ele>
        <time>2022-05-15T09:37:48Z</time>
      </trkpt>
      <trkpt lat="47.00187" lon="5.99231">
        <ele>370.8</ele>
        <time>2022-05-15T09:37:53Z</time>
      </trkpt>
      <trkpt lat="47.00182" lon="5.99229">
        <ele>370.8</ele>
        <time>2022-05-15T09:37:57Z</time>
      </trkpt>
      <trkpt lat="47.00178" lon="5.99228">
        <ele>370.7</ele>
        <time>2022-05-15T09:38:00Z</time>
      </trkpt>
      <trkpt lat="47.00173" lon="5.99223">
        <ele>370.6</ele>
        <time>2022-05-15T09:38:05Z</time>
      </trkpt>
      <trkpt lat="47.00169" lon="5.9922">
        <ele>370.7</ele>
        <time>2022-05-15T09:38:09Z</time>
      </trkpt>
      <trkpt lat="47.00166" lon="5.99214">
        <ele>370.8</ele>
        <time>2022-05-15T09:38:14Z</time>
      </trkpt>
      <trkpt lat="47.00163" lon="5.99209">
        <ele>370.8</ele>
        <time>2022-05-15T09:38:19Z</time>
      </trkpt>
      <trkpt lat="47.00161" lon="5.99201">
        <ele>370.8</ele>
        <time>2022-05-15T09:38:24Z</time>
      </trkpt>
      <trkpt lat="47.00158" lon="5.99196">
        <ele>370.7</ele>
        <time>2022-05-15T09:38:29Z</time>
      </trkpt>
      <trkpt lat="47.00157" lon="5.99188">
        <ele>370.5</ele>
        <time>2022-05-15T09:38:33Z</time>
      </trkpt>
      <trkpt lat="47.00154" lon="5.99184">
        <ele>370.2</ele>
        <time>2022-05-15T09:38:38Z</time>
      </trkpt>
      <trkpt lat="47.0015" lon="5.99179">
        <ele>370.3</ele>
        <time>2022-05-15T09:38:43Z</time>
      </trkpt>
      <trkpt lat="47.00146" lon="5.99174">
        <ele>370.7</ele>
        <time>2022-05-15T09:38:48Z</time>
      </trkpt>
      <trkpt lat="47.00141" lon="5.99171">
        <ele>371</ele>
        <time>2022-05-15T09:38:52Z</time>
      </trkpt>
      <trkpt lat="47.00137" lon="5.99165">
        <ele>371.3</ele>
        <time>2022-05-15T09:38:57Z</time>
      </trkpt>
      <trkpt lat="47.00134" lon="5.9916">
        <ele>371.7</ele>
        <time>2022-05-15T09:39:03Z</time>
      </trkpt>
      <trkpt lat="47.0013" lon="5.99156">
        <ele>372</ele>
        <time>2022-05-15T09:39:08Z</time>
      </trkpt>
      <trkpt lat="47.00127" lon="5.99151">
        <ele>372.3</ele>
        <time>2022-05-15T09:39:12Z</time>
      </trkpt>
      <trkpt lat="47.00123" lon="5.99146">
        <ele>372.5</ele>
        <time>2022-05-15T09:39:16Z</time>
      </trkpt>
      <trkpt lat="47.0012" lon="5.9914">
        <ele>372.7</ele>
        <time>2022-05-15T09:39:21Z</time>
      </trkpt>
      <trkpt lat="47.00117" lon="5.99133">
        <ele>372.8</ele>
        <time>2022-05-15T09:39:25Z</time>
      </trkpt>
      <trkpt lat="47.00114" lon="5.99128">
        <ele>373</ele>
        <time>2022-05-15T09:39:29Z</time>
      </trkpt>
      <trkpt lat="47.0011" lon="5.99123">
        <ele>373.2</ele>
        <time>2022-05-15T09:39:33Z</time>
      </trkpt>
      <trkpt lat="47.00105" lon="5.9912">
        <ele>373.3</ele>
        <time>2022-05-15T09:39:37Z</time>
      </trkpt>
      <trkpt lat="47.00101" lon="5.99115">
        <ele>373.6</ele>
        <time>2022-05-15T09:39:41Z</time>
      </trkpt>
      <trkpt lat="47.00099" lon="5.99109">
        <ele>373.8</ele>
        <time>2022-05-15T09:39:44Z</time>
      </trkpt>
      <trkpt lat="47.00096" lon="5.99102">
        <ele>374.1</ele>
        <time>2022-05-15T09:39:48Z</time>
      </trkpt>
      <trkpt lat="47.00092" lon="5.99096">
        <ele>374.4</ele>
        <time>2022-05-15T09:39:52Z</time>
      </trkpt>
      <trkpt lat="47.00087" lon="5.99092">
        <ele>374.6</ele>
        <time>2022-05-15T09:39:55Z</time>
      </trkpt>
      <trkpt lat="47.00083" lon="5.99088">
        <ele>374.9</ele>
        <time>2022-05-15T09:39:58Z</time>
      </trkpt>
      <trkpt lat="47.00079" lon="5.99083">
        <ele>375.2</ele>
        <time>2022-05-15T09:40:02Z</time>
      </trkpt>
      <trkpt lat="47.00074" lon="5.99079">
        <ele>375.5</ele>
        <time>2022-05-15T09:40:06Z</time>
      </trkpt>
      <trkpt lat="47.00077" lon="5.99072">
        <ele>375</ele>
        <time>2022-05-15T09:40:12Z</time>
      </trkpt>
      <trkpt lat="47.00081" lon="5.99067">
        <ele>374.3</ele>
        <time>2022-05-15T09:40:15Z</time>
      </trkpt>
      <trkpt lat="47.00082" lon="5.99058">
        <ele>373.4</ele>
        <time>2022-05-15T09:40:19Z</time>
      </trkpt>
      <trkpt lat="47.00082" lon="5.99051">
        <ele>372.8</ele>
        <time>2022-05-15T09:40:23Z</time>
      </trkpt>
      <trkpt lat="47.00081" lon="5.99043">
        <ele>372.4</ele>
        <time>2022-05-15T09:40:27Z</time>
      </trkpt>
      <trkpt lat="47.00077" lon="5.99022">
        <ele>369</ele>
        <time>2022-05-15T09:40:55Z</time>
      </trkpt>
      <trkpt lat="47.00075" lon="5.99013">
        <ele>368.5</ele>
        <time>2022-05-15T09:40:59Z</time>
      </trkpt>
      <trkpt lat="47.00073" lon="5.99004">
        <ele>368.1</ele>
        <time>2022-05-15T09:41:02Z</time>
      </trkpt>
      <trkpt lat="47.00069" lon="5.98998">
        <ele>367.6</ele>
        <time>2022-05-15T09:41:05Z</time>
      </trkpt>
      <trkpt lat="47.00066" lon="5.98991">
        <ele>367.2</ele>
        <time>2022-05-15T09:41:08Z</time>
      </trkpt>
      <trkpt lat="47.00063" lon="5.98984">
        <ele>366.5</ele>
        <time>2022-05-15T09:41:12Z</time>
      </trkpt>
      <trkpt lat="47.00062" lon="5.98978">
        <ele>365.7</ele>
        <time>2022-05-15T09:41:16Z</time>
      </trkpt>
      <trkpt lat="47.00058" lon="5.9897">
        <ele>364.6</ele>
        <time>2022-05-15T09:41:19Z</time>
      </trkpt>
      <trkpt lat="47.0006" lon="5.98963">
        <ele>363.1</ele>
        <time>2022-05-15T09:41:23Z</time>
      </trkpt>
      <trkpt lat="47.00063" lon="5.98957">
        <ele>361.7</ele>
        <time>2022-05-15T09:41:27Z</time>
      </trkpt>
      <trkpt lat="47.00066" lon="5.98951">
        <ele>360.7</ele>
        <time>2022-05-15T09:41:31Z</time>
      </trkpt>
      <trkpt lat="47.0007" lon="5.98945">
        <ele>360.2</ele>
        <time>2022-05-15T09:41:35Z</time>
      </trkpt>
      <trkpt lat="47.00073" lon="5.98939">
        <ele>360.2</ele>
        <time>2022-05-15T09:41:39Z</time>
      </trkpt>
      <trkpt lat="47.00076" lon="5.98933">
        <ele>360.4</ele>
        <time>2022-05-15T09:41:43Z</time>
      </trkpt>
      <trkpt lat="47.0008" lon="5.98929">
        <ele>361</ele>
        <time>2022-05-15T09:41:47Z</time>
      </trkpt>
      <trkpt lat="47.00085" lon="5.98926">
        <ele>362.1</ele>
        <time>2022-05-15T09:41:53Z</time>
      </trkpt>
      <trkpt lat="47.00088" lon="5.9892">
        <ele>362.8</ele>
        <time>2022-05-15T09:41:59Z</time>
      </trkpt>
      <trkpt lat="47.00084" lon="5.98924">
        <ele>360.9</ele>
        <time>2022-05-15T09:42:10Z</time>
      </trkpt>
      <trkpt lat="47.00083" lon="5.98917">
        <ele>359.8</ele>
        <time>2022-05-15T09:42:29Z</time>
      </trkpt>
      <trkpt lat="47.00086" lon="5.98911">
        <ele>357.9</ele>
        <time>2022-05-15T09:42:36Z</time>
      </trkpt>
      <trkpt lat="47.00088" lon="5.98904">
        <ele>357</ele>
        <time>2022-05-15T09:42:43Z</time>
      </trkpt>
      <trkpt lat="47.00088" lon="5.98896">
        <ele>357</ele>
        <time>2022-05-15T09:42:48Z</time>
      </trkpt>
      <trkpt lat="47.00088" lon="5.98889">
        <ele>356.9</ele>
        <time>2022-05-15T09:42:57Z</time>
      </trkpt>
      <trkpt lat="47.00087" lon="5.98882">
        <ele>356.7</ele>
        <time>2022-05-15T09:43:11Z</time>
      </trkpt>
      <trkpt lat="47.00088" lon="5.98875">
        <ele>357</ele>
        <time>2022-05-15T09:43:17Z</time>
      </trkpt>
      <trkpt lat="47.00092" lon="5.98869">
        <ele>357.9</ele>
        <time>2022-05-15T09:43:26Z</time>
      </trkpt>
      <trkpt lat="47.00094" lon="5.98862">
        <ele>359.1</ele>
        <time>2022-05-15T09:43:34Z</time>
      </trkpt>
      <trkpt lat="47.00096" lon="5.98856">
        <ele>359.6</ele>
        <time>2022-05-15T09:43:39Z</time>
      </trkpt>
      <trkpt lat="47.00099" lon="5.9885">
        <ele>359.8</ele>
        <time>2022-05-15T09:43:45Z</time>
      </trkpt>
      <trkpt lat="47.00099" lon="5.98844">
        <ele>359.6</ele>
        <time>2022-05-15T09:43:50Z</time>
      </trkpt>
      <trkpt lat="47.001" lon="5.98837">
        <ele>359.1</ele>
        <time>2022-05-15T09:43:55Z</time>
      </trkpt>
      <trkpt lat="47.00099" lon="5.9883">
        <ele>358.6</ele>
        <time>2022-05-15T09:44:00Z</time>
      </trkpt>
      <trkpt lat="47.00101" lon="5.98823">
        <ele>358.2</ele>
        <time>2022-05-15T09:44:05Z</time>
      </trkpt>
      <trkpt lat="47.00104" lon="5.98818">
        <ele>357.8</ele>
        <time>2022-05-15T09:44:09Z</time>
      </trkpt>
      <trkpt lat="47.00108" lon="5.98813">
        <ele>357.3</ele>
        <time>2022-05-15T09:44:13Z</time>
      </trkpt>
      <trkpt lat="47.00112" lon="5.98808">
        <ele>357.1</ele>
        <time>2022-05-15T09:44:18Z</time>
      </trkpt>
      <trkpt lat="47.00115" lon="5.98801">
        <ele>356.8</ele>
        <time>2022-05-15T09:44:23Z</time>
      </trkpt>
      <trkpt lat="47.00117" lon="5.98795">
        <ele>356.5</ele>
        <time>2022-05-15T09:44:28Z</time>
      </trkpt>
      <trkpt lat="47.0012" lon="5.98789">
        <ele>356.5</ele>
        <time>2022-05-15T09:44:32Z</time>
      </trkpt>
      <trkpt lat="47.00123" lon="5.98784">
        <ele>356.4</ele>
        <time>2022-05-15T09:44:38Z</time>
      </trkpt>
      <trkpt lat="47.00123" lon="5.98777">
        <ele>356.7</ele>
        <time>2022-05-15T09:44:42Z</time>
      </trkpt>
      <trkpt lat="47.00123" lon="5.98768">
        <ele>357.5</ele>
        <time>2022-05-15T09:44:46Z</time>
      </trkpt>
      <trkpt lat="47.00123" lon="5.9876">
        <ele>358.3</ele>
        <time>2022-05-15T09:44:50Z</time>
      </trkpt>
      <trkpt lat="47.00124" lon="5.98753">
        <ele>359</ele>
        <time>2022-05-15T09:44:55Z</time>
      </trkpt>
      <trkpt lat="47.00128" lon="5.98747">
        <ele>359.9</ele>
        <time>2022-05-15T09:45:00Z</time>
      </trkpt>
      <trkpt lat="47.00132" lon="5.98744">
        <ele>360.6</ele>
        <time>2022-05-15T09:45:06Z</time>
      </trkpt>
      <trkpt lat="47.00133" lon="5.98737">
        <ele>361.3</ele>
        <time>2022-05-15T09:45:12Z</time>
      </trkpt>
      <trkpt lat="47.00132" lon="5.9873">
        <ele>361.6</ele>
        <time>2022-05-15T09:45:16Z</time>
      </trkpt>
      <trkpt lat="47.00131" lon="5.98722">
        <ele>361.8</ele>
        <time>2022-05-15T09:45:20Z</time>
      </trkpt>
      <trkpt lat="47.00132" lon="5.98714">
        <ele>361.9</ele>
        <time>2022-05-15T09:45:25Z</time>
      </trkpt>
      <trkpt lat="47.00135" lon="5.98708">
        <ele>359.7</ele>
        <time>2022-05-15T09:45:30Z</time>
      </trkpt>
      <trkpt lat="47.00139" lon="5.98704">
        <ele>356.9</ele>
        <time>2022-05-15T09:45:36Z</time>
      </trkpt>
      <trkpt lat="47.00137" lon="5.98694">
        <ele>356.5</ele>
        <time>2022-05-15T09:45:39Z</time>
      </trkpt>
      <trkpt lat="47.00137" lon="5.98686">
        <ele>355.8</ele>
        <time>2022-05-15T09:45:42Z</time>
      </trkpt>
      <trkpt lat="47.0014" lon="5.98681">
        <ele>355</ele>
        <time>2022-05-15T09:45:46Z</time>
      </trkpt>
      <trkpt lat="47.00144" lon="5.98676">
        <ele>354.7</ele>
        <time>2022-05-15T09:45:51Z</time>
      </trkpt>
      <trkpt lat="47.00148" lon="5.98672">
        <ele>354.9</ele>
        <time>2022-05-15T09:45:56Z</time>
      </trkpt>
      <trkpt lat="47.00153" lon="5.98671">
        <ele>355.1</ele>
        <time>2022-05-15T09:46:00Z</time>
      </trkpt>
      <trkpt lat="47.00157" lon="5.98666">
        <ele>355.4</ele>
        <time>2022-05-15T09:46:04Z</time>
      </trkpt>
      <trkpt lat="47.0016" lon="5.98661">
        <ele>355.9</ele>
        <time>2022-05-15T09:46:08Z</time>
      </trkpt>
      <trkpt lat="47.00164" lon="5.98657">
        <ele>356.3</ele>
        <time>2022-05-15T09:46:12Z</time>
      </trkpt>
      <trkpt lat="47.00167" lon="5.98652">
        <ele>356.6</ele>
        <time>2022-05-15T09:46:16Z</time>
      </trkpt>
      <trkpt lat="47.00172" lon="5.98654">
        <ele>356.8</ele>
        <time>2022-05-15T09:46:19Z</time>
      </trkpt>
      <trkpt lat="47.00176" lon="5.98649">
        <ele>357.1</ele>
        <time>2022-05-15T09:46:25Z</time>
      </trkpt>
      <trkpt lat="47.00179" lon="5.98644">
        <ele>357.3</ele>
        <time>2022-05-15T09:46:30Z</time>
      </trkpt>
      <trkpt lat="47.00179" lon="5.98637">
        <ele>357.1</ele>
        <time>2022-05-15T09:46:34Z</time>
      </trkpt>
      <trkpt lat="47.0018" lon="5.9863">
        <ele>356.9</ele>
        <time>2022-05-15T09:46:37Z</time>
      </trkpt>
      <trkpt lat="47.00182" lon="5.98624">
        <ele>356.6</ele>
        <time>2022-05-15T09:46:41Z</time>
      </trkpt>
      <trkpt lat="47.00189" lon="5.98625">
        <ele>356.2</ele>
        <time>2022-05-15T09:46:44Z</time>
      </trkpt>
      <trkpt lat="47.00194" lon="5.98623">
        <ele>356.2</ele>
        <time>2022-05-15T09:46:47Z</time>
      </trkpt>
      <trkpt lat="47.00199" lon="5.98621">
        <ele>356.6</ele>
        <time>2022-05-15T09:46:50Z</time>
      </trkpt>
      <trkpt lat="47.00204" lon="5.98618">
        <ele>358.7</ele>
        <time>2022-05-15T09:46:53Z</time>
      </trkpt>
      <trkpt lat="47.00205" lon="5.98611">
        <ele>361.4</ele>
        <time>2022-05-15T09:46:57Z</time>
      </trkpt>
      <trkpt lat="47.00206" lon="5.98604">
        <ele>362.8</ele>
        <time>2022-05-15T09:47:01Z</time>
      </trkpt>
      <trkpt lat="47.00207" lon="5.98597">
        <ele>363.8</ele>
        <time>2022-05-15T09:47:06Z</time>
      </trkpt>
      <trkpt lat="47.00209" lon="5.9859">
        <ele>364.4</ele>
        <time>2022-05-15T09:47:11Z</time>
      </trkpt>
      <trkpt lat="47.00211" lon="5.98584">
        <ele>364.8</ele>
        <time>2022-05-15T09:47:17Z</time>
      </trkpt>
      <trkpt lat="47.00216" lon="5.98583">
        <ele>364.9</ele>
        <time>2022-05-15T09:47:23Z</time>
      </trkpt>
      <trkpt lat="47.00218" lon="5.98577">
        <ele>365.1</ele>
        <time>2022-05-15T09:47:28Z</time>
      </trkpt>
      <trkpt lat="47.00218" lon="5.98571">
        <ele>365.4</ele>
        <time>2022-05-15T09:47:32Z</time>
      </trkpt>
      <trkpt lat="47.00218" lon="5.98564">
        <ele>365.8</ele>
        <time>2022-05-15T09:47:36Z</time>
      </trkpt>
      <trkpt lat="47.00216" lon="5.98557">
        <ele>365.8</ele>
        <time>2022-05-15T09:47:40Z</time>
      </trkpt>
      <trkpt lat="47.00214" lon="5.9855">
        <ele>365.8</ele>
        <time>2022-05-15T09:47:45Z</time>
      </trkpt>
      <trkpt lat="47.00216" lon="5.98544">
        <ele>365.6</ele>
        <time>2022-05-15T09:47:49Z</time>
      </trkpt>
      <trkpt lat="47.00217" lon="5.98536">
        <ele>365.2</ele>
        <time>2022-05-15T09:47:54Z</time>
      </trkpt>
      <trkpt lat="47.00216" lon="5.98527">
        <ele>365.2</ele>
        <time>2022-05-15T09:47:58Z</time>
      </trkpt>
      <trkpt lat="47.00216" lon="5.9852">
        <ele>365</ele>
        <time>2022-05-15T09:48:02Z</time>
      </trkpt>
      <trkpt lat="47.0022" lon="5.98516">
        <ele>364.4</ele>
        <time>2022-05-15T09:48:08Z</time>
      </trkpt>
      <trkpt lat="47.00225" lon="5.98514">
        <ele>361.9</ele>
        <time>2022-05-15T09:48:12Z</time>
      </trkpt>
      <trkpt lat="47.00227" lon="5.98507">
        <ele>360.6</ele>
        <time>2022-05-15T09:48:17Z</time>
      </trkpt>
      <trkpt lat="47.00232" lon="5.98506">
        <ele>360</ele>
        <time>2022-05-15T09:48:20Z</time>
      </trkpt>
      <trkpt lat="47.00237" lon="5.98506">
        <ele>359.5</ele>
        <time>2022-05-15T09:48:23Z</time>
      </trkpt>
      <trkpt lat="47.0024" lon="5.985">
        <ele>360.3</ele>
        <time>2022-05-15T09:48:27Z</time>
      </trkpt>
      <trkpt lat="47.0024" lon="5.98493">
        <ele>360.7</ele>
        <time>2022-05-15T09:48:33Z</time>
      </trkpt>
      <trkpt lat="47.00243" lon="5.98486">
        <ele>360.8</ele>
        <time>2022-05-15T09:48:39Z</time>
      </trkpt>
      <trkpt lat="47.00246" lon="5.9848">
        <ele>360.9</ele>
        <time>2022-05-15T09:48:43Z</time>
      </trkpt>
      <trkpt lat="47.0025" lon="5.98475">
        <ele>361</ele>
        <time>2022-05-15T09:48:48Z</time>
      </trkpt>
      <trkpt lat="47.00255" lon="5.98474">
        <ele>361.2</ele>
        <time>2022-05-15T09:48:52Z</time>
      </trkpt>
      <trkpt lat="47.00256" lon="5.98467">
        <ele>361.4</ele>
        <time>2022-05-15T09:48:57Z</time>
      </trkpt>
      <trkpt lat="47.00259" lon="5.98461">
        <ele>361.3</ele>
        <time>2022-05-15T09:49:03Z</time>
      </trkpt>
      <trkpt lat="47.00261" lon="5.98454">
        <ele>361.4</ele>
        <time>2022-05-15T09:49:08Z</time>
      </trkpt>
      <trkpt lat="47.00264" lon="5.98448">
        <ele>361.5</ele>
        <time>2022-05-15T09:49:12Z</time>
      </trkpt>
      <trkpt lat="47.00267" lon="5.9844">
        <ele>361.9</ele>
        <time>2022-05-15T09:49:15Z</time>
      </trkpt>
      <trkpt lat="47.00273" lon="5.98436">
        <ele>361</ele>
        <time>2022-05-15T09:49:18Z</time>
      </trkpt>
      <trkpt lat="47.00277" lon="5.98432">
        <ele>360.5</ele>
        <time>2022-05-15T09:49:22Z</time>
      </trkpt>
      <trkpt lat="47.00281" lon="5.98429">
        <ele>360.2</ele>
        <time>2022-05-15T09:49:26Z</time>
      </trkpt>
      <trkpt lat="47.00284" lon="5.98423">
        <ele>360.2</ele>
        <time>2022-05-15T09:49:31Z</time>
      </trkpt>
      <trkpt lat="47.00285" lon="5.98416">
        <ele>360.4</ele>
        <time>2022-05-15T09:49:36Z</time>
      </trkpt>
      <trkpt lat="47.00285" lon="5.98409">
        <ele>360.1</ele>
        <time>2022-05-15T09:49:39Z</time>
      </trkpt>
      <trkpt lat="47.00286" lon="5.98402">
        <ele>360.4</ele>
        <time>2022-05-15T09:49:42Z</time>
      </trkpt>
      <trkpt lat="47.00287" lon="5.98395">
        <ele>360.5</ele>
        <time>2022-05-15T09:49:47Z</time>
      </trkpt>
      <trkpt lat="47.0029" lon="5.98389">
        <ele>360.8</ele>
        <time>2022-05-15T09:49:52Z</time>
      </trkpt>
      <trkpt lat="47.00293" lon="5.98385">
        <ele>361.1</ele>
        <time>2022-05-15T09:49:57Z</time>
      </trkpt>
      <trkpt lat="47.00297" lon="5.98381">
        <ele>361.5</ele>
        <time>2022-05-15T09:50:01Z</time>
      </trkpt>
      <trkpt lat="47.00302" lon="5.98379">
        <ele>362.1</ele>
        <time>2022-05-15T09:50:05Z</time>
      </trkpt>
      <trkpt lat="47.00307" lon="5.98376">
        <ele>362.9</ele>
        <time>2022-05-15T09:50:11Z</time>
      </trkpt>
      <trkpt lat="47.00308" lon="5.98369">
        <ele>363.3</ele>
        <time>2022-05-15T09:50:15Z</time>
      </trkpt>
      <trkpt lat="47.0031" lon="5.98362">
        <ele>363.7</ele>
        <time>2022-05-15T09:50:20Z</time>
      </trkpt>
      <trkpt lat="47.00311" lon="5.98355">
        <ele>363.4</ele>
        <time>2022-05-15T09:50:26Z</time>
      </trkpt>
      <trkpt lat="47.00314" lon="5.98349">
        <ele>362.7</ele>
        <time>2022-05-15T09:50:31Z</time>
      </trkpt>
      <trkpt lat="47.00318" lon="5.98345">
        <ele>362.3</ele>
        <time>2022-05-15T09:50:36Z</time>
      </trkpt>
      <trkpt lat="47.00319" lon="5.98339">
        <ele>361.9</ele>
        <time>2022-05-15T09:50:40Z</time>
      </trkpt>
      <trkpt lat="47.00321" lon="5.98332">
        <ele>361.2</ele>
        <time>2022-05-15T09:50:44Z</time>
      </trkpt>
      <trkpt lat="47.00322" lon="5.98325">
        <ele>360.5</ele>
        <time>2022-05-15T09:50:47Z</time>
      </trkpt>
      <trkpt lat="47.00322" lon="5.98315">
        <ele>359.6</ele>
        <time>2022-05-15T09:50:50Z</time>
      </trkpt>
      <trkpt lat="47.00322" lon="5.98308">
        <ele>359</ele>
        <time>2022-05-15T09:50:53Z</time>
      </trkpt>
      <trkpt lat="47.00323" lon="5.98302">
        <ele>358</ele>
        <time>2022-05-15T09:50:57Z</time>
      </trkpt>
      <trkpt lat="47.00327" lon="5.98297">
        <ele>356.6</ele>
        <time>2022-05-15T09:51:02Z</time>
      </trkpt>
      <trkpt lat="47.00331" lon="5.98295">
        <ele>355.2</ele>
        <time>2022-05-15T09:51:08Z</time>
      </trkpt>
      <trkpt lat="47.0033" lon="5.98288">
        <ele>355.1</ele>
        <time>2022-05-15T09:51:11Z</time>
      </trkpt>
      <trkpt lat="47.0033" lon="5.98279">
        <ele>354.8</ele>
        <time>2022-05-15T09:51:15Z</time>
      </trkpt>
      <trkpt lat="47.00332" lon="5.98273">
        <ele>354.4</ele>
        <time>2022-05-15T09:51:19Z</time>
      </trkpt>
      <trkpt lat="47.00336" lon="5.98269">
        <ele>353.8</ele>
        <time>2022-05-15T09:51:24Z</time>
      </trkpt>
      <trkpt lat="47.00339" lon="5.98264">
        <ele>353.4</ele>
        <time>2022-05-15T09:51:29Z</time>
      </trkpt>
      <trkpt lat="47.00343" lon="5.98262">
        <ele>353.3</ele>
        <time>2022-05-15T09:51:33Z</time>
      </trkpt>
      <trkpt lat="47.00349" lon="5.98261">
        <ele>353.9</ele>
        <time>2022-05-15T09:51:37Z</time>
      </trkpt>
      <trkpt lat="47.00352" lon="5.98255">
        <ele>358.3</ele>
        <time>2022-05-15T09:51:41Z</time>
      </trkpt>
      <trkpt lat="47.00357" lon="5.98256">
        <ele>360.1</ele>
        <time>2022-05-15T09:51:45Z</time>
      </trkpt>
      <trkpt lat="47.00362" lon="5.98256">
        <ele>361.7</ele>
        <time>2022-05-15T09:51:50Z</time>
      </trkpt>
      <trkpt lat="47.00374" lon="5.98264">
        <ele>362</ele>
        <time>2022-05-15T09:51:53Z</time>
      </trkpt>
      <trkpt lat="47.00382" lon="5.98269">
        <ele>361.7</ele>
        <time>2022-05-15T09:51:56Z</time>
      </trkpt>
      <trkpt lat="47.00387" lon="5.98273">
        <ele>361.2</ele>
        <time>2022-05-15T09:51:59Z</time>
      </trkpt>
      <trkpt lat="47.00392" lon="5.98276">
        <ele>360.7</ele>
        <time>2022-05-15T09:52:03Z</time>
      </trkpt>
      <trkpt lat="47.00397" lon="5.98274">
        <ele>360.8</ele>
        <time>2022-05-15T09:52:07Z</time>
      </trkpt>
      <trkpt lat="47.00399" lon="5.98266">
        <ele>361.5</ele>
        <time>2022-05-15T09:52:14Z</time>
      </trkpt>
      <trkpt lat="47.00404" lon="5.98265">
        <ele>361.6</ele>
        <time>2022-05-15T09:52:22Z</time>
      </trkpt>
      <trkpt lat="47.0041" lon="5.98267">
        <ele>360.7</ele>
        <time>2022-05-15T09:52:26Z</time>
      </trkpt>
      <trkpt lat="47.00414" lon="5.9827">
        <ele>359.9</ele>
        <time>2022-05-15T09:52:29Z</time>
      </trkpt>
      <trkpt lat="47.0042" lon="5.98272">
        <ele>359.4</ele>
        <time>2022-05-15T09:52:32Z</time>
      </trkpt>
      <trkpt lat="47.00425" lon="5.98275">
        <ele>358.4</ele>
        <time>2022-05-15T09:52:42Z</time>
      </trkpt>
      <trkpt lat="47.00437" lon="5.98284">
        <ele>355.4</ele>
        <time>2022-05-15T09:52:51Z</time>
      </trkpt>
      <trkpt lat="47.00443" lon="5.98285">
        <ele>352</ele>
        <time>2022-05-15T09:53:03Z</time>
      </trkpt>
      <trkpt lat="47.00443" lon="5.98277">
        <ele>352</ele>
        <time>2022-05-15T09:53:07Z</time>
      </trkpt>
      <trkpt lat="47.00447" lon="5.98272">
        <ele>352.1</ele>
        <time>2022-05-15T09:53:10Z</time>
      </trkpt>
      <trkpt lat="47.00457" lon="5.98276">
        <ele>351.7</ele>
        <time>2022-05-15T09:53:13Z</time>
      </trkpt>
      <trkpt lat="47.00464" lon="5.98281">
        <ele>351.2</ele>
        <time>2022-05-15T09:53:16Z</time>
      </trkpt>
      <trkpt lat="47.00468" lon="5.98282">
        <ele>350.7</ele>
        <time>2022-05-15T09:53:20Z</time>
      </trkpt>
      <trkpt lat="47.00471" lon="5.9829">
        <ele>350.1</ele>
        <time>2022-05-15T09:53:35Z</time>
      </trkpt>
      <trkpt lat="47.00475" lon="5.98298">
        <ele>350</ele>
        <time>2022-05-15T09:53:40Z</time>
      </trkpt>
      <trkpt lat="47.00481" lon="5.98306">
        <ele>349.3</ele>
        <time>2022-05-15T09:53:43Z</time>
      </trkpt>
      <trkpt lat="47.00485" lon="5.98311">
        <ele>348.4</ele>
        <time>2022-05-15T09:53:46Z</time>
      </trkpt>
      <trkpt lat="47.00486" lon="5.98318">
        <ele>347.5</ele>
        <time>2022-05-15T09:53:49Z</time>
      </trkpt>
      <trkpt lat="47.00488" lon="5.98325">
        <ele>346.5</ele>
        <time>2022-05-15T09:53:56Z</time>
      </trkpt>
      <trkpt lat="47.00493" lon="5.98328">
        <ele>346</ele>
        <time>2022-05-15T09:54:02Z</time>
      </trkpt>
      <trkpt lat="47.00498" lon="5.9833">
        <ele>345.4</ele>
        <time>2022-05-15T09:54:08Z</time>
      </trkpt>
      <trkpt lat="47.00504" lon="5.98329">
        <ele>345.2</ele>
        <time>2022-05-15T09:54:18Z</time>
      </trkpt>
      <trkpt lat="47.00508" lon="5.98334">
        <ele>345.3</ele>
        <time>2022-05-15T09:54:22Z</time>
      </trkpt>
      <trkpt lat="47.00516" lon="5.98333">
        <ele>348.3</ele>
        <time>2022-05-15T09:54:34Z</time>
      </trkpt>
      <trkpt lat="47.0052" lon="5.98336">
        <ele>352.4</ele>
        <time>2022-05-15T09:54:42Z</time>
      </trkpt>
      <trkpt lat="47.00515" lon="5.98334">
        <ele>354</ele>
        <time>2022-05-15T09:54:51Z</time>
      </trkpt>
      <trkpt lat="47.00511" lon="5.98329">
        <ele>354.3</ele>
        <time>2022-05-15T09:54:56Z</time>
      </trkpt>
      <trkpt lat="47.00506" lon="5.98329">
        <ele>354.2</ele>
        <time>2022-05-15T09:55:03Z</time>
      </trkpt>
      <trkpt lat="47.00511" lon="5.98332">
        <ele>352.2</ele>
        <time>2022-05-15T09:55:16Z</time>
      </trkpt>
      <trkpt lat="47.00515" lon="5.9833">
        <ele>353</ele>
        <time>2022-05-15T09:55:23Z</time>
      </trkpt>
      <trkpt lat="47.00515" lon="5.98323">
        <ele>353</ele>
        <time>2022-05-15T09:55:53Z</time>
      </trkpt>
      <trkpt lat="47.00511" lon="5.9833">
        <ele>352.5</ele>
        <time>2022-05-15T09:56:05Z</time>
      </trkpt>
      <trkpt lat="47.00507" lon="5.98324">
        <ele>351.2</ele>
        <time>2022-05-15T09:56:26Z</time>
      </trkpt>
      <trkpt lat="47.00503" lon="5.98327">
        <ele>351.9</ele>
        <time>2022-05-15T09:56:50Z</time>
      </trkpt>
      <trkpt lat="47.00507" lon="5.98324">
        <ele>347</ele>
        <time>2022-05-15T09:57:19Z</time>
      </trkpt>
      <trkpt lat="47.00506" lon="5.9833">
        <ele>347.8</ele>
        <time>2022-05-15T09:57:40Z</time>
      </trkpt>
      <trkpt lat="47.00506" lon="5.98334">
        <ele>346.5</ele>
        <time>2022-05-15T09:57:50Z</time>
      </trkpt>
      <trkpt lat="47.00512" lon="5.98335">
        <ele>346.3</ele>
        <time>2022-05-15T09:57:53Z</time>
      </trkpt>
      <trkpt lat="47.00521" lon="5.98335">
        <ele>346.4</ele>
        <time>2022-05-15T09:57:56Z</time>
      </trkpt>
      <trkpt lat="47.00529" lon="5.98337">
        <ele>347.2</ele>
        <time>2022-05-15T09:57:59Z</time>
      </trkpt>
      <trkpt lat="47.00534" lon="5.9834">
        <ele>348</ele>
        <time>2022-05-15T09:58:02Z</time>
      </trkpt>
      <trkpt lat="47.00536" lon="5.98347">
        <ele>351.6</ele>
        <time>2022-05-15T09:58:10Z</time>
      </trkpt>
      <trkpt lat="47.00537" lon="5.98353">
        <ele>353</ele>
        <time>2022-05-15T09:58:17Z</time>
      </trkpt>
      <trkpt lat="47.0054" lon="5.98359">
        <ele>353.4</ele>
        <time>2022-05-15T09:58:22Z</time>
      </trkpt>
      <trkpt lat="47.00542" lon="5.98366">
        <ele>353.2</ele>
        <time>2022-05-15T09:58:26Z</time>
      </trkpt>
      <trkpt lat="47.00546" lon="5.98371">
        <ele>353</ele>
        <time>2022-05-15T09:58:29Z</time>
      </trkpt>
      <trkpt lat="47.0055" lon="5.98375">
        <ele>352.8</ele>
        <time>2022-05-15T09:58:34Z</time>
      </trkpt>
      <trkpt lat="47.00555" lon="5.98378">
        <ele>352.7</ele>
        <time>2022-05-15T09:58:38Z</time>
      </trkpt>
      <trkpt lat="47.00558" lon="5.98384">
        <ele>352.9</ele>
        <time>2022-05-15T09:58:43Z</time>
      </trkpt>
      <trkpt lat="47.00556" lon="5.9839">
        <ele>353.8</ele>
        <time>2022-05-15T09:58:50Z</time>
      </trkpt>
      <trkpt lat="47.00556" lon="5.98397">
        <ele>354.3</ele>
        <time>2022-05-15T09:58:58Z</time>
      </trkpt>
      <trkpt lat="47.0056" lon="5.98403">
        <ele>353.9</ele>
        <time>2022-05-15T09:59:01Z</time>
      </trkpt>
      <trkpt lat="47.00563" lon="5.9841">
        <ele>353.5</ele>
        <time>2022-05-15T09:59:05Z</time>
      </trkpt>
      <trkpt lat="47.00565" lon="5.98417">
        <ele>353.2</ele>
        <time>2022-05-15T09:59:11Z</time>
      </trkpt>
      <trkpt lat="47.00567" lon="5.98422">
        <ele>353.6</ele>
        <time>2022-05-15T09:59:16Z</time>
      </trkpt>
      <trkpt lat="47.00571" lon="5.98427">
        <ele>354.3</ele>
        <time>2022-05-15T09:59:22Z</time>
      </trkpt>
      <trkpt lat="47.00576" lon="5.98431">
        <ele>355.2</ele>
        <time>2022-05-15T09:59:29Z</time>
      </trkpt>
      <trkpt lat="47.00579" lon="5.98437">
        <ele>356.4</ele>
        <time>2022-05-15T09:59:35Z</time>
      </trkpt>
      <trkpt lat="47.00584" lon="5.9844">
        <ele>357.5</ele>
        <time>2022-05-15T09:59:41Z</time>
      </trkpt>
      <trkpt lat="47.00587" lon="5.98446">
        <ele>357.9</ele>
        <time>2022-05-15T09:59:44Z</time>
      </trkpt>
      <trkpt lat="47.00586" lon="5.98454">
        <ele>358.2</ele>
        <time>2022-05-15T09:59:50Z</time>
      </trkpt>
      <trkpt lat="47.00586" lon="5.9846">
        <ele>358.6</ele>
        <time>2022-05-15T09:59:56Z</time>
      </trkpt>
      <trkpt lat="47.00584" lon="5.98467">
        <ele>359.1</ele>
        <time>2022-05-15T10:00:02Z</time>
      </trkpt>
      <trkpt lat="47.00586" lon="5.98475">
        <ele>358.7</ele>
        <time>2022-05-15T10:00:06Z</time>
      </trkpt>
      <trkpt lat="47.0059" lon="5.98482">
        <ele>358.7</ele>
        <time>2022-05-15T10:00:09Z</time>
      </trkpt>
      <trkpt lat="47.00592" lon="5.98488">
        <ele>359.1</ele>
        <time>2022-05-15T10:00:12Z</time>
      </trkpt>
      <trkpt lat="47.00596" lon="5.98492">
        <ele>359.8</ele>
        <time>2022-05-15T10:00:15Z</time>
      </trkpt>
      <trkpt lat="47.00599" lon="5.98497">
        <ele>360.3</ele>
        <time>2022-05-15T10:00:18Z</time>
      </trkpt>
      <trkpt lat="47.00603" lon="5.98501">
        <ele>360.6</ele>
        <time>2022-05-15T10:00:21Z</time>
      </trkpt>
      <trkpt lat="47.00606" lon="5.98506">
        <ele>361.1</ele>
        <time>2022-05-15T10:00:25Z</time>
      </trkpt>
      <trkpt lat="47.0061" lon="5.98511">
        <ele>361.8</ele>
        <time>2022-05-15T10:00:31Z</time>
      </trkpt>
      <trkpt lat="47.00616" lon="5.98512">
        <ele>362.1</ele>
        <time>2022-05-15T10:00:35Z</time>
      </trkpt>
      <trkpt lat="47.00621" lon="5.98514">
        <ele>361.7</ele>
        <time>2022-05-15T10:00:39Z</time>
      </trkpt>
      <trkpt lat="47.00625" lon="5.98519">
        <ele>361.6</ele>
        <time>2022-05-15T10:00:48Z</time>
      </trkpt>
      <trkpt lat="47.0063" lon="5.98523">
        <ele>362</ele>
        <time>2022-05-15T10:00:52Z</time>
      </trkpt>
      <trkpt lat="47.00637" lon="5.98525">
        <ele>362.3</ele>
        <time>2022-05-15T10:00:55Z</time>
      </trkpt>
      <trkpt lat="47.00642" lon="5.98525">
        <ele>362.5</ele>
        <time>2022-05-15T10:00:58Z</time>
      </trkpt>
      <trkpt lat="47.00647" lon="5.98529">
        <ele>362.8</ele>
        <time>2022-05-15T10:01:03Z</time>
      </trkpt>
      <trkpt lat="47.00651" lon="5.98535">
        <ele>363</ele>
        <time>2022-05-15T10:01:06Z</time>
      </trkpt>
      <trkpt lat="47.00653" lon="5.98542">
        <ele>363.1</ele>
        <time>2022-05-15T10:01:09Z</time>
      </trkpt>
      <trkpt lat="47.00657" lon="5.98546">
        <ele>363.4</ele>
        <time>2022-05-15T10:01:14Z</time>
      </trkpt>
      <trkpt lat="47.00661" lon="5.98549">
        <ele>363.7</ele>
        <time>2022-05-15T10:01:18Z</time>
      </trkpt>
      <trkpt lat="47.00663" lon="5.98556">
        <ele>363.5</ele>
        <time>2022-05-15T10:01:25Z</time>
      </trkpt>
      <trkpt lat="47.00667" lon="5.98562">
        <ele>363.8</ele>
        <time>2022-05-15T10:01:30Z</time>
      </trkpt>
      <trkpt lat="47.00671" lon="5.98566">
        <ele>364.4</ele>
        <time>2022-05-15T10:01:36Z</time>
      </trkpt>
      <trkpt lat="47.00675" lon="5.98567">
        <ele>365.5</ele>
        <time>2022-05-15T10:01:44Z</time>
      </trkpt>
      <trkpt lat="47.00679" lon="5.98572">
        <ele>365.9</ele>
        <time>2022-05-15T10:01:51Z</time>
      </trkpt>
      <trkpt lat="47.00684" lon="5.98575">
        <ele>366.1</ele>
        <time>2022-05-15T10:01:54Z</time>
      </trkpt>
      <trkpt lat="47.00688" lon="5.98578">
        <ele>366</ele>
        <time>2022-05-15T10:01:57Z</time>
      </trkpt>
      <trkpt lat="47.00693" lon="5.98583">
        <ele>365.5</ele>
        <time>2022-05-15T10:02:01Z</time>
      </trkpt>
      <trkpt lat="47.00696" lon="5.98588">
        <ele>363.5</ele>
        <time>2022-05-15T10:02:08Z</time>
      </trkpt>
      <trkpt lat="47.00692" lon="5.98589">
        <ele>359.8</ele>
        <time>2022-05-15T10:02:38Z</time>
      </trkpt>
      <trkpt lat="47.00696" lon="5.98593">
        <ele>361.2</ele>
        <time>2022-05-15T10:02:51Z</time>
      </trkpt>
      <trkpt lat="47.00699" lon="5.98598">
        <ele>361.6</ele>
        <time>2022-05-15T10:02:57Z</time>
      </trkpt>
      <trkpt lat="47.00699" lon="5.98604">
        <ele>361.5</ele>
        <time>2022-05-15T10:03:05Z</time>
      </trkpt>
      <trkpt lat="47.00697" lon="5.98597">
        <ele>361.3</ele>
        <time>2022-05-15T10:03:17Z</time>
      </trkpt>
      <trkpt lat="47.00701" lon="5.986">
        <ele>361.3</ele>
        <time>2022-05-15T10:03:30Z</time>
      </trkpt>
      <trkpt lat="47.00706" lon="5.98602">
        <ele>361.3</ele>
        <time>2022-05-15T10:03:34Z</time>
      </trkpt>
      <trkpt lat="47.00711" lon="5.98606">
        <ele>361</ele>
        <time>2022-05-15T10:03:38Z</time>
      </trkpt>
      <trkpt lat="47.00714" lon="5.98612">
        <ele>360.6</ele>
        <time>2022-05-15T10:03:43Z</time>
      </trkpt>
      <trkpt lat="47.00717" lon="5.98617">
        <ele>360.2</ele>
        <time>2022-05-15T10:03:51Z</time>
      </trkpt>
      <trkpt lat="47.00721" lon="5.98613">
        <ele>360.1</ele>
        <time>2022-05-15T10:03:58Z</time>
      </trkpt>
      <trkpt lat="47.00725" lon="5.98619">
        <ele>361.5</ele>
        <time>2022-05-15T10:04:20Z</time>
      </trkpt>
      <trkpt lat="47.00729" lon="5.98624">
        <ele>361.9</ele>
        <time>2022-05-15T10:04:23Z</time>
      </trkpt>
      <trkpt lat="47.00731" lon="5.98631">
        <ele>362.5</ele>
        <time>2022-05-15T10:04:27Z</time>
      </trkpt>
      <trkpt lat="47.00736" lon="5.98632">
        <ele>363</ele>
        <time>2022-05-15T10:04:56Z</time>
      </trkpt>
      <trkpt lat="47.0074" lon="5.98638">
        <ele>363</ele>
        <time>2022-05-15T10:04:59Z</time>
      </trkpt>
      <trkpt lat="47.00744" lon="5.98643">
        <ele>362.8</ele>
        <time>2022-05-15T10:05:03Z</time>
      </trkpt>
      <trkpt lat="47.00747" lon="5.98648">
        <ele>362.3</ele>
        <time>2022-05-15T10:05:08Z</time>
      </trkpt>
      <trkpt lat="47.00752" lon="5.9865">
        <ele>362.1</ele>
        <time>2022-05-15T10:05:13Z</time>
      </trkpt>
      <trkpt lat="47.00749" lon="5.98656">
        <ele>363</ele>
        <time>2022-05-15T10:05:23Z</time>
      </trkpt>
      <trkpt lat="47.00745" lon="5.98661">
        <ele>363.2</ele>
        <time>2022-05-15T10:05:28Z</time>
      </trkpt>
      <trkpt lat="47.00745" lon="5.98668">
        <ele>362.5</ele>
        <time>2022-05-15T10:05:32Z</time>
      </trkpt>
      <trkpt lat="47.00744" lon="5.98674">
        <ele>361.5</ele>
        <time>2022-05-15T10:05:35Z</time>
      </trkpt>
      <trkpt lat="47.00745" lon="5.98682">
        <ele>360.3</ele>
        <time>2022-05-15T10:05:38Z</time>
      </trkpt>
      <trkpt lat="47.00746" lon="5.9869">
        <ele>358.9</ele>
        <time>2022-05-15T10:05:42Z</time>
      </trkpt>
      <trkpt lat="47.00749" lon="5.98696">
        <ele>357.3</ele>
        <time>2022-05-15T10:05:47Z</time>
      </trkpt>
      <trkpt lat="47.00753" lon="5.98703">
        <ele>355.7</ele>
        <time>2022-05-15T10:05:51Z</time>
      </trkpt>
      <trkpt lat="47.00754" lon="5.98709">
        <ele>353.9</ele>
        <time>2022-05-15T10:05:55Z</time>
      </trkpt>
      <trkpt lat="47.00757" lon="5.98716">
        <ele>351.6</ele>
        <time>2022-05-15T10:06:00Z</time>
      </trkpt>
      <trkpt lat="47.00761" lon="5.98721">
        <ele>350</ele>
        <time>2022-05-15T10:06:04Z</time>
      </trkpt>
      <trkpt lat="47.00765" lon="5.98727">
        <ele>348.7</ele>
        <time>2022-05-15T10:06:09Z</time>
      </trkpt>
      <trkpt lat="47.00765" lon="5.98733">
        <ele>346.4</ele>
        <time>2022-05-15T10:06:22Z</time>
      </trkpt>
      <trkpt lat="47.00763" lon="5.98741">
        <ele>345.7</ele>
        <time>2022-05-15T10:06:29Z</time>
      </trkpt>
      <trkpt lat="47.00763" lon="5.9875">
        <ele>344.8</ele>
        <time>2022-05-15T10:06:34Z</time>
      </trkpt>
      <trkpt lat="47.00763" lon="5.98756">
        <ele>344.1</ele>
        <time>2022-05-15T10:06:38Z</time>
      </trkpt>
      <trkpt lat="47.00764" lon="5.98763">
        <ele>343.3</ele>
        <time>2022-05-15T10:06:44Z</time>
      </trkpt>
      <trkpt lat="47.00767" lon="5.98769">
        <ele>342.7</ele>
        <time>2022-05-15T10:06:49Z</time>
      </trkpt>
      <trkpt lat="47.00769" lon="5.98776">
        <ele>342.3</ele>
        <time>2022-05-15T10:06:53Z</time>
      </trkpt>
      <trkpt lat="47.00772" lon="5.98783">
        <ele>341.9</ele>
        <time>2022-05-15T10:06:56Z</time>
      </trkpt>
      <trkpt lat="47.00771" lon="5.98791">
        <ele>341.5</ele>
        <time>2022-05-15T10:07:02Z</time>
      </trkpt>
      <trkpt lat="47.00768" lon="5.98797">
        <ele>341.9</ele>
        <time>2022-05-15T10:07:06Z</time>
      </trkpt>
      <trkpt lat="47.00767" lon="5.98804">
        <ele>342.2</ele>
        <time>2022-05-15T10:07:12Z</time>
      </trkpt>
      <trkpt lat="47.00766" lon="5.98811">
        <ele>342.2</ele>
        <time>2022-05-15T10:07:17Z</time>
      </trkpt>
      <trkpt lat="47.00764" lon="5.98817">
        <ele>341.9</ele>
        <time>2022-05-15T10:07:21Z</time>
      </trkpt>
      <trkpt lat="47.00763" lon="5.98826">
        <ele>341.6</ele>
        <time>2022-05-15T10:07:24Z</time>
      </trkpt>
      <trkpt lat="47.00761" lon="5.98835">
        <ele>341.8</ele>
        <time>2022-05-15T10:07:27Z</time>
      </trkpt>
      <trkpt lat="47.00759" lon="5.98842">
        <ele>342</ele>
        <time>2022-05-15T10:07:30Z</time>
      </trkpt>
      <trkpt lat="47.00754" lon="5.98845">
        <ele>342.5</ele>
        <time>2022-05-15T10:07:34Z</time>
      </trkpt>
      <trkpt lat="47.0075" lon="5.98849">
        <ele>342.7</ele>
        <time>2022-05-15T10:07:38Z</time>
      </trkpt>
      <trkpt lat="47.00748" lon="5.98855">
        <ele>342.2</ele>
        <time>2022-05-15T10:07:44Z</time>
      </trkpt>
      <trkpt lat="47.00745" lon="5.98862">
        <ele>341.4</ele>
        <time>2022-05-15T10:07:48Z</time>
      </trkpt>
      <trkpt lat="47.00745" lon="5.9887">
        <ele>339.8</ele>
        <time>2022-05-15T10:07:53Z</time>
      </trkpt>
      <trkpt lat="47.00745" lon="5.98878">
        <ele>337.4</ele>
        <time>2022-05-15T10:07:59Z</time>
      </trkpt>
      <trkpt lat="47.00743" lon="5.98884">
        <ele>336.4</ele>
        <time>2022-05-15T10:08:03Z</time>
      </trkpt>
      <trkpt lat="47.00738" lon="5.98888">
        <ele>335.5</ele>
        <time>2022-05-15T10:08:07Z</time>
      </trkpt>
      <trkpt lat="47.0074" lon="5.98895">
        <ele>334.5</ele>
        <time>2022-05-15T10:08:28Z</time>
      </trkpt>
      <trkpt lat="47.00736" lon="5.98901">
        <ele>333.8</ele>
        <time>2022-05-15T10:08:35Z</time>
      </trkpt>
      <trkpt lat="47.00733" lon="5.98908">
        <ele>333.1</ele>
        <time>2022-05-15T10:08:39Z</time>
      </trkpt>
      <trkpt lat="47.00731" lon="5.98914">
        <ele>332.6</ele>
        <time>2022-05-15T10:08:42Z</time>
      </trkpt>
      <trkpt lat="47.00728" lon="5.98919">
        <ele>332.5</ele>
        <time>2022-05-15T10:08:45Z</time>
      </trkpt>
      <trkpt lat="47.00723" lon="5.98924">
        <ele>332.6</ele>
        <time>2022-05-15T10:08:50Z</time>
      </trkpt>
      <trkpt lat="47.0072" lon="5.98929">
        <ele>332.8</ele>
        <time>2022-05-15T10:08:55Z</time>
      </trkpt>
      <trkpt lat="47.00724" lon="5.98934">
        <ele>332.3</ele>
        <time>2022-05-15T10:09:01Z</time>
      </trkpt>
      <trkpt lat="47.00728" lon="5.9894">
        <ele>331.6</ele>
        <time>2022-05-15T10:09:06Z</time>
      </trkpt>
      <trkpt lat="47.00733" lon="5.98943">
        <ele>331.2</ele>
        <time>2022-05-15T10:09:09Z</time>
      </trkpt>
      <trkpt lat="47.00728" lon="5.98946">
        <ele>330.8</ele>
        <time>2022-05-15T10:09:21Z</time>
      </trkpt>
      <trkpt lat="47.00724" lon="5.98951">
        <ele>331</ele>
        <time>2022-05-15T10:09:27Z</time>
      </trkpt>
      <trkpt lat="47.00726" lon="5.98958">
        <ele>331.4</ele>
        <time>2022-05-15T10:09:30Z</time>
      </trkpt>
      <trkpt lat="47.00729" lon="5.98966">
        <ele>332</ele>
        <time>2022-05-15T10:09:33Z</time>
      </trkpt>
      <trkpt lat="47.00731" lon="5.98972">
        <ele>333.4</ele>
        <time>2022-05-15T10:09:37Z</time>
      </trkpt>
      <trkpt lat="47.00735" lon="5.98978">
        <ele>335.6</ele>
        <time>2022-05-15T10:09:44Z</time>
      </trkpt>
      <trkpt lat="47.00737" lon="5.98984">
        <ele>336.5</ele>
        <time>2022-05-15T10:09:49Z</time>
      </trkpt>
      <trkpt lat="47.00736" lon="5.9899">
        <ele>337.3</ele>
        <time>2022-05-15T10:09:54Z</time>
      </trkpt>
      <trkpt lat="47.00735" lon="5.98997">
        <ele>338.4</ele>
        <time>2022-05-15T10:10:03Z</time>
      </trkpt>
      <trkpt lat="47.00735" lon="5.99004">
        <ele>338.5</ele>
        <time>2022-05-15T10:10:12Z</time>
      </trkpt>
      <trkpt lat="47.00739" lon="5.9901">
        <ele>337.6</ele>
        <time>2022-05-15T10:10:19Z</time>
      </trkpt>
      <trkpt lat="47.00744" lon="5.99014">
        <ele>337.2</ele>
        <time>2022-05-15T10:10:22Z</time>
      </trkpt>
      <trkpt lat="47.00747" lon="5.99019">
        <ele>336.9</ele>
        <time>2022-05-15T10:10:26Z</time>
      </trkpt>
      <trkpt lat="47.00742" lon="5.99017">
        <ele>337.9</ele>
        <time>2022-05-15T10:10:32Z</time>
      </trkpt>
      <trkpt lat="47.00738" lon="5.99012">
        <ele>338.5</ele>
        <time>2022-05-15T10:10:37Z</time>
      </trkpt>
      <trkpt lat="47.00737" lon="5.99021">
        <ele>340.5</ele>
        <time>2022-05-15T10:11:10Z</time>
      </trkpt>
      <trkpt lat="47.00735" lon="5.99028">
        <ele>340.4</ele>
        <time>2022-05-15T10:11:16Z</time>
      </trkpt>
      <trkpt lat="47.00733" lon="5.99021">
        <ele>343.6</ele>
        <time>2022-05-15T10:11:23Z</time>
      </trkpt>
      <trkpt lat="47.0073" lon="5.99017">
        <ele>353</ele>
        <time>2022-05-15T10:11:34Z</time>
      </trkpt>
      <trkpt lat="47.00725" lon="5.9902">
        <ele>359.8</ele>
        <time>2022-05-15T10:11:51Z</time>
      </trkpt>
      <trkpt lat="47.00729" lon="5.99024">
        <ele>355.3</ele>
        <time>2022-05-15T10:12:19Z</time>
      </trkpt>
      <trkpt lat="47.00734" lon="5.99025">
        <ele>355.9</ele>
        <time>2022-05-15T10:12:24Z</time>
      </trkpt>
      <trkpt lat="47.00736" lon="5.99017">
        <ele>355.2</ele>
        <time>2022-05-15T10:12:40Z</time>
      </trkpt>
      <trkpt lat="47.00735" lon="5.9901">
        <ele>352.8</ele>
        <time>2022-05-15T10:12:51Z</time>
      </trkpt>
      <trkpt lat="47.00733" lon="5.99017">
        <ele>349.5</ele>
        <time>2022-05-15T10:13:05Z</time>
      </trkpt>
      <trkpt lat="47.00736" lon="5.99011">
        <ele>351.3</ele>
        <time>2022-05-15T10:13:31Z</time>
      </trkpt>
      <trkpt lat="47.00732" lon="5.99006">
        <ele>353.2</ele>
        <time>2022-05-15T10:13:44Z</time>
      </trkpt>
      <trkpt lat="47.0073" lon="5.99013">
        <ele>358.7</ele>
        <time>2022-05-15T10:14:01Z</time>
      </trkpt>
      <trkpt lat="47.00733" lon="5.99022">
        <ele>359.8</ele>
        <time>2022-05-15T10:14:04Z</time>
      </trkpt>
      <trkpt lat="47.00734" lon="5.99029">
        <ele>360.5</ele>
        <time>2022-05-15T10:14:07Z</time>
      </trkpt>
      <trkpt lat="47.00738" lon="5.99024">
        <ele>363.7</ele>
        <time>2022-05-15T10:14:47Z</time>
      </trkpt>
      <trkpt lat="47.00734" lon="5.99021">
        <ele>365.9</ele>
        <time>2022-05-15T10:14:58Z</time>
      </trkpt>
      <trkpt lat="47.00729" lon="5.99018">
        <ele>367</ele>
        <time>2022-05-15T10:15:05Z</time>
      </trkpt>
      <trkpt lat="47.00734" lon="5.9902">
        <ele>364.2</ele>
        <time>2022-05-15T10:15:25Z</time>
      </trkpt>
      <trkpt lat="47.00737" lon="5.99015">
        <ele>361.3</ele>
        <time>2022-05-15T10:15:38Z</time>
      </trkpt>
      <trkpt lat="47.00737" lon="5.99024">
        <ele>358</ele>
        <time>2022-05-15T10:15:55Z</time>
      </trkpt>
      <trkpt lat="47.00737" lon="5.99031">
        <ele>357.2</ele>
        <time>2022-05-15T10:15:58Z</time>
      </trkpt>
      <trkpt lat="47.00734" lon="5.99025">
        <ele>353.2</ele>
        <time>2022-05-15T10:17:00Z</time>
      </trkpt>
      <trkpt lat="47.00729" lon="5.99021">
        <ele>355.2</ele>
        <time>2022-05-15T10:17:13Z</time>
      </trkpt>
      <trkpt lat="47.00728" lon="5.99015">
        <ele>355.7</ele>
        <time>2022-05-15T10:17:22Z</time>
      </trkpt>
      <trkpt lat="47.00731" lon="5.99021">
        <ele>356.3</ele>
        <time>2022-05-15T10:17:36Z</time>
      </trkpt>
      <trkpt lat="47.00734" lon="5.99027">
        <ele>357.6</ele>
        <time>2022-05-15T10:17:41Z</time>
      </trkpt>
      <trkpt lat="47.00738" lon="5.99025">
        <ele>358.9</ele>
        <time>2022-05-15T10:17:53Z</time>
      </trkpt>
      <trkpt lat="47.00739" lon="5.99032">
        <ele>360</ele>
        <time>2022-05-15T10:18:49Z</time>
      </trkpt>
      <trkpt lat="47.00741" lon="5.99038">
        <ele>359.6</ele>
        <time>2022-05-15T10:18:55Z</time>
      </trkpt>
      <trkpt lat="47.00738" lon="5.99033">
        <ele>357.1</ele>
        <time>2022-05-15T10:19:20Z</time>
      </trkpt>
      <trkpt lat="47.00737" lon="5.99026">
        <ele>356.7</ele>
        <time>2022-05-15T10:19:29Z</time>
      </trkpt>
      <trkpt lat="47.00735" lon="5.99019">
        <ele>359</ele>
        <time>2022-05-15T10:19:42Z</time>
      </trkpt>
      <trkpt lat="47.00733" lon="5.99013">
        <ele>361.1</ele>
        <time>2022-05-15T10:19:48Z</time>
      </trkpt>
      <trkpt lat="47.00733" lon="5.99006">
        <ele>362.1</ele>
        <time>2022-05-15T10:20:06Z</time>
      </trkpt>
      <trkpt lat="47.00737" lon="5.9901">
        <ele>362.7</ele>
        <time>2022-05-15T10:20:17Z</time>
      </trkpt>
      <trkpt lat="47.00738" lon="5.99018">
        <ele>369.5</ele>
        <time>2022-05-15T10:20:36Z</time>
      </trkpt>
      <trkpt lat="47.00739" lon="5.99024">
        <ele>370</ele>
        <time>2022-05-15T10:20:41Z</time>
      </trkpt>
      <trkpt lat="47.00738" lon="5.99018">
        <ele>369.5</ele>
        <time>2022-05-15T10:21:01Z</time>
      </trkpt>
      <trkpt lat="47.00737" lon="5.9901">
        <ele>371.5</ele>
        <time>2022-05-15T10:21:06Z</time>
      </trkpt>
      <trkpt lat="47.00736" lon="5.99003">
        <ele>374</ele>
        <time>2022-05-15T10:21:11Z</time>
      </trkpt>
      <trkpt lat="47.00734" lon="5.9901">
        <ele>375.4</ele>
        <time>2022-05-15T10:21:27Z</time>
      </trkpt>
      <trkpt lat="47.00734" lon="5.99017">
        <ele>374</ele>
        <time>2022-05-15T10:21:30Z</time>
      </trkpt>
      <trkpt lat="47.00733" lon="5.99024">
        <ele>370.4</ele>
        <time>2022-05-15T10:21:48Z</time>
      </trkpt>
      <trkpt lat="47.00735" lon="5.99032">
        <ele>370.2</ele>
        <time>2022-05-15T10:21:55Z</time>
      </trkpt>
      <trkpt lat="47.00739" lon="5.99035">
        <ele>367.8</ele>
        <time>2022-05-15T10:22:17Z</time>
      </trkpt>
      <trkpt lat="47.00741" lon="5.99027">
        <ele>370.7</ele>
        <time>2022-05-15T10:22:37Z</time>
      </trkpt>
      <trkpt lat="47.00738" lon="5.99022">
        <ele>371.5</ele>
        <time>2022-05-15T10:22:45Z</time>
      </trkpt>
      <trkpt lat="47.00734" lon="5.99017">
        <ele>371.5</ele>
        <time>2022-05-15T10:22:55Z</time>
      </trkpt>
      <trkpt lat="47.00734" lon="5.99026">
        <ele>369.7</ele>
        <time>2022-05-15T10:23:12Z</time>
      </trkpt>
      <trkpt lat="47.00735" lon="5.99034">
        <ele>365.3</ele>
        <time>2022-05-15T10:24:37Z</time>
      </trkpt>
      <trkpt lat="47.00739" lon="5.99031">
        <ele>364.1</ele>
        <time>2022-05-15T10:24:54Z</time>
      </trkpt>
      <trkpt lat="47.00736" lon="5.99024">
        <ele>364.1</ele>
        <time>2022-05-15T10:25:11Z</time>
      </trkpt>
      <trkpt lat="47.00733" lon="5.99029">
        <ele>364.2</ele>
        <time>2022-05-15T10:25:27Z</time>
      </trkpt>
      <trkpt lat="47.00731" lon="5.99036">
        <ele>363.8</ele>
        <time>2022-05-15T10:25:31Z</time>
      </trkpt>
      <trkpt lat="47.00736" lon="5.99038">
        <ele>363.6</ele>
        <time>2022-05-15T10:25:52Z</time>
      </trkpt>
      <trkpt lat="47.00736" lon="5.99031">
        <ele>364.2</ele>
        <time>2022-05-15T10:26:50Z</time>
      </trkpt>
      <trkpt lat="47.00736" lon="5.99024">
        <ele>364.7</ele>
        <time>2022-05-15T10:26:56Z</time>
      </trkpt>
      <trkpt lat="47.00736" lon="5.99032">
        <ele>365.7</ele>
        <time>2022-05-15T10:28:16Z</time>
      </trkpt>
      <trkpt lat="47.00739" lon="5.99038">
        <ele>366.8</ele>
        <time>2022-05-15T10:28:22Z</time>
      </trkpt>
      <trkpt lat="47.00734" lon="5.99036">
        <ele>370.3</ele>
        <time>2022-05-15T10:28:44Z</time>
      </trkpt>
      <trkpt lat="47.00732" lon="5.99031">
        <ele>371.3</ele>
        <time>2022-05-15T10:28:52Z</time>
      </trkpt>
      <trkpt lat="47.00735" lon="5.99025">
        <ele>369.7</ele>
        <time>2022-05-15T10:29:10Z</time>
      </trkpt>
      <trkpt lat="47.00739" lon="5.99023">
        <ele>367.9</ele>
        <time>2022-05-15T10:29:19Z</time>
      </trkpt>
      <trkpt lat="47.00737" lon="5.99029">
        <ele>370.6</ele>
        <time>2022-05-15T10:30:56Z</time>
      </trkpt>
      <trkpt lat="47.00733" lon="5.99024">
        <ele>369.4</ele>
        <time>2022-05-15T10:31:21Z</time>
      </trkpt>
      <trkpt lat="47.00733" lon="5.99017">
        <ele>369.1</ele>
        <time>2022-05-15T10:31:24Z</time>
      </trkpt>
      <trkpt lat="47.0073" lon="5.99022">
        <ele>363.7</ele>
        <time>2022-05-15T10:32:34Z</time>
      </trkpt>
      <trkpt lat="47.00734" lon="5.99022">
        <ele>363.5</ele>
        <time>2022-05-15T10:32:47Z</time>
      </trkpt>
      <trkpt lat="47.00736" lon="5.99015">
        <ele>366.3</ele>
        <time>2022-05-15T10:33:09Z</time>
      </trkpt>
      <trkpt lat="47.00734" lon="5.99009">
        <ele>367.9</ele>
        <time>2022-05-15T10:33:18Z</time>
      </trkpt>
      <trkpt lat="47.00733" lon="5.99016">
        <ele>373.4</ele>
        <time>2022-05-15T10:33:37Z</time>
      </trkpt>
      <trkpt lat="47.0073" lon="5.99024">
        <ele>368.8</ele>
        <time>2022-05-15T10:33:59Z</time>
      </trkpt>
      <trkpt lat="47.0073" lon="5.99017">
        <ele>358.3</ele>
        <time>2022-05-15T10:36:28Z</time>
      </trkpt>
      <trkpt lat="47.00734" lon="5.9902">
        <ele>355.1</ele>
        <time>2022-05-15T10:37:59Z</time>
      </trkpt>
      <trkpt lat="47.00729" lon="5.99019">
        <ele>353.3</ele>
        <time>2022-05-15T10:38:27Z</time>
      </trkpt>
      <trkpt lat="47.00727" lon="5.99012">
        <ele>351.9</ele>
        <time>2022-05-15T10:38:34Z</time>
      </trkpt>
      <trkpt lat="47.00727" lon="5.99021">
        <ele>353.5</ele>
        <time>2022-05-15T10:38:56Z</time>
      </trkpt>
      <trkpt lat="47.0073" lon="5.99026">
        <ele>354.5</ele>
        <time>2022-05-15T10:39:18Z</time>
      </trkpt>
      <trkpt lat="47.00734" lon="5.99026">
        <ele>355</ele>
        <time>2022-05-15T10:39:30Z</time>
      </trkpt>
      <trkpt lat="47.0073" lon="5.99023">
        <ele>351.3</ele>
        <time>2022-05-15T10:39:58Z</time>
      </trkpt>
      <trkpt lat="47.00734" lon="5.99018">
        <ele>350</ele>
        <time>2022-05-15T10:40:42Z</time>
      </trkpt>
      <trkpt lat="47.00737" lon="5.99012">
        <ele>345.6</ele>
        <time>2022-05-15T10:40:51Z</time>
      </trkpt>
      <trkpt lat="47.00732" lon="5.99014">
        <ele>345.1</ele>
        <time>2022-05-15T10:41:15Z</time>
      </trkpt>
      <trkpt lat="47.00728" lon="5.99019">
        <ele>346.4</ele>
        <time>2022-05-15T10:41:19Z</time>
      </trkpt>
      <trkpt lat="47.00732" lon="5.99023">
        <ele>352</ele>
        <time>2022-05-15T10:41:35Z</time>
      </trkpt>
      <trkpt lat="47.00736" lon="5.99022">
        <ele>354.3</ele>
        <time>2022-05-15T10:42:06Z</time>
      </trkpt>
      <trkpt lat="47.00733" lon="5.99026">
        <ele>351.8</ele>
        <time>2022-05-15T10:42:41Z</time>
      </trkpt>
      <trkpt lat="47.00731" lon="5.99019">
        <ele>346.1</ele>
        <time>2022-05-15T10:44:06Z</time>
      </trkpt>
      <trkpt lat="47.0073" lon="5.99013">
        <ele>344.5</ele>
        <time>2022-05-15T10:44:15Z</time>
      </trkpt>
      <trkpt lat="47.00731" lon="5.99019">
        <ele>340</ele>
        <time>2022-05-15T10:44:36Z</time>
      </trkpt>
      <trkpt lat="47.0073" lon="5.99029">
        <ele>343.1</ele>
        <time>2022-05-15T10:45:22Z</time>
      </trkpt>
      <trkpt lat="47.00725" lon="5.99022">
        <ele>343.1</ele>
        <time>2022-05-15T10:45:29Z</time>
      </trkpt>
      <trkpt lat="47.00723" lon="5.99015">
        <ele>343.7</ele>
        <time>2022-05-15T10:45:32Z</time>
      </trkpt>
      <trkpt lat="47.0072" lon="5.9901">
        <ele>344.9</ele>
        <time>2022-05-15T10:45:38Z</time>
      </trkpt>
      <trkpt lat="47.00724" lon="5.99013">
        <ele>348.3</ele>
        <time>2022-05-15T10:46:04Z</time>
      </trkpt>
      <trkpt lat="47.00727" lon="5.99018">
        <ele>346</ele>
        <time>2022-05-15T10:46:33Z</time>
      </trkpt>
      <trkpt lat="47.00728" lon="5.99025">
        <ele>347.2</ele>
        <time>2022-05-15T10:46:54Z</time>
      </trkpt>
      <trkpt lat="47.00729" lon="5.99016">
        <ele>348.7</ele>
        <time>2022-05-15T10:48:13Z</time>
      </trkpt>
      <trkpt lat="47.0073" lon="5.99024">
        <ele>350.4</ele>
        <time>2022-05-15T10:50:03Z</time>
      </trkpt>
      <trkpt lat="47.00727" lon="5.99019">
        <ele>351.6</ele>
        <time>2022-05-15T10:50:32Z</time>
      </trkpt>
      <trkpt lat="47.00728" lon="5.99028">
        <ele>345</ele>
        <time>2022-05-15T10:52:23Z</time>
      </trkpt>
      <trkpt lat="47.00729" lon="5.99035">
        <ele>343.4</ele>
        <time>2022-05-15T10:52:29Z</time>
      </trkpt>
      <trkpt lat="47.00733" lon="5.99039">
        <ele>342.6</ele>
        <time>2022-05-15T10:52:35Z</time>
      </trkpt>
      <trkpt lat="47.00734" lon="5.99033">
        <ele>342.6</ele>
        <time>2022-05-15T10:52:45Z</time>
      </trkpt>
      <trkpt lat="47.00736" lon="5.99027">
        <ele>343.1</ele>
        <time>2022-05-15T10:52:48Z</time>
      </trkpt>
      <trkpt lat="47.00736" lon="5.99034">
        <ele>351.8</ele>
        <time>2022-05-15T10:54:28Z</time>
      </trkpt>
      <trkpt lat="47.00736" lon="5.99027">
        <ele>359</ele>
        <time>2022-05-15T10:57:41Z</time>
      </trkpt>
      <trkpt lat="47.00744" lon="5.99052">
        <ele>357.2</ele>
        <time>2022-05-15T11:03:32Z</time>
      </trkpt>
      <trkpt lat="47.00735" lon="5.99056">
        <ele>357.2</ele>
        <time>2022-05-15T11:03:49Z</time>
      </trkpt>
      <trkpt lat="47.00739" lon="5.9906">
        <ele>357.9</ele>
        <time>2022-05-15T11:03:59Z</time>
      </trkpt>
      <trkpt lat="47.00744" lon="5.99062">
        <ele>358.2</ele>
        <time>2022-05-15T11:04:10Z</time>
      </trkpt>
      <trkpt lat="47.00749" lon="5.99061">
        <ele>358.1</ele>
        <time>2022-05-15T11:04:17Z</time>
      </trkpt>
      <trkpt lat="47.00754" lon="5.99063">
        <ele>358.1</ele>
        <time>2022-05-15T11:04:22Z</time>
      </trkpt>
      <trkpt lat="47.00758" lon="5.99065">
        <ele>358.1</ele>
        <time>2022-05-15T11:04:27Z</time>
      </trkpt>
      <trkpt lat="47.00763" lon="5.99066">
        <ele>357.9</ele>
        <time>2022-05-15T11:04:32Z</time>
      </trkpt>
      <trkpt lat="47.00768" lon="5.9907">
        <ele>357.5</ele>
        <time>2022-05-15T11:04:37Z</time>
      </trkpt>
      <trkpt lat="47.00773" lon="5.99073">
        <ele>357.3</ele>
        <time>2022-05-15T11:04:40Z</time>
      </trkpt>
      <trkpt lat="47.00778" lon="5.99077">
        <ele>357</ele>
        <time>2022-05-15T11:04:44Z</time>
      </trkpt>
      <trkpt lat="47.00782" lon="5.99078">
        <ele>356.7</ele>
        <time>2022-05-15T11:04:48Z</time>
      </trkpt>
      <trkpt lat="47.00787" lon="5.9908">
        <ele>356.3</ele>
        <time>2022-05-15T11:04:53Z</time>
      </trkpt>
      <trkpt lat="47.00792" lon="5.9908">
        <ele>356.1</ele>
        <time>2022-05-15T11:04:58Z</time>
      </trkpt>
      <trkpt lat="47.00797" lon="5.99081">
        <ele>355.8</ele>
        <time>2022-05-15T11:05:03Z</time>
      </trkpt>
      <trkpt lat="47.00801" lon="5.99085">
        <ele>355.3</ele>
        <time>2022-05-15T11:05:10Z</time>
      </trkpt>
      <trkpt lat="47.00806" lon="5.99086">
        <ele>354.4</ele>
        <time>2022-05-15T11:05:17Z</time>
      </trkpt>
      <trkpt lat="47.00811" lon="5.99087">
        <ele>353.1</ele>
        <time>2022-05-15T11:05:24Z</time>
      </trkpt>
      <trkpt lat="47.00816" lon="5.99088">
        <ele>351.8</ele>
        <time>2022-05-15T11:05:31Z</time>
      </trkpt>
      <trkpt lat="47.0082" lon="5.99092">
        <ele>350.5</ele>
        <time>2022-05-15T11:05:37Z</time>
      </trkpt>
      <trkpt lat="47.00825" lon="5.99092">
        <ele>348.9</ele>
        <time>2022-05-15T11:05:45Z</time>
      </trkpt>
      <trkpt lat="47.0083" lon="5.99092">
        <ele>348.1</ele>
        <time>2022-05-15T11:05:50Z</time>
      </trkpt>
      <trkpt lat="47.00834" lon="5.99091">
        <ele>347.4</ele>
        <time>2022-05-15T11:05:56Z</time>
      </trkpt>
      <trkpt lat="47.0084" lon="5.99092">
        <ele>347.2</ele>
        <time>2022-05-15T11:06:00Z</time>
      </trkpt>
      <trkpt lat="47.00845" lon="5.99094">
        <ele>347</ele>
        <time>2022-05-15T11:06:03Z</time>
      </trkpt>
      <trkpt lat="47.0085" lon="5.99096">
        <ele>346.8</ele>
        <time>2022-05-15T11:06:07Z</time>
      </trkpt>
      <trkpt lat="47.00855" lon="5.99095">
        <ele>346</ele>
        <time>2022-05-15T11:06:13Z</time>
      </trkpt>
      <trkpt lat="47.00859" lon="5.99094">
        <ele>344.8</ele>
        <time>2022-05-15T11:06:21Z</time>
      </trkpt>
      <trkpt lat="47.00863" lon="5.99089">
        <ele>344.3</ele>
        <time>2022-05-15T11:06:27Z</time>
      </trkpt>
      <trkpt lat="47.00868" lon="5.99089">
        <ele>343.9</ele>
        <time>2022-05-15T11:06:33Z</time>
      </trkpt>
      <trkpt lat="47.00874" lon="5.99088">
        <ele>343.7</ele>
        <time>2022-05-15T11:06:38Z</time>
      </trkpt>
      <trkpt lat="47.00878" lon="5.99088">
        <ele>343.3</ele>
        <time>2022-05-15T11:06:42Z</time>
      </trkpt>
      <trkpt lat="47.00883" lon="5.9909">
        <ele>342.9</ele>
        <time>2022-05-15T11:06:46Z</time>
      </trkpt>
      <trkpt lat="47.00889" lon="5.99093">
        <ele>342.6</ele>
        <time>2022-05-15T11:06:50Z</time>
      </trkpt>
      <trkpt lat="47.00893" lon="5.99094">
        <ele>342.3</ele>
        <time>2022-05-15T11:06:53Z</time>
      </trkpt>
      <trkpt lat="47.00899" lon="5.99092">
        <ele>341.8</ele>
        <time>2022-05-15T11:06:59Z</time>
      </trkpt>
      <trkpt lat="47.00903" lon="5.99091">
        <ele>341.4</ele>
        <time>2022-05-15T11:07:04Z</time>
      </trkpt>
      <trkpt lat="47.00909" lon="5.9909">
        <ele>341.1</ele>
        <time>2022-05-15T11:07:11Z</time>
      </trkpt>
      <trkpt lat="47.00913" lon="5.99088">
        <ele>341</ele>
        <time>2022-05-15T11:07:16Z</time>
      </trkpt>
      <trkpt lat="47.00918" lon="5.99085">
        <ele>341</ele>
        <time>2022-05-15T11:07:21Z</time>
      </trkpt>
      <trkpt lat="47.00922" lon="5.99083">
        <ele>340.8</ele>
        <time>2022-05-15T11:07:27Z</time>
      </trkpt>
      <trkpt lat="47.00926" lon="5.99085">
        <ele>340.6</ele>
        <time>2022-05-15T11:07:32Z</time>
      </trkpt>
      <trkpt lat="47.00931" lon="5.99087">
        <ele>340.3</ele>
        <time>2022-05-15T11:07:36Z</time>
      </trkpt>
      <trkpt lat="47.00937" lon="5.99089">
        <ele>339.9</ele>
        <time>2022-05-15T11:07:40Z</time>
      </trkpt>
      <trkpt lat="47.00942" lon="5.99091">
        <ele>339.6</ele>
        <time>2022-05-15T11:07:44Z</time>
      </trkpt>
      <trkpt lat="47.00947" lon="5.99092">
        <ele>339.2</ele>
        <time>2022-05-15T11:07:48Z</time>
      </trkpt>
      <trkpt lat="47.00952" lon="5.99091">
        <ele>338.8</ele>
        <time>2022-05-15T11:07:53Z</time>
      </trkpt>
      <trkpt lat="47.00957" lon="5.99089">
        <ele>338.4</ele>
        <time>2022-05-15T11:07:57Z</time>
      </trkpt>
      <trkpt lat="47.00961" lon="5.99085">
        <ele>337.6</ele>
        <time>2022-05-15T11:08:05Z</time>
      </trkpt>
      <trkpt lat="47.00965" lon="5.9908">
        <ele>336.5</ele>
        <time>2022-05-15T11:08:16Z</time>
      </trkpt>
      <trkpt lat="47.00968" lon="5.99074">
        <ele>336</ele>
        <time>2022-05-15T11:08:21Z</time>
      </trkpt>
      <trkpt lat="47.00972" lon="5.9907">
        <ele>335.2</ele>
        <time>2022-05-15T11:08:26Z</time>
      </trkpt>
      <trkpt lat="47.00977" lon="5.99067">
        <ele>334.2</ele>
        <time>2022-05-15T11:08:31Z</time>
      </trkpt>
      <trkpt lat="47.00981" lon="5.99066">
        <ele>333.6</ele>
        <time>2022-05-15T11:08:35Z</time>
      </trkpt>
      <trkpt lat="47.00986" lon="5.99066">
        <ele>333.2</ele>
        <time>2022-05-15T11:08:38Z</time>
      </trkpt>
      <trkpt lat="47.00991" lon="5.99065">
        <ele>332.6</ele>
        <time>2022-05-15T11:08:43Z</time>
      </trkpt>
      <trkpt lat="47.00996" lon="5.99065">
        <ele>331.8</ele>
        <time>2022-05-15T11:08:49Z</time>
      </trkpt>
      <trkpt lat="47.01001" lon="5.99064">
        <ele>331.1</ele>
        <time>2022-05-15T11:08:54Z</time>
      </trkpt>
      <trkpt lat="47.01005" lon="5.99061">
        <ele>330</ele>
        <time>2022-05-15T11:09:05Z</time>
      </trkpt>
      <trkpt lat="47.0101" lon="5.99059">
        <ele>330.1</ele>
        <time>2022-05-15T11:09:14Z</time>
      </trkpt>
      <trkpt lat="47.01015" lon="5.9906">
        <ele>330.3</ele>
        <time>2022-05-15T11:09:18Z</time>
      </trkpt>
      <trkpt lat="47.01018" lon="5.99055">
        <ele>330.7</ele>
        <time>2022-05-15T11:09:23Z</time>
      </trkpt>
      <trkpt lat="47.01022" lon="5.99059">
        <ele>330.8</ele>
        <time>2022-05-15T11:09:26Z</time>
      </trkpt>
      <trkpt lat="47.01027" lon="5.99059">
        <ele>331.1</ele>
        <time>2022-05-15T11:09:33Z</time>
      </trkpt>
      <trkpt lat="47.01032" lon="5.9906">
        <ele>331.4</ele>
        <time>2022-05-15T11:09:39Z</time>
      </trkpt>
      <trkpt lat="47.01036" lon="5.99063">
        <ele>331.8</ele>
        <time>2022-05-15T11:09:45Z</time>
      </trkpt>
      <trkpt lat="47.0104" lon="5.99068">
        <ele>333.6</ele>
        <time>2022-05-15T11:10:00Z</time>
      </trkpt>
      <trkpt lat="47.01045" lon="5.99071">
        <ele>333.9</ele>
        <time>2022-05-15T11:10:04Z</time>
      </trkpt>
      <trkpt lat="47.0105" lon="5.99073">
        <ele>334.1</ele>
        <time>2022-05-15T11:10:09Z</time>
      </trkpt>
      <trkpt lat="47.01055" lon="5.99074">
        <ele>334.1</ele>
        <time>2022-05-15T11:10:13Z</time>
      </trkpt>
      <trkpt lat="47.0106" lon="5.99076">
        <ele>334.1</ele>
        <time>2022-05-15T11:10:17Z</time>
      </trkpt>
      <trkpt lat="47.01065" lon="5.99077">
        <ele>334.1</ele>
        <time>2022-05-15T11:10:21Z</time>
      </trkpt>
      <trkpt lat="47.0107" lon="5.99079">
        <ele>334</ele>
        <time>2022-05-15T11:10:26Z</time>
      </trkpt>
      <trkpt lat="47.01073" lon="5.99084">
        <ele>334.4</ele>
        <time>2022-05-15T11:10:32Z</time>
      </trkpt>
      <trkpt lat="47.01078" lon="5.99087">
        <ele>334.9</ele>
        <time>2022-05-15T11:10:38Z</time>
      </trkpt>
      <trkpt lat="47.01082" lon="5.9909">
        <ele>335.4</ele>
        <time>2022-05-15T11:10:44Z</time>
      </trkpt>
      <trkpt lat="47.01087" lon="5.99091">
        <ele>335.9</ele>
        <time>2022-05-15T11:10:49Z</time>
      </trkpt>
      <trkpt lat="47.01092" lon="5.99093">
        <ele>336.5</ele>
        <time>2022-05-15T11:10:58Z</time>
      </trkpt>
      <trkpt lat="47.01096" lon="5.99095">
        <ele>336.8</ele>
        <time>2022-05-15T11:11:05Z</time>
      </trkpt>
      <trkpt lat="47.01101" lon="5.99097">
        <ele>337.2</ele>
        <time>2022-05-15T11:11:13Z</time>
      </trkpt>
      <trkpt lat="47.01105" lon="5.99101">
        <ele>337.3</ele>
        <time>2022-05-15T11:11:18Z</time>
      </trkpt>
      <trkpt lat="47.0111" lon="5.99103">
        <ele>337.4</ele>
        <time>2022-05-15T11:11:24Z</time>
      </trkpt>
      <trkpt lat="47.01114" lon="5.99106">
        <ele>337.7</ele>
        <time>2022-05-15T11:11:29Z</time>
      </trkpt>
      <trkpt lat="47.01119" lon="5.99107">
        <ele>337.6</ele>
        <time>2022-05-15T11:11:33Z</time>
      </trkpt>
      <trkpt lat="47.01125" lon="5.99109">
        <ele>337.7</ele>
        <time>2022-05-15T11:11:37Z</time>
      </trkpt>
      <trkpt lat="47.01128" lon="5.99113">
        <ele>337.8</ele>
        <time>2022-05-15T11:11:42Z</time>
      </trkpt>
      <trkpt lat="47.01132" lon="5.99118">
        <ele>338</ele>
        <time>2022-05-15T11:11:48Z</time>
      </trkpt>
      <trkpt lat="47.01136" lon="5.99121">
        <ele>338.3</ele>
        <time>2022-05-15T11:11:55Z</time>
      </trkpt>
      <trkpt lat="47.0114" lon="5.99127">
        <ele>337.9</ele>
        <time>2022-05-15T11:12:01Z</time>
      </trkpt>
      <trkpt lat="47.01142" lon="5.99133">
        <ele>337.7</ele>
        <time>2022-05-15T11:12:08Z</time>
      </trkpt>
      <trkpt lat="47.01147" lon="5.99135">
        <ele>337.4</ele>
        <time>2022-05-15T11:12:13Z</time>
      </trkpt>
      <trkpt lat="47.01152" lon="5.99138">
        <ele>336.8</ele>
        <time>2022-05-15T11:12:19Z</time>
      </trkpt>
      <trkpt lat="47.01155" lon="5.99144">
        <ele>336.1</ele>
        <time>2022-05-15T11:12:26Z</time>
      </trkpt>
      <trkpt lat="47.01157" lon="5.9915">
        <ele>335.8</ele>
        <time>2022-05-15T11:12:31Z</time>
      </trkpt>
      <trkpt lat="47.01161" lon="5.99156">
        <ele>335.8</ele>
        <time>2022-05-15T11:12:36Z</time>
      </trkpt>
      <trkpt lat="47.01166" lon="5.9916">
        <ele>335.8</ele>
        <time>2022-05-15T11:12:41Z</time>
      </trkpt>
      <trkpt lat="47.01171" lon="5.99164">
        <ele>336</ele>
        <time>2022-05-15T11:12:44Z</time>
      </trkpt>
      <trkpt lat="47.01176" lon="5.99166">
        <ele>336.2</ele>
        <time>2022-05-15T11:12:48Z</time>
      </trkpt>
      <trkpt lat="47.01181" lon="5.9917">
        <ele>336.5</ele>
        <time>2022-05-15T11:12:54Z</time>
      </trkpt>
      <trkpt lat="47.01184" lon="5.99175">
        <ele>336.7</ele>
        <time>2022-05-15T11:13:03Z</time>
      </trkpt>
      <trkpt lat="47.01187" lon="5.99179">
        <ele>336.8</ele>
        <time>2022-05-15T11:13:15Z</time>
      </trkpt>
      <trkpt lat="47.01192" lon="5.99182">
        <ele>336.6</ele>
        <time>2022-05-15T11:13:20Z</time>
      </trkpt>
      <trkpt lat="47.01196" lon="5.99188">
        <ele>336.2</ele>
        <time>2022-05-15T11:13:27Z</time>
      </trkpt>
      <trkpt lat="47.01201" lon="5.99191">
        <ele>335.7</ele>
        <time>2022-05-15T11:13:33Z</time>
      </trkpt>
      <trkpt lat="47.01205" lon="5.9919">
        <ele>335.2</ele>
        <time>2022-05-15T11:13:40Z</time>
      </trkpt>
      <trkpt lat="47.01207" lon="5.99196">
        <ele>334.9</ele>
        <time>2022-05-15T11:13:45Z</time>
      </trkpt>
      <trkpt lat="47.01209" lon="5.99202">
        <ele>334.7</ele>
        <time>2022-05-15T11:13:50Z</time>
      </trkpt>
      <trkpt lat="47.01212" lon="5.99208">
        <ele>334.5</ele>
        <time>2022-05-15T11:13:55Z</time>
      </trkpt>
      <trkpt lat="47.01215" lon="5.99214">
        <ele>334.4</ele>
        <time>2022-05-15T11:13:58Z</time>
      </trkpt>
      <trkpt lat="47.01222" lon="5.9922">
        <ele>334.9</ele>
        <time>2022-05-15T11:14:01Z</time>
      </trkpt>
      <trkpt lat="47.01227" lon="5.99222">
        <ele>335.2</ele>
        <time>2022-05-15T11:14:08Z</time>
      </trkpt>
      <trkpt lat="47.0123" lon="5.99228">
        <ele>335.2</ele>
        <time>2022-05-15T11:14:12Z</time>
      </trkpt>
      <trkpt lat="47.01233" lon="5.99233">
        <ele>335.2</ele>
        <time>2022-05-15T11:14:15Z</time>
      </trkpt>
      <trkpt lat="47.01242" lon="5.9924">
        <ele>335.5</ele>
        <time>2022-05-15T11:14:18Z</time>
      </trkpt>
      <trkpt lat="47.01248" lon="5.99246">
        <ele>335.8</ele>
        <time>2022-05-15T11:14:21Z</time>
      </trkpt>
      <trkpt lat="47.01252" lon="5.99248">
        <ele>336</ele>
        <time>2022-05-15T11:14:24Z</time>
      </trkpt>
      <trkpt lat="47.01256" lon="5.99253">
        <ele>336.1</ele>
        <time>2022-05-15T11:14:28Z</time>
      </trkpt>
      <trkpt lat="47.0126" lon="5.99257">
        <ele>336.2</ele>
        <time>2022-05-15T11:14:31Z</time>
      </trkpt>
      <trkpt lat="47.01263" lon="5.99262">
        <ele>336.3</ele>
        <time>2022-05-15T11:14:34Z</time>
      </trkpt>
      <trkpt lat="47.01268" lon="5.99265">
        <ele>336.4</ele>
        <time>2022-05-15T11:14:38Z</time>
      </trkpt>
      <trkpt lat="47.01273" lon="5.99261">
        <ele>336.6</ele>
        <time>2022-05-15T11:14:43Z</time>
      </trkpt>
      <trkpt lat="47.01277" lon="5.99258">
        <ele>336.7</ele>
        <time>2022-05-15T11:14:49Z</time>
      </trkpt>
      <trkpt lat="47.01281" lon="5.99261">
        <ele>336.7</ele>
        <time>2022-05-15T11:14:54Z</time>
      </trkpt>
      <trkpt lat="47.01286" lon="5.99258">
        <ele>336.8</ele>
        <time>2022-05-15T11:15:04Z</time>
      </trkpt>
      <trkpt lat="47.01288" lon="5.99251">
        <ele>337</ele>
        <time>2022-05-15T11:15:08Z</time>
      </trkpt>
      <trkpt lat="47.01292" lon="5.99247">
        <ele>337.4</ele>
        <time>2022-05-15T11:15:15Z</time>
      </trkpt>
      <trkpt lat="47.01296" lon="5.9925">
        <ele>337.5</ele>
        <time>2022-05-15T11:15:24Z</time>
      </trkpt>
      <trkpt lat="47.01329" lon="5.99243">
        <ele>334.9</ele>
        <time>2022-05-15T11:16:28Z</time>
      </trkpt>
      <trkpt lat="47.01329" lon="5.99236">
        <ele>334.8</ele>
        <time>2022-05-15T11:16:31Z</time>
      </trkpt>
      <trkpt lat="47.0133" lon="5.99229">
        <ele>334.7</ele>
        <time>2022-05-15T11:16:34Z</time>
      </trkpt>
      <trkpt lat="47.01333" lon="5.99221">
        <ele>334.6</ele>
        <time>2022-05-15T11:16:38Z</time>
      </trkpt>
      <trkpt lat="47.01336" lon="5.99216">
        <ele>334.5</ele>
        <time>2022-05-15T11:16:43Z</time>
      </trkpt>
      <trkpt lat="47.01341" lon="5.99213">
        <ele>334.4</ele>
        <time>2022-05-15T11:16:47Z</time>
      </trkpt>
      <trkpt lat="47.01346" lon="5.9921">
        <ele>334.3</ele>
        <time>2022-05-15T11:16:51Z</time>
      </trkpt>
      <trkpt lat="47.0135" lon="5.99206">
        <ele>334.2</ele>
        <time>2022-05-15T11:16:55Z</time>
      </trkpt>
      <trkpt lat="47.01354" lon="5.99201">
        <ele>334.1</ele>
        <time>2022-05-15T11:17:00Z</time>
      </trkpt>
      <trkpt lat="47.01358" lon="5.99195">
        <ele>333.8</ele>
        <time>2022-05-15T11:17:05Z</time>
      </trkpt>
      <trkpt lat="47.0136" lon="5.99189">
        <ele>333.6</ele>
        <time>2022-05-15T11:17:09Z</time>
      </trkpt>
      <trkpt lat="47.01364" lon="5.99184">
        <ele>333.4</ele>
        <time>2022-05-15T11:17:13Z</time>
      </trkpt>
      <trkpt lat="47.01368" lon="5.99179">
        <ele>333.2</ele>
        <time>2022-05-15T11:17:17Z</time>
      </trkpt>
      <trkpt lat="47.01372" lon="5.99173">
        <ele>333.2</ele>
        <time>2022-05-15T11:17:21Z</time>
      </trkpt>
      <trkpt lat="47.01375" lon="5.99166">
        <ele>333.1</ele>
        <time>2022-05-15T11:17:25Z</time>
      </trkpt>
      <trkpt lat="47.01378" lon="5.99161">
        <ele>333</ele>
        <time>2022-05-15T11:17:29Z</time>
      </trkpt>
      <trkpt lat="47.0138" lon="5.99154">
        <ele>332.9</ele>
        <time>2022-05-15T11:17:35Z</time>
      </trkpt>
      <trkpt lat="47.01383" lon="5.99147">
        <ele>333</ele>
        <time>2022-05-15T11:17:39Z</time>
      </trkpt>
      <trkpt lat="47.01386" lon="5.9914">
        <ele>332.9</ele>
        <time>2022-05-15T11:17:43Z</time>
      </trkpt>
      <trkpt lat="47.01388" lon="5.99133">
        <ele>332.9</ele>
        <time>2022-05-15T11:17:47Z</time>
      </trkpt>
      <trkpt lat="47.0139" lon="5.99126">
        <ele>332.8</ele>
        <time>2022-05-15T11:17:52Z</time>
      </trkpt>
      <trkpt lat="47.01392" lon="5.99119">
        <ele>332.9</ele>
        <time>2022-05-15T11:17:56Z</time>
      </trkpt>
      <trkpt lat="47.01394" lon="5.99112">
        <ele>333</ele>
        <time>2022-05-15T11:18:00Z</time>
      </trkpt>
      <trkpt lat="47.01395" lon="5.99105">
        <ele>333.1</ele>
        <time>2022-05-15T11:18:04Z</time>
      </trkpt>
      <trkpt lat="47.01397" lon="5.99099">
        <ele>333.2</ele>
        <time>2022-05-15T11:18:08Z</time>
      </trkpt>
      <trkpt lat="47.01397" lon="5.99091">
        <ele>333.1</ele>
        <time>2022-05-15T11:18:12Z</time>
      </trkpt>
      <trkpt lat="47.01398" lon="5.99084">
        <ele>333</ele>
        <time>2022-05-15T11:18:15Z</time>
      </trkpt>
      <trkpt lat="47.01399" lon="5.99077">
        <ele>332.8</ele>
        <time>2022-05-15T11:18:19Z</time>
      </trkpt>
      <trkpt lat="47.01399" lon="5.9907">
        <ele>332.6</ele>
        <time>2022-05-15T11:18:23Z</time>
      </trkpt>
      <trkpt lat="47.01401" lon="5.99063">
        <ele>332.5</ele>
        <time>2022-05-15T11:18:28Z</time>
      </trkpt>
      <trkpt lat="47.01402" lon="5.99056">
        <ele>332.4</ele>
        <time>2022-05-15T11:18:33Z</time>
      </trkpt>
      <trkpt lat="47.01402" lon="5.99049">
        <ele>332.4</ele>
        <time>2022-05-15T11:18:37Z</time>
      </trkpt>
      <trkpt lat="47.01404" lon="5.99041">
        <ele>332.3</ele>
        <time>2022-05-15T11:18:41Z</time>
      </trkpt>
      <trkpt lat="47.01405" lon="5.99035">
        <ele>332.1</ele>
        <time>2022-05-15T11:18:44Z</time>
      </trkpt>
      <trkpt lat="47.01406" lon="5.99027">
        <ele>331.8</ele>
        <time>2022-05-15T11:18:48Z</time>
      </trkpt>
      <trkpt lat="47.01408" lon="5.99019">
        <ele>331.6</ele>
        <time>2022-05-15T11:18:52Z</time>
      </trkpt>
      <trkpt lat="47.01409" lon="5.9901">
        <ele>331.5</ele>
        <time>2022-05-15T11:18:55Z</time>
      </trkpt>
      <trkpt lat="47.0141" lon="5.99">
        <ele>331.5</ele>
        <time>2022-05-15T11:18:58Z</time>
      </trkpt>
      <trkpt lat="47.0141" lon="5.98991">
        <ele>331.5</ele>
        <time>2022-05-15T11:19:01Z</time>
      </trkpt>
      <trkpt lat="47.01411" lon="5.98984">
        <ele>331.5</ele>
        <time>2022-05-15T11:19:05Z</time>
      </trkpt>
      <trkpt lat="47.01412" lon="5.98977">
        <ele>331.5</ele>
        <time>2022-05-15T11:19:09Z</time>
      </trkpt>
      <trkpt lat="47.01413" lon="5.98968">
        <ele>331.6</ele>
        <time>2022-05-15T11:19:14Z</time>
      </trkpt>
      <trkpt lat="47.01412" lon="5.9896">
        <ele>331.8</ele>
        <time>2022-05-15T11:19:18Z</time>
      </trkpt>
      <trkpt lat="47.01413" lon="5.98954">
        <ele>332</ele>
        <time>2022-05-15T11:19:23Z</time>
      </trkpt>
      <trkpt lat="47.01412" lon="5.98946">
        <ele>332.2</ele>
        <time>2022-05-15T11:19:29Z</time>
      </trkpt>
      <trkpt lat="47.01413" lon="5.98939">
        <ele>332.4</ele>
        <time>2022-05-15T11:19:33Z</time>
      </trkpt>
      <trkpt lat="47.01418" lon="5.98933">
        <ele>332.4</ele>
        <time>2022-05-15T11:19:37Z</time>
      </trkpt>
      <trkpt lat="47.01421" lon="5.98927">
        <ele>332.3</ele>
        <time>2022-05-15T11:19:42Z</time>
      </trkpt>
      <trkpt lat="47.0142" lon="5.9892">
        <ele>332.2</ele>
        <time>2022-05-15T11:19:45Z</time>
      </trkpt>
      <trkpt lat="47.01422" lon="5.98912">
        <ele>332.1</ele>
        <time>2022-05-15T11:19:49Z</time>
      </trkpt>
      <trkpt lat="47.01424" lon="5.98906">
        <ele>332.1</ele>
        <time>2022-05-15T11:19:53Z</time>
      </trkpt>
      <trkpt lat="47.01427" lon="5.989">
        <ele>332.1</ele>
        <time>2022-05-15T11:19:57Z</time>
      </trkpt>
      <trkpt lat="47.0143" lon="5.98894">
        <ele>332.3</ele>
        <time>2022-05-15T11:20:01Z</time>
      </trkpt>
      <trkpt lat="47.01433" lon="5.98889">
        <ele>332.5</ele>
        <time>2022-05-15T11:20:05Z</time>
      </trkpt>
      <trkpt lat="47.01436" lon="5.98883">
        <ele>332.5</ele>
        <time>2022-05-15T11:20:10Z</time>
      </trkpt>
      <trkpt lat="47.0144" lon="5.98879">
        <ele>332.7</ele>
        <time>2022-05-15T11:20:15Z</time>
      </trkpt>
      <trkpt lat="47.01443" lon="5.98874">
        <ele>332.8</ele>
        <time>2022-05-15T11:20:20Z</time>
      </trkpt>
      <trkpt lat="47.01444" lon="5.98866">
        <ele>332.8</ele>
        <time>2022-05-15T11:20:24Z</time>
      </trkpt>
      <trkpt lat="47.01443" lon="5.98859">
        <ele>332.7</ele>
        <time>2022-05-15T11:20:28Z</time>
      </trkpt>
      <trkpt lat="47.01443" lon="5.98852">
        <ele>332.4</ele>
        <time>2022-05-15T11:20:32Z</time>
      </trkpt>
      <trkpt lat="47.01444" lon="5.98844">
        <ele>332.1</ele>
        <time>2022-05-15T11:20:36Z</time>
      </trkpt>
      <trkpt lat="47.01447" lon="5.98838">
        <ele>332</ele>
        <time>2022-05-15T11:20:40Z</time>
      </trkpt>
      <trkpt lat="47.01451" lon="5.98832">
        <ele>331.9</ele>
        <time>2022-05-15T11:20:44Z</time>
      </trkpt>
      <trkpt lat="47.01454" lon="5.98826">
        <ele>331.8</ele>
        <time>2022-05-15T11:20:48Z</time>
      </trkpt>
      <trkpt lat="47.01458" lon="5.98822">
        <ele>331.5</ele>
        <time>2022-05-15T11:20:53Z</time>
      </trkpt>
      <trkpt lat="47.01462" lon="5.98817">
        <ele>331.2</ele>
        <time>2022-05-15T11:20:57Z</time>
      </trkpt>
      <trkpt lat="47.01465" lon="5.98812">
        <ele>331.1</ele>
        <time>2022-05-15T11:21:01Z</time>
      </trkpt>
      <trkpt lat="47.0147" lon="5.98808">
        <ele>331.1</ele>
        <time>2022-05-15T11:21:06Z</time>
      </trkpt>
      <trkpt lat="47.01475" lon="5.98806">
        <ele>331.1</ele>
        <time>2022-05-15T11:21:11Z</time>
      </trkpt>
      <trkpt lat="47.01479" lon="5.98804">
        <ele>331.2</ele>
        <time>2022-05-15T11:21:18Z</time>
      </trkpt>
      <trkpt lat="47.01484" lon="5.98804">
        <ele>331.6</ele>
        <time>2022-05-15T11:21:31Z</time>
      </trkpt>
      <trkpt lat="47.01488" lon="5.98808">
        <ele>331.9</ele>
        <time>2022-05-15T11:21:36Z</time>
      </trkpt>
      <trkpt lat="47.01493" lon="5.98812">
        <ele>332.2</ele>
        <time>2022-05-15T11:21:41Z</time>
      </trkpt>
      <trkpt lat="47.01496" lon="5.98807">
        <ele>332.6</ele>
        <time>2022-05-15T11:22:06Z</time>
      </trkpt>
      <trkpt lat="47.01501" lon="5.98805">
        <ele>332.6</ele>
        <time>2022-05-15T11:22:13Z</time>
      </trkpt>
      <trkpt lat="47.01506" lon="5.98806">
        <ele>332.3</ele>
        <time>2022-05-15T11:22:19Z</time>
      </trkpt>
      <trkpt lat="47.0151" lon="5.98805">
        <ele>332.3</ele>
        <time>2022-05-15T11:22:24Z</time>
      </trkpt>
      <trkpt lat="47.01515" lon="5.98804">
        <ele>332.2</ele>
        <time>2022-05-15T11:22:29Z</time>
      </trkpt>
      <trkpt lat="47.0152" lon="5.98803">
        <ele>332</ele>
        <time>2022-05-15T11:22:34Z</time>
      </trkpt>
      <trkpt lat="47.01525" lon="5.98802">
        <ele>332.7</ele>
        <time>2022-05-15T11:22:39Z</time>
      </trkpt>
      <trkpt lat="47.0153" lon="5.98802">
        <ele>333.1</ele>
        <time>2022-05-15T11:22:42Z</time>
      </trkpt>
      <trkpt lat="47.01536" lon="5.98802">
        <ele>333.5</ele>
        <time>2022-05-15T11:22:45Z</time>
      </trkpt>
      <trkpt lat="47.01542" lon="5.98801">
        <ele>333.5</ele>
        <time>2022-05-15T11:22:49Z</time>
      </trkpt>
      <trkpt lat="47.01546" lon="5.988">
        <ele>333.3</ele>
        <time>2022-05-15T11:22:53Z</time>
      </trkpt>
      <trkpt lat="47.01551" lon="5.98802">
        <ele>334</ele>
        <time>2022-05-15T11:22:59Z</time>
      </trkpt>
      <trkpt lat="47.01556" lon="5.98805">
        <ele>334.7</ele>
        <time>2022-05-15T11:23:04Z</time>
      </trkpt>
      <trkpt lat="47.01561" lon="5.98809">
        <ele>335</ele>
        <time>2022-05-15T11:23:08Z</time>
      </trkpt>
      <trkpt lat="47.01565" lon="5.98814">
        <ele>334.7</ele>
        <time>2022-05-15T11:23:12Z</time>
      </trkpt>
      <trkpt lat="47.01568" lon="5.98818">
        <ele>333.9</ele>
        <time>2022-05-15T11:23:16Z</time>
      </trkpt>
      <trkpt lat="47.01573" lon="5.98824">
        <ele>333.6</ele>
        <time>2022-05-15T11:23:20Z</time>
      </trkpt>
      <trkpt lat="47.01575" lon="5.98832">
        <ele>333.1</ele>
        <time>2022-05-15T11:23:24Z</time>
      </trkpt>
      <trkpt lat="47.01578" lon="5.98839">
        <ele>332.4</ele>
        <time>2022-05-15T11:23:28Z</time>
      </trkpt>
      <trkpt lat="47.01581" lon="5.98844">
        <ele>331.6</ele>
        <time>2022-05-15T11:23:33Z</time>
      </trkpt>
      <trkpt lat="47.01583" lon="5.9885">
        <ele>330.8</ele>
        <time>2022-05-15T11:23:39Z</time>
      </trkpt>
      <trkpt lat="47.01585" lon="5.98856">
        <ele>330.5</ele>
        <time>2022-05-15T11:23:43Z</time>
      </trkpt>
      <trkpt lat="47.01586" lon="5.98864">
        <ele>330</ele>
        <time>2022-05-15T11:23:47Z</time>
      </trkpt>
      <trkpt lat="47.0159" lon="5.9887">
        <ele>329.4</ele>
        <time>2022-05-15T11:23:50Z</time>
      </trkpt>
      <trkpt lat="47.01594" lon="5.98875">
        <ele>328.7</ele>
        <time>2022-05-15T11:23:53Z</time>
      </trkpt>
      <trkpt lat="47.01597" lon="5.98881">
        <ele>328</ele>
        <time>2022-05-15T11:23:57Z</time>
      </trkpt>
      <trkpt lat="47.01599" lon="5.98888">
        <ele>327.7</ele>
        <time>2022-05-15T11:24:04Z</time>
      </trkpt>
      <trkpt lat="47.01601" lon="5.98895">
        <ele>329.4</ele>
        <time>2022-05-15T11:24:10Z</time>
      </trkpt>
      <trkpt lat="47.01604" lon="5.98901">
        <ele>330.8</ele>
        <time>2022-05-15T11:24:14Z</time>
      </trkpt>
      <trkpt lat="47.01607" lon="5.98908">
        <ele>332.1</ele>
        <time>2022-05-15T11:24:18Z</time>
      </trkpt>
      <trkpt lat="47.0161" lon="5.98912">
        <ele>333.9</ele>
        <time>2022-05-15T11:24:23Z</time>
      </trkpt>
      <trkpt lat="47.01614" lon="5.98919">
        <ele>335.9</ele>
        <time>2022-05-15T11:24:29Z</time>
      </trkpt>
      <trkpt lat="47.01614" lon="5.98925">
        <ele>337</ele>
        <time>2022-05-15T11:24:34Z</time>
      </trkpt>
      <trkpt lat="47.01616" lon="5.98931">
        <ele>338.1</ele>
        <time>2022-05-15T11:24:42Z</time>
      </trkpt>
      <trkpt lat="47.01618" lon="5.98938">
        <ele>339.1</ele>
        <time>2022-05-15T11:24:46Z</time>
      </trkpt>
      <trkpt lat="47.01619" lon="5.98946">
        <ele>340.3</ele>
        <time>2022-05-15T11:24:50Z</time>
      </trkpt>
      <trkpt lat="47.01621" lon="5.98952">
        <ele>341.4</ele>
        <time>2022-05-15T11:24:54Z</time>
      </trkpt>
      <trkpt lat="47.01626" lon="5.98955">
        <ele>342.3</ele>
        <time>2022-05-15T11:24:58Z</time>
      </trkpt>
      <trkpt lat="47.0163" lon="5.98959">
        <ele>342.9</ele>
        <time>2022-05-15T11:25:02Z</time>
      </trkpt>
      <trkpt lat="47.01635" lon="5.98964">
        <ele>343.1</ele>
        <time>2022-05-15T11:25:08Z</time>
      </trkpt>
      <trkpt lat="47.01637" lon="5.9897">
        <ele>343</ele>
        <time>2022-05-15T11:25:12Z</time>
      </trkpt>
      <trkpt lat="47.01638" lon="5.98977">
        <ele>342.7</ele>
        <time>2022-05-15T11:25:17Z</time>
      </trkpt>
      <trkpt lat="47.01638" lon="5.98984">
        <ele>342.8</ele>
        <time>2022-05-15T11:25:22Z</time>
      </trkpt>
      <trkpt lat="47.0164" lon="5.98992">
        <ele>343.2</ele>
        <time>2022-05-15T11:25:27Z</time>
      </trkpt>
      <trkpt lat="47.01641" lon="5.98998">
        <ele>343.5</ele>
        <time>2022-05-15T11:25:31Z</time>
      </trkpt>
      <trkpt lat="47.01645" lon="5.99003">
        <ele>343.9</ele>
        <time>2022-05-15T11:25:34Z</time>
      </trkpt>
      <trkpt lat="47.01651" lon="5.99008">
        <ele>344.3</ele>
        <time>2022-05-15T11:25:37Z</time>
      </trkpt>
      <trkpt lat="47.01655" lon="5.99013">
        <ele>344.6</ele>
        <time>2022-05-15T11:25:40Z</time>
      </trkpt>
      <trkpt lat="47.01659" lon="5.99017">
        <ele>344.8</ele>
        <time>2022-05-15T11:25:43Z</time>
      </trkpt>
      <trkpt lat="47.01661" lon="5.99022">
        <ele>344.8</ele>
        <time>2022-05-15T11:25:48Z</time>
      </trkpt>
      <trkpt lat="47.01664" lon="5.99028">
        <ele>344.8</ele>
        <time>2022-05-15T11:25:52Z</time>
      </trkpt>
      <trkpt lat="47.01668" lon="5.99033">
        <ele>345.1</ele>
        <time>2022-05-15T11:25:57Z</time>
      </trkpt>
      <trkpt lat="47.01672" lon="5.99038">
        <ele>345.6</ele>
        <time>2022-05-15T11:26:02Z</time>
      </trkpt>
      <trkpt lat="47.01674" lon="5.99045">
        <ele>345.7</ele>
        <time>2022-05-15T11:26:07Z</time>
      </trkpt>
      <trkpt lat="47.01673" lon="5.99053">
        <ele>346.3</ele>
        <time>2022-05-15T11:26:12Z</time>
      </trkpt>
      <trkpt lat="47.01676" lon="5.99058">
        <ele>346.9</ele>
        <time>2022-05-15T11:26:17Z</time>
      </trkpt>
      <trkpt lat="47.0168" lon="5.99062">
        <ele>347</ele>
        <time>2022-05-15T11:26:24Z</time>
      </trkpt>
      <trkpt lat="47.01681" lon="5.99069">
        <ele>346.6</ele>
        <time>2022-05-15T11:26:33Z</time>
      </trkpt>
      <trkpt lat="47.01685" lon="5.99073">
        <ele>346.3</ele>
        <time>2022-05-15T11:26:37Z</time>
      </trkpt>
      <trkpt lat="47.01689" lon="5.99077">
        <ele>346.1</ele>
        <time>2022-05-15T11:26:41Z</time>
      </trkpt>
      <trkpt lat="47.01694" lon="5.99079">
        <ele>345.9</ele>
        <time>2022-05-15T11:26:46Z</time>
      </trkpt>
      <trkpt lat="47.01699" lon="5.99082">
        <ele>344.8</ele>
        <time>2022-05-15T11:26:53Z</time>
      </trkpt>
      <trkpt lat="47.01703" lon="5.99084">
        <ele>344.2</ele>
        <time>2022-05-15T11:26:57Z</time>
      </trkpt>
      <trkpt lat="47.01709" lon="5.99084">
        <ele>343.4</ele>
        <time>2022-05-15T11:27:01Z</time>
      </trkpt>
      <trkpt lat="47.01713" lon="5.99085">
        <ele>342.9</ele>
        <time>2022-05-15T11:27:05Z</time>
      </trkpt>
      <trkpt lat="47.01717" lon="5.99089">
        <ele>342.4</ele>
        <time>2022-05-15T11:27:09Z</time>
      </trkpt>
      <trkpt lat="47.01721" lon="5.99094">
        <ele>342</ele>
        <time>2022-05-15T11:27:13Z</time>
      </trkpt>
      <trkpt lat="47.01725" lon="5.99098">
        <ele>341.7</ele>
        <time>2022-05-15T11:27:18Z</time>
      </trkpt>
      <trkpt lat="47.01729" lon="5.99102">
        <ele>341.6</ele>
        <time>2022-05-15T11:27:22Z</time>
      </trkpt>
      <trkpt lat="47.01733" lon="5.99108">
        <ele>341.5</ele>
        <time>2022-05-15T11:27:27Z</time>
      </trkpt>
      <trkpt lat="47.01735" lon="5.99113">
        <ele>341.5</ele>
        <time>2022-05-15T11:27:31Z</time>
      </trkpt>
      <trkpt lat="47.01738" lon="5.9912">
        <ele>341.3</ele>
        <time>2022-05-15T11:27:35Z</time>
      </trkpt>
      <trkpt lat="47.01741" lon="5.99125">
        <ele>341.1</ele>
        <time>2022-05-15T11:27:38Z</time>
      </trkpt>
      <trkpt lat="47.01745" lon="5.99128">
        <ele>340.9</ele>
        <time>2022-05-15T11:27:42Z</time>
      </trkpt>
      <trkpt lat="47.0175" lon="5.99131">
        <ele>340.8</ele>
        <time>2022-05-15T11:27:47Z</time>
      </trkpt>
      <trkpt lat="47.01755" lon="5.99135">
        <ele>340.6</ele>
        <time>2022-05-15T11:27:51Z</time>
      </trkpt>
      <trkpt lat="47.01758" lon="5.99142">
        <ele>340</ele>
        <time>2022-05-15T11:27:57Z</time>
      </trkpt>
      <trkpt lat="47.01761" lon="5.99147">
        <ele>339.8</ele>
        <time>2022-05-15T11:28:01Z</time>
      </trkpt>
      <trkpt lat="47.01766" lon="5.99153">
        <ele>339.8</ele>
        <time>2022-05-15T11:28:04Z</time>
      </trkpt>
      <trkpt lat="47.0177" lon="5.99157">
        <ele>340</ele>
        <time>2022-05-15T11:28:07Z</time>
      </trkpt>
      <trkpt lat="47.01774" lon="5.9916">
        <ele>339.9</ele>
        <time>2022-05-15T11:28:11Z</time>
      </trkpt>
      <trkpt lat="47.01779" lon="5.99162">
        <ele>339.6</ele>
        <time>2022-05-15T11:28:16Z</time>
      </trkpt>
      <trkpt lat="47.01783" lon="5.99166">
        <ele>339.1</ele>
        <time>2022-05-15T11:28:20Z</time>
      </trkpt>
      <trkpt lat="47.01786" lon="5.99171">
        <ele>336.9</ele>
        <time>2022-05-15T11:28:26Z</time>
      </trkpt>
      <trkpt lat="47.0179" lon="5.99175">
        <ele>334.3</ele>
        <time>2022-05-15T11:28:32Z</time>
      </trkpt>
      <trkpt lat="47.01796" lon="5.99177">
        <ele>332</ele>
        <time>2022-05-15T11:28:37Z</time>
      </trkpt>
      <trkpt lat="47.01801" lon="5.99177">
        <ele>329.5</ele>
        <time>2022-05-15T11:28:48Z</time>
      </trkpt>
      <trkpt lat="47.01806" lon="5.9918">
        <ele>328.8</ele>
        <time>2022-05-15T11:28:53Z</time>
      </trkpt>
      <trkpt lat="47.01811" lon="5.99183">
        <ele>327.9</ele>
        <time>2022-05-15T11:28:57Z</time>
      </trkpt>
      <trkpt lat="47.01815" lon="5.99188">
        <ele>327.1</ele>
        <time>2022-05-15T11:29:00Z</time>
      </trkpt>
      <trkpt lat="47.0182" lon="5.99192">
        <ele>326.4</ele>
        <time>2022-05-15T11:29:03Z</time>
      </trkpt>
      <trkpt lat="47.01826" lon="5.99196">
        <ele>326.1</ele>
        <time>2022-05-15T11:29:06Z</time>
      </trkpt>
      <trkpt lat="47.01832" lon="5.99198">
        <ele>325.8</ele>
        <time>2022-05-15T11:29:09Z</time>
      </trkpt>
      <trkpt lat="47.01838" lon="5.992">
        <ele>325.6</ele>
        <time>2022-05-15T11:29:12Z</time>
      </trkpt>
      <trkpt lat="47.01843" lon="5.99205">
        <ele>325</ele>
        <time>2022-05-15T11:29:15Z</time>
      </trkpt>
      <trkpt lat="47.01848" lon="5.99208">
        <ele>324.5</ele>
        <time>2022-05-15T11:29:19Z</time>
      </trkpt>
      <trkpt lat="47.01853" lon="5.9921">
        <ele>323.7</ele>
        <time>2022-05-15T11:29:26Z</time>
      </trkpt>
      <trkpt lat="47.01857" lon="5.99209">
        <ele>322.8</ele>
        <time>2022-05-15T11:29:32Z</time>
      </trkpt>
      <trkpt lat="47.01862" lon="5.99209">
        <ele>322.1</ele>
        <time>2022-05-15T11:29:37Z</time>
      </trkpt>
      <trkpt lat="47.01867" lon="5.99205">
        <ele>321.3</ele>
        <time>2022-05-15T11:29:42Z</time>
      </trkpt>
      <trkpt lat="47.01871" lon="5.99201">
        <ele>320.6</ele>
        <time>2022-05-15T11:29:45Z</time>
      </trkpt>
      <trkpt lat="47.01874" lon="5.99196">
        <ele>319.6</ele>
        <time>2022-05-15T11:29:50Z</time>
      </trkpt>
      <trkpt lat="47.01879" lon="5.99196">
        <ele>318.8</ele>
        <time>2022-05-15T11:29:55Z</time>
      </trkpt>
      <trkpt lat="47.01884" lon="5.99196">
        <ele>318.2</ele>
        <time>2022-05-15T11:29:59Z</time>
      </trkpt>
      <trkpt lat="47.01889" lon="5.99194">
        <ele>317.5</ele>
        <time>2022-05-15T11:30:03Z</time>
      </trkpt>
      <trkpt lat="47.01894" lon="5.99193">
        <ele>316.8</ele>
        <time>2022-05-15T11:30:08Z</time>
      </trkpt>
      <trkpt lat="47.01899" lon="5.9919">
        <ele>316.8</ele>
        <time>2022-05-15T11:30:11Z</time>
      </trkpt>
      <trkpt lat="47.01904" lon="5.9919">
        <ele>317.1</ele>
        <time>2022-05-15T11:30:14Z</time>
      </trkpt>
      <trkpt lat="47.01909" lon="5.99191">
        <ele>317.2</ele>
        <time>2022-05-15T11:30:20Z</time>
      </trkpt>
      <trkpt lat="47.01913" lon="5.99195">
        <ele>316.7</ele>
        <time>2022-05-15T11:30:29Z</time>
      </trkpt>
      <trkpt lat="47.01919" lon="5.99195">
        <ele>317.2</ele>
        <time>2022-05-15T11:30:35Z</time>
      </trkpt>
      <trkpt lat="47.01923" lon="5.99196">
        <ele>317.7</ele>
        <time>2022-05-15T11:30:40Z</time>
      </trkpt>
      <trkpt lat="47.01928" lon="5.99198">
        <ele>318</ele>
        <time>2022-05-15T11:30:45Z</time>
      </trkpt>
      <trkpt lat="47.01932" lon="5.99198">
        <ele>318</ele>
        <time>2022-05-15T11:30:50Z</time>
      </trkpt>
      <trkpt lat="47.01936" lon="5.99194">
        <ele>317.8</ele>
        <time>2022-05-15T11:30:54Z</time>
      </trkpt>
      <trkpt lat="47.0194" lon="5.99189">
        <ele>317.5</ele>
        <time>2022-05-15T11:30:58Z</time>
      </trkpt>
      <trkpt lat="47.01944" lon="5.99184">
        <ele>317.3</ele>
        <time>2022-05-15T11:31:02Z</time>
      </trkpt>
      <trkpt lat="47.01949" lon="5.99182">
        <ele>317.1</ele>
        <time>2022-05-15T11:31:07Z</time>
      </trkpt>
      <trkpt lat="47.01954" lon="5.99183">
        <ele>317.1</ele>
        <time>2022-05-15T11:31:11Z</time>
      </trkpt>
      <trkpt lat="47.01959" lon="5.99184">
        <ele>317.1</ele>
        <time>2022-05-15T11:31:17Z</time>
      </trkpt>
      <trkpt lat="47.01964" lon="5.99181">
        <ele>315.1</ele>
        <time>2022-05-15T11:31:33Z</time>
      </trkpt>
      <trkpt lat="47.01967" lon="5.99176">
        <ele>315</ele>
        <time>2022-05-15T11:31:38Z</time>
      </trkpt>
      <trkpt lat="47.01971" lon="5.99171">
        <ele>315.4</ele>
        <time>2022-05-15T11:31:43Z</time>
      </trkpt>
      <trkpt lat="47.01975" lon="5.99168">
        <ele>315.8</ele>
        <time>2022-05-15T11:31:49Z</time>
      </trkpt>
      <trkpt lat="47.0198" lon="5.99168">
        <ele>315.8</ele>
        <time>2022-05-15T11:31:55Z</time>
      </trkpt>
      <trkpt lat="47.01985" lon="5.99166">
        <ele>315.6</ele>
        <time>2022-05-15T11:32:00Z</time>
      </trkpt>
      <trkpt lat="47.01989" lon="5.99165">
        <ele>315.6</ele>
        <time>2022-05-15T11:32:04Z</time>
      </trkpt>
      <trkpt lat="47.01994" lon="5.99161">
        <ele>315.9</ele>
        <time>2022-05-15T11:32:10Z</time>
      </trkpt>
      <trkpt lat="47.01999" lon="5.99159">
        <ele>316.3</ele>
        <time>2022-05-15T11:32:15Z</time>
      </trkpt>
      <trkpt lat="47.02003" lon="5.99156">
        <ele>316.7</ele>
        <time>2022-05-15T11:32:19Z</time>
      </trkpt>
      <trkpt lat="47.02008" lon="5.99155">
        <ele>317</ele>
        <time>2022-05-15T11:32:23Z</time>
      </trkpt>
      <trkpt lat="47.02013" lon="5.99153">
        <ele>317.3</ele>
        <time>2022-05-15T11:32:27Z</time>
      </trkpt>
      <trkpt lat="47.02018" lon="5.99148">
        <ele>317.6</ele>
        <time>2022-05-15T11:32:32Z</time>
      </trkpt>
      <trkpt lat="47.02022" lon="5.99146">
        <ele>317.6</ele>
        <time>2022-05-15T11:32:38Z</time>
      </trkpt>
      <trkpt lat="47.02025" lon="5.99141">
        <ele>317.3</ele>
        <time>2022-05-15T11:32:44Z</time>
      </trkpt>
      <trkpt lat="47.02029" lon="5.99136">
        <ele>316.9</ele>
        <time>2022-05-15T11:32:49Z</time>
      </trkpt>
      <trkpt lat="47.02035" lon="5.99134">
        <ele>316.3</ele>
        <time>2022-05-15T11:32:53Z</time>
      </trkpt>
      <trkpt lat="47.0204" lon="5.99134">
        <ele>315.8</ele>
        <time>2022-05-15T11:32:57Z</time>
      </trkpt>
      <trkpt lat="47.02045" lon="5.99131">
        <ele>315.5</ele>
        <time>2022-05-15T11:33:01Z</time>
      </trkpt>
      <trkpt lat="47.02049" lon="5.99127">
        <ele>315.3</ele>
        <time>2022-05-15T11:33:04Z</time>
      </trkpt>
      <trkpt lat="47.02054" lon="5.99125">
        <ele>315.1</ele>
        <time>2022-05-15T11:33:08Z</time>
      </trkpt>
      <trkpt lat="47.02059" lon="5.99126">
        <ele>315.3</ele>
        <time>2022-05-15T11:33:12Z</time>
      </trkpt>
      <trkpt lat="47.02065" lon="5.99125">
        <ele>315.6</ele>
        <time>2022-05-15T11:33:17Z</time>
      </trkpt>
      <trkpt lat="47.0207" lon="5.99124">
        <ele>316</ele>
        <time>2022-05-15T11:33:22Z</time>
      </trkpt>
      <trkpt lat="47.02074" lon="5.99119">
        <ele>316.3</ele>
        <time>2022-05-15T11:33:26Z</time>
      </trkpt>
      <trkpt lat="47.02077" lon="5.99114">
        <ele>316.9</ele>
        <time>2022-05-15T11:33:31Z</time>
      </trkpt>
      <trkpt lat="47.02079" lon="5.99107">
        <ele>317.3</ele>
        <time>2022-05-15T11:33:37Z</time>
      </trkpt>
      <trkpt lat="47.02083" lon="5.99103">
        <ele>317.6</ele>
        <time>2022-05-15T11:33:43Z</time>
      </trkpt>
      <trkpt lat="47.02088" lon="5.99099">
        <ele>317.8</ele>
        <time>2022-05-15T11:33:48Z</time>
      </trkpt>
      <trkpt lat="47.02092" lon="5.99096">
        <ele>317.7</ele>
        <time>2022-05-15T11:33:52Z</time>
      </trkpt>
      <trkpt lat="47.02097" lon="5.99094">
        <ele>317.4</ele>
        <time>2022-05-15T11:33:55Z</time>
      </trkpt>
      <trkpt lat="47.02102" lon="5.99092">
        <ele>317.2</ele>
        <time>2022-05-15T11:33:59Z</time>
      </trkpt>
      <trkpt lat="47.02107" lon="5.99091">
        <ele>317.2</ele>
        <time>2022-05-15T11:34:04Z</time>
      </trkpt>
      <trkpt lat="47.0211" lon="5.99085">
        <ele>317.3</ele>
        <time>2022-05-15T11:34:09Z</time>
      </trkpt>
      <trkpt lat="47.02114" lon="5.9908">
        <ele>318</ele>
        <time>2022-05-15T11:34:13Z</time>
      </trkpt>
      <trkpt lat="47.02119" lon="5.99078">
        <ele>318.7</ele>
        <time>2022-05-15T11:34:17Z</time>
      </trkpt>
      <trkpt lat="47.02123" lon="5.99075">
        <ele>319.1</ele>
        <time>2022-05-15T11:34:22Z</time>
      </trkpt>
      <trkpt lat="47.02128" lon="5.99074">
        <ele>319.3</ele>
        <time>2022-05-15T11:34:26Z</time>
      </trkpt>
      <trkpt lat="47.02132" lon="5.99071">
        <ele>319.4</ele>
        <time>2022-05-15T11:34:30Z</time>
      </trkpt>
      <trkpt lat="47.02138" lon="5.99069">
        <ele>319.6</ele>
        <time>2022-05-15T11:34:36Z</time>
      </trkpt>
      <trkpt lat="47.02142" lon="5.99068">
        <ele>319.9</ele>
        <time>2022-05-15T11:34:42Z</time>
      </trkpt>
      <trkpt lat="47.02146" lon="5.99063">
        <ele>320.4</ele>
        <time>2022-05-15T11:34:50Z</time>
      </trkpt>
      <trkpt lat="47.02151" lon="5.99063">
        <ele>320.8</ele>
        <time>2022-05-15T11:34:57Z</time>
      </trkpt>
      <trkpt lat="47.02156" lon="5.99062">
        <ele>320.7</ele>
        <time>2022-05-15T11:35:01Z</time>
      </trkpt>
      <trkpt lat="47.02161" lon="5.99062">
        <ele>320.6</ele>
        <time>2022-05-15T11:35:05Z</time>
      </trkpt>
      <trkpt lat="47.02166" lon="5.99062">
        <ele>320.5</ele>
        <time>2022-05-15T11:35:09Z</time>
      </trkpt>
      <trkpt lat="47.02172" lon="5.99063">
        <ele>320.7</ele>
        <time>2022-05-15T11:35:13Z</time>
      </trkpt>
      <trkpt lat="47.02177" lon="5.99064">
        <ele>320.7</ele>
        <time>2022-05-15T11:35:17Z</time>
      </trkpt>
      <trkpt lat="47.02182" lon="5.99064">
        <ele>320.4</ele>
        <time>2022-05-15T11:35:22Z</time>
      </trkpt>
      <trkpt lat="47.02187" lon="5.99064">
        <ele>319.9</ele>
        <time>2022-05-15T11:35:28Z</time>
      </trkpt>
      <trkpt lat="47.02193" lon="5.99063">
        <ele>319.2</ele>
        <time>2022-05-15T11:35:33Z</time>
      </trkpt>
      <trkpt lat="47.02197" lon="5.9906">
        <ele>318.7</ele>
        <time>2022-05-15T11:35:37Z</time>
      </trkpt>
      <trkpt lat="47.02201" lon="5.99054">
        <ele>318.2</ele>
        <time>2022-05-15T11:35:42Z</time>
      </trkpt>
      <trkpt lat="47.02205" lon="5.9905">
        <ele>318.1</ele>
        <time>2022-05-15T11:35:46Z</time>
      </trkpt>
      <trkpt lat="47.02209" lon="5.99047">
        <ele>318.4</ele>
        <time>2022-05-15T11:35:50Z</time>
      </trkpt>
      <trkpt lat="47.02214" lon="5.99048">
        <ele>318.5</ele>
        <time>2022-05-15T11:35:56Z</time>
      </trkpt>
      <trkpt lat="47.02219" lon="5.99049">
        <ele>318.8</ele>
        <time>2022-05-15T11:36:00Z</time>
      </trkpt>
      <trkpt lat="47.02224" lon="5.99049">
        <ele>319.2</ele>
        <time>2022-05-15T11:36:05Z</time>
      </trkpt>
      <trkpt lat="47.02229" lon="5.99049">
        <ele>319.4</ele>
        <time>2022-05-15T11:36:09Z</time>
      </trkpt>
      <trkpt lat="47.02234" lon="5.99048">
        <ele>319.7</ele>
        <time>2022-05-15T11:36:14Z</time>
      </trkpt>
      <trkpt lat="47.02238" lon="5.99044">
        <ele>319.9</ele>
        <time>2022-05-15T11:36:18Z</time>
      </trkpt>
      <trkpt lat="47.02242" lon="5.9904">
        <ele>320</ele>
        <time>2022-05-15T11:36:22Z</time>
      </trkpt>
      <trkpt lat="47.02248" lon="5.99038">
        <ele>320.1</ele>
        <time>2022-05-15T11:36:26Z</time>
      </trkpt>
      <trkpt lat="47.02253" lon="5.99038">
        <ele>320.2</ele>
        <time>2022-05-15T11:36:29Z</time>
      </trkpt>
      <trkpt lat="47.02258" lon="5.9904">
        <ele>320.3</ele>
        <time>2022-05-15T11:36:32Z</time>
      </trkpt>
      <trkpt lat="47.02263" lon="5.99041">
        <ele>320.3</ele>
        <time>2022-05-15T11:36:35Z</time>
      </trkpt>
      <trkpt lat="47.02268" lon="5.9904">
        <ele>320.4</ele>
        <time>2022-05-15T11:36:38Z</time>
      </trkpt>
      <trkpt lat="47.02272" lon="5.99037">
        <ele>320.6</ele>
        <time>2022-05-15T11:36:42Z</time>
      </trkpt>
      <trkpt lat="47.02277" lon="5.99038">
        <ele>320.3</ele>
        <time>2022-05-15T11:36:47Z</time>
      </trkpt>
      <trkpt lat="47.02283" lon="5.99041">
        <ele>319.9</ele>
        <time>2022-05-15T11:36:52Z</time>
      </trkpt>
      <trkpt lat="47.02288" lon="5.99044">
        <ele>319.4</ele>
        <time>2022-05-15T11:36:56Z</time>
      </trkpt>
      <trkpt lat="47.02293" lon="5.99045">
        <ele>318.9</ele>
        <time>2022-05-15T11:36:59Z</time>
      </trkpt>
      <trkpt lat="47.02298" lon="5.99047">
        <ele>318.6</ele>
        <time>2022-05-15T11:37:02Z</time>
      </trkpt>
      <trkpt lat="47.02304" lon="5.99045">
        <ele>318.3</ele>
        <time>2022-05-15T11:37:06Z</time>
      </trkpt>
      <trkpt lat="47.02309" lon="5.99043">
        <ele>318.2</ele>
        <time>2022-05-15T11:37:10Z</time>
      </trkpt>
      <trkpt lat="47.02313" lon="5.99039">
        <ele>318.2</ele>
        <time>2022-05-15T11:37:14Z</time>
      </trkpt>
      <trkpt lat="47.02316" lon="5.99033">
        <ele>318.2</ele>
        <time>2022-05-15T11:37:18Z</time>
      </trkpt>
      <trkpt lat="47.02319" lon="5.99027">
        <ele>317.9</ele>
        <time>2022-05-15T11:37:22Z</time>
      </trkpt>
      <trkpt lat="47.02324" lon="5.99025">
        <ele>317.7</ele>
        <time>2022-05-15T11:37:26Z</time>
      </trkpt>
      <trkpt lat="47.02329" lon="5.99024">
        <ele>317.5</ele>
        <time>2022-05-15T11:37:30Z</time>
      </trkpt>
      <trkpt lat="47.02334" lon="5.99021">
        <ele>317.3</ele>
        <time>2022-05-15T11:37:35Z</time>
      </trkpt>
      <trkpt lat="47.02339" lon="5.99019">
        <ele>317.2</ele>
        <time>2022-05-15T11:37:39Z</time>
      </trkpt>
      <trkpt lat="47.02343" lon="5.99017">
        <ele>317.1</ele>
        <time>2022-05-15T11:37:43Z</time>
      </trkpt>
      <trkpt lat="47.02348" lon="5.99012">
        <ele>317.1</ele>
        <time>2022-05-15T11:37:48Z</time>
      </trkpt>
      <trkpt lat="47.02353" lon="5.9901">
        <ele>317</ele>
        <time>2022-05-15T11:37:53Z</time>
      </trkpt>
      <trkpt lat="47.02357" lon="5.99013">
        <ele>316.8</ele>
        <time>2022-05-15T11:37:56Z</time>
      </trkpt>
      <trkpt lat="47.02362" lon="5.99016">
        <ele>316.5</ele>
        <time>2022-05-15T11:38:00Z</time>
      </trkpt>
      <trkpt lat="47.02367" lon="5.99016">
        <ele>316.2</ele>
        <time>2022-05-15T11:38:03Z</time>
      </trkpt>
      <trkpt lat="47.02372" lon="5.99014">
        <ele>315.9</ele>
        <time>2022-05-15T11:38:07Z</time>
      </trkpt>
      <trkpt lat="47.02377" lon="5.99011">
        <ele>315.6</ele>
        <time>2022-05-15T11:38:11Z</time>
      </trkpt>
      <trkpt lat="47.02381" lon="5.99005">
        <ele>315.4</ele>
        <time>2022-05-15T11:38:15Z</time>
      </trkpt>
      <trkpt lat="47.02385" lon="5.98999">
        <ele>315</ele>
        <time>2022-05-15T11:38:19Z</time>
      </trkpt>
      <trkpt lat="47.02389" lon="5.98993">
        <ele>314.8</ele>
        <time>2022-05-15T11:38:23Z</time>
      </trkpt>
      <trkpt lat="47.02393" lon="5.9899">
        <ele>314.4</ele>
        <time>2022-05-15T11:38:28Z</time>
      </trkpt>
      <trkpt lat="47.02396" lon="5.98984">
        <ele>314.2</ele>
        <time>2022-05-15T11:38:32Z</time>
      </trkpt>
      <trkpt lat="47.02398" lon="5.98978">
        <ele>313.9</ele>
        <time>2022-05-15T11:38:36Z</time>
      </trkpt>
      <trkpt lat="47.02401" lon="5.98972">
        <ele>313.5</ele>
        <time>2022-05-15T11:38:40Z</time>
      </trkpt>
      <trkpt lat="47.02403" lon="5.98966">
        <ele>313.3</ele>
        <time>2022-05-15T11:38:43Z</time>
      </trkpt>
      <trkpt lat="47.02406" lon="5.9896">
        <ele>313.1</ele>
        <time>2022-05-15T11:38:47Z</time>
      </trkpt>
      <trkpt lat="47.02411" lon="5.98955">
        <ele>312.7</ele>
        <time>2022-05-15T11:38:51Z</time>
      </trkpt>
      <trkpt lat="47.02414" lon="5.9895">
        <ele>312.5</ele>
        <time>2022-05-15T11:38:55Z</time>
      </trkpt>
      <trkpt lat="47.02418" lon="5.98945">
        <ele>312.1</ele>
        <time>2022-05-15T11:39:00Z</time>
      </trkpt>
      <trkpt lat="47.02422" lon="5.98941">
        <ele>312</ele>
        <time>2022-05-15T11:39:03Z</time>
      </trkpt>
      <trkpt lat="47.02426" lon="5.98936">
        <ele>311.7</ele>
        <time>2022-05-15T11:39:08Z</time>
      </trkpt>
      <trkpt lat="47.02431" lon="5.98933">
        <ele>311.5</ele>
        <time>2022-05-15T11:39:12Z</time>
      </trkpt>
      <trkpt lat="47.02436" lon="5.98933">
        <ele>311.2</ele>
        <time>2022-05-15T11:39:16Z</time>
      </trkpt>
      <trkpt lat="47.02441" lon="5.98933">
        <ele>311</ele>
        <time>2022-05-15T11:39:20Z</time>
      </trkpt>
      <trkpt lat="47.02446" lon="5.9893">
        <ele>311</ele>
        <time>2022-05-15T11:39:24Z</time>
      </trkpt>
      <trkpt lat="47.02451" lon="5.98926">
        <ele>310.9</ele>
        <time>2022-05-15T11:39:28Z</time>
      </trkpt>
      <trkpt lat="47.02457" lon="5.98922">
        <ele>311</ele>
        <time>2022-05-15T11:39:32Z</time>
      </trkpt>
      <trkpt lat="47.02462" lon="5.9892">
        <ele>311</ele>
        <time>2022-05-15T11:39:36Z</time>
      </trkpt>
      <trkpt lat="47.02468" lon="5.98919">
        <ele>311.3</ele>
        <time>2022-05-15T11:39:40Z</time>
      </trkpt>
      <trkpt lat="47.02473" lon="5.98919">
        <ele>311.6</ele>
        <time>2022-05-15T11:39:45Z</time>
      </trkpt>
      <trkpt lat="47.02478" lon="5.98919">
        <ele>312.3</ele>
        <time>2022-05-15T11:39:49Z</time>
      </trkpt>
      <trkpt lat="47.02483" lon="5.98917">
        <ele>313.3</ele>
        <time>2022-05-15T11:39:53Z</time>
      </trkpt>
      <trkpt lat="47.02488" lon="5.98914">
        <ele>314</ele>
        <time>2022-05-15T11:39:57Z</time>
      </trkpt>
      <trkpt lat="47.02491" lon="5.98907">
        <ele>314.3</ele>
        <time>2022-05-15T11:40:01Z</time>
      </trkpt>
      <trkpt lat="47.02493" lon="5.989">
        <ele>314.8</ele>
        <time>2022-05-15T11:40:04Z</time>
      </trkpt>
      <trkpt lat="47.02495" lon="5.98893">
        <ele>315.5</ele>
        <time>2022-05-15T11:40:07Z</time>
      </trkpt>
      <trkpt lat="47.02499" lon="5.98887">
        <ele>316.7</ele>
        <time>2022-05-15T11:40:11Z</time>
      </trkpt>
      <trkpt lat="47.02504" lon="5.98886">
        <ele>319.4</ele>
        <time>2022-05-15T11:40:17Z</time>
      </trkpt>
      <trkpt lat="47.02509" lon="5.98883">
        <ele>321.2</ele>
        <time>2022-05-15T11:40:22Z</time>
      </trkpt>
      <trkpt lat="47.02512" lon="5.98878">
        <ele>322.5</ele>
        <time>2022-05-15T11:40:26Z</time>
      </trkpt>
      <trkpt lat="47.02515" lon="5.98872">
        <ele>324</ele>
        <time>2022-05-15T11:40:31Z</time>
      </trkpt>
      <trkpt lat="47.02519" lon="5.98868">
        <ele>324.8</ele>
        <time>2022-05-15T11:40:37Z</time>
      </trkpt>
      <trkpt lat="47.02524" lon="5.98865">
        <ele>325.2</ele>
        <time>2022-05-15T11:40:41Z</time>
      </trkpt>
      <trkpt lat="47.02529" lon="5.98862">
        <ele>325.8</ele>
        <time>2022-05-15T11:40:45Z</time>
      </trkpt>
      <trkpt lat="47.02534" lon="5.98858">
        <ele>326.3</ele>
        <time>2022-05-15T11:40:49Z</time>
      </trkpt>
      <trkpt lat="47.02538" lon="5.98854">
        <ele>327</ele>
        <time>2022-05-15T11:40:54Z</time>
      </trkpt>
      <trkpt lat="47.02543" lon="5.98851">
        <ele>327.8</ele>
        <time>2022-05-15T11:40:58Z</time>
      </trkpt>
      <trkpt lat="47.02547" lon="5.98847">
        <ele>328.7</ele>
        <time>2022-05-15T11:41:02Z</time>
      </trkpt>
      <trkpt lat="47.0255" lon="5.98842">
        <ele>329.6</ele>
        <time>2022-05-15T11:41:05Z</time>
      </trkpt>
      <trkpt lat="47.02553" lon="5.98836">
        <ele>330.9</ele>
        <time>2022-05-15T11:41:09Z</time>
      </trkpt>
      <trkpt lat="47.02557" lon="5.98832">
        <ele>332.1</ele>
        <time>2022-05-15T11:41:15Z</time>
      </trkpt>
      <trkpt lat="47.0256" lon="5.98827">
        <ele>332.3</ele>
        <time>2022-05-15T11:41:19Z</time>
      </trkpt>
      <trkpt lat="47.02564" lon="5.98822">
        <ele>332.3</ele>
        <time>2022-05-15T11:41:24Z</time>
      </trkpt>
      <trkpt lat="47.02566" lon="5.98816">
        <ele>332.3</ele>
        <time>2022-05-15T11:41:28Z</time>
      </trkpt>
      <trkpt lat="47.02568" lon="5.98809">
        <ele>332.2</ele>
        <time>2022-05-15T11:41:32Z</time>
      </trkpt>
      <trkpt lat="47.0257" lon="5.98803">
        <ele>331.9</ele>
        <time>2022-05-15T11:41:38Z</time>
      </trkpt>
      <trkpt lat="47.02574" lon="5.988">
        <ele>331.8</ele>
        <time>2022-05-15T11:41:42Z</time>
      </trkpt>
      <trkpt lat="47.02579" lon="5.98799">
        <ele>331.7</ele>
        <time>2022-05-15T11:41:48Z</time>
      </trkpt>
      <trkpt lat="47.02583" lon="5.98793">
        <ele>332.1</ele>
        <time>2022-05-15T11:41:53Z</time>
      </trkpt>
      <trkpt lat="47.02582" lon="5.98786">
        <ele>332.8</ele>
        <time>2022-05-15T11:41:59Z</time>
      </trkpt>
      <trkpt lat="47.0258" lon="5.98779">
        <ele>334</ele>
        <time>2022-05-15T11:42:03Z</time>
      </trkpt>
      <trkpt lat="47.02578" lon="5.98773">
        <ele>335.4</ele>
        <time>2022-05-15T11:42:06Z</time>
      </trkpt>
      <trkpt lat="47.02576" lon="5.98765">
        <ele>337.1</ele>
        <time>2022-05-15T11:42:10Z</time>
      </trkpt>
      <trkpt lat="47.02575" lon="5.98758">
        <ele>338.3</ele>
        <time>2022-05-15T11:42:14Z</time>
      </trkpt>
      <trkpt lat="47.02577" lon="5.98751">
        <ele>339.1</ele>
        <time>2022-05-15T11:42:18Z</time>
      </trkpt>
      <trkpt lat="47.02577" lon="5.98744">
        <ele>339.7</ele>
        <time>2022-05-15T11:42:25Z</time>
      </trkpt>
      <trkpt lat="47.02578" lon="5.98737">
        <ele>340.4</ele>
        <time>2022-05-15T11:42:30Z</time>
      </trkpt>
      <trkpt lat="47.02579" lon="5.98729">
        <ele>341.1</ele>
        <time>2022-05-15T11:42:34Z</time>
      </trkpt>
      <trkpt lat="47.02581" lon="5.98723">
        <ele>341.6</ele>
        <time>2022-05-15T11:42:37Z</time>
      </trkpt>
      <trkpt lat="47.02582" lon="5.98714">
        <ele>342</ele>
        <time>2022-05-15T11:42:41Z</time>
      </trkpt>
      <trkpt lat="47.02584" lon="5.98709">
        <ele>342.1</ele>
        <time>2022-05-15T11:42:44Z</time>
      </trkpt>
      <trkpt lat="47.02587" lon="5.98702">
        <ele>342</ele>
        <time>2022-05-15T11:42:48Z</time>
      </trkpt>
      <trkpt lat="47.02589" lon="5.98696">
        <ele>342</ele>
        <time>2022-05-15T11:42:51Z</time>
      </trkpt>
      <trkpt lat="47.0259" lon="5.98688">
        <ele>342.1</ele>
        <time>2022-05-15T11:42:54Z</time>
      </trkpt>
      <trkpt lat="47.02593" lon="5.98682">
        <ele>342.4</ele>
        <time>2022-05-15T11:42:57Z</time>
      </trkpt>
      <trkpt lat="47.02597" lon="5.98677">
        <ele>342.7</ele>
        <time>2022-05-15T11:43:01Z</time>
      </trkpt>
      <trkpt lat="47.02602" lon="5.98674">
        <ele>343</ele>
        <time>2022-05-15T11:43:06Z</time>
      </trkpt>
      <trkpt lat="47.02606" lon="5.98672">
        <ele>342.8</ele>
        <time>2022-05-15T11:43:12Z</time>
      </trkpt>
      <trkpt lat="47.02609" lon="5.98667">
        <ele>342.1</ele>
        <time>2022-05-15T11:43:18Z</time>
      </trkpt>
      <trkpt lat="47.02614" lon="5.98662">
        <ele>341.4</ele>
        <time>2022-05-15T11:43:23Z</time>
      </trkpt>
      <trkpt lat="47.02618" lon="5.9866">
        <ele>340.3</ele>
        <time>2022-05-15T11:43:28Z</time>
      </trkpt>
      <trkpt lat="47.02616" lon="5.98653">
        <ele>336.2</ele>
        <time>2022-05-15T11:43:45Z</time>
      </trkpt>
      <trkpt lat="47.02624" lon="5.98655">
        <ele>333.7</ele>
        <time>2022-05-15T11:44:11Z</time>
      </trkpt>
      <trkpt lat="47.02628" lon="5.98658">
        <ele>331.4</ele>
        <time>2022-05-15T11:44:16Z</time>
      </trkpt>
      <trkpt lat="47.02626" lon="5.98653">
        <ele>327</ele>
        <time>2022-05-15T11:44:38Z</time>
      </trkpt>
      <trkpt lat="47.02622" lon="5.98657">
        <ele>321</ele>
        <time>2022-05-15T11:45:12Z</time>
      </trkpt>
      <trkpt lat="47.02621" lon="5.9865">
        <ele>320.8</ele>
        <time>2022-05-15T11:45:38Z</time>
      </trkpt>
      <trkpt lat="47.02625" lon="5.98645">
        <ele>323.2</ele>
        <time>2022-05-15T11:45:53Z</time>
      </trkpt>
      <trkpt lat="47.0263" lon="5.98643">
        <ele>323.8</ele>
        <time>2022-05-15T11:45:59Z</time>
      </trkpt>
      <trkpt lat="47.02634" lon="5.98639">
        <ele>324</ele>
        <time>2022-05-15T11:46:04Z</time>
      </trkpt>
      <trkpt lat="47.02636" lon="5.98633">
        <ele>324.2</ele>
        <time>2022-05-15T11:46:10Z</time>
      </trkpt>
      <trkpt lat="47.0264" lon="5.98626">
        <ele>324.6</ele>
        <time>2022-05-15T11:46:17Z</time>
      </trkpt>
      <trkpt lat="47.02641" lon="5.98619">
        <ele>325</ele>
        <time>2022-05-15T11:46:20Z</time>
      </trkpt>
      <trkpt lat="47.02644" lon="5.98611">
        <ele>325.5</ele>
        <time>2022-05-15T11:46:23Z</time>
      </trkpt>
      <trkpt lat="47.02647" lon="5.98605">
        <ele>326.3</ele>
        <time>2022-05-15T11:46:27Z</time>
      </trkpt>
      <trkpt lat="47.02651" lon="5.986">
        <ele>326.9</ele>
        <time>2022-05-15T11:46:32Z</time>
      </trkpt>
      <trkpt lat="47.02655" lon="5.98597">
        <ele>327.1</ele>
        <time>2022-05-15T11:46:36Z</time>
      </trkpt>
      <trkpt lat="47.0266" lon="5.98593">
        <ele>327.2</ele>
        <time>2022-05-15T11:46:41Z</time>
      </trkpt>
      <trkpt lat="47.02663" lon="5.9859">
        <ele>327.2</ele>
        <time>2022-05-15T11:46:48Z</time>
      </trkpt>
      <trkpt lat="47.02668" lon="5.98589">
        <ele>327</ele>
        <time>2022-05-15T11:46:54Z</time>
      </trkpt>
      <trkpt lat="47.02673" lon="5.98588">
        <ele>326.6</ele>
        <time>2022-05-15T11:46:58Z</time>
      </trkpt>
      <trkpt lat="47.02678" lon="5.98587">
        <ele>326.1</ele>
        <time>2022-05-15T11:47:03Z</time>
      </trkpt>
      <trkpt lat="47.02683" lon="5.98584">
        <ele>325.8</ele>
        <time>2022-05-15T11:47:09Z</time>
      </trkpt>
      <trkpt lat="47.02688" lon="5.9858">
        <ele>325.7</ele>
        <time>2022-05-15T11:47:12Z</time>
      </trkpt>
      <trkpt lat="47.02695" lon="5.98576">
        <ele>325.8</ele>
        <time>2022-05-15T11:47:15Z</time>
      </trkpt>
      <trkpt lat="47.02701" lon="5.98573">
        <ele>326</ele>
        <time>2022-05-15T11:47:18Z</time>
      </trkpt>
      <trkpt lat="47.02706" lon="5.98573">
        <ele>326.1</ele>
        <time>2022-05-15T11:47:22Z</time>
      </trkpt>
      <trkpt lat="47.02711" lon="5.98572">
        <ele>326</ele>
        <time>2022-05-15T11:47:27Z</time>
      </trkpt>
      <trkpt lat="47.02717" lon="5.98572">
        <ele>325.9</ele>
        <time>2022-05-15T11:47:31Z</time>
      </trkpt>
      <trkpt lat="47.02723" lon="5.98571">
        <ele>325.8</ele>
        <time>2022-05-15T11:47:35Z</time>
      </trkpt>
      <trkpt lat="47.02728" lon="5.98571">
        <ele>325.7</ele>
        <time>2022-05-15T11:47:39Z</time>
      </trkpt>
      <trkpt lat="47.02732" lon="5.98576">
        <ele>324.4</ele>
        <time>2022-05-15T11:48:24Z</time>
      </trkpt>
      <trkpt lat="47.02736" lon="5.98579">
        <ele>326.5</ele>
        <time>2022-05-15T11:48:51Z</time>
      </trkpt>
      <trkpt lat="47.02741" lon="5.98581">
        <ele>326.7</ele>
        <time>2022-05-15T11:48:56Z</time>
      </trkpt>
      <trkpt lat="47.02745" lon="5.98582">
        <ele>327.8</ele>
        <time>2022-05-15T11:49:03Z</time>
      </trkpt>
      <trkpt lat="47.0275" lon="5.98582">
        <ele>328</ele>
        <time>2022-05-15T11:49:10Z</time>
      </trkpt>
      <trkpt lat="47.02756" lon="5.98582">
        <ele>327.8</ele>
        <time>2022-05-15T11:49:15Z</time>
      </trkpt>
      <trkpt lat="47.0276" lon="5.98581">
        <ele>327.5</ele>
        <time>2022-05-15T11:49:19Z</time>
      </trkpt>
      <trkpt lat="47.02766" lon="5.98579">
        <ele>327.2</ele>
        <time>2022-05-15T11:49:24Z</time>
      </trkpt>
      <trkpt lat="47.0277" lon="5.98576">
        <ele>327.1</ele>
        <time>2022-05-15T11:49:28Z</time>
      </trkpt>
      <trkpt lat="47.02774" lon="5.98572">
        <ele>327.1</ele>
        <time>2022-05-15T11:49:33Z</time>
      </trkpt>
      <trkpt lat="47.02779" lon="5.98572">
        <ele>327.1</ele>
        <time>2022-05-15T11:49:39Z</time>
      </trkpt>
      <trkpt lat="47.02784" lon="5.98573">
        <ele>327.4</ele>
        <time>2022-05-15T11:49:46Z</time>
      </trkpt>
      <trkpt lat="47.02789" lon="5.98576">
        <ele>327.2</ele>
        <time>2022-05-15T11:49:51Z</time>
      </trkpt>
      <trkpt lat="47.02792" lon="5.98581">
        <ele>327</ele>
        <time>2022-05-15T11:49:57Z</time>
      </trkpt>
      <trkpt lat="47.02797" lon="5.98584">
        <ele>326.7</ele>
        <time>2022-05-15T11:50:02Z</time>
      </trkpt>
      <trkpt lat="47.02801" lon="5.98588">
        <ele>326.5</ele>
        <time>2022-05-15T11:50:07Z</time>
      </trkpt>
      <trkpt lat="47.02804" lon="5.98594">
        <ele>326.5</ele>
        <time>2022-05-15T11:50:12Z</time>
      </trkpt>
      <trkpt lat="47.02807" lon="5.986">
        <ele>326.9</ele>
        <time>2022-05-15T11:50:18Z</time>
      </trkpt>
      <trkpt lat="47.0281" lon="5.98605">
        <ele>327.4</ele>
        <time>2022-05-15T11:50:24Z</time>
      </trkpt>
      <trkpt lat="47.02815" lon="5.98606">
        <ele>328.2</ele>
        <time>2022-05-15T11:50:35Z</time>
      </trkpt>
      <trkpt lat="47.02819" lon="5.9861">
        <ele>328.4</ele>
        <time>2022-05-15T11:50:42Z</time>
      </trkpt>
      <trkpt lat="47.02822" lon="5.98605">
        <ele>327.9</ele>
        <time>2022-05-15T11:50:56Z</time>
      </trkpt>
      <trkpt lat="47.02817" lon="5.98612">
        <ele>327.6</ele>
        <time>2022-05-15T11:51:21Z</time>
      </trkpt>
      <trkpt lat="47.02811" lon="5.98618">
        <ele>327.8</ele>
        <time>2022-05-15T11:51:24Z</time>
      </trkpt>
      <trkpt lat="47.02808" lon="5.98623">
        <ele>328</ele>
        <time>2022-05-15T11:51:27Z</time>
      </trkpt>
      <trkpt lat="47.02806" lon="5.98629">
        <ele>328.5</ele>
        <time>2022-05-15T11:51:34Z</time>
      </trkpt>
      <trkpt lat="47.02802" lon="5.98635">
        <ele>329</ele>
        <time>2022-05-15T11:51:38Z</time>
      </trkpt>
      <trkpt lat="47.02798" lon="5.9864">
        <ele>329.4</ele>
        <time>2022-05-15T11:51:43Z</time>
      </trkpt>
      <trkpt lat="47.02793" lon="5.98644">
        <ele>329.6</ele>
        <time>2022-05-15T11:51:49Z</time>
      </trkpt>
      <trkpt lat="47.02789" lon="5.98647">
        <ele>329.9</ele>
        <time>2022-05-15T11:51:53Z</time>
      </trkpt>
      <trkpt lat="47.02784" lon="5.98652">
        <ele>330.6</ele>
        <time>2022-05-15T11:51:58Z</time>
      </trkpt>
      <trkpt lat="47.0278" lon="5.98652">
        <ele>330</ele>
        <time>2022-05-15T11:52:04Z</time>
      </trkpt>
      <trkpt lat="47.02775" lon="5.98655">
        <ele>329.8</ele>
        <time>2022-05-15T11:52:13Z</time>
      </trkpt>
      <trkpt lat="47.0277" lon="5.98658">
        <ele>330.3</ele>
        <time>2022-05-15T11:52:17Z</time>
      </trkpt>
      <trkpt lat="47.02765" lon="5.98661">
        <ele>330.7</ele>
        <time>2022-05-15T11:52:20Z</time>
      </trkpt>
      <trkpt lat="47.02761" lon="5.98666">
        <ele>331</ele>
        <time>2022-05-15T11:52:24Z</time>
      </trkpt>
      <trkpt lat="47.02756" lon="5.9867">
        <ele>331.8</ele>
        <time>2022-05-15T11:52:28Z</time>
      </trkpt>
      <trkpt lat="47.02753" lon="5.98675">
        <ele>332.9</ele>
        <time>2022-05-15T11:52:33Z</time>
      </trkpt>
      <trkpt lat="47.02749" lon="5.98679">
        <ele>334.2</ele>
        <time>2022-05-15T11:52:39Z</time>
      </trkpt>
      <trkpt lat="47.02745" lon="5.98682">
        <ele>335.5</ele>
        <time>2022-05-15T11:52:45Z</time>
      </trkpt>
      <trkpt lat="47.02741" lon="5.98686">
        <ele>336</ele>
        <time>2022-05-15T11:52:51Z</time>
      </trkpt>
      <trkpt lat="47.02738" lon="5.98691">
        <ele>336.4</ele>
        <time>2022-05-15T11:52:56Z</time>
      </trkpt>
      <trkpt lat="47.02738" lon="5.98698">
        <ele>337.7</ele>
        <time>2022-05-15T11:53:03Z</time>
      </trkpt>
      <trkpt lat="47.02736" lon="5.98705">
        <ele>337.9</ele>
        <time>2022-05-15T11:53:13Z</time>
      </trkpt>
      <trkpt lat="47.02732" lon="5.98708">
        <ele>338.7</ele>
        <time>2022-05-15T11:53:16Z</time>
      </trkpt>
      <trkpt lat="47.02728" lon="5.98711">
        <ele>340.2</ele>
        <time>2022-05-15T11:53:24Z</time>
      </trkpt>
      <trkpt lat="47.02723" lon="5.98714">
        <ele>341.3</ele>
        <time>2022-05-15T11:53:31Z</time>
      </trkpt>
      <trkpt lat="47.02719" lon="5.98716">
        <ele>341.7</ele>
        <time>2022-05-15T11:53:35Z</time>
      </trkpt>
      <trkpt lat="47.02714" lon="5.98718">
        <ele>341.4</ele>
        <time>2022-05-15T11:53:42Z</time>
      </trkpt>
      <trkpt lat="47.02709" lon="5.98721">
        <ele>341.2</ele>
        <time>2022-05-15T11:53:46Z</time>
      </trkpt>
      <trkpt lat="47.02704" lon="5.98726">
        <ele>341.3</ele>
        <time>2022-05-15T11:53:49Z</time>
      </trkpt>
      <trkpt lat="47.02701" lon="5.98733">
        <ele>341.5</ele>
        <time>2022-05-15T11:53:52Z</time>
      </trkpt>
      <trkpt lat="47.02698" lon="5.98738">
        <ele>342.4</ele>
        <time>2022-05-15T11:53:59Z</time>
      </trkpt>
      <trkpt lat="47.02693" lon="5.98743">
        <ele>343.9</ele>
        <time>2022-05-15T11:54:06Z</time>
      </trkpt>
      <trkpt lat="47.02689" lon="5.98745">
        <ele>344.7</ele>
        <time>2022-05-15T11:54:12Z</time>
      </trkpt>
      <trkpt lat="47.02684" lon="5.98748">
        <ele>345.9</ele>
        <time>2022-05-15T11:54:18Z</time>
      </trkpt>
      <trkpt lat="47.02682" lon="5.98754">
        <ele>348.6</ele>
        <time>2022-05-15T11:54:28Z</time>
      </trkpt>
      <trkpt lat="47.02681" lon="5.98761">
        <ele>350</ele>
        <time>2022-05-15T11:54:33Z</time>
      </trkpt>
      <trkpt lat="47.02678" lon="5.98767">
        <ele>350.8</ele>
        <time>2022-05-15T11:54:36Z</time>
      </trkpt>
      <trkpt lat="47.02675" lon="5.98774">
        <ele>351.3</ele>
        <time>2022-05-15T11:54:40Z</time>
      </trkpt>
      <trkpt lat="47.02672" lon="5.9878">
        <ele>351.8</ele>
        <time>2022-05-15T11:54:44Z</time>
      </trkpt>
      <trkpt lat="47.0267" lon="5.98787">
        <ele>353.2</ele>
        <time>2022-05-15T11:54:50Z</time>
      </trkpt>
      <trkpt lat="47.02666" lon="5.98788">
        <ele>361.7</ele>
        <time>2022-05-15T11:55:15Z</time>
      </trkpt>
      <trkpt lat="47.02671" lon="5.98789">
        <ele>363.1</ele>
        <time>2022-05-15T11:55:21Z</time>
      </trkpt>
      <trkpt lat="47.02667" lon="5.98796">
        <ele>363.6</ele>
        <time>2022-05-15T11:55:36Z</time>
      </trkpt>
      <trkpt lat="47.02663" lon="5.98796">
        <ele>363</ele>
        <time>2022-05-15T11:55:41Z</time>
      </trkpt>
      <trkpt lat="47.02662" lon="5.98789">
        <ele>362.8</ele>
        <time>2022-05-15T11:55:47Z</time>
      </trkpt>
      <trkpt lat="47.02657" lon="5.98788">
        <ele>361.3</ele>
        <time>2022-05-15T11:56:00Z</time>
      </trkpt>
      <trkpt lat="47.02653" lon="5.98782">
        <ele>361</ele>
        <time>2022-05-15T11:56:07Z</time>
      </trkpt>
      <trkpt lat="47.02648" lon="5.9878">
        <ele>361.2</ele>
        <time>2022-05-15T11:56:11Z</time>
      </trkpt>
      <trkpt lat="47.02643" lon="5.98782">
        <ele>361.3</ele>
        <time>2022-05-15T11:56:16Z</time>
      </trkpt>
      <trkpt lat="47.02639" lon="5.98785">
        <ele>361.6</ele>
        <time>2022-05-15T11:56:20Z</time>
      </trkpt>
      <trkpt lat="47.02636" lon="5.9879">
        <ele>362.1</ele>
        <time>2022-05-15T11:56:24Z</time>
      </trkpt>
      <trkpt lat="47.02633" lon="5.98796">
        <ele>362.5</ele>
        <time>2022-05-15T11:56:28Z</time>
      </trkpt>
      <trkpt lat="47.02636" lon="5.98801">
        <ele>362.7</ele>
        <time>2022-05-15T11:56:40Z</time>
      </trkpt>
      <trkpt lat="47.02631" lon="5.98799">
        <ele>361.6</ele>
        <time>2022-05-15T11:56:54Z</time>
      </trkpt>
      <trkpt lat="47.02627" lon="5.98802">
        <ele>360.7</ele>
        <time>2022-05-15T11:57:10Z</time>
      </trkpt>
      <trkpt lat="47.02628" lon="5.9881">
        <ele>360.6</ele>
        <time>2022-05-15T11:57:17Z</time>
      </trkpt>
      <trkpt lat="47.0263" lon="5.98818">
        <ele>360.3</ele>
        <time>2022-05-15T11:57:21Z</time>
      </trkpt>
      <trkpt lat="47.02631" lon="5.98824">
        <ele>359.9</ele>
        <time>2022-05-15T11:57:25Z</time>
      </trkpt>
      <trkpt lat="47.02628" lon="5.98831">
        <ele>360</ele>
        <time>2022-05-15T11:57:32Z</time>
      </trkpt>
      <trkpt lat="47.02624" lon="5.98837">
        <ele>359.2</ele>
        <time>2022-05-15T11:57:36Z</time>
      </trkpt>
      <trkpt lat="47.02622" lon="5.98844">
        <ele>357.8</ele>
        <time>2022-05-15T11:57:40Z</time>
      </trkpt>
      <trkpt lat="47.02622" lon="5.98851">
        <ele>357.5</ele>
        <time>2022-05-15T11:57:46Z</time>
      </trkpt>
      <trkpt lat="47.02622" lon="5.98858">
        <ele>357.8</ele>
        <time>2022-05-15T11:57:55Z</time>
      </trkpt>
      <trkpt lat="47.02622" lon="5.98865">
        <ele>358.6</ele>
        <time>2022-05-15T11:58:02Z</time>
      </trkpt>
      <trkpt lat="47.02624" lon="5.98871">
        <ele>360.5</ele>
        <time>2022-05-15T11:58:09Z</time>
      </trkpt>
      <trkpt lat="47.02625" lon="5.98879">
        <ele>362.6</ele>
        <time>2022-05-15T11:58:16Z</time>
      </trkpt>
      <trkpt lat="47.02628" lon="5.98884">
        <ele>364.1</ele>
        <time>2022-05-15T11:58:22Z</time>
      </trkpt>
      <trkpt lat="47.02628" lon="5.98891">
        <ele>366.5</ele>
        <time>2022-05-15T11:58:32Z</time>
      </trkpt>
      <trkpt lat="47.02629" lon="5.98898">
        <ele>370.4</ele>
        <time>2022-05-15T11:58:43Z</time>
      </trkpt>
      <trkpt lat="47.02629" lon="5.98912">
        <ele>374.3</ele>
        <time>2022-05-15T11:59:01Z</time>
      </trkpt>
      <trkpt lat="47.02628" lon="5.98921">
        <ele>375.2</ele>
        <time>2022-05-15T11:59:04Z</time>
      </trkpt>
      <trkpt lat="47.02626" lon="5.98928">
        <ele>377</ele>
        <time>2022-05-15T11:59:15Z</time>
      </trkpt>
      <trkpt lat="47.02623" lon="5.98934">
        <ele>378.2</ele>
        <time>2022-05-15T11:59:23Z</time>
      </trkpt>
      <trkpt lat="47.02621" lon="5.9894">
        <ele>379.7</ele>
        <time>2022-05-15T11:59:36Z</time>
      </trkpt>
      <trkpt lat="47.02626" lon="5.98938">
        <ele>381.3</ele>
        <time>2022-05-15T12:00:10Z</time>
      </trkpt>
      <trkpt lat="47.02625" lon="5.98944">
        <ele>381.6</ele>
        <time>2022-05-15T12:00:25Z</time>
      </trkpt>
      <trkpt lat="47.0263" lon="5.98942">
        <ele>383.2</ele>
        <time>2022-05-15T12:00:39Z</time>
      </trkpt>
      <trkpt lat="47.02635" lon="5.98943">
        <ele>389</ele>
        <time>2022-05-15T12:01:16Z</time>
      </trkpt>
      <trkpt lat="47.0263" lon="5.98946">
        <ele>389</ele>
        <time>2022-05-15T12:01:21Z</time>
      </trkpt>
      <trkpt lat="47.02626" lon="5.98946">
        <ele>389.7</ele>
        <time>2022-05-15T12:01:31Z</time>
      </trkpt>
      <trkpt lat="47.02626" lon="5.98954">
        <ele>389.5</ele>
        <time>2022-05-15T12:02:20Z</time>
      </trkpt>
      <trkpt lat="47.02621" lon="5.98947">
        <ele>389.9</ele>
        <time>2022-05-15T12:02:42Z</time>
      </trkpt>
      <trkpt lat="47.0262" lon="5.98953">
        <ele>389.3</ele>
        <time>2022-05-15T12:03:21Z</time>
      </trkpt>
      <trkpt lat="47.02626" lon="5.98951">
        <ele>388.2</ele>
        <time>2022-05-15T12:03:53Z</time>
      </trkpt>
      <trkpt lat="47.0263" lon="5.98947">
        <ele>388.3</ele>
        <time>2022-05-15T12:03:58Z</time>
      </trkpt>
      <trkpt lat="47.02635" lon="5.98946">
        <ele>396.5</ele>
        <time>2022-05-15T12:06:21Z</time>
      </trkpt>
      <trkpt lat="47.02633" lon="5.98953">
        <ele>400.6</ele>
        <time>2022-05-15T12:06:45Z</time>
      </trkpt>
      <trkpt lat="47.0263" lon="5.98958">
        <ele>400.6</ele>
        <time>2022-05-15T12:06:48Z</time>
      </trkpt>
      <trkpt lat="47.02627" lon="5.98965">
        <ele>400.1</ele>
        <time>2022-05-15T12:06:52Z</time>
      </trkpt>
      <trkpt lat="47.02625" lon="5.98972">
        <ele>399.9</ele>
        <time>2022-05-15T12:06:56Z</time>
      </trkpt>
      <trkpt lat="47.02623" lon="5.98979">
        <ele>400.4</ele>
        <time>2022-05-15T12:07:06Z</time>
      </trkpt>
      <trkpt lat="47.0262" lon="5.98984">
        <ele>400.7</ele>
        <time>2022-05-15T12:07:17Z</time>
      </trkpt>
      <trkpt lat="47.02624" lon="5.98985">
        <ele>402.1</ele>
        <time>2022-05-15T12:07:31Z</time>
      </trkpt>
      <trkpt lat="47.02619" lon="5.98984">
        <ele>403.4</ele>
        <time>2022-05-15T12:07:38Z</time>
      </trkpt>
      <trkpt lat="47.02617" lon="5.98991">
        <ele>405.4</ele>
        <time>2022-05-15T12:07:53Z</time>
      </trkpt>
      <trkpt lat="47.02612" lon="5.98991">
        <ele>404.4</ele>
        <time>2022-05-15T12:07:57Z</time>
      </trkpt>
      <trkpt lat="47.02609" lon="5.98996">
        <ele>403</ele>
        <time>2022-05-15T12:08:14Z</time>
      </trkpt>
      <trkpt lat="47.02601" lon="5.99">
        <ele>401.4</ele>
        <time>2022-05-15T12:08:17Z</time>
      </trkpt>
      <trkpt lat="47.02597" lon="5.99004">
        <ele>400</ele>
        <time>2022-05-15T12:08:20Z</time>
      </trkpt>
      <trkpt lat="47.026" lon="5.98999">
        <ele>393.5</ele>
        <time>2022-05-15T12:09:04Z</time>
      </trkpt>
      <trkpt lat="47.02606" lon="5.98996">
        <ele>392.5</ele>
        <time>2022-05-15T12:09:08Z</time>
      </trkpt>
      <trkpt lat="47.02603" lon="5.99001">
        <ele>390</ele>
        <time>2022-05-15T12:09:25Z</time>
      </trkpt>
      <trkpt lat="47.02608" lon="5.99001">
        <ele>392.7</ele>
        <time>2022-05-15T12:09:34Z</time>
      </trkpt>
      <trkpt lat="47.02608" lon="5.98993">
        <ele>394.1</ele>
        <time>2022-05-15T12:10:02Z</time>
      </trkpt>
      <trkpt lat="47.02607" lon="5.98987">
        <ele>393.8</ele>
        <time>2022-05-15T12:10:05Z</time>
      </trkpt>
      <trkpt lat="47.02602" lon="5.98989">
        <ele>393.5</ele>
        <time>2022-05-15T12:10:18Z</time>
      </trkpt>
      <trkpt lat="47.02599" lon="5.98993">
        <ele>394.9</ele>
        <time>2022-05-15T12:10:25Z</time>
      </trkpt>
      <trkpt lat="47.02604" lon="5.98992">
        <ele>398.6</ele>
        <time>2022-05-15T12:10:55Z</time>
      </trkpt>
      <trkpt lat="47.02599" lon="5.98994">
        <ele>400.1</ele>
        <time>2022-05-15T12:11:27Z</time>
      </trkpt>
      <trkpt lat="47.02599" lon="5.98987">
        <ele>398.4</ele>
        <time>2022-05-15T12:13:05Z</time>
      </trkpt>
      <trkpt lat="47.02594" lon="5.98989">
        <ele>398.1</ele>
        <time>2022-05-15T12:13:16Z</time>
      </trkpt>
      <trkpt lat="47.0259" lon="5.98992">
        <ele>398.1</ele>
        <time>2022-05-15T12:13:24Z</time>
      </trkpt>
      <trkpt lat="47.02596" lon="5.98996">
        <ele>399.7</ele>
        <time>2022-05-15T12:14:07Z</time>
      </trkpt>
      <trkpt lat="47.026" lon="5.99001">
        <ele>401</ele>
        <time>2022-05-15T12:14:13Z</time>
      </trkpt>
      <trkpt lat="47.02596" lon="5.99005">
        <ele>401.6</ele>
        <time>2022-05-15T12:14:48Z</time>
      </trkpt>
      <trkpt lat="47.026" lon="5.99003">
        <ele>401.8</ele>
        <time>2022-05-15T12:14:57Z</time>
      </trkpt>
      <trkpt lat="47.02596" lon="5.99005">
        <ele>403.2</ele>
        <time>2022-05-15T12:15:19Z</time>
      </trkpt>
      <trkpt lat="47.02592" lon="5.99013">
        <ele>404.7</ele>
        <time>2022-05-15T12:15:43Z</time>
      </trkpt>
      <trkpt lat="47.02591" lon="5.9902">
        <ele>404.4</ele>
        <time>2022-05-15T12:15:46Z</time>
      </trkpt>
      <trkpt lat="47.02587" lon="5.99023">
        <ele>403.4</ele>
        <time>2022-05-15T12:15:58Z</time>
      </trkpt>
      <trkpt lat="47.02582" lon="5.99023">
        <ele>402.1</ele>
        <time>2022-05-15T12:16:17Z</time>
      </trkpt>
      <trkpt lat="47.02577" lon="5.99027">
        <ele>401.4</ele>
        <time>2022-05-15T12:16:24Z</time>
      </trkpt>
      <trkpt lat="47.02575" lon="5.99034">
        <ele>400.8</ele>
        <time>2022-05-15T12:16:31Z</time>
      </trkpt>
      <trkpt lat="47.02573" lon="5.9904">
        <ele>400.6</ele>
        <time>2022-05-15T12:16:38Z</time>
      </trkpt>
      <trkpt lat="47.02571" lon="5.99046">
        <ele>400.5</ele>
        <time>2022-05-15T12:16:44Z</time>
      </trkpt>
      <trkpt lat="47.02569" lon="5.99053">
        <ele>400.1</ele>
        <time>2022-05-15T12:16:50Z</time>
      </trkpt>
      <trkpt lat="47.02567" lon="5.99061">
        <ele>399.8</ele>
        <time>2022-05-15T12:16:56Z</time>
      </trkpt>
      <trkpt lat="47.02566" lon="5.99067">
        <ele>399.7</ele>
        <time>2022-05-15T12:16:59Z</time>
      </trkpt>
      <trkpt lat="47.02564" lon="5.99074">
        <ele>399.5</ele>
        <time>2022-05-15T12:17:04Z</time>
      </trkpt>
      <trkpt lat="47.02561" lon="5.99079">
        <ele>399.7</ele>
        <time>2022-05-15T12:17:12Z</time>
      </trkpt>
      <trkpt lat="47.02562" lon="5.99086">
        <ele>399.7</ele>
        <time>2022-05-15T12:17:21Z</time>
      </trkpt>
      <trkpt lat="47.02559" lon="5.99092">
        <ele>399.8</ele>
        <time>2022-05-15T12:17:26Z</time>
      </trkpt>
      <trkpt lat="47.02557" lon="5.991">
        <ele>399.3</ele>
        <time>2022-05-15T12:17:41Z</time>
      </trkpt>
      <trkpt lat="47.02554" lon="5.99107">
        <ele>398.6</ele>
        <time>2022-05-15T12:17:45Z</time>
      </trkpt>
      <trkpt lat="47.0255" lon="5.99113">
        <ele>397.9</ele>
        <time>2022-05-15T12:17:50Z</time>
      </trkpt>
      <trkpt lat="47.02547" lon="5.99118">
        <ele>397.3</ele>
        <time>2022-05-15T12:17:55Z</time>
      </trkpt>
      <trkpt lat="47.02545" lon="5.99125">
        <ele>396.9</ele>
        <time>2022-05-15T12:18:01Z</time>
      </trkpt>
      <trkpt lat="47.02545" lon="5.99132">
        <ele>396.7</ele>
        <time>2022-05-15T12:18:07Z</time>
      </trkpt>
      <trkpt lat="47.02546" lon="5.99138">
        <ele>396.7</ele>
        <time>2022-05-15T12:18:15Z</time>
      </trkpt>
      <trkpt lat="47.02547" lon="5.99145">
        <ele>396.3</ele>
        <time>2022-05-15T12:18:25Z</time>
      </trkpt>
      <trkpt lat="47.02543" lon="5.99152">
        <ele>396</ele>
        <time>2022-05-15T12:18:33Z</time>
      </trkpt>
      <trkpt lat="47.02539" lon="5.99157">
        <ele>395.8</ele>
        <time>2022-05-15T12:18:37Z</time>
      </trkpt>
      <trkpt lat="47.02536" lon="5.99163">
        <ele>395.6</ele>
        <time>2022-05-15T12:18:45Z</time>
      </trkpt>
      <trkpt lat="47.02533" lon="5.99169">
        <ele>395.6</ele>
        <time>2022-05-15T12:18:49Z</time>
      </trkpt>
      <trkpt lat="47.02529" lon="5.99177">
        <ele>396.1</ele>
        <time>2022-05-15T12:18:52Z</time>
      </trkpt>
      <trkpt lat="47.02528" lon="5.99184">
        <ele>396.3</ele>
        <time>2022-05-15T12:18:56Z</time>
      </trkpt>
      <trkpt lat="47.02526" lon="5.99192">
        <ele>397</ele>
        <time>2022-05-15T12:19:05Z</time>
      </trkpt>
      <trkpt lat="47.02524" lon="5.99198">
        <ele>397.7</ele>
        <time>2022-05-15T12:19:10Z</time>
      </trkpt>
      <trkpt lat="47.02522" lon="5.99205">
        <ele>398.1</ele>
        <time>2022-05-15T12:19:15Z</time>
      </trkpt>
      <trkpt lat="47.02522" lon="5.99211">
        <ele>398.4</ele>
        <time>2022-05-15T12:19:21Z</time>
      </trkpt>
      <trkpt lat="47.02519" lon="5.99218">
        <ele>398.6</ele>
        <time>2022-05-15T12:19:26Z</time>
      </trkpt>
      <trkpt lat="47.02517" lon="5.99225">
        <ele>398.6</ele>
        <time>2022-05-15T12:19:29Z</time>
      </trkpt>
      <trkpt lat="47.02515" lon="5.99231">
        <ele>398.5</ele>
        <time>2022-05-15T12:19:34Z</time>
      </trkpt>
      <trkpt lat="47.02512" lon="5.99239">
        <ele>399</ele>
        <time>2022-05-15T12:19:37Z</time>
      </trkpt>
      <trkpt lat="47.02509" lon="5.99246">
        <ele>399.6</ele>
        <time>2022-05-15T12:19:41Z</time>
      </trkpt>
      <trkpt lat="47.02506" lon="5.99252">
        <ele>400</ele>
        <time>2022-05-15T12:19:46Z</time>
      </trkpt>
      <trkpt lat="47.02502" lon="5.99257">
        <ele>400.5</ele>
        <time>2022-05-15T12:19:50Z</time>
      </trkpt>
      <trkpt lat="47.02498" lon="5.99261">
        <ele>400.8</ele>
        <time>2022-05-15T12:19:53Z</time>
      </trkpt>
      <trkpt lat="47.02495" lon="5.99267">
        <ele>401.1</ele>
        <time>2022-05-15T12:19:57Z</time>
      </trkpt>
      <trkpt lat="47.02492" lon="5.99274">
        <ele>401.8</ele>
        <time>2022-05-15T12:20:03Z</time>
      </trkpt>
      <trkpt lat="47.02491" lon="5.99281">
        <ele>402.5</ele>
        <time>2022-05-15T12:20:09Z</time>
      </trkpt>
      <trkpt lat="47.02489" lon="5.99289">
        <ele>402.8</ele>
        <time>2022-05-15T12:20:12Z</time>
      </trkpt>
      <trkpt lat="47.02487" lon="5.99295">
        <ele>402.8</ele>
        <time>2022-05-15T12:20:15Z</time>
      </trkpt>
      <trkpt lat="47.02483" lon="5.993">
        <ele>402.6</ele>
        <time>2022-05-15T12:20:19Z</time>
      </trkpt>
      <trkpt lat="47.02479" lon="5.99309">
        <ele>402.2</ele>
        <time>2022-05-15T12:20:40Z</time>
      </trkpt>
      <trkpt lat="47.02475" lon="5.99313">
        <ele>402.4</ele>
        <time>2022-05-15T12:20:43Z</time>
      </trkpt>
      <trkpt lat="47.02471" lon="5.99319">
        <ele>402.9</ele>
        <time>2022-05-15T12:20:46Z</time>
      </trkpt>
      <trkpt lat="47.02468" lon="5.99325">
        <ele>403.4</ele>
        <time>2022-05-15T12:20:49Z</time>
      </trkpt>
      <trkpt lat="47.02463" lon="5.9933">
        <ele>403.9</ele>
        <time>2022-05-15T12:20:53Z</time>
      </trkpt>
      <trkpt lat="47.0246" lon="5.99334">
        <ele>404.2</ele>
        <time>2022-05-15T12:20:57Z</time>
      </trkpt>
      <trkpt lat="47.02456" lon="5.99339">
        <ele>404.6</ele>
        <time>2022-05-15T12:21:02Z</time>
      </trkpt>
      <trkpt lat="47.02451" lon="5.99342">
        <ele>404.6</ele>
        <time>2022-05-15T12:21:09Z</time>
      </trkpt>
      <trkpt lat="47.02447" lon="5.99345">
        <ele>404.7</ele>
        <time>2022-05-15T12:21:14Z</time>
      </trkpt>
      <trkpt lat="47.02442" lon="5.99347">
        <ele>404.8</ele>
        <time>2022-05-15T12:21:20Z</time>
      </trkpt>
      <trkpt lat="47.02437" lon="5.99348">
        <ele>405.2</ele>
        <time>2022-05-15T12:21:26Z</time>
      </trkpt>
      <trkpt lat="47.02432" lon="5.9935">
        <ele>405.6</ele>
        <time>2022-05-15T12:21:31Z</time>
      </trkpt>
      <trkpt lat="47.02428" lon="5.99355">
        <ele>405.9</ele>
        <time>2022-05-15T12:21:39Z</time>
      </trkpt>
      <trkpt lat="47.02424" lon="5.99358">
        <ele>406.3</ele>
        <time>2022-05-15T12:21:52Z</time>
      </trkpt>
      <trkpt lat="47.0242" lon="5.99354">
        <ele>407.1</ele>
        <time>2022-05-15T12:21:56Z</time>
      </trkpt>
      <trkpt lat="47.02417" lon="5.99358">
        <ele>409.1</ele>
        <time>2022-05-15T12:22:02Z</time>
      </trkpt>
      <trkpt lat="47.02412" lon="5.99357">
        <ele>409.9</ele>
        <time>2022-05-15T12:22:15Z</time>
      </trkpt>
      <trkpt lat="47.02411" lon="5.9935">
        <ele>411.1</ele>
        <time>2022-05-15T12:22:29Z</time>
      </trkpt>
      <trkpt lat="47.02407" lon="5.99348">
        <ele>413.1</ele>
        <time>2022-05-15T12:22:38Z</time>
      </trkpt>
      <trkpt lat="47.02402" lon="5.99346">
        <ele>413.5</ele>
        <time>2022-05-15T12:22:44Z</time>
      </trkpt>
      <trkpt lat="47.02398" lon="5.99341">
        <ele>413.9</ele>
        <time>2022-05-15T12:22:50Z</time>
      </trkpt>
      <trkpt lat="47.02394" lon="5.99336">
        <ele>414.2</ele>
        <time>2022-05-15T12:22:56Z</time>
      </trkpt>
      <trkpt lat="47.0239" lon="5.99333">
        <ele>413.6</ele>
        <time>2022-05-15T12:23:01Z</time>
      </trkpt>
      <trkpt lat="47.02386" lon="5.9933">
        <ele>413.2</ele>
        <time>2022-05-15T12:23:06Z</time>
      </trkpt>
      <trkpt lat="47.02381" lon="5.99328">
        <ele>413.2</ele>
        <time>2022-05-15T12:23:10Z</time>
      </trkpt>
      <trkpt lat="47.02376" lon="5.99326">
        <ele>413.4</ele>
        <time>2022-05-15T12:23:15Z</time>
      </trkpt>
      <trkpt lat="47.02373" lon="5.9932">
        <ele>414</ele>
        <time>2022-05-15T12:23:22Z</time>
      </trkpt>
      <trkpt lat="47.02368" lon="5.99318">
        <ele>414.6</ele>
        <time>2022-05-15T12:23:28Z</time>
      </trkpt>
      <trkpt lat="47.02364" lon="5.99312">
        <ele>415.6</ele>
        <time>2022-05-15T12:23:35Z</time>
      </trkpt>
      <trkpt lat="47.0236" lon="5.9931">
        <ele>416.2</ele>
        <time>2022-05-15T12:23:44Z</time>
      </trkpt>
      <trkpt lat="47.02355" lon="5.99312">
        <ele>416.1</ele>
        <time>2022-05-15T12:23:50Z</time>
      </trkpt>
      <trkpt lat="47.0235" lon="5.9931">
        <ele>415.4</ele>
        <time>2022-05-15T12:23:56Z</time>
      </trkpt>
      <trkpt lat="47.02346" lon="5.99307">
        <ele>414.9</ele>
        <time>2022-05-15T12:24:01Z</time>
      </trkpt>
      <trkpt lat="47.02341" lon="5.99304">
        <ele>414.6</ele>
        <time>2022-05-15T12:24:07Z</time>
      </trkpt>
      <trkpt lat="47.02337" lon="5.99302">
        <ele>414.7</ele>
        <time>2022-05-15T12:24:12Z</time>
      </trkpt>
      <trkpt lat="47.02332" lon="5.99301">
        <ele>415.1</ele>
        <time>2022-05-15T12:24:15Z</time>
      </trkpt>
      <trkpt lat="47.02327" lon="5.99304">
        <ele>415.8</ele>
        <time>2022-05-15T12:24:19Z</time>
      </trkpt>
      <trkpt lat="47.02322" lon="5.99305">
        <ele>416.7</ele>
        <time>2022-05-15T12:24:25Z</time>
      </trkpt>
      <trkpt lat="47.02318" lon="5.99302">
        <ele>417.5</ele>
        <time>2022-05-15T12:24:31Z</time>
      </trkpt>
      <trkpt lat="47.02314" lon="5.99302">
        <ele>418</ele>
        <time>2022-05-15T12:24:36Z</time>
      </trkpt>
      <trkpt lat="47.02309" lon="5.99305">
        <ele>419</ele>
        <time>2022-05-15T12:24:41Z</time>
      </trkpt>
      <trkpt lat="47.02305" lon="5.99308">
        <ele>420</ele>
        <time>2022-05-15T12:24:46Z</time>
      </trkpt>
      <trkpt lat="47.023" lon="5.99309">
        <ele>421</ele>
        <time>2022-05-15T12:24:51Z</time>
      </trkpt>
      <trkpt lat="47.02296" lon="5.99309">
        <ele>421.1</ele>
        <time>2022-05-15T12:24:56Z</time>
      </trkpt>
      <trkpt lat="47.02291" lon="5.9931">
        <ele>421.2</ele>
        <time>2022-05-15T12:25:02Z</time>
      </trkpt>
      <trkpt lat="47.02286" lon="5.99311">
        <ele>421.3</ele>
        <time>2022-05-15T12:25:08Z</time>
      </trkpt>
      <trkpt lat="47.02282" lon="5.99309">
        <ele>421.4</ele>
        <time>2022-05-15T12:25:16Z</time>
      </trkpt>
      <trkpt lat="47.02277" lon="5.99311">
        <ele>421.1</ele>
        <time>2022-05-15T12:25:23Z</time>
      </trkpt>
      <trkpt lat="47.02271" lon="5.99312">
        <ele>421.1</ele>
        <time>2022-05-15T12:25:28Z</time>
      </trkpt>
      <trkpt lat="47.02267" lon="5.99315">
        <ele>421.2</ele>
        <time>2022-05-15T12:25:32Z</time>
      </trkpt>
      <trkpt lat="47.02263" lon="5.9932">
        <ele>421.3</ele>
        <time>2022-05-15T12:25:38Z</time>
      </trkpt>
      <trkpt lat="47.02258" lon="5.99322">
        <ele>421.9</ele>
        <time>2022-05-15T12:25:48Z</time>
      </trkpt>
      <trkpt lat="47.02255" lon="5.99329">
        <ele>422.1</ele>
        <time>2022-05-15T12:25:57Z</time>
      </trkpt>
      <trkpt lat="47.0225" lon="5.99331">
        <ele>422.4</ele>
        <time>2022-05-15T12:26:21Z</time>
      </trkpt>
      <trkpt lat="47.02246" lon="5.99333">
        <ele>422.6</ele>
        <time>2022-05-15T12:26:24Z</time>
      </trkpt>
      <trkpt lat="47.02242" lon="5.99335">
        <ele>422.8</ele>
        <time>2022-05-15T12:26:29Z</time>
      </trkpt>
      <trkpt lat="47.02238" lon="5.9934">
        <ele>423.4</ele>
        <time>2022-05-15T12:26:34Z</time>
      </trkpt>
      <trkpt lat="47.02237" lon="5.99347">
        <ele>423.7</ele>
        <time>2022-05-15T12:26:48Z</time>
      </trkpt>
      <trkpt lat="47.02232" lon="5.99347">
        <ele>423.7</ele>
        <time>2022-05-15T12:27:25Z</time>
      </trkpt>
      <trkpt lat="47.02227" lon="5.99348">
        <ele>424</ele>
        <time>2022-05-15T12:27:38Z</time>
      </trkpt>
      <trkpt lat="47.02223" lon="5.99347">
        <ele>423</ele>
        <time>2022-05-15T12:27:47Z</time>
      </trkpt>
      <trkpt lat="47.02222" lon="5.9934">
        <ele>422.2</ele>
        <time>2022-05-15T12:28:12Z</time>
      </trkpt>
      <trkpt lat="47.02219" lon="5.99335">
        <ele>423</ele>
        <time>2022-05-15T12:28:27Z</time>
      </trkpt>
      <trkpt lat="47.02215" lon="5.99332">
        <ele>423.8</ele>
        <time>2022-05-15T12:28:34Z</time>
      </trkpt>
      <trkpt lat="47.02209" lon="5.99337">
        <ele>422.8</ele>
        <time>2022-05-15T12:28:57Z</time>
      </trkpt>
      <trkpt lat="47.02204" lon="5.99337">
        <ele>422.7</ele>
        <time>2022-05-15T12:29:00Z</time>
      </trkpt>
      <trkpt lat="47.02198" lon="5.99337">
        <ele>422.3</ele>
        <time>2022-05-15T12:29:07Z</time>
      </trkpt>
      <trkpt lat="47.02193" lon="5.9934">
        <ele>422.1</ele>
        <time>2022-05-15T12:29:10Z</time>
      </trkpt>
      <trkpt lat="47.02189" lon="5.99344">
        <ele>421.7</ele>
        <time>2022-05-15T12:29:14Z</time>
      </trkpt>
      <trkpt lat="47.02184" lon="5.99345">
        <ele>421.7</ele>
        <time>2022-05-15T12:29:21Z</time>
      </trkpt>
      <trkpt lat="47.0218" lon="5.99348">
        <ele>422.3</ele>
        <time>2022-05-15T12:29:27Z</time>
      </trkpt>
      <trkpt lat="47.02178" lon="5.99355">
        <ele>422.8</ele>
        <time>2022-05-15T12:29:33Z</time>
      </trkpt>
      <trkpt lat="47.02175" lon="5.9936">
        <ele>423.3</ele>
        <time>2022-05-15T12:29:37Z</time>
      </trkpt>
      <trkpt lat="47.02172" lon="5.99366">
        <ele>424.3</ele>
        <time>2022-05-15T12:29:44Z</time>
      </trkpt>
      <trkpt lat="47.02167" lon="5.99367">
        <ele>425.2</ele>
        <time>2022-05-15T12:29:56Z</time>
      </trkpt>
      <trkpt lat="47.02167" lon="5.99374">
        <ele>425</ele>
        <time>2022-05-15T12:30:05Z</time>
      </trkpt>
      <trkpt lat="47.02166" lon="5.99368">
        <ele>427.2</ele>
        <time>2022-05-15T12:30:25Z</time>
      </trkpt>
      <trkpt lat="47.02164" lon="5.99362">
        <ele>426.2</ele>
        <time>2022-05-15T12:30:37Z</time>
      </trkpt>
      <trkpt lat="47.02159" lon="5.99362">
        <ele>425.6</ele>
        <time>2022-05-15T12:30:41Z</time>
      </trkpt>
      <trkpt lat="47.02156" lon="5.99367">
        <ele>424.9</ele>
        <time>2022-05-15T12:30:45Z</time>
      </trkpt>
      <trkpt lat="47.02151" lon="5.99368">
        <ele>424</ele>
        <time>2022-05-15T12:30:57Z</time>
      </trkpt>
      <trkpt lat="47.02147" lon="5.99369">
        <ele>423.8</ele>
        <time>2022-05-15T12:31:07Z</time>
      </trkpt>
      <trkpt lat="47.02142" lon="5.99371">
        <ele>424.3</ele>
        <time>2022-05-15T12:31:11Z</time>
      </trkpt>
      <trkpt lat="47.02137" lon="5.99376">
        <ele>424.7</ele>
        <time>2022-05-15T12:31:16Z</time>
      </trkpt>
      <trkpt lat="47.02136" lon="5.99382">
        <ele>424.4</ele>
        <time>2022-05-15T12:31:21Z</time>
      </trkpt>
      <trkpt lat="47.02132" lon="5.99387">
        <ele>423.9</ele>
        <time>2022-05-15T12:31:29Z</time>
      </trkpt>
      <trkpt lat="47.02127" lon="5.99387">
        <ele>424</ele>
        <time>2022-05-15T12:31:36Z</time>
      </trkpt>
      <trkpt lat="47.02123" lon="5.99387">
        <ele>426.8</ele>
        <time>2022-05-15T12:31:46Z</time>
      </trkpt>
      <trkpt lat="47.02118" lon="5.99388">
        <ele>427.9</ele>
        <time>2022-05-15T12:31:53Z</time>
      </trkpt>
      <trkpt lat="47.02113" lon="5.99387">
        <ele>427.9</ele>
        <time>2022-05-15T12:31:57Z</time>
      </trkpt>
      <trkpt lat="47.02108" lon="5.99385">
        <ele>428.1</ele>
        <time>2022-05-15T12:32:02Z</time>
      </trkpt>
      <trkpt lat="47.02103" lon="5.99386">
        <ele>429</ele>
        <time>2022-05-15T12:32:07Z</time>
      </trkpt>
      <trkpt lat="47.02099" lon="5.99386">
        <ele>430.3</ele>
        <time>2022-05-15T12:32:12Z</time>
      </trkpt>
      <trkpt lat="47.02094" lon="5.99386">
        <ele>432.5</ele>
        <time>2022-05-15T12:32:33Z</time>
      </trkpt>
      <trkpt lat="47.02089" lon="5.99387">
        <ele>432.2</ele>
        <time>2022-05-15T12:32:49Z</time>
      </trkpt>
      <trkpt lat="47.02084" lon="5.99386">
        <ele>432.2</ele>
        <time>2022-05-15T12:32:54Z</time>
      </trkpt>
      <trkpt lat="47.0208" lon="5.99384">
        <ele>432.7</ele>
        <time>2022-05-15T12:33:01Z</time>
      </trkpt>
      <trkpt lat="47.02075" lon="5.99383">
        <ele>432.5</ele>
        <time>2022-05-15T12:33:07Z</time>
      </trkpt>
      <trkpt lat="47.0208" lon="5.99383">
        <ele>430.4</ele>
        <time>2022-05-15T12:33:16Z</time>
      </trkpt>
      <trkpt lat="47.02076" lon="5.9938">
        <ele>428</ele>
        <time>2022-05-15T12:33:26Z</time>
      </trkpt>
      <trkpt lat="47.02072" lon="5.99377">
        <ele>425.9</ele>
        <time>2022-05-15T12:33:51Z</time>
      </trkpt>
      <trkpt lat="47.02067" lon="5.99375">
        <ele>424.1</ele>
        <time>2022-05-15T12:34:00Z</time>
      </trkpt>
      <trkpt lat="47.02062" lon="5.99372">
        <ele>423.9</ele>
        <time>2022-05-15T12:34:04Z</time>
      </trkpt>
      <trkpt lat="47.02056" lon="5.99372">
        <ele>424</ele>
        <time>2022-05-15T12:34:10Z</time>
      </trkpt>
      <trkpt lat="47.02052" lon="5.99369">
        <ele>424.3</ele>
        <time>2022-05-15T12:34:14Z</time>
      </trkpt>
      <trkpt lat="47.02047" lon="5.99368">
        <ele>424.6</ele>
        <time>2022-05-15T12:34:20Z</time>
      </trkpt>
      <trkpt lat="47.02043" lon="5.99366">
        <ele>424.6</ele>
        <time>2022-05-15T12:34:27Z</time>
      </trkpt>
      <trkpt lat="47.02038" lon="5.99365">
        <ele>424.8</ele>
        <time>2022-05-15T12:34:33Z</time>
      </trkpt>
      <trkpt lat="47.02033" lon="5.99367">
        <ele>425.6</ele>
        <time>2022-05-15T12:34:39Z</time>
      </trkpt>
      <trkpt lat="47.0203" lon="5.99372">
        <ele>426.1</ele>
        <time>2022-05-15T12:34:46Z</time>
      </trkpt>
      <trkpt lat="47.02025" lon="5.99374">
        <ele>426.8</ele>
        <time>2022-05-15T12:34:51Z</time>
      </trkpt>
      <trkpt lat="47.0202" lon="5.99372">
        <ele>428.5</ele>
        <time>2022-05-15T12:34:56Z</time>
      </trkpt>
      <trkpt lat="47.02016" lon="5.99369">
        <ele>430.4</ele>
        <time>2022-05-15T12:35:05Z</time>
      </trkpt>
      <trkpt lat="47.02011" lon="5.99364">
        <ele>429.8</ele>
        <time>2022-05-15T12:35:17Z</time>
      </trkpt>
      <trkpt lat="47.02007" lon="5.99362">
        <ele>429.4</ele>
        <time>2022-05-15T12:35:23Z</time>
      </trkpt>
      <trkpt lat="47.02001" lon="5.99363">
        <ele>429.1</ele>
        <time>2022-05-15T12:35:45Z</time>
      </trkpt>
      <trkpt lat="47.01996" lon="5.99362">
        <ele>428.3</ele>
        <time>2022-05-15T12:35:50Z</time>
      </trkpt>
      <trkpt lat="47.01993" lon="5.99356">
        <ele>427.3</ele>
        <time>2022-05-15T12:35:58Z</time>
      </trkpt>
      <trkpt lat="47.01987" lon="5.99354">
        <ele>427.5</ele>
        <time>2022-05-15T12:36:04Z</time>
      </trkpt>
      <trkpt lat="47.01983" lon="5.99351">
        <ele>427.4</ele>
        <time>2022-05-15T12:36:12Z</time>
      </trkpt>
      <trkpt lat="47.01978" lon="5.99347">
        <ele>427.3</ele>
        <time>2022-05-15T12:36:17Z</time>
      </trkpt>
      <trkpt lat="47.01973" lon="5.99345">
        <ele>427.8</ele>
        <time>2022-05-15T12:36:21Z</time>
      </trkpt>
      <trkpt lat="47.01969" lon="5.99346">
        <ele>429.5</ele>
        <time>2022-05-15T12:36:27Z</time>
      </trkpt>
      <trkpt lat="47.01964" lon="5.99344">
        <ele>430.6</ele>
        <time>2022-05-15T12:36:32Z</time>
      </trkpt>
      <trkpt lat="47.0196" lon="5.9934">
        <ele>430.4</ele>
        <time>2022-05-15T12:36:40Z</time>
      </trkpt>
      <trkpt lat="47.01955" lon="5.99336">
        <ele>430.2</ele>
        <time>2022-05-15T12:36:44Z</time>
      </trkpt>
      <trkpt lat="47.0195" lon="5.99334">
        <ele>430</ele>
        <time>2022-05-15T12:36:48Z</time>
      </trkpt>
      <trkpt lat="47.01945" lon="5.99334">
        <ele>430.2</ele>
        <time>2022-05-15T12:36:54Z</time>
      </trkpt>
      <trkpt lat="47.0194" lon="5.99334">
        <ele>432.2</ele>
        <time>2022-05-15T12:37:02Z</time>
      </trkpt>
      <trkpt lat="47.01937" lon="5.99338">
        <ele>433.7</ele>
        <time>2022-05-15T12:37:10Z</time>
      </trkpt>
      <trkpt lat="47.01932" lon="5.99339">
        <ele>435</ele>
        <time>2022-05-15T12:37:18Z</time>
      </trkpt>
      <trkpt lat="47.01927" lon="5.99339">
        <ele>435.6</ele>
        <time>2022-05-15T12:37:25Z</time>
      </trkpt>
      <trkpt lat="47.01922" lon="5.9934">
        <ele>435.9</ele>
        <time>2022-05-15T12:37:31Z</time>
      </trkpt>
      <trkpt lat="47.01919" lon="5.99335">
        <ele>436.6</ele>
        <time>2022-05-15T12:37:42Z</time>
      </trkpt>
      <trkpt lat="47.01922" lon="5.9934">
        <ele>437.2</ele>
        <time>2022-05-15T12:39:08Z</time>
      </trkpt>
      <trkpt lat="47.01917" lon="5.99338">
        <ele>435.7</ele>
        <time>2022-05-15T12:39:30Z</time>
      </trkpt>
      <trkpt lat="47.01912" lon="5.99339">
        <ele>435</ele>
        <time>2022-05-15T12:39:35Z</time>
      </trkpt>
      <trkpt lat="47.01908" lon="5.99337">
        <ele>434.2</ele>
        <time>2022-05-15T12:39:42Z</time>
      </trkpt>
      <trkpt lat="47.01904" lon="5.99336">
        <ele>432.2</ele>
        <time>2022-05-15T12:40:04Z</time>
      </trkpt>
      <trkpt lat="47.0191" lon="5.99339">
        <ele>434.5</ele>
        <time>2022-05-15T12:40:43Z</time>
      </trkpt>
      <trkpt lat="47.01915" lon="5.99339">
        <ele>433.3</ele>
        <time>2022-05-15T12:40:57Z</time>
      </trkpt>
      <trkpt lat="47.01916" lon="5.99345">
        <ele>432.4</ele>
        <time>2022-05-15T12:41:20Z</time>
      </trkpt>
      <trkpt lat="47.01912" lon="5.99344">
        <ele>436.2</ele>
        <time>2022-05-15T12:43:26Z</time>
      </trkpt>
      <trkpt lat="47.01908" lon="5.99349">
        <ele>436.7</ele>
        <time>2022-05-15T12:43:44Z</time>
      </trkpt>
      <trkpt lat="47.01903" lon="5.99351">
        <ele>437.1</ele>
        <time>2022-05-15T12:43:50Z</time>
      </trkpt>
      <trkpt lat="47.019" lon="5.99356">
        <ele>437.2</ele>
        <time>2022-05-15T12:43:59Z</time>
      </trkpt>
      <trkpt lat="47.01896" lon="5.9936">
        <ele>437.1</ele>
        <time>2022-05-15T12:44:04Z</time>
      </trkpt>
      <trkpt lat="47.01893" lon="5.99366">
        <ele>437.4</ele>
        <time>2022-05-15T12:44:10Z</time>
      </trkpt>
      <trkpt lat="47.01891" lon="5.99373">
        <ele>438.3</ele>
        <time>2022-05-15T12:44:17Z</time>
      </trkpt>
      <trkpt lat="47.0189" lon="5.99379">
        <ele>438.8</ele>
        <time>2022-05-15T12:44:23Z</time>
      </trkpt>
      <trkpt lat="47.01887" lon="5.99385">
        <ele>438.8</ele>
        <time>2022-05-15T12:44:28Z</time>
      </trkpt>
      <trkpt lat="47.01883" lon="5.9939">
        <ele>438</ele>
        <time>2022-05-15T12:44:35Z</time>
      </trkpt>
      <trkpt lat="47.01879" lon="5.99395">
        <ele>437.2</ele>
        <time>2022-05-15T12:44:40Z</time>
      </trkpt>
      <trkpt lat="47.01876" lon="5.994">
        <ele>436.4</ele>
        <time>2022-05-15T12:44:46Z</time>
      </trkpt>
      <trkpt lat="47.01873" lon="5.99405">
        <ele>435.7</ele>
        <time>2022-05-15T12:44:52Z</time>
      </trkpt>
      <trkpt lat="47.01872" lon="5.99412">
        <ele>436</ele>
        <time>2022-05-15T12:45:01Z</time>
      </trkpt>
      <trkpt lat="47.0187" lon="5.99419">
        <ele>437.2</ele>
        <time>2022-05-15T12:45:06Z</time>
      </trkpt>
      <trkpt lat="47.0187" lon="5.99426">
        <ele>438.8</ele>
        <time>2022-05-15T12:45:12Z</time>
      </trkpt>
      <trkpt lat="47.01867" lon="5.99432">
        <ele>439.6</ele>
        <time>2022-05-15T12:45:18Z</time>
      </trkpt>
      <trkpt lat="47.01863" lon="5.99437">
        <ele>440.2</ele>
        <time>2022-05-15T12:45:23Z</time>
      </trkpt>
      <trkpt lat="47.01859" lon="5.99441">
        <ele>440.8</ele>
        <time>2022-05-15T12:45:28Z</time>
      </trkpt>
      <trkpt lat="47.01856" lon="5.99447">
        <ele>441.3</ele>
        <time>2022-05-15T12:45:34Z</time>
      </trkpt>
      <trkpt lat="47.01854" lon="5.99453">
        <ele>441.6</ele>
        <time>2022-05-15T12:45:39Z</time>
      </trkpt>
      <trkpt lat="47.01851" lon="5.9946">
        <ele>441.5</ele>
        <time>2022-05-15T12:45:44Z</time>
      </trkpt>
      <trkpt lat="47.01847" lon="5.99464">
        <ele>441.7</ele>
        <time>2022-05-15T12:45:51Z</time>
      </trkpt>
      <trkpt lat="47.01844" lon="5.99469">
        <ele>441.5</ele>
        <time>2022-05-15T12:46:01Z</time>
      </trkpt>
      <trkpt lat="47.01841" lon="5.99475">
        <ele>440.2</ele>
        <time>2022-05-15T12:46:10Z</time>
      </trkpt>
      <trkpt lat="47.01838" lon="5.99481">
        <ele>439.6</ele>
        <time>2022-05-15T12:46:15Z</time>
      </trkpt>
      <trkpt lat="47.01836" lon="5.99487">
        <ele>439.7</ele>
        <time>2022-05-15T12:46:19Z</time>
      </trkpt>
      <trkpt lat="47.01833" lon="5.99492">
        <ele>440.1</ele>
        <time>2022-05-15T12:46:23Z</time>
      </trkpt>
      <trkpt lat="47.0183" lon="5.99497">
        <ele>440.6</ele>
        <time>2022-05-15T12:46:29Z</time>
      </trkpt>
      <trkpt lat="47.01828" lon="5.99503">
        <ele>441.4</ele>
        <time>2022-05-15T12:46:33Z</time>
      </trkpt>
      <trkpt lat="47.01826" lon="5.9951">
        <ele>442.3</ele>
        <time>2022-05-15T12:46:37Z</time>
      </trkpt>
      <trkpt lat="47.01824" lon="5.99517">
        <ele>443.3</ele>
        <time>2022-05-15T12:46:41Z</time>
      </trkpt>
      <trkpt lat="47.01821" lon="5.99523">
        <ele>444.6</ele>
        <time>2022-05-15T12:46:45Z</time>
      </trkpt>
      <trkpt lat="47.01819" lon="5.9953">
        <ele>446.4</ele>
        <time>2022-05-15T12:46:50Z</time>
      </trkpt>
      <trkpt lat="47.01817" lon="5.99537">
        <ele>448.2</ele>
        <time>2022-05-15T12:46:56Z</time>
      </trkpt>
      <trkpt lat="47.01814" lon="5.99543">
        <ele>449.2</ele>
        <time>2022-05-15T12:47:01Z</time>
      </trkpt>
      <trkpt lat="47.01812" lon="5.99549">
        <ele>450.1</ele>
        <time>2022-05-15T12:47:06Z</time>
      </trkpt>
      <trkpt lat="47.01811" lon="5.99556">
        <ele>450.8</ele>
        <time>2022-05-15T12:47:12Z</time>
      </trkpt>
      <trkpt lat="47.01807" lon="5.9956">
        <ele>451</ele>
        <time>2022-05-15T12:47:19Z</time>
      </trkpt>
      <trkpt lat="47.01803" lon="5.99564">
        <ele>451.1</ele>
        <time>2022-05-15T12:47:24Z</time>
      </trkpt>
      <trkpt lat="47.01799" lon="5.9957">
        <ele>451.6</ele>
        <time>2022-05-15T12:47:29Z</time>
      </trkpt>
      <trkpt lat="47.01797" lon="5.99577">
        <ele>452.8</ele>
        <time>2022-05-15T12:47:35Z</time>
      </trkpt>
      <trkpt lat="47.01794" lon="5.99582">
        <ele>453.6</ele>
        <time>2022-05-15T12:47:40Z</time>
      </trkpt>
      <trkpt lat="47.0179" lon="5.99587">
        <ele>454.2</ele>
        <time>2022-05-15T12:47:45Z</time>
      </trkpt>
      <trkpt lat="47.01786" lon="5.99592">
        <ele>454.9</ele>
        <time>2022-05-15T12:47:51Z</time>
      </trkpt>
      <trkpt lat="47.01783" lon="5.99597">
        <ele>455.6</ele>
        <time>2022-05-15T12:47:57Z</time>
      </trkpt>
      <trkpt lat="47.0178" lon="5.99603">
        <ele>455.9</ele>
        <time>2022-05-15T12:48:01Z</time>
      </trkpt>
      <trkpt lat="47.01776" lon="5.99609">
        <ele>456.4</ele>
        <time>2022-05-15T12:48:06Z</time>
      </trkpt>
      <trkpt lat="47.01773" lon="5.99613">
        <ele>456.9</ele>
        <time>2022-05-15T12:48:10Z</time>
      </trkpt>
      <trkpt lat="47.0177" lon="5.9962">
        <ele>456.8</ele>
        <time>2022-05-15T12:48:16Z</time>
      </trkpt>
      <trkpt lat="47.01769" lon="5.99626">
        <ele>456.6</ele>
        <time>2022-05-15T12:48:24Z</time>
      </trkpt>
      <trkpt lat="47.01766" lon="5.99631">
        <ele>456.5</ele>
        <time>2022-05-15T12:48:29Z</time>
      </trkpt>
      <trkpt lat="47.01763" lon="5.99637">
        <ele>455</ele>
        <time>2022-05-15T12:48:38Z</time>
      </trkpt>
      <trkpt lat="47.01761" lon="5.99644">
        <ele>454.4</ele>
        <time>2022-05-15T12:48:43Z</time>
      </trkpt>
      <trkpt lat="47.01759" lon="5.9965">
        <ele>453.7</ele>
        <time>2022-05-15T12:48:49Z</time>
      </trkpt>
      <trkpt lat="47.01757" lon="5.99657">
        <ele>452.8</ele>
        <time>2022-05-15T12:48:54Z</time>
      </trkpt>
      <trkpt lat="47.01754" lon="5.99663">
        <ele>451.6</ele>
        <time>2022-05-15T12:49:00Z</time>
      </trkpt>
      <trkpt lat="47.0175" lon="5.99669">
        <ele>450.8</ele>
        <time>2022-05-15T12:49:05Z</time>
      </trkpt>
      <trkpt lat="47.01747" lon="5.99675">
        <ele>450.6</ele>
        <time>2022-05-15T12:49:09Z</time>
      </trkpt>
      <trkpt lat="47.01744" lon="5.99681">
        <ele>450.7</ele>
        <time>2022-05-15T12:49:14Z</time>
      </trkpt>
      <trkpt lat="47.0174" lon="5.99685">
        <ele>450.6</ele>
        <time>2022-05-15T12:49:19Z</time>
      </trkpt>
      <trkpt lat="47.01737" lon="5.9969">
        <ele>450.3</ele>
        <time>2022-05-15T12:49:25Z</time>
      </trkpt>
      <trkpt lat="47.01733" lon="5.99695">
        <ele>451.1</ele>
        <time>2022-05-15T12:49:32Z</time>
      </trkpt>
      <trkpt lat="47.0173" lon="5.99699">
        <ele>451.9</ele>
        <time>2022-05-15T12:49:37Z</time>
      </trkpt>
      <trkpt lat="47.01726" lon="5.99703">
        <ele>452.8</ele>
        <time>2022-05-15T12:49:41Z</time>
      </trkpt>
      <trkpt lat="47.01722" lon="5.99708">
        <ele>453.8</ele>
        <time>2022-05-15T12:49:46Z</time>
      </trkpt>
      <trkpt lat="47.0172" lon="5.99714">
        <ele>453.9</ele>
        <time>2022-05-15T12:49:50Z</time>
      </trkpt>
      <trkpt lat="47.01717" lon="5.99721">
        <ele>454.1</ele>
        <time>2022-05-15T12:49:55Z</time>
      </trkpt>
      <trkpt lat="47.01714" lon="5.99727">
        <ele>454.3</ele>
        <time>2022-05-15T12:50:01Z</time>
      </trkpt>
      <trkpt lat="47.01711" lon="5.99732">
        <ele>455.2</ele>
        <time>2022-05-15T12:50:06Z</time>
      </trkpt>
      <trkpt lat="47.01708" lon="5.99738">
        <ele>456.4</ele>
        <time>2022-05-15T12:50:11Z</time>
      </trkpt>
      <trkpt lat="47.01706" lon="5.99744">
        <ele>456.9</ele>
        <time>2022-05-15T12:50:16Z</time>
      </trkpt>
      <trkpt lat="47.01701" lon="5.99748">
        <ele>457.4</ele>
        <time>2022-05-15T12:50:21Z</time>
      </trkpt>
      <trkpt lat="47.01699" lon="5.99754">
        <ele>458.4</ele>
        <time>2022-05-15T12:50:27Z</time>
      </trkpt>
      <trkpt lat="47.01696" lon="5.9976">
        <ele>459.1</ele>
        <time>2022-05-15T12:50:32Z</time>
      </trkpt>
      <trkpt lat="47.01692" lon="5.99766">
        <ele>459.7</ele>
        <time>2022-05-15T12:50:37Z</time>
      </trkpt>
      <trkpt lat="47.0169" lon="5.99772">
        <ele>460.2</ele>
        <time>2022-05-15T12:50:41Z</time>
      </trkpt>
      <trkpt lat="47.01685" lon="5.99777">
        <ele>461.2</ele>
        <time>2022-05-15T12:50:47Z</time>
      </trkpt>
      <trkpt lat="47.01682" lon="5.99782">
        <ele>461.5</ele>
        <time>2022-05-15T12:50:52Z</time>
      </trkpt>
      <trkpt lat="47.01678" lon="5.99788">
        <ele>462.1</ele>
        <time>2022-05-15T12:50:58Z</time>
      </trkpt>
      <trkpt lat="47.01675" lon="5.99793">
        <ele>462.6</ele>
        <time>2022-05-15T12:51:03Z</time>
      </trkpt>
      <trkpt lat="47.01671" lon="5.99799">
        <ele>463.8</ele>
        <time>2022-05-15T12:51:08Z</time>
      </trkpt>
      <trkpt lat="47.01667" lon="5.99802">
        <ele>464.9</ele>
        <time>2022-05-15T12:51:12Z</time>
      </trkpt>
      <trkpt lat="47.01663" lon="5.99805">
        <ele>466.3</ele>
        <time>2022-05-15T12:51:17Z</time>
      </trkpt>
      <trkpt lat="47.0166" lon="5.99811">
        <ele>467.9</ele>
        <time>2022-05-15T12:51:26Z</time>
      </trkpt>
      <trkpt lat="47.01656" lon="5.99816">
        <ele>468.2</ele>
        <time>2022-05-15T12:51:30Z</time>
      </trkpt>
      <trkpt lat="47.01653" lon="5.99821">
        <ele>468.6</ele>
        <time>2022-05-15T12:51:34Z</time>
      </trkpt>
      <trkpt lat="47.0165" lon="5.99826">
        <ele>468.9</ele>
        <time>2022-05-15T12:51:39Z</time>
      </trkpt>
      <trkpt lat="47.01646" lon="5.99831">
        <ele>469.1</ele>
        <time>2022-05-15T12:51:44Z</time>
      </trkpt>
      <trkpt lat="47.01643" lon="5.99836">
        <ele>468.7</ele>
        <time>2022-05-15T12:51:49Z</time>
      </trkpt>
      <trkpt lat="47.0164" lon="5.99841">
        <ele>468</ele>
        <time>2022-05-15T12:51:54Z</time>
      </trkpt>
      <trkpt lat="47.01636" lon="5.99846">
        <ele>466.7</ele>
        <time>2022-05-15T12:51:59Z</time>
      </trkpt>
      <trkpt lat="47.01632" lon="5.99848">
        <ele>465.9</ele>
        <time>2022-05-15T12:52:06Z</time>
      </trkpt>
      <trkpt lat="47.01627" lon="5.9985">
        <ele>465.3</ele>
        <time>2022-05-15T12:52:11Z</time>
      </trkpt>
      <trkpt lat="47.01623" lon="5.99855">
        <ele>464.1</ele>
        <time>2022-05-15T12:52:17Z</time>
      </trkpt>
      <trkpt lat="47.01618" lon="5.99858">
        <ele>463.6</ele>
        <time>2022-05-15T12:52:22Z</time>
      </trkpt>
      <trkpt lat="47.01614" lon="5.99861">
        <ele>464.9</ele>
        <time>2022-05-15T12:52:28Z</time>
      </trkpt>
      <trkpt lat="47.01609" lon="5.99864">
        <ele>466.1</ele>
        <time>2022-05-15T12:52:32Z</time>
      </trkpt>
      <trkpt lat="47.01604" lon="5.99866">
        <ele>466.8</ele>
        <time>2022-05-15T12:52:35Z</time>
      </trkpt>
      <trkpt lat="47.016" lon="5.99869">
        <ele>467.2</ele>
        <time>2022-05-15T12:52:38Z</time>
      </trkpt>
      <trkpt lat="47.01596" lon="5.99875">
        <ele>467.8</ele>
        <time>2022-05-15T12:52:41Z</time>
      </trkpt>
      <trkpt lat="47.01601" lon="5.99872">
        <ele>470</ele>
        <time>2022-05-15T12:52:46Z</time>
      </trkpt>
      <trkpt lat="47.01598" lon="5.9988">
        <ele>472.7</ele>
        <time>2022-05-15T12:52:52Z</time>
      </trkpt>
      <trkpt lat="47.01594" lon="5.99888">
        <ele>473.7</ele>
        <time>2022-05-15T12:52:55Z</time>
      </trkpt>
      <trkpt lat="47.0159" lon="5.99896">
        <ele>473.9</ele>
        <time>2022-05-15T12:52:58Z</time>
      </trkpt>
      <trkpt lat="47.01587" lon="5.99902">
        <ele>473.2</ele>
        <time>2022-05-15T12:53:01Z</time>
      </trkpt>
      <trkpt lat="47.01583" lon="5.99907">
        <ele>473</ele>
        <time>2022-05-15T12:53:05Z</time>
      </trkpt>
      <trkpt lat="47.01581" lon="5.99913">
        <ele>470.8</ele>
        <time>2022-05-15T12:53:13Z</time>
      </trkpt>
      <trkpt lat="47.01578" lon="5.99919">
        <ele>468.7</ele>
        <time>2022-05-15T12:53:19Z</time>
      </trkpt>
      <trkpt lat="47.01575" lon="5.99926">
        <ele>467.4</ele>
        <time>2022-05-15T12:53:25Z</time>
      </trkpt>
      <trkpt lat="47.01574" lon="5.99933">
        <ele>466</ele>
        <time>2022-05-15T12:53:31Z</time>
      </trkpt>
      <trkpt lat="47.01569" lon="5.99936">
        <ele>465.5</ele>
        <time>2022-05-15T12:53:36Z</time>
      </trkpt>
      <trkpt lat="47.01566" lon="5.99941">
        <ele>464.7</ele>
        <time>2022-05-15T12:53:41Z</time>
      </trkpt>
      <trkpt lat="47.01563" lon="5.99946">
        <ele>464.1</ele>
        <time>2022-05-15T12:53:46Z</time>
      </trkpt>
      <trkpt lat="47.01564" lon="5.99952">
        <ele>463.9</ele>
        <time>2022-05-15T12:54:08Z</time>
      </trkpt>
      <trkpt lat="47.01561" lon="5.99946">
        <ele>465.4</ele>
        <time>2022-05-15T12:54:29Z</time>
      </trkpt>
      <trkpt lat="47.01563" lon="5.99953">
        <ele>464.7</ele>
        <time>2022-05-15T12:55:49Z</time>
      </trkpt>
      <trkpt lat="47.01568" lon="5.99952">
        <ele>464.3</ele>
        <time>2022-05-15T12:56:15Z</time>
      </trkpt>
      <trkpt lat="47.01572" lon="5.99948">
        <ele>466.2</ele>
        <time>2022-05-15T12:57:21Z</time>
      </trkpt>
      <trkpt lat="47.0157" lon="5.99954">
        <ele>464.6</ele>
        <time>2022-05-15T12:57:43Z</time>
      </trkpt>
      <trkpt lat="47.01565" lon="5.99953">
        <ele>460.5</ele>
        <time>2022-05-15T12:58:33Z</time>
      </trkpt>
      <trkpt lat="47.01561" lon="5.99949">
        <ele>460.9</ele>
        <time>2022-05-15T12:59:00Z</time>
      </trkpt>
      <trkpt lat="47.01564" lon="5.99955">
        <ele>462.6</ele>
        <time>2022-05-15T13:01:00Z</time>
      </trkpt>
      <trkpt lat="47.01561" lon="5.9996">
        <ele>461.4</ele>
        <time>2022-05-15T13:01:27Z</time>
      </trkpt>
      <trkpt lat="47.01558" lon="5.99965">
        <ele>460.3</ele>
        <time>2022-05-15T13:01:37Z</time>
      </trkpt>
      <trkpt lat="47.01555" lon="5.99971">
        <ele>460.4</ele>
        <time>2022-05-15T13:01:43Z</time>
      </trkpt>
      <trkpt lat="47.01551" lon="5.99975">
        <ele>461</ele>
        <time>2022-05-15T13:01:50Z</time>
      </trkpt>
      <trkpt lat="47.01547" lon="5.99979">
        <ele>460.7</ele>
        <time>2022-05-15T13:01:54Z</time>
      </trkpt>
      <trkpt lat="47.01544" lon="5.99983">
        <ele>460.6</ele>
        <time>2022-05-15T13:01:58Z</time>
      </trkpt>
      <trkpt lat="47.01541" lon="5.99989">
        <ele>460.6</ele>
        <time>2022-05-15T13:02:03Z</time>
      </trkpt>
      <trkpt lat="47.01538" lon="5.99995">
        <ele>461.3</ele>
        <time>2022-05-15T13:02:07Z</time>
      </trkpt>
      <trkpt lat="47.01533" lon="5.99999">
        <ele>462.9</ele>
        <time>2022-05-15T13:02:12Z</time>
      </trkpt>
      <trkpt lat="47.0153" lon="6.00004">
        <ele>465.2</ele>
        <time>2022-05-15T13:02:17Z</time>
      </trkpt>
      <trkpt lat="47.01526" lon="6.00009">
        <ele>468.5</ele>
        <time>2022-05-15T13:02:24Z</time>
      </trkpt>
      <trkpt lat="47.01523" lon="6.00014">
        <ele>470.8</ele>
        <time>2022-05-15T13:02:29Z</time>
      </trkpt>
      <trkpt lat="47.01519" lon="6.00019">
        <ele>471.7</ele>
        <time>2022-05-15T13:02:35Z</time>
      </trkpt>
      <trkpt lat="47.01516" lon="6.00026">
        <ele>471.3</ele>
        <time>2022-05-15T13:02:39Z</time>
      </trkpt>
      <trkpt lat="47.01514" lon="6.00032">
        <ele>471</ele>
        <time>2022-05-15T13:02:43Z</time>
      </trkpt>
      <trkpt lat="47.01511" lon="6.00038">
        <ele>470.9</ele>
        <time>2022-05-15T13:02:48Z</time>
      </trkpt>
      <trkpt lat="47.01508" lon="6.00045">
        <ele>470.6</ele>
        <time>2022-05-15T13:02:54Z</time>
      </trkpt>
      <trkpt lat="47.01508" lon="6.00052">
        <ele>470.2</ele>
        <time>2022-05-15T13:02:59Z</time>
      </trkpt>
      <trkpt lat="47.01507" lon="6.0006">
        <ele>470.1</ele>
        <time>2022-05-15T13:03:04Z</time>
      </trkpt>
      <trkpt lat="47.01507" lon="6.00067">
        <ele>470.5</ele>
        <time>2022-05-15T13:03:09Z</time>
      </trkpt>
      <trkpt lat="47.01504" lon="6.00074">
        <ele>470.9</ele>
        <time>2022-05-15T13:03:14Z</time>
      </trkpt>
      <trkpt lat="47.01502" lon="6.00081">
        <ele>471.4</ele>
        <time>2022-05-15T13:03:19Z</time>
      </trkpt>
      <trkpt lat="47.01499" lon="6.00087">
        <ele>471.5</ele>
        <time>2022-05-15T13:03:23Z</time>
      </trkpt>
      <trkpt lat="47.01497" lon="6.00093">
        <ele>471.7</ele>
        <time>2022-05-15T13:03:29Z</time>
      </trkpt>
      <trkpt lat="47.01493" lon="6.00099">
        <ele>471.6</ele>
        <time>2022-05-15T13:03:35Z</time>
      </trkpt>
      <trkpt lat="47.0149" lon="6.00105">
        <ele>471.1</ele>
        <time>2022-05-15T13:03:41Z</time>
      </trkpt>
      <trkpt lat="47.01488" lon="6.00111">
        <ele>471.3</ele>
        <time>2022-05-15T13:03:46Z</time>
      </trkpt>
      <trkpt lat="47.01488" lon="6.00118">
        <ele>471.2</ele>
        <time>2022-05-15T13:03:51Z</time>
      </trkpt>
      <trkpt lat="47.01485" lon="6.00125">
        <ele>470.6</ele>
        <time>2022-05-15T13:03:56Z</time>
      </trkpt>
      <trkpt lat="47.01482" lon="6.00131">
        <ele>470.5</ele>
        <time>2022-05-15T13:04:01Z</time>
      </trkpt>
      <trkpt lat="47.01478" lon="6.00135">
        <ele>470.3</ele>
        <time>2022-05-15T13:04:05Z</time>
      </trkpt>
      <trkpt lat="47.01474" lon="6.0014">
        <ele>470.2</ele>
        <time>2022-05-15T13:04:10Z</time>
      </trkpt>
      <trkpt lat="47.01471" lon="6.00145">
        <ele>470.5</ele>
        <time>2022-05-15T13:04:14Z</time>
      </trkpt>
      <trkpt lat="47.01468" lon="6.00149">
        <ele>470.8</ele>
        <time>2022-05-15T13:04:18Z</time>
      </trkpt>
      <trkpt lat="47.01463" lon="6.00155">
        <ele>471.4</ele>
        <time>2022-05-15T13:04:22Z</time>
      </trkpt>
      <trkpt lat="47.0146" lon="6.00161">
        <ele>472.1</ele>
        <time>2022-05-15T13:04:26Z</time>
      </trkpt>
      <trkpt lat="47.01457" lon="6.00167">
        <ele>473.3</ele>
        <time>2022-05-15T13:04:32Z</time>
      </trkpt>
      <trkpt lat="47.01454" lon="6.00173">
        <ele>474.2</ele>
        <time>2022-05-15T13:04:37Z</time>
      </trkpt>
      <trkpt lat="47.01451" lon="6.00179">
        <ele>475.3</ele>
        <time>2022-05-15T13:04:43Z</time>
      </trkpt>
      <trkpt lat="47.01448" lon="6.00183">
        <ele>476.4</ele>
        <time>2022-05-15T13:04:48Z</time>
      </trkpt>
      <trkpt lat="47.01444" lon="6.00187">
        <ele>477.4</ele>
        <time>2022-05-15T13:04:52Z</time>
      </trkpt>
      <trkpt lat="47.0144" lon="6.00193">
        <ele>478.2</ele>
        <time>2022-05-15T13:04:56Z</time>
      </trkpt>
      <trkpt lat="47.01435" lon="6.00198">
        <ele>479.2</ele>
        <time>2022-05-15T13:05:00Z</time>
      </trkpt>
      <trkpt lat="47.01432" lon="6.00202">
        <ele>480.3</ele>
        <time>2022-05-15T13:05:05Z</time>
      </trkpt>
      <trkpt lat="47.01429" lon="6.00207">
        <ele>481.4</ele>
        <time>2022-05-15T13:05:13Z</time>
      </trkpt>
      <trkpt lat="47.01425" lon="6.00212">
        <ele>481.7</ele>
        <time>2022-05-15T13:05:21Z</time>
      </trkpt>
      <trkpt lat="47.01422" lon="6.00219">
        <ele>481.1</ele>
        <time>2022-05-15T13:05:26Z</time>
      </trkpt>
      <trkpt lat="47.0142" lon="6.00226">
        <ele>480.9</ele>
        <time>2022-05-15T13:05:29Z</time>
      </trkpt>
      <trkpt lat="47.01418" lon="6.00232">
        <ele>481.1</ele>
        <time>2022-05-15T13:05:33Z</time>
      </trkpt>
      <trkpt lat="47.01417" lon="6.00239">
        <ele>481.5</ele>
        <time>2022-05-15T13:05:38Z</time>
      </trkpt>
      <trkpt lat="47.01417" lon="6.00247">
        <ele>482.1</ele>
        <time>2022-05-15T13:05:43Z</time>
      </trkpt>
      <trkpt lat="47.01415" lon="6.00253">
        <ele>483</ele>
        <time>2022-05-15T13:05:47Z</time>
      </trkpt>
      <trkpt lat="47.01411" lon="6.0026">
        <ele>483.9</ele>
        <time>2022-05-15T13:05:51Z</time>
      </trkpt>
      <trkpt lat="47.01409" lon="6.00267">
        <ele>484.9</ele>
        <time>2022-05-15T13:05:56Z</time>
      </trkpt>
      <trkpt lat="47.01407" lon="6.00272">
        <ele>485.7</ele>
        <time>2022-05-15T13:06:00Z</time>
      </trkpt>
      <trkpt lat="47.01404" lon="6.00277">
        <ele>487.4</ele>
        <time>2022-05-15T13:06:09Z</time>
      </trkpt>
      <trkpt lat="47.01403" lon="6.00284">
        <ele>486.9</ele>
        <time>2022-05-15T13:06:16Z</time>
      </trkpt>
      <trkpt lat="47.01399" lon="6.00289">
        <ele>485.5</ele>
        <time>2022-05-15T13:06:22Z</time>
      </trkpt>
      <trkpt lat="47.01395" lon="6.00294">
        <ele>484.1</ele>
        <time>2022-05-15T13:06:27Z</time>
      </trkpt>
      <trkpt lat="47.01391" lon="6.00297">
        <ele>482.7</ele>
        <time>2022-05-15T13:06:32Z</time>
      </trkpt>
      <trkpt lat="47.01387" lon="6.00301">
        <ele>481.5</ele>
        <time>2022-05-15T13:06:37Z</time>
      </trkpt>
      <trkpt lat="47.01382" lon="6.00305">
        <ele>480.6</ele>
        <time>2022-05-15T13:06:42Z</time>
      </trkpt>
      <trkpt lat="47.01379" lon="6.00311">
        <ele>480</ele>
        <time>2022-05-15T13:06:47Z</time>
      </trkpt>
      <trkpt lat="47.01375" lon="6.00316">
        <ele>476.4</ele>
        <time>2022-05-15T13:06:55Z</time>
      </trkpt>
      <trkpt lat="47.0137" lon="6.00318">
        <ele>474</ele>
        <time>2022-05-15T13:07:00Z</time>
      </trkpt>
      <trkpt lat="47.01366" lon="6.00321">
        <ele>472.3</ele>
        <time>2022-05-15T13:07:04Z</time>
      </trkpt>
      <trkpt lat="47.01361" lon="6.00324">
        <ele>470.5</ele>
        <time>2022-05-15T13:07:09Z</time>
      </trkpt>
      <trkpt lat="47.01358" lon="6.00329">
        <ele>469.9</ele>
        <time>2022-05-15T13:07:13Z</time>
      </trkpt>
      <trkpt lat="47.01354" lon="6.00335">
        <ele>470.2</ele>
        <time>2022-05-15T13:07:17Z</time>
      </trkpt>
      <trkpt lat="47.01349" lon="6.00337">
        <ele>470.8</ele>
        <time>2022-05-15T13:07:22Z</time>
      </trkpt>
      <trkpt lat="47.01345" lon="6.00339">
        <ele>471.7</ele>
        <time>2022-05-15T13:07:28Z</time>
      </trkpt>
      <trkpt lat="47.01342" lon="6.00345">
        <ele>471.7</ele>
        <time>2022-05-15T13:07:40Z</time>
      </trkpt>
      <trkpt lat="47.01342" lon="6.00352">
        <ele>471</ele>
        <time>2022-05-15T13:07:47Z</time>
      </trkpt>
      <trkpt lat="47.01346" lon="6.00355">
        <ele>470.4</ele>
        <time>2022-05-15T13:07:52Z</time>
      </trkpt>
      <trkpt lat="47.0135" lon="6.00359">
        <ele>470.1</ele>
        <time>2022-05-15T13:07:59Z</time>
      </trkpt>
      <trkpt lat="47.01351" lon="6.00366">
        <ele>469.7</ele>
        <time>2022-05-15T13:08:05Z</time>
      </trkpt>
      <trkpt lat="47.0135" lon="6.00374">
        <ele>469.1</ele>
        <time>2022-05-15T13:08:12Z</time>
      </trkpt>
      <trkpt lat="47.01352" lon="6.00381">
        <ele>468.9</ele>
        <time>2022-05-15T13:08:17Z</time>
      </trkpt>
      <trkpt lat="47.01351" lon="6.00388">
        <ele>469.2</ele>
        <time>2022-05-15T13:08:21Z</time>
      </trkpt>
      <trkpt lat="47.01351" lon="6.00396">
        <ele>469.4</ele>
        <time>2022-05-15T13:08:26Z</time>
      </trkpt>
      <trkpt lat="47.0135" lon="6.00403">
        <ele>469.7</ele>
        <time>2022-05-15T13:08:31Z</time>
      </trkpt>
      <trkpt lat="47.0135" lon="6.00409">
        <ele>469.7</ele>
        <time>2022-05-15T13:08:36Z</time>
      </trkpt>
      <trkpt lat="47.0135" lon="6.00416">
        <ele>470.7</ele>
        <time>2022-05-15T13:08:42Z</time>
      </trkpt>
      <trkpt lat="47.01351" lon="6.00424">
        <ele>471.8</ele>
        <time>2022-05-15T13:08:47Z</time>
      </trkpt>
      <trkpt lat="47.01352" lon="6.00431">
        <ele>473</ele>
        <time>2022-05-15T13:08:52Z</time>
      </trkpt>
      <trkpt lat="47.01352" lon="6.00438">
        <ele>474.1</ele>
        <time>2022-05-15T13:08:56Z</time>
      </trkpt>
      <trkpt lat="47.01351" lon="6.00445">
        <ele>475.5</ele>
        <time>2022-05-15T13:09:01Z</time>
      </trkpt>
      <trkpt lat="47.0135" lon="6.00452">
        <ele>476.5</ele>
        <time>2022-05-15T13:09:06Z</time>
      </trkpt>
      <trkpt lat="47.01346" lon="6.00459">
        <ele>477.7</ele>
        <time>2022-05-15T13:09:12Z</time>
      </trkpt>
      <trkpt lat="47.01345" lon="6.00466">
        <ele>479.3</ele>
        <time>2022-05-15T13:09:18Z</time>
      </trkpt>
      <trkpt lat="47.01345" lon="6.00473">
        <ele>480.2</ele>
        <time>2022-05-15T13:09:22Z</time>
      </trkpt>
      <trkpt lat="47.01343" lon="6.00479">
        <ele>481.4</ele>
        <time>2022-05-15T13:09:30Z</time>
      </trkpt>
      <trkpt lat="47.0134" lon="6.00485">
        <ele>481.6</ele>
        <time>2022-05-15T13:09:35Z</time>
      </trkpt>
      <trkpt lat="47.01337" lon="6.0049">
        <ele>481.2</ele>
        <time>2022-05-15T13:09:39Z</time>
      </trkpt>
      <trkpt lat="47.01334" lon="6.00496">
        <ele>480.7</ele>
        <time>2022-05-15T13:09:43Z</time>
      </trkpt>
      <trkpt lat="47.0133" lon="6.00501">
        <ele>480.8</ele>
        <time>2022-05-15T13:09:47Z</time>
      </trkpt>
      <trkpt lat="47.01327" lon="6.00507">
        <ele>481.5</ele>
        <time>2022-05-15T13:09:51Z</time>
      </trkpt>
      <trkpt lat="47.01324" lon="6.00513">
        <ele>482.8</ele>
        <time>2022-05-15T13:09:56Z</time>
      </trkpt>
      <trkpt lat="47.01321" lon="6.00519">
        <ele>484.4</ele>
        <time>2022-05-15T13:10:01Z</time>
      </trkpt>
      <trkpt lat="47.01318" lon="6.00524">
        <ele>485.6</ele>
        <time>2022-05-15T13:10:06Z</time>
      </trkpt>
      <trkpt lat="47.01315" lon="6.00531">
        <ele>486.4</ele>
        <time>2022-05-15T13:10:12Z</time>
      </trkpt>
      <trkpt lat="47.01311" lon="6.00535">
        <ele>487</ele>
        <time>2022-05-15T13:10:17Z</time>
      </trkpt>
      <trkpt lat="47.01307" lon="6.0054">
        <ele>487.4</ele>
        <time>2022-05-15T13:10:21Z</time>
      </trkpt>
      <trkpt lat="47.01303" lon="6.00545">
        <ele>487.7</ele>
        <time>2022-05-15T13:10:25Z</time>
      </trkpt>
      <trkpt lat="47.013" lon="6.0055">
        <ele>488.3</ele>
        <time>2022-05-15T13:10:29Z</time>
      </trkpt>
      <trkpt lat="47.01298" lon="6.00557">
        <ele>489.3</ele>
        <time>2022-05-15T13:10:34Z</time>
      </trkpt>
      <trkpt lat="47.01296" lon="6.00563">
        <ele>489.7</ele>
        <time>2022-05-15T13:10:38Z</time>
      </trkpt>
      <trkpt lat="47.01293" lon="6.00569">
        <ele>490.9</ele>
        <time>2022-05-15T13:10:43Z</time>
      </trkpt>
      <trkpt lat="47.01288" lon="6.00572">
        <ele>491.6</ele>
        <time>2022-05-15T13:10:49Z</time>
      </trkpt>
      <trkpt lat="47.01284" lon="6.00574">
        <ele>491.9</ele>
        <time>2022-05-15T13:10:52Z</time>
      </trkpt>
      <trkpt lat="47.01279" lon="6.00576">
        <ele>492.2</ele>
        <time>2022-05-15T13:10:55Z</time>
      </trkpt>
      <trkpt lat="47.01274" lon="6.00578">
        <ele>492.7</ele>
        <time>2022-05-15T13:10:59Z</time>
      </trkpt>
      <trkpt lat="47.01272" lon="6.00585">
        <ele>493.6</ele>
        <time>2022-05-15T13:11:07Z</time>
      </trkpt>
      <trkpt lat="47.01268" lon="6.00589">
        <ele>494.1</ele>
        <time>2022-05-15T13:11:10Z</time>
      </trkpt>
      <trkpt lat="47.01266" lon="6.00596">
        <ele>494.6</ele>
        <time>2022-05-15T13:11:14Z</time>
      </trkpt>
      <trkpt lat="47.01263" lon="6.00602">
        <ele>495.2</ele>
        <time>2022-05-15T13:11:18Z</time>
      </trkpt>
      <trkpt lat="47.0126" lon="6.00608">
        <ele>496</ele>
        <time>2022-05-15T13:11:22Z</time>
      </trkpt>
      <trkpt lat="47.01257" lon="6.00613">
        <ele>496.8</ele>
        <time>2022-05-15T13:11:26Z</time>
      </trkpt>
      <trkpt lat="47.01254" lon="6.00619">
        <ele>497</ele>
        <time>2022-05-15T13:11:31Z</time>
      </trkpt>
      <trkpt lat="47.01252" lon="6.00626">
        <ele>496.3</ele>
        <time>2022-05-15T13:11:38Z</time>
      </trkpt>
      <trkpt lat="47.01249" lon="6.00631">
        <ele>495.7</ele>
        <time>2022-05-15T13:11:47Z</time>
      </trkpt>
      <trkpt lat="47.01247" lon="6.00638">
        <ele>495.1</ele>
        <time>2022-05-15T13:11:54Z</time>
      </trkpt>
      <trkpt lat="47.01247" lon="6.00646">
        <ele>494.2</ele>
        <time>2022-05-15T13:12:02Z</time>
      </trkpt>
      <trkpt lat="47.01246" lon="6.00652">
        <ele>494.1</ele>
        <time>2022-05-15T13:12:07Z</time>
      </trkpt>
      <trkpt lat="47.01243" lon="6.0066">
        <ele>493.6</ele>
        <time>2022-05-15T13:12:12Z</time>
      </trkpt>
      <trkpt lat="47.0124" lon="6.00666">
        <ele>493.3</ele>
        <time>2022-05-15T13:12:16Z</time>
      </trkpt>
      <trkpt lat="47.01241" lon="6.00673">
        <ele>493</ele>
        <time>2022-05-15T13:12:21Z</time>
      </trkpt>
      <trkpt lat="47.01239" lon="6.0068">
        <ele>493.3</ele>
        <time>2022-05-15T13:12:29Z</time>
      </trkpt>
      <trkpt lat="47.01238" lon="6.00687">
        <ele>494.2</ele>
        <time>2022-05-15T13:12:36Z</time>
      </trkpt>
      <trkpt lat="47.01238" lon="6.00694">
        <ele>494.8</ele>
        <time>2022-05-15T13:12:41Z</time>
      </trkpt>
      <trkpt lat="47.01237" lon="6.00701">
        <ele>495.1</ele>
        <time>2022-05-15T13:12:47Z</time>
      </trkpt>
      <trkpt lat="47.01234" lon="6.00708">
        <ele>495.1</ele>
        <time>2022-05-15T13:12:53Z</time>
      </trkpt>
      <trkpt lat="47.01234" lon="6.00715">
        <ele>495.2</ele>
        <time>2022-05-15T13:12:57Z</time>
      </trkpt>
      <trkpt lat="47.01235" lon="6.00722">
        <ele>495.4</ele>
        <time>2022-05-15T13:13:01Z</time>
      </trkpt>
      <trkpt lat="47.01233" lon="6.00729">
        <ele>495.7</ele>
        <time>2022-05-15T13:13:05Z</time>
      </trkpt>
      <trkpt lat="47.01231" lon="6.00736">
        <ele>496.3</ele>
        <time>2022-05-15T13:13:09Z</time>
      </trkpt>
      <trkpt lat="47.0123" lon="6.00745">
        <ele>498.3</ele>
        <time>2022-05-15T13:13:19Z</time>
      </trkpt>
      <trkpt lat="47.01228" lon="6.00752">
        <ele>498.7</ele>
        <time>2022-05-15T13:13:23Z</time>
      </trkpt>
      <trkpt lat="47.01225" lon="6.00758">
        <ele>498.6</ele>
        <time>2022-05-15T13:13:26Z</time>
      </trkpt>
      <trkpt lat="47.01222" lon="6.00764">
        <ele>498.8</ele>
        <time>2022-05-15T13:13:30Z</time>
      </trkpt>
      <trkpt lat="47.01219" lon="6.0077">
        <ele>498.6</ele>
        <time>2022-05-15T13:13:39Z</time>
      </trkpt>
      <trkpt lat="47.01217" lon="6.00776">
        <ele>497.6</ele>
        <time>2022-05-15T13:13:44Z</time>
      </trkpt>
      <trkpt lat="47.01213" lon="6.00781">
        <ele>496.5</ele>
        <time>2022-05-15T13:13:49Z</time>
      </trkpt>
      <trkpt lat="47.0121" lon="6.00786">
        <ele>495.7</ele>
        <time>2022-05-15T13:13:53Z</time>
      </trkpt>
      <trkpt lat="47.01208" lon="6.00792">
        <ele>495.3</ele>
        <time>2022-05-15T13:13:57Z</time>
      </trkpt>
      <trkpt lat="47.01204" lon="6.00796">
        <ele>495</ele>
        <time>2022-05-15T13:14:02Z</time>
      </trkpt>
      <trkpt lat="47.01202" lon="6.00803">
        <ele>495</ele>
        <time>2022-05-15T13:14:06Z</time>
      </trkpt>
      <trkpt lat="47.01203" lon="6.0081">
        <ele>495.3</ele>
        <time>2022-05-15T13:14:12Z</time>
      </trkpt>
      <trkpt lat="47.01201" lon="6.00816">
        <ele>495.6</ele>
        <time>2022-05-15T13:14:16Z</time>
      </trkpt>
      <trkpt lat="47.012" lon="6.00823">
        <ele>495.5</ele>
        <time>2022-05-15T13:14:22Z</time>
      </trkpt>
      <trkpt lat="47.01199" lon="6.0083">
        <ele>494.6</ele>
        <time>2022-05-15T13:14:28Z</time>
      </trkpt>
      <trkpt lat="47.012" lon="6.0084">
        <ele>494</ele>
        <time>2022-05-15T13:14:41Z</time>
      </trkpt>
      <trkpt lat="47.01196" lon="6.00848">
        <ele>494.1</ele>
        <time>2022-05-15T13:14:44Z</time>
      </trkpt>
      <trkpt lat="47.01194" lon="6.00856">
        <ele>494.8</ele>
        <time>2022-05-15T13:14:47Z</time>
      </trkpt>
      <trkpt lat="47.01191" lon="6.00863">
        <ele>496</ele>
        <time>2022-05-15T13:14:51Z</time>
      </trkpt>
      <trkpt lat="47.01189" lon="6.00871">
        <ele>497.2</ele>
        <time>2022-05-15T13:14:55Z</time>
      </trkpt>
      <trkpt lat="47.01187" lon="6.00878">
        <ele>498.2</ele>
        <time>2022-05-15T13:14:59Z</time>
      </trkpt>
      <trkpt lat="47.01185" lon="6.00884">
        <ele>499</ele>
        <time>2022-05-15T13:15:03Z</time>
      </trkpt>
      <trkpt lat="47.01183" lon="6.00892">
        <ele>499.9</ele>
        <time>2022-05-15T13:15:08Z</time>
      </trkpt>
      <trkpt lat="47.0118" lon="6.00898">
        <ele>500.5</ele>
        <time>2022-05-15T13:15:12Z</time>
      </trkpt>
      <trkpt lat="47.01176" lon="6.00902">
        <ele>501.4</ele>
        <time>2022-05-15T13:15:16Z</time>
      </trkpt>
      <trkpt lat="47.01172" lon="6.00908">
        <ele>503</ele>
        <time>2022-05-15T13:15:22Z</time>
      </trkpt>
      <trkpt lat="47.01168" lon="6.00911">
        <ele>504.1</ele>
        <time>2022-05-15T13:15:25Z</time>
      </trkpt>
      <trkpt lat="47.01164" lon="6.00915">
        <ele>505.8</ele>
        <time>2022-05-15T13:15:29Z</time>
      </trkpt>
      <trkpt lat="47.01161" lon="6.00918">
        <ele>507.4</ele>
        <time>2022-05-15T13:15:35Z</time>
      </trkpt>
      <trkpt lat="47.01157" lon="6.00922">
        <ele>508.2</ele>
        <time>2022-05-15T13:15:42Z</time>
      </trkpt>
      <trkpt lat="47.01153" lon="6.00926">
        <ele>508.4</ele>
        <time>2022-05-15T13:15:47Z</time>
      </trkpt>
      <trkpt lat="47.01149" lon="6.0093">
        <ele>508.4</ele>
        <time>2022-05-15T13:15:51Z</time>
      </trkpt>
      <trkpt lat="47.01145" lon="6.00934">
        <ele>508.4</ele>
        <time>2022-05-15T13:15:57Z</time>
      </trkpt>
      <trkpt lat="47.01141" lon="6.00939">
        <ele>508.5</ele>
        <time>2022-05-15T13:16:01Z</time>
      </trkpt>
      <trkpt lat="47.01138" lon="6.00943">
        <ele>508.9</ele>
        <time>2022-05-15T13:16:05Z</time>
      </trkpt>
      <trkpt lat="47.01134" lon="6.00948">
        <ele>509.9</ele>
        <time>2022-05-15T13:16:10Z</time>
      </trkpt>
      <trkpt lat="47.01131" lon="6.00954">
        <ele>510.7</ele>
        <time>2022-05-15T13:16:16Z</time>
      </trkpt>
      <trkpt lat="47.01127" lon="6.00959">
        <ele>510.9</ele>
        <time>2022-05-15T13:16:22Z</time>
      </trkpt>
      <trkpt lat="47.01124" lon="6.00964">
        <ele>510.9</ele>
        <time>2022-05-15T13:16:25Z</time>
      </trkpt>
      <trkpt lat="47.0112" lon="6.0097">
        <ele>511</ele>
        <time>2022-05-15T13:16:29Z</time>
      </trkpt>
      <trkpt lat="47.01117" lon="6.00974">
        <ele>512.6</ele>
        <time>2022-05-15T13:16:36Z</time>
      </trkpt>
      <trkpt lat="47.01113" lon="6.0098">
        <ele>513.9</ele>
        <time>2022-05-15T13:16:43Z</time>
      </trkpt>
      <trkpt lat="47.01109" lon="6.00986">
        <ele>514.2</ele>
        <time>2022-05-15T13:16:47Z</time>
      </trkpt>
      <trkpt lat="47.01106" lon="6.00991">
        <ele>514.4</ele>
        <time>2022-05-15T13:16:50Z</time>
      </trkpt>
      <trkpt lat="47.01102" lon="6.00996">
        <ele>514.8</ele>
        <time>2022-05-15T13:16:54Z</time>
      </trkpt>
      <trkpt lat="47.01098" lon="6.01001">
        <ele>515.3</ele>
        <time>2022-05-15T13:16:58Z</time>
      </trkpt>
      <trkpt lat="47.01094" lon="6.01006">
        <ele>515.7</ele>
        <time>2022-05-15T13:17:02Z</time>
      </trkpt>
      <trkpt lat="47.01093" lon="6.01012">
        <ele>516</ele>
        <time>2022-05-15T13:17:07Z</time>
      </trkpt>
      <trkpt lat="47.01092" lon="6.0102">
        <ele>516</ele>
        <time>2022-05-15T13:17:13Z</time>
      </trkpt>
      <trkpt lat="47.0109" lon="6.01027">
        <ele>516.1</ele>
        <time>2022-05-15T13:17:18Z</time>
      </trkpt>
      <trkpt lat="47.01088" lon="6.01035">
        <ele>516.1</ele>
        <time>2022-05-15T13:17:23Z</time>
      </trkpt>
      <trkpt lat="47.01088" lon="6.01042">
        <ele>516</ele>
        <time>2022-05-15T13:17:27Z</time>
      </trkpt>
      <trkpt lat="47.01085" lon="6.01048">
        <ele>516.2</ele>
        <time>2022-05-15T13:17:31Z</time>
      </trkpt>
      <trkpt lat="47.01083" lon="6.01054">
        <ele>516.3</ele>
        <time>2022-05-15T13:17:34Z</time>
      </trkpt>
      <trkpt lat="47.01081" lon="6.0106">
        <ele>516.5</ele>
        <time>2022-05-15T13:17:38Z</time>
      </trkpt>
      <trkpt lat="47.01078" lon="6.01067">
        <ele>516.8</ele>
        <time>2022-05-15T13:17:45Z</time>
      </trkpt>
      <trkpt lat="47.01075" lon="6.01073">
        <ele>517.5</ele>
        <time>2022-05-15T13:17:50Z</time>
      </trkpt>
      <trkpt lat="47.01073" lon="6.01079">
        <ele>518.2</ele>
        <time>2022-05-15T13:17:55Z</time>
      </trkpt>
      <trkpt lat="47.01068" lon="6.01084">
        <ele>518.9</ele>
        <time>2022-05-15T13:18:01Z</time>
      </trkpt>
      <trkpt lat="47.01064" lon="6.01089">
        <ele>519.6</ele>
        <time>2022-05-15T13:18:05Z</time>
      </trkpt>
      <trkpt lat="47.01059" lon="6.01093">
        <ele>520.4</ele>
        <time>2022-05-15T13:18:09Z</time>
      </trkpt>
      <trkpt lat="47.01056" lon="6.011">
        <ele>521.1</ele>
        <time>2022-05-15T13:18:14Z</time>
      </trkpt>
      <trkpt lat="47.01054" lon="6.01107">
        <ele>521.6</ele>
        <time>2022-05-15T13:18:19Z</time>
      </trkpt>
      <trkpt lat="47.01052" lon="6.01114">
        <ele>521.6</ele>
        <time>2022-05-15T13:18:23Z</time>
      </trkpt>
      <trkpt lat="47.0105" lon="6.0112">
        <ele>521.7</ele>
        <time>2022-05-15T13:18:26Z</time>
      </trkpt>
      <trkpt lat="47.01048" lon="6.01127">
        <ele>521.8</ele>
        <time>2022-05-15T13:18:29Z</time>
      </trkpt>
      <trkpt lat="47.01046" lon="6.01134">
        <ele>521.9</ele>
        <time>2022-05-15T13:18:35Z</time>
      </trkpt>
      <trkpt lat="47.01043" lon="6.0114">
        <ele>520.8</ele>
        <time>2022-05-15T13:18:42Z</time>
      </trkpt>
      <trkpt lat="47.0104" lon="6.01146">
        <ele>519.8</ele>
        <time>2022-05-15T13:18:46Z</time>
      </trkpt>
      <trkpt lat="47.01037" lon="6.01152">
        <ele>518.9</ele>
        <time>2022-05-15T13:18:52Z</time>
      </trkpt>
      <trkpt lat="47.01035" lon="6.01159">
        <ele>518.3</ele>
        <time>2022-05-15T13:18:56Z</time>
      </trkpt>
      <trkpt lat="47.01034" lon="6.01166">
        <ele>517.3</ele>
        <time>2022-05-15T13:19:01Z</time>
      </trkpt>
      <trkpt lat="47.01032" lon="6.01172">
        <ele>515.8</ele>
        <time>2022-05-15T13:19:12Z</time>
      </trkpt>
      <trkpt lat="47.0103" lon="6.01179">
        <ele>515.8</ele>
        <time>2022-05-15T13:19:20Z</time>
      </trkpt>
      <trkpt lat="47.01027" lon="6.01185">
        <ele>516.3</ele>
        <time>2022-05-15T13:19:26Z</time>
      </trkpt>
      <trkpt lat="47.01024" lon="6.01193">
        <ele>516.8</ele>
        <time>2022-05-15T13:19:30Z</time>
      </trkpt>
      <trkpt lat="47.01021" lon="6.01199">
        <ele>517.3</ele>
        <time>2022-05-15T13:19:33Z</time>
      </trkpt>
      <trkpt lat="47.01017" lon="6.01205">
        <ele>518.4</ele>
        <time>2022-05-15T13:19:38Z</time>
      </trkpt>
      <trkpt lat="47.01015" lon="6.01211">
        <ele>519.8</ele>
        <time>2022-05-15T13:19:44Z</time>
      </trkpt>
      <trkpt lat="47.01012" lon="6.01217">
        <ele>520.6</ele>
        <time>2022-05-15T13:19:50Z</time>
      </trkpt>
      <trkpt lat="47.01008" lon="6.01223">
        <ele>520.5</ele>
        <time>2022-05-15T13:19:56Z</time>
      </trkpt>
      <trkpt lat="47.01005" lon="6.01228">
        <ele>520.4</ele>
        <time>2022-05-15T13:20:00Z</time>
      </trkpt>
      <trkpt lat="47.01001" lon="6.01234">
        <ele>520.2</ele>
        <time>2022-05-15T13:20:04Z</time>
      </trkpt>
      <trkpt lat="47.00997" lon="6.01239">
        <ele>520.2</ele>
        <time>2022-05-15T13:20:09Z</time>
      </trkpt>
      <trkpt lat="47.00993" lon="6.01238">
        <ele>519.2</ele>
        <time>2022-05-15T13:20:22Z</time>
      </trkpt>
      <trkpt lat="47.00998" lon="6.01241">
        <ele>517.6</ele>
        <time>2022-05-15T13:20:32Z</time>
      </trkpt>
      <trkpt lat="47.00997" lon="6.01248">
        <ele>527.1</ele>
        <time>2022-05-15T13:21:14Z</time>
      </trkpt>
      <trkpt lat="47.00993" lon="6.01251">
        <ele>527.8</ele>
        <time>2022-05-15T13:21:22Z</time>
      </trkpt>
      <trkpt lat="47.00989" lon="6.01247">
        <ele>527.5</ele>
        <time>2022-05-15T13:21:27Z</time>
      </trkpt>
      <trkpt lat="47.00988" lon="6.01239">
        <ele>526.3</ele>
        <time>2022-05-15T13:21:32Z</time>
      </trkpt>
      <trkpt lat="47.00982" lon="6.01238">
        <ele>524.9</ele>
        <time>2022-05-15T13:21:37Z</time>
      </trkpt>
      <trkpt lat="47.00977" lon="6.01241">
        <ele>523</ele>
        <time>2022-05-15T13:21:42Z</time>
      </trkpt>
      <trkpt lat="47.00972" lon="6.01241">
        <ele>520.4</ele>
        <time>2022-05-15T13:21:47Z</time>
      </trkpt>
      <trkpt lat="47.00967" lon="6.01241">
        <ele>518.8</ele>
        <time>2022-05-15T13:21:51Z</time>
      </trkpt>
      <trkpt lat="47.00961" lon="6.0124">
        <ele>518.4</ele>
        <time>2022-05-15T13:21:55Z</time>
      </trkpt>
      <trkpt lat="47.00956" lon="6.01239">
        <ele>518.4</ele>
        <time>2022-05-15T13:22:00Z</time>
      </trkpt>
      <trkpt lat="47.00951" lon="6.01237">
        <ele>518.2</ele>
        <time>2022-05-15T13:22:06Z</time>
      </trkpt>
      <trkpt lat="47.00947" lon="6.01234">
        <ele>519.2</ele>
        <time>2022-05-15T13:22:14Z</time>
      </trkpt>
      <trkpt lat="47.00942" lon="6.01232">
        <ele>520.7</ele>
        <time>2022-05-15T13:22:20Z</time>
      </trkpt>
      <trkpt lat="47.00938" lon="6.01231">
        <ele>521.4</ele>
        <time>2022-05-15T13:22:24Z</time>
      </trkpt>
      <trkpt lat="47.00934" lon="6.01228">
        <ele>522.3</ele>
        <time>2022-05-15T13:22:28Z</time>
      </trkpt>
      <trkpt lat="47.00932" lon="6.01222">
        <ele>523.2</ele>
        <time>2022-05-15T13:22:37Z</time>
      </trkpt>
      <trkpt lat="47.00926" lon="6.01222">
        <ele>524.3</ele>
        <time>2022-05-15T13:22:43Z</time>
      </trkpt>
      <trkpt lat="47.00921" lon="6.0122">
        <ele>526.4</ele>
        <time>2022-05-15T13:22:51Z</time>
      </trkpt>
      <trkpt lat="47.00916" lon="6.0122">
        <ele>527</ele>
        <time>2022-05-15T13:22:55Z</time>
      </trkpt>
      <trkpt lat="47.0091" lon="6.0122">
        <ele>527.3</ele>
        <time>2022-05-15T13:22:58Z</time>
      </trkpt>
      <trkpt lat="47.00905" lon="6.01219">
        <ele>527.4</ele>
        <time>2022-05-15T13:23:01Z</time>
      </trkpt>
      <trkpt lat="47.009" lon="6.01217">
        <ele>527.2</ele>
        <time>2022-05-15T13:23:04Z</time>
      </trkpt>
      <trkpt lat="47.00896" lon="6.01214">
        <ele>526.8</ele>
        <time>2022-05-15T13:23:10Z</time>
      </trkpt>
      <trkpt lat="47.00891" lon="6.01215">
        <ele>526.2</ele>
        <time>2022-05-15T13:23:19Z</time>
      </trkpt>
      <trkpt lat="47.00886" lon="6.01212">
        <ele>526.1</ele>
        <time>2022-05-15T13:23:26Z</time>
      </trkpt>
      <trkpt lat="47.00883" lon="6.01207">
        <ele>525.9</ele>
        <time>2022-05-15T13:23:30Z</time>
      </trkpt>
      <trkpt lat="47.00878" lon="6.01204">
        <ele>525.3</ele>
        <time>2022-05-15T13:23:35Z</time>
      </trkpt>
      <trkpt lat="47.00874" lon="6.01204">
        <ele>524.1</ele>
        <time>2022-05-15T13:23:41Z</time>
      </trkpt>
      <trkpt lat="47.00868" lon="6.01201">
        <ele>522.8</ele>
        <time>2022-05-15T13:23:47Z</time>
      </trkpt>
      <trkpt lat="47.00863" lon="6.012">
        <ele>522.9</ele>
        <time>2022-05-15T13:23:51Z</time>
      </trkpt>
      <trkpt lat="47.00858" lon="6.01198">
        <ele>523.2</ele>
        <time>2022-05-15T13:23:55Z</time>
      </trkpt>
      <trkpt lat="47.00854" lon="6.01199">
        <ele>523.8</ele>
        <time>2022-05-15T13:24:00Z</time>
      </trkpt>
      <trkpt lat="47.00849" lon="6.01201">
        <ele>524.2</ele>
        <time>2022-05-15T13:24:06Z</time>
      </trkpt>
      <trkpt lat="47.00844" lon="6.012">
        <ele>524.3</ele>
        <time>2022-05-15T13:24:11Z</time>
      </trkpt>
      <trkpt lat="47.0084" lon="6.01196">
        <ele>524</ele>
        <time>2022-05-15T13:24:18Z</time>
      </trkpt>
      <trkpt lat="47.00835" lon="6.01192">
        <ele>523.8</ele>
        <time>2022-05-15T13:24:24Z</time>
      </trkpt>
      <trkpt lat="47.00831" lon="6.01192">
        <ele>523.7</ele>
        <time>2022-05-15T13:24:29Z</time>
      </trkpt>
      <trkpt lat="47.00826" lon="6.01193">
        <ele>524</ele>
        <time>2022-05-15T13:24:38Z</time>
      </trkpt>
      <trkpt lat="47.00822" lon="6.0119">
        <ele>525.4</ele>
        <time>2022-05-15T13:24:44Z</time>
      </trkpt>
      <trkpt lat="47.00818" lon="6.01185">
        <ele>526.5</ele>
        <time>2022-05-15T13:24:54Z</time>
      </trkpt>
      <trkpt lat="47.00814" lon="6.01182">
        <ele>527.5</ele>
        <time>2022-05-15T13:24:57Z</time>
      </trkpt>
      <trkpt lat="47.00809" lon="6.01182">
        <ele>529.3</ele>
        <time>2022-05-15T13:25:03Z</time>
      </trkpt>
      <trkpt lat="47.00804" lon="6.01183">
        <ele>530.2</ele>
        <time>2022-05-15T13:25:10Z</time>
      </trkpt>
      <trkpt lat="47.00799" lon="6.01179">
        <ele>529.9</ele>
        <time>2022-05-15T13:25:15Z</time>
      </trkpt>
      <trkpt lat="47.00795" lon="6.01176">
        <ele>529.2</ele>
        <time>2022-05-15T13:25:19Z</time>
      </trkpt>
      <trkpt lat="47.0079" lon="6.01177">
        <ele>528.2</ele>
        <time>2022-05-15T13:25:23Z</time>
      </trkpt>
      <trkpt lat="47.00785" lon="6.01174">
        <ele>526.7</ele>
        <time>2022-05-15T13:25:28Z</time>
      </trkpt>
      <trkpt lat="47.0078" lon="6.01173">
        <ele>525.2</ele>
        <time>2022-05-15T13:25:33Z</time>
      </trkpt>
      <trkpt lat="47.00774" lon="6.01172">
        <ele>524.5</ele>
        <time>2022-05-15T13:25:37Z</time>
      </trkpt>
      <trkpt lat="47.00769" lon="6.0117">
        <ele>524.1</ele>
        <time>2022-05-15T13:25:41Z</time>
      </trkpt>
      <trkpt lat="47.00764" lon="6.01167">
        <ele>523.6</ele>
        <time>2022-05-15T13:25:46Z</time>
      </trkpt>
      <trkpt lat="47.00762" lon="6.01174">
        <ele>522.2</ele>
        <time>2022-05-15T13:25:55Z</time>
      </trkpt>
      <trkpt lat="47.00761" lon="6.0118">
        <ele>521</ele>
        <time>2022-05-15T13:26:05Z</time>
      </trkpt>
      <trkpt lat="47.00762" lon="6.01174">
        <ele>520.8</ele>
        <time>2022-05-15T13:26:09Z</time>
      </trkpt>
      <trkpt lat="47.00763" lon="6.01167">
        <ele>520.8</ele>
        <time>2022-05-15T13:26:13Z</time>
      </trkpt>
      <trkpt lat="47.00764" lon="6.0116">
        <ele>521.2</ele>
        <time>2022-05-15T13:26:21Z</time>
      </trkpt>
      <trkpt lat="47.00762" lon="6.01167">
        <ele>523.4</ele>
        <time>2022-05-15T13:26:41Z</time>
      </trkpt>
      <trkpt lat="47.0076" lon="6.01174">
        <ele>524.4</ele>
        <time>2022-05-15T13:26:45Z</time>
      </trkpt>
      <trkpt lat="47.0076" lon="6.01181">
        <ele>525.3</ele>
        <time>2022-05-15T13:26:49Z</time>
      </trkpt>
      <trkpt lat="47.00759" lon="6.01189">
        <ele>526.6</ele>
        <time>2022-05-15T13:26:54Z</time>
      </trkpt>
      <trkpt lat="47.00758" lon="6.01196">
        <ele>527.9</ele>
        <time>2022-05-15T13:26:59Z</time>
      </trkpt>
      <trkpt lat="47.00756" lon="6.01202">
        <ele>528.7</ele>
        <time>2022-05-15T13:27:02Z</time>
      </trkpt>
      <trkpt lat="47.00755" lon="6.0121">
        <ele>529.4</ele>
        <time>2022-05-15T13:27:06Z</time>
      </trkpt>
      <trkpt lat="47.00754" lon="6.01217">
        <ele>529.8</ele>
        <time>2022-05-15T13:27:09Z</time>
      </trkpt>
      <trkpt lat="47.00752" lon="6.01225">
        <ele>530.1</ele>
        <time>2022-05-15T13:27:13Z</time>
      </trkpt>
      <trkpt lat="47.00751" lon="6.01233">
        <ele>530.5</ele>
        <time>2022-05-15T13:27:17Z</time>
      </trkpt>
      <trkpt lat="47.0075" lon="6.01241">
        <ele>531.1</ele>
        <time>2022-05-15T13:27:21Z</time>
      </trkpt>
      <trkpt lat="47.00749" lon="6.01248">
        <ele>531.3</ele>
        <time>2022-05-15T13:27:24Z</time>
      </trkpt>
      <trkpt lat="47.00747" lon="6.01254">
        <ele>531.7</ele>
        <time>2022-05-15T13:27:27Z</time>
      </trkpt>
      <trkpt lat="47.00747" lon="6.01261">
        <ele>532.1</ele>
        <time>2022-05-15T13:27:34Z</time>
      </trkpt>
      <trkpt lat="47.00747" lon="6.01268">
        <ele>532.7</ele>
        <time>2022-05-15T13:27:40Z</time>
      </trkpt>
      <trkpt lat="47.00745" lon="6.01275">
        <ele>533.2</ele>
        <time>2022-05-15T13:27:43Z</time>
      </trkpt>
      <trkpt lat="47.00745" lon="6.01281">
        <ele>533.3</ele>
        <time>2022-05-15T13:27:46Z</time>
      </trkpt>
      <trkpt lat="47.00746" lon="6.01289">
        <ele>533</ele>
        <time>2022-05-15T13:27:50Z</time>
      </trkpt>
      <trkpt lat="47.00744" lon="6.01296">
        <ele>531.7</ele>
        <time>2022-05-15T13:27:55Z</time>
      </trkpt>
      <trkpt lat="47.00742" lon="6.01302">
        <ele>530.6</ele>
        <time>2022-05-15T13:27:59Z</time>
      </trkpt>
      <trkpt lat="47.00739" lon="6.01307">
        <ele>529.3</ele>
        <time>2022-05-15T13:28:04Z</time>
      </trkpt>
      <trkpt lat="47.00737" lon="6.01314">
        <ele>528.2</ele>
        <time>2022-05-15T13:28:09Z</time>
      </trkpt>
      <trkpt lat="47.00734" lon="6.01322">
        <ele>527.6</ele>
        <time>2022-05-15T13:28:12Z</time>
      </trkpt>
      <trkpt lat="47.00732" lon="6.0133">
        <ele>527.3</ele>
        <time>2022-05-15T13:28:15Z</time>
      </trkpt>
      <trkpt lat="47.00732" lon="6.01338">
        <ele>527.2</ele>
        <time>2022-05-15T13:28:19Z</time>
      </trkpt>
      <trkpt lat="47.00733" lon="6.01346">
        <ele>527</ele>
        <time>2022-05-15T13:28:22Z</time>
      </trkpt>
      <trkpt lat="47.00732" lon="6.01352">
        <ele>526.6</ele>
        <time>2022-05-15T13:28:25Z</time>
      </trkpt>
      <trkpt lat="47.00732" lon="6.0136">
        <ele>526.3</ele>
        <time>2022-05-15T13:28:29Z</time>
      </trkpt>
      <trkpt lat="47.0073" lon="6.01366">
        <ele>525.7</ele>
        <time>2022-05-15T13:28:33Z</time>
      </trkpt>
      <trkpt lat="47.00729" lon="6.01373">
        <ele>525</ele>
        <time>2022-05-15T13:28:39Z</time>
      </trkpt>
      <trkpt lat="47.00725" lon="6.01377">
        <ele>524.6</ele>
        <time>2022-05-15T13:28:47Z</time>
      </trkpt>
      <trkpt lat="47.00728" lon="6.01383">
        <ele>524.5</ele>
        <time>2022-05-15T13:28:59Z</time>
      </trkpt>
      <trkpt lat="47.00727" lon="6.01389">
        <ele>524.1</ele>
        <time>2022-05-15T13:29:05Z</time>
      </trkpt>
      <trkpt lat="47.00725" lon="6.014">
        <ele>524.1</ele>
        <time>2022-05-15T13:29:08Z</time>
      </trkpt>
      <trkpt lat="47.00722" lon="6.01412">
        <ele>523.9</ele>
        <time>2022-05-15T13:29:11Z</time>
      </trkpt>
      <trkpt lat="47.0072" lon="6.01421">
        <ele>523.8</ele>
        <time>2022-05-15T13:29:14Z</time>
      </trkpt>
      <trkpt lat="47.00717" lon="6.01429">
        <ele>523.7</ele>
        <time>2022-05-15T13:29:17Z</time>
      </trkpt>
      <trkpt lat="47.00715" lon="6.01435">
        <ele>523.5</ele>
        <time>2022-05-15T13:29:20Z</time>
      </trkpt>
      <trkpt lat="47.00712" lon="6.01442">
        <ele>523.3</ele>
        <time>2022-05-15T13:29:24Z</time>
      </trkpt>
      <trkpt lat="47.0071" lon="6.01448">
        <ele>523.5</ele>
        <time>2022-05-15T13:29:28Z</time>
      </trkpt>
      <trkpt lat="47.0071" lon="6.01455">
        <ele>524.2</ele>
        <time>2022-05-15T13:29:32Z</time>
      </trkpt>
      <trkpt lat="47.0071" lon="6.01462">
        <ele>525</ele>
        <time>2022-05-15T13:29:37Z</time>
      </trkpt>
      <trkpt lat="47.00709" lon="6.0147">
        <ele>525.1</ele>
        <time>2022-05-15T13:29:43Z</time>
      </trkpt>
      <trkpt lat="47.00707" lon="6.01476">
        <ele>524.9</ele>
        <time>2022-05-15T13:29:47Z</time>
      </trkpt>
      <trkpt lat="47.00705" lon="6.01482">
        <ele>524.7</ele>
        <time>2022-05-15T13:29:54Z</time>
      </trkpt>
      <trkpt lat="47.007" lon="6.01487">
        <ele>524.4</ele>
        <time>2022-05-15T13:29:57Z</time>
      </trkpt>
      <trkpt lat="47.007" lon="6.01493">
        <ele>524.2</ele>
        <time>2022-05-15T13:30:01Z</time>
      </trkpt>
      <trkpt lat="47.00701" lon="6.015">
        <ele>524.3</ele>
        <time>2022-05-15T13:30:06Z</time>
      </trkpt>
      <trkpt lat="47.00697" lon="6.01505">
        <ele>525.7</ele>
        <time>2022-05-15T13:30:30Z</time>
      </trkpt>
      <trkpt lat="47.00699" lon="6.01512">
        <ele>525.3</ele>
        <time>2022-05-15T13:30:35Z</time>
      </trkpt>
      <trkpt lat="47.00699" lon="6.01518">
        <ele>525.5</ele>
        <time>2022-05-15T13:30:41Z</time>
      </trkpt>
      <trkpt lat="47.00698" lon="6.01525">
        <ele>524.9</ele>
        <time>2022-05-15T13:30:47Z</time>
      </trkpt>
      <trkpt lat="47.00698" lon="6.01532">
        <ele>524.2</ele>
        <time>2022-05-15T13:30:52Z</time>
      </trkpt>
      <trkpt lat="47.00698" lon="6.01539">
        <ele>524.2</ele>
        <time>2022-05-15T13:30:58Z</time>
      </trkpt>
      <trkpt lat="47.00696" lon="6.01547">
        <ele>524.5</ele>
        <time>2022-05-15T13:31:03Z</time>
      </trkpt>
      <trkpt lat="47.00694" lon="6.01554">
        <ele>524.7</ele>
        <time>2022-05-15T13:31:07Z</time>
      </trkpt>
      <trkpt lat="47.00693" lon="6.01561">
        <ele>524.8</ele>
        <time>2022-05-15T13:31:11Z</time>
      </trkpt>
      <trkpt lat="47.00693" lon="6.01568">
        <ele>524.8</ele>
        <time>2022-05-15T13:31:15Z</time>
      </trkpt>
      <trkpt lat="47.00691" lon="6.01574">
        <ele>524.5</ele>
        <time>2022-05-15T13:31:24Z</time>
      </trkpt>
      <trkpt lat="47.00688" lon="6.0158">
        <ele>524.9</ele>
        <time>2022-05-15T13:31:30Z</time>
      </trkpt>
      <trkpt lat="47.00685" lon="6.01587">
        <ele>525.7</ele>
        <time>2022-05-15T13:31:35Z</time>
      </trkpt>
      <trkpt lat="47.00685" lon="6.01594">
        <ele>526.2</ele>
        <time>2022-05-15T13:31:45Z</time>
      </trkpt>
      <trkpt lat="47.00687" lon="6.01601">
        <ele>526.8</ele>
        <time>2022-05-15T13:31:52Z</time>
      </trkpt>
      <trkpt lat="47.00682" lon="6.01604">
        <ele>527.8</ele>
        <time>2022-05-15T13:31:59Z</time>
      </trkpt>
      <trkpt lat="47.0068" lon="6.0161">
        <ele>527.7</ele>
        <time>2022-05-15T13:32:04Z</time>
      </trkpt>
      <trkpt lat="47.00681" lon="6.01617">
        <ele>526.6</ele>
        <time>2022-05-15T13:32:11Z</time>
      </trkpt>
      <trkpt lat="47.00682" lon="6.01624">
        <ele>524.5</ele>
        <time>2022-05-15T13:32:19Z</time>
      </trkpt>
      <trkpt lat="47.0068" lon="6.01631">
        <ele>523</ele>
        <time>2022-05-15T13:32:24Z</time>
      </trkpt>
      <trkpt lat="47.00682" lon="6.01638">
        <ele>521.3</ele>
        <time>2022-05-15T13:32:32Z</time>
      </trkpt>
      <trkpt lat="47.0068" lon="6.01645">
        <ele>521.6</ele>
        <time>2022-05-15T13:32:36Z</time>
      </trkpt>
      <trkpt lat="47.00677" lon="6.01651">
        <ele>522.1</ele>
        <time>2022-05-15T13:32:39Z</time>
      </trkpt>
      <trkpt lat="47.00678" lon="6.01657">
        <ele>522.2</ele>
        <time>2022-05-15T13:32:49Z</time>
      </trkpt>
      <trkpt lat="47.00675" lon="6.01663">
        <ele>521.3</ele>
        <time>2022-05-15T13:32:59Z</time>
      </trkpt>
      <trkpt lat="47.00672" lon="6.0167">
        <ele>521.4</ele>
        <time>2022-05-15T13:33:04Z</time>
      </trkpt>
      <trkpt lat="47.0067" lon="6.01676">
        <ele>521.4</ele>
        <time>2022-05-15T13:33:08Z</time>
      </trkpt>
      <trkpt lat="47.00669" lon="6.01684">
        <ele>521.5</ele>
        <time>2022-05-15T13:33:13Z</time>
      </trkpt>
      <trkpt lat="47.00669" lon="6.0169">
        <ele>521.4</ele>
        <time>2022-05-15T13:33:18Z</time>
      </trkpt>
      <trkpt lat="47.00669" lon="6.01698">
        <ele>521.1</ele>
        <time>2022-05-15T13:33:25Z</time>
      </trkpt>
      <trkpt lat="47.00667" lon="6.01704">
        <ele>520.8</ele>
        <time>2022-05-15T13:33:31Z</time>
      </trkpt>
      <trkpt lat="47.00665" lon="6.0171">
        <ele>520.8</ele>
        <time>2022-05-15T13:33:38Z</time>
      </trkpt>
      <trkpt lat="47.00664" lon="6.01719">
        <ele>520.9</ele>
        <time>2022-05-15T13:33:43Z</time>
      </trkpt>
      <trkpt lat="47.00662" lon="6.01725">
        <ele>521.1</ele>
        <time>2022-05-15T13:33:46Z</time>
      </trkpt>
      <trkpt lat="47.0066" lon="6.01731">
        <ele>521.2</ele>
        <time>2022-05-15T13:33:49Z</time>
      </trkpt>
      <trkpt lat="47.00659" lon="6.01738">
        <ele>521.3</ele>
        <time>2022-05-15T13:33:52Z</time>
      </trkpt>
      <trkpt lat="47.00657" lon="6.01745">
        <ele>521.6</ele>
        <time>2022-05-15T13:33:56Z</time>
      </trkpt>
      <trkpt lat="47.00657" lon="6.01753">
        <ele>522.2</ele>
        <time>2022-05-15T13:34:03Z</time>
      </trkpt>
      <trkpt lat="47.00656" lon="6.0176">
        <ele>522.6</ele>
        <time>2022-05-15T13:34:09Z</time>
      </trkpt>
      <trkpt lat="47.00655" lon="6.01767">
        <ele>522.9</ele>
        <time>2022-05-15T13:34:16Z</time>
      </trkpt>
      <trkpt lat="47.00655" lon="6.01775">
        <ele>522.5</ele>
        <time>2022-05-15T13:34:23Z</time>
      </trkpt>
      <trkpt lat="47.00656" lon="6.01782">
        <ele>521.6</ele>
        <time>2022-05-15T13:34:28Z</time>
      </trkpt>
      <trkpt lat="47.00655" lon="6.01789">
        <ele>520.6</ele>
        <time>2022-05-15T13:34:34Z</time>
      </trkpt>
      <trkpt lat="47.00652" lon="6.01794">
        <ele>520.3</ele>
        <time>2022-05-15T13:34:37Z</time>
      </trkpt>
      <trkpt lat="47.00649" lon="6.018">
        <ele>520</ele>
        <time>2022-05-15T13:34:40Z</time>
      </trkpt>
      <trkpt lat="47.00646" lon="6.01805">
        <ele>519.5</ele>
        <time>2022-05-15T13:34:47Z</time>
      </trkpt>
      <trkpt lat="47.00643" lon="6.01813">
        <ele>519.3</ele>
        <time>2022-05-15T13:34:52Z</time>
      </trkpt>
      <trkpt lat="47.00641" lon="6.01819">
        <ele>519.3</ele>
        <time>2022-05-15T13:34:55Z</time>
      </trkpt>
      <trkpt lat="47.00641" lon="6.01826">
        <ele>519.7</ele>
        <time>2022-05-15T13:34:59Z</time>
      </trkpt>
      <trkpt lat="47.0064" lon="6.01833">
        <ele>520.2</ele>
        <time>2022-05-15T13:35:03Z</time>
      </trkpt>
      <trkpt lat="47.00639" lon="6.0184">
        <ele>520.5</ele>
        <time>2022-05-15T13:35:07Z</time>
      </trkpt>
      <trkpt lat="47.00638" lon="6.0185">
        <ele>520.2</ele>
        <time>2022-05-15T13:35:19Z</time>
      </trkpt>
      <trkpt lat="47.00638" lon="6.01858">
        <ele>520.2</ele>
        <time>2022-05-15T13:35:23Z</time>
      </trkpt>
      <trkpt lat="47.00636" lon="6.01865">
        <ele>520.2</ele>
        <time>2022-05-15T13:35:27Z</time>
      </trkpt>
      <trkpt lat="47.00635" lon="6.01871">
        <ele>520.2</ele>
        <time>2022-05-15T13:35:30Z</time>
      </trkpt>
      <trkpt lat="47.00635" lon="6.01878">
        <ele>520.2</ele>
        <time>2022-05-15T13:35:34Z</time>
      </trkpt>
      <trkpt lat="47.00636" lon="6.01885">
        <ele>519.6</ele>
        <time>2022-05-15T13:35:38Z</time>
      </trkpt>
      <trkpt lat="47.00637" lon="6.01891">
        <ele>519.1</ele>
        <time>2022-05-15T13:35:42Z</time>
      </trkpt>
      <trkpt lat="47.00637" lon="6.01898">
        <ele>519.1</ele>
        <time>2022-05-15T13:35:46Z</time>
      </trkpt>
      <trkpt lat="47.00639" lon="6.01905">
        <ele>519.7</ele>
        <time>2022-05-15T13:35:50Z</time>
      </trkpt>
      <trkpt lat="47.00638" lon="6.01912">
        <ele>520.6</ele>
        <time>2022-05-15T13:35:58Z</time>
      </trkpt>
      <trkpt lat="47.00635" lon="6.01918">
        <ele>521.2</ele>
        <time>2022-05-15T13:36:03Z</time>
      </trkpt>
      <trkpt lat="47.00634" lon="6.01925">
        <ele>521.5</ele>
        <time>2022-05-15T13:36:07Z</time>
      </trkpt>
      <trkpt lat="47.00634" lon="6.01933">
        <ele>522</ele>
        <time>2022-05-15T13:36:12Z</time>
      </trkpt>
      <trkpt lat="47.00634" lon="6.0194">
        <ele>522</ele>
        <time>2022-05-15T13:36:19Z</time>
      </trkpt>
      <trkpt lat="47.00635" lon="6.01947">
        <ele>522</ele>
        <time>2022-05-15T13:36:26Z</time>
      </trkpt>
      <trkpt lat="47.00634" lon="6.01954">
        <ele>521.9</ele>
        <time>2022-05-15T13:36:33Z</time>
      </trkpt>
      <trkpt lat="47.00632" lon="6.01961">
        <ele>521.9</ele>
        <time>2022-05-15T13:36:38Z</time>
      </trkpt>
      <trkpt lat="47.00637" lon="6.01963">
        <ele>525.1</ele>
        <time>2022-05-15T13:37:13Z</time>
      </trkpt>
      <trkpt lat="47.00633" lon="6.01957">
        <ele>524.5</ele>
        <time>2022-05-15T13:37:32Z</time>
      </trkpt>
      <trkpt lat="47.00629" lon="6.01954">
        <ele>525.3</ele>
        <time>2022-05-15T13:37:39Z</time>
      </trkpt>
      <trkpt lat="47.00633" lon="6.01951">
        <ele>525.4</ele>
        <time>2022-05-15T13:37:48Z</time>
      </trkpt>
      <trkpt lat="47.00638" lon="6.01957">
        <ele>525</ele>
        <time>2022-05-15T13:37:52Z</time>
      </trkpt>
      <trkpt lat="47.00641" lon="6.01963">
        <ele>524.5</ele>
        <time>2022-05-15T13:37:57Z</time>
      </trkpt>
      <trkpt lat="47.00641" lon="6.01971">
        <ele>524.3</ele>
        <time>2022-05-15T13:38:02Z</time>
      </trkpt>
      <trkpt lat="47.00645" lon="6.01974">
        <ele>524.7</ele>
        <time>2022-05-15T13:38:14Z</time>
      </trkpt>
      <trkpt lat="47.00651" lon="6.01975">
        <ele>525</ele>
        <time>2022-05-15T13:38:19Z</time>
      </trkpt>
      <trkpt lat="47.00656" lon="6.01973">
        <ele>524.1</ele>
        <time>2022-05-15T13:38:23Z</time>
      </trkpt>
      <trkpt lat="47.00661" lon="6.01976">
        <ele>522.6</ele>
        <time>2022-05-15T13:38:28Z</time>
      </trkpt>
      <trkpt lat="47.00666" lon="6.01979">
        <ele>521.7</ele>
        <time>2022-05-15T13:38:32Z</time>
      </trkpt>
      <trkpt lat="47.00671" lon="6.01981">
        <ele>521.3</ele>
        <time>2022-05-15T13:38:35Z</time>
      </trkpt>
      <trkpt lat="47.00677" lon="6.01982">
        <ele>520.7</ele>
        <time>2022-05-15T13:38:39Z</time>
      </trkpt>
      <trkpt lat="47.00683" lon="6.01983">
        <ele>519.9</ele>
        <time>2022-05-15T13:38:43Z</time>
      </trkpt>
      <trkpt lat="47.00688" lon="6.01985">
        <ele>518.7</ele>
        <time>2022-05-15T13:38:47Z</time>
      </trkpt>
      <trkpt lat="47.00692" lon="6.01987">
        <ele>516.8</ele>
        <time>2022-05-15T13:38:54Z</time>
      </trkpt>
      <trkpt lat="47.00697" lon="6.01989">
        <ele>517</ele>
        <time>2022-05-15T13:39:05Z</time>
      </trkpt>
      <trkpt lat="47.00702" lon="6.01993">
        <ele>517.5</ele>
        <time>2022-05-15T13:39:10Z</time>
      </trkpt>
      <trkpt lat="47.00706" lon="6.01998">
        <ele>517.9</ele>
        <time>2022-05-15T13:39:15Z</time>
      </trkpt>
      <trkpt lat="47.0071" lon="6.02">
        <ele>518.1</ele>
        <time>2022-05-15T13:39:19Z</time>
      </trkpt>
      <trkpt lat="47.00715" lon="6.02">
        <ele>517.8</ele>
        <time>2022-05-15T13:39:24Z</time>
      </trkpt>
      <trkpt lat="47.0072" lon="6.02">
        <ele>518</ele>
        <time>2022-05-15T13:39:29Z</time>
      </trkpt>
      <trkpt lat="47.00726" lon="6.02">
        <ele>518.1</ele>
        <time>2022-05-15T13:39:34Z</time>
      </trkpt>
      <trkpt lat="47.00731" lon="6.02002">
        <ele>517.8</ele>
        <time>2022-05-15T13:39:39Z</time>
      </trkpt>
      <trkpt lat="47.00735" lon="6.02003">
        <ele>517.4</ele>
        <time>2022-05-15T13:39:44Z</time>
      </trkpt>
      <trkpt lat="47.00741" lon="6.02005">
        <ele>517.1</ele>
        <time>2022-05-15T13:39:49Z</time>
      </trkpt>
      <trkpt lat="47.00745" lon="6.0201">
        <ele>517</ele>
        <time>2022-05-15T13:39:54Z</time>
      </trkpt>
      <trkpt lat="47.00747" lon="6.02017">
        <ele>517.3</ele>
        <time>2022-05-15T13:39:59Z</time>
      </trkpt>
      <trkpt lat="47.0075" lon="6.02022">
        <ele>518.5</ele>
        <time>2022-05-15T13:40:04Z</time>
      </trkpt>
      <trkpt lat="47.00754" lon="6.02026">
        <ele>519.2</ele>
        <time>2022-05-15T13:40:08Z</time>
      </trkpt>
      <trkpt lat="47.00756" lon="6.02033">
        <ele>519.3</ele>
        <time>2022-05-15T13:40:13Z</time>
      </trkpt>
      <trkpt lat="47.00759" lon="6.02038">
        <ele>518.9</ele>
        <time>2022-05-15T13:40:19Z</time>
      </trkpt>
      <trkpt lat="47.00763" lon="6.02042">
        <ele>518.4</ele>
        <time>2022-05-15T13:40:23Z</time>
      </trkpt>
      <trkpt lat="47.00767" lon="6.02046">
        <ele>517.6</ele>
        <time>2022-05-15T13:40:27Z</time>
      </trkpt>
      <trkpt lat="47.00771" lon="6.02049">
        <ele>516.6</ele>
        <time>2022-05-15T13:40:31Z</time>
      </trkpt>
      <trkpt lat="47.00775" lon="6.02052">
        <ele>515.6</ele>
        <time>2022-05-15T13:40:35Z</time>
      </trkpt>
      <trkpt lat="47.0078" lon="6.02055">
        <ele>514.6</ele>
        <time>2022-05-15T13:40:40Z</time>
      </trkpt>
      <trkpt lat="47.00786" lon="6.02059">
        <ele>514.1</ele>
        <time>2022-05-15T13:40:44Z</time>
      </trkpt>
      <trkpt lat="47.00789" lon="6.02064">
        <ele>513.7</ele>
        <time>2022-05-15T13:40:49Z</time>
      </trkpt>
      <trkpt lat="47.00793" lon="6.02067">
        <ele>513.4</ele>
        <time>2022-05-15T13:40:54Z</time>
      </trkpt>
      <trkpt lat="47.00797" lon="6.02071">
        <ele>513.3</ele>
        <time>2022-05-15T13:40:58Z</time>
      </trkpt>
      <trkpt lat="47.008" lon="6.02077">
        <ele>513.6</ele>
        <time>2022-05-15T13:41:02Z</time>
      </trkpt>
      <trkpt lat="47.00802" lon="6.02083">
        <ele>514.2</ele>
        <time>2022-05-15T13:41:08Z</time>
      </trkpt>
      <trkpt lat="47.00802" lon="6.02091">
        <ele>514.9</ele>
        <time>2022-05-15T13:41:13Z</time>
      </trkpt>
      <trkpt lat="47.00804" lon="6.02099">
        <ele>515</ele>
        <time>2022-05-15T13:41:18Z</time>
      </trkpt>
      <trkpt lat="47.00806" lon="6.02106">
        <ele>515.5</ele>
        <time>2022-05-15T13:41:23Z</time>
      </trkpt>
      <trkpt lat="47.00806" lon="6.02114">
        <ele>516.3</ele>
        <time>2022-05-15T13:41:29Z</time>
      </trkpt>
      <trkpt lat="47.00807" lon="6.02121">
        <ele>516.6</ele>
        <time>2022-05-15T13:41:37Z</time>
      </trkpt>
      <trkpt lat="47.0081" lon="6.02127">
        <ele>515.5</ele>
        <time>2022-05-15T13:41:43Z</time>
      </trkpt>
      <trkpt lat="47.00813" lon="6.02133">
        <ele>514.7</ele>
        <time>2022-05-15T13:41:48Z</time>
      </trkpt>
      <trkpt lat="47.00815" lon="6.02139">
        <ele>514.2</ele>
        <time>2022-05-15T13:42:54Z</time>
      </trkpt>
      <trkpt lat="47.00816" lon="6.02147">
        <ele>512.7</ele>
        <time>2022-05-15T13:42:58Z</time>
      </trkpt>
      <trkpt lat="47.00817" lon="6.02155">
        <ele>511.6</ele>
        <time>2022-05-15T13:43:03Z</time>
      </trkpt>
      <trkpt lat="47.00821" lon="6.0216">
        <ele>511.5</ele>
        <time>2022-05-15T13:43:07Z</time>
      </trkpt>
      <trkpt lat="47.00822" lon="6.02167">
        <ele>511.7</ele>
        <time>2022-05-15T13:43:12Z</time>
      </trkpt>
      <trkpt lat="47.00825" lon="6.02174">
        <ele>511.7</ele>
        <time>2022-05-15T13:43:17Z</time>
      </trkpt>
      <trkpt lat="47.00828" lon="6.0218">
        <ele>511.8</ele>
        <time>2022-05-15T13:43:22Z</time>
      </trkpt>
      <trkpt lat="47.00831" lon="6.02186">
        <ele>512.2</ele>
        <time>2022-05-15T13:43:26Z</time>
      </trkpt>
      <trkpt lat="47.00835" lon="6.02192">
        <ele>512.4</ele>
        <time>2022-05-15T13:43:30Z</time>
      </trkpt>
      <trkpt lat="47.00839" lon="6.02197">
        <ele>512.4</ele>
        <time>2022-05-15T13:43:34Z</time>
      </trkpt>
      <trkpt lat="47.00845" lon="6.02199">
        <ele>512.8</ele>
        <time>2022-05-15T13:43:39Z</time>
      </trkpt>
      <trkpt lat="47.0085" lon="6.02201">
        <ele>513.2</ele>
        <time>2022-05-15T13:43:43Z</time>
      </trkpt>
      <trkpt lat="47.00855" lon="6.02201">
        <ele>513.7</ele>
        <time>2022-05-15T13:43:46Z</time>
      </trkpt>
      <trkpt lat="47.0086" lon="6.02201">
        <ele>514</ele>
        <time>2022-05-15T13:43:51Z</time>
      </trkpt>
      <trkpt lat="47.00865" lon="6.02199">
        <ele>513.3</ele>
        <time>2022-05-15T13:43:57Z</time>
      </trkpt>
      <trkpt lat="47.00869" lon="6.02195">
        <ele>512.6</ele>
        <time>2022-05-15T13:44:02Z</time>
      </trkpt>
      <trkpt lat="47.00873" lon="6.02192">
        <ele>512.1</ele>
        <time>2022-05-15T13:44:07Z</time>
      </trkpt>
      <trkpt lat="47.00878" lon="6.02188">
        <ele>511.6</ele>
        <time>2022-05-15T13:44:12Z</time>
      </trkpt>
      <trkpt lat="47.00882" lon="6.02185">
        <ele>511.2</ele>
        <time>2022-05-15T13:44:16Z</time>
      </trkpt>
      <trkpt lat="47.00886" lon="6.02181">
        <ele>510.9</ele>
        <time>2022-05-15T13:44:21Z</time>
      </trkpt>
      <trkpt lat="47.0089" lon="6.02171">
        <ele>512.4</ele>
        <time>2022-05-15T13:45:15Z</time>
      </trkpt>
      <trkpt lat="47.00893" lon="6.02165">
        <ele>512.9</ele>
        <time>2022-05-15T13:45:18Z</time>
      </trkpt>
    </trkseg>
  </trk>
</gpx>